<?xml version="1.0" encoding="UTF-8" standalone="no" ?>
<gpx xmlns="http://www.topografix.com/GPX/1/1" xmlns:xsi="http://www.w3.org/2001/XMLSchema-instance" xsi:schemaLocation="http://www.topografix.com/GPX/1/1 http://www.topografix.com/GPX/1/1/gpx.xsd" version="1.1" creator="VisuGPX - https://www.visugpx.com">
  <metadata>
    <name>Casse Massion, en huit par le Gros Mélèze</name>
    <desc><![CDATA[http://www.vttour.fr/sorties/casse-massion,2618.html#sortie]]></desc>
  </metadata>
  <trk>
    <name><![CDATA[AUG-01-09 17:59:25]]></name>
    <trkseg>
      <trkpt lat="45.24706" lon="6.40133">
        <ele>685.08</ele>
        <time>2009-08-01T07:21:31Z</time>
      </trkpt>
      <trkpt lat="45.24701" lon="6.40127">
        <ele>688.44</ele>
        <time>2009-08-01T07:22:30Z</time>
      </trkpt>
      <trkpt lat="45.24701" lon="6.40127">
        <ele>685.08</ele>
        <time>2009-08-01T07:22:32Z</time>
      </trkpt>
      <trkpt lat="45.24701" lon="6.40127">
        <ele>685.08</ele>
        <time>2009-08-01T07:22:33Z</time>
      </trkpt>
      <trkpt lat="45.24699" lon="6.40123">
        <ele>686.52</ele>
        <time>2009-08-01T07:30:47Z</time>
      </trkpt>
      <trkpt lat="45.24706" lon="6.40128">
        <ele>687</ele>
        <time>2009-08-01T07:30:52Z</time>
      </trkpt>
      <trkpt lat="45.2471" lon="6.40128">
        <ele>686.52</ele>
        <time>2009-08-01T07:30:53Z</time>
      </trkpt>
      <trkpt lat="45.24708" lon="6.40127">
        <ele>686.52</ele>
        <time>2009-08-01T07:30:54Z</time>
      </trkpt>
      <trkpt lat="45.24706" lon="6.40125">
        <ele>686.52</ele>
        <time>2009-08-01T07:30:55Z</time>
      </trkpt>
      <trkpt lat="45.24702" lon="6.40119">
        <ele>687</ele>
        <time>2009-08-01T07:30:56Z</time>
      </trkpt>
      <trkpt lat="45.24696" lon="6.40117">
        <ele>687</ele>
        <time>2009-08-01T07:30:57Z</time>
      </trkpt>
      <trkpt lat="45.24692" lon="6.40118">
        <ele>687</ele>
        <time>2009-08-01T07:30:58Z</time>
      </trkpt>
      <trkpt lat="45.24689" lon="6.4012">
        <ele>687.48</ele>
        <time>2009-08-01T07:30:59Z</time>
      </trkpt>
      <trkpt lat="45.24686" lon="6.40121">
        <ele>687.48</ele>
        <time>2009-08-01T07:31:00Z</time>
      </trkpt>
      <trkpt lat="45.24682" lon="6.40124">
        <ele>687.96</ele>
        <time>2009-08-01T07:31:01Z</time>
      </trkpt>
      <trkpt lat="45.24679" lon="6.40128">
        <ele>688.44</ele>
        <time>2009-08-01T07:31:02Z</time>
      </trkpt>
      <trkpt lat="45.24663" lon="6.40141">
        <ele>690.36</ele>
        <time>2009-08-01T07:31:11Z</time>
      </trkpt>
      <trkpt lat="45.2466" lon="6.40146">
        <ele>691.33</ele>
        <time>2009-08-01T07:31:12Z</time>
      </trkpt>
      <trkpt lat="45.24659" lon="6.4015">
        <ele>690.84</ele>
        <time>2009-08-01T07:31:13Z</time>
      </trkpt>
      <trkpt lat="45.24658" lon="6.40152">
        <ele>691.33</ele>
        <time>2009-08-01T07:31:14Z</time>
      </trkpt>
      <trkpt lat="45.24657" lon="6.40157">
        <ele>691.33</ele>
        <time>2009-08-01T07:31:15Z</time>
      </trkpt>
      <trkpt lat="45.24656" lon="6.40159">
        <ele>691.33</ele>
        <time>2009-08-01T07:31:16Z</time>
      </trkpt>
      <trkpt lat="45.24654" lon="6.40161">
        <ele>691.33</ele>
        <time>2009-08-01T07:31:17Z</time>
      </trkpt>
      <trkpt lat="45.2464" lon="6.40178">
        <ele>693.73</ele>
        <time>2009-08-01T07:31:24Z</time>
      </trkpt>
      <trkpt lat="45.24636" lon="6.40179">
        <ele>693.73</ele>
        <time>2009-08-01T07:31:25Z</time>
      </trkpt>
      <trkpt lat="45.24616" lon="6.40184">
        <ele>695.17</ele>
        <time>2009-08-01T07:31:33Z</time>
      </trkpt>
      <trkpt lat="45.24595" lon="6.40189">
        <ele>697.09</ele>
        <time>2009-08-01T07:31:43Z</time>
      </trkpt>
      <trkpt lat="45.24583" lon="6.40193">
        <ele>698.53</ele>
        <time>2009-08-01T07:31:48Z</time>
      </trkpt>
      <trkpt lat="45.24579" lon="6.40194">
        <ele>699.5</ele>
        <time>2009-08-01T07:31:49Z</time>
      </trkpt>
      <trkpt lat="45.2458" lon="6.40194">
        <ele>699.02</ele>
        <time>2009-08-01T07:31:50Z</time>
      </trkpt>
      <trkpt lat="45.24577" lon="6.40194">
        <ele>698.53</ele>
        <time>2009-08-01T07:31:51Z</time>
      </trkpt>
      <trkpt lat="45.24576" lon="6.40195">
        <ele>698.05</ele>
        <time>2009-08-01T07:31:52Z</time>
      </trkpt>
      <trkpt lat="45.24571" lon="6.40197">
        <ele>699.02</ele>
        <time>2009-08-01T07:31:53Z</time>
      </trkpt>
      <trkpt lat="45.24569" lon="6.40198">
        <ele>699.5</ele>
        <time>2009-08-01T07:31:54Z</time>
      </trkpt>
      <trkpt lat="45.24567" lon="6.40197">
        <ele>699.98</ele>
        <time>2009-08-01T07:31:55Z</time>
      </trkpt>
      <trkpt lat="45.24555" lon="6.402">
        <ele>700.46</ele>
        <time>2009-08-01T07:31:59Z</time>
      </trkpt>
      <trkpt lat="45.24532" lon="6.40197">
        <ele>702.86</ele>
        <time>2009-08-01T07:32:09Z</time>
      </trkpt>
      <trkpt lat="45.24516" lon="6.4021">
        <ele>704.78</ele>
        <time>2009-08-01T07:32:16Z</time>
      </trkpt>
      <trkpt lat="45.24514" lon="6.40214">
        <ele>704.78</ele>
        <time>2009-08-01T07:32:36Z</time>
      </trkpt>
      <trkpt lat="45.24514" lon="6.40214">
        <ele>704.78</ele>
        <time>2009-08-01T07:33:50Z</time>
      </trkpt>
      <trkpt lat="45.24512" lon="6.40216">
        <ele>704.78</ele>
        <time>2009-08-01T07:33:51Z</time>
      </trkpt>
      <trkpt lat="45.2451" lon="6.40218">
        <ele>704.78</ele>
        <time>2009-08-01T07:33:52Z</time>
      </trkpt>
      <trkpt lat="45.24509" lon="6.40217">
        <ele>705.26</ele>
        <time>2009-08-01T07:33:53Z</time>
      </trkpt>
      <trkpt lat="45.24507" lon="6.40215">
        <ele>705.26</ele>
        <time>2009-08-01T07:33:55Z</time>
      </trkpt>
      <trkpt lat="45.24504" lon="6.40212">
        <ele>705.75</ele>
        <time>2009-08-01T07:33:56Z</time>
      </trkpt>
      <trkpt lat="45.24504" lon="6.40212">
        <ele>705.75</ele>
        <time>2009-08-01T07:33:57Z</time>
      </trkpt>
      <trkpt lat="45.24502" lon="6.40213">
        <ele>706.23</ele>
        <time>2009-08-01T07:33:58Z</time>
      </trkpt>
      <trkpt lat="45.24503" lon="6.40215">
        <ele>706.23</ele>
        <time>2009-08-01T07:33:59Z</time>
      </trkpt>
      <trkpt lat="45.245" lon="6.40216">
        <ele>706.71</ele>
        <time>2009-08-01T07:34:00Z</time>
      </trkpt>
      <trkpt lat="45.24499" lon="6.40218">
        <ele>706.71</ele>
        <time>2009-08-01T07:34:01Z</time>
      </trkpt>
      <trkpt lat="45.24497" lon="6.40222">
        <ele>707.19</ele>
        <time>2009-08-01T07:34:02Z</time>
      </trkpt>
      <trkpt lat="45.24498" lon="6.40225">
        <ele>707.19</ele>
        <time>2009-08-01T07:34:03Z</time>
      </trkpt>
      <trkpt lat="45.24498" lon="6.40226">
        <ele>707.67</ele>
        <time>2009-08-01T07:34:04Z</time>
      </trkpt>
      <trkpt lat="45.24495" lon="6.40228">
        <ele>707.67</ele>
        <time>2009-08-01T07:34:05Z</time>
      </trkpt>
      <trkpt lat="45.24494" lon="6.40231">
        <ele>707.67</ele>
        <time>2009-08-01T07:34:06Z</time>
      </trkpt>
      <trkpt lat="45.24495" lon="6.40234">
        <ele>708.63</ele>
        <time>2009-08-01T07:34:07Z</time>
      </trkpt>
      <trkpt lat="45.24488" lon="6.40254">
        <ele>709.11</ele>
        <time>2009-08-01T07:34:13Z</time>
      </trkpt>
      <trkpt lat="45.2449" lon="6.40259">
        <ele>709.59</ele>
        <time>2009-08-01T07:34:14Z</time>
      </trkpt>
      <trkpt lat="45.2449" lon="6.40263">
        <ele>709.59</ele>
        <time>2009-08-01T07:34:15Z</time>
      </trkpt>
      <trkpt lat="45.24487" lon="6.40265">
        <ele>709.59</ele>
        <time>2009-08-01T07:34:16Z</time>
      </trkpt>
      <trkpt lat="45.24484" lon="6.40269">
        <ele>710.55</ele>
        <time>2009-08-01T07:34:17Z</time>
      </trkpt>
      <trkpt lat="45.24482" lon="6.40273">
        <ele>710.55</ele>
        <time>2009-08-01T07:34:18Z</time>
      </trkpt>
      <trkpt lat="45.24479" lon="6.40276">
        <ele>711.03</ele>
        <time>2009-08-01T07:34:19Z</time>
      </trkpt>
      <trkpt lat="45.24479" lon="6.40278">
        <ele>711.51</ele>
        <time>2009-08-01T07:34:20Z</time>
      </trkpt>
      <trkpt lat="45.24479" lon="6.40282">
        <ele>711.03</ele>
        <time>2009-08-01T07:34:21Z</time>
      </trkpt>
      <trkpt lat="45.24459" lon="6.40322">
        <ele>714.4</ele>
        <time>2009-08-01T07:34:32Z</time>
      </trkpt>
      <trkpt lat="45.24453" lon="6.40352">
        <ele>716.32</ele>
        <time>2009-08-01T07:34:41Z</time>
      </trkpt>
      <trkpt lat="45.24448" lon="6.40379">
        <ele>717.76</ele>
        <time>2009-08-01T07:34:48Z</time>
      </trkpt>
      <trkpt lat="45.24435" lon="6.40424">
        <ele>720.65</ele>
        <time>2009-08-01T07:35:00Z</time>
      </trkpt>
      <trkpt lat="45.24436" lon="6.40464">
        <ele>723.05</ele>
        <time>2009-08-01T07:35:10Z</time>
      </trkpt>
      <trkpt lat="45.24435" lon="6.40466">
        <ele>723.53</ele>
        <time>2009-08-01T07:35:11Z</time>
      </trkpt>
      <trkpt lat="45.24436" lon="6.40471">
        <ele>723.53</ele>
        <time>2009-08-01T07:35:12Z</time>
      </trkpt>
      <trkpt lat="45.24434" lon="6.40474">
        <ele>724.01</ele>
        <time>2009-08-01T07:35:13Z</time>
      </trkpt>
      <trkpt lat="45.24434" lon="6.40478">
        <ele>724.01</ele>
        <time>2009-08-01T07:35:14Z</time>
      </trkpt>
      <trkpt lat="45.24434" lon="6.40482">
        <ele>724.49</ele>
        <time>2009-08-01T07:35:15Z</time>
      </trkpt>
      <trkpt lat="45.24433" lon="6.40487">
        <ele>724.49</ele>
        <time>2009-08-01T07:35:16Z</time>
      </trkpt>
      <trkpt lat="45.24434" lon="6.40492">
        <ele>724.97</ele>
        <time>2009-08-01T07:35:17Z</time>
      </trkpt>
      <trkpt lat="45.24438" lon="6.40497">
        <ele>725.45</ele>
        <time>2009-08-01T07:35:18Z</time>
      </trkpt>
      <trkpt lat="45.24438" lon="6.40502">
        <ele>725.45</ele>
        <time>2009-08-01T07:35:19Z</time>
      </trkpt>
      <trkpt lat="45.24436" lon="6.40506">
        <ele>725.93</ele>
        <time>2009-08-01T07:35:20Z</time>
      </trkpt>
      <trkpt lat="45.24435" lon="6.40537">
        <ele>727.37</ele>
        <time>2009-08-01T07:35:28Z</time>
      </trkpt>
      <trkpt lat="45.24435" lon="6.40539">
        <ele>727.37</ele>
        <time>2009-08-01T07:35:29Z</time>
      </trkpt>
      <trkpt lat="45.24432" lon="6.40542">
        <ele>727.86</ele>
        <time>2009-08-01T07:35:30Z</time>
      </trkpt>
      <trkpt lat="45.24434" lon="6.40569">
        <ele>729.78</ele>
        <time>2009-08-01T07:35:37Z</time>
      </trkpt>
      <trkpt lat="45.24433" lon="6.40573">
        <ele>729.78</ele>
        <time>2009-08-01T07:35:38Z</time>
      </trkpt>
      <trkpt lat="45.24433" lon="6.40577">
        <ele>730.26</ele>
        <time>2009-08-01T07:35:39Z</time>
      </trkpt>
      <trkpt lat="45.24434" lon="6.40582">
        <ele>730.26</ele>
        <time>2009-08-01T07:35:40Z</time>
      </trkpt>
      <trkpt lat="45.24433" lon="6.40586">
        <ele>730.74</ele>
        <time>2009-08-01T07:35:41Z</time>
      </trkpt>
      <trkpt lat="45.24433" lon="6.40589">
        <ele>730.74</ele>
        <time>2009-08-01T07:35:42Z</time>
      </trkpt>
      <trkpt lat="45.24431" lon="6.40593">
        <ele>731.22</ele>
        <time>2009-08-01T07:35:43Z</time>
      </trkpt>
      <trkpt lat="45.2443" lon="6.40596">
        <ele>731.22</ele>
        <time>2009-08-01T07:35:44Z</time>
      </trkpt>
      <trkpt lat="45.24429" lon="6.40599">
        <ele>731.7</ele>
        <time>2009-08-01T07:35:45Z</time>
      </trkpt>
      <trkpt lat="45.24428" lon="6.40604">
        <ele>731.7</ele>
        <time>2009-08-01T07:35:46Z</time>
      </trkpt>
      <trkpt lat="45.24427" lon="6.40608">
        <ele>731.7</ele>
        <time>2009-08-01T07:35:47Z</time>
      </trkpt>
      <trkpt lat="45.24427" lon="6.40612">
        <ele>732.18</ele>
        <time>2009-08-01T07:35:48Z</time>
      </trkpt>
      <trkpt lat="45.24427" lon="6.40616">
        <ele>732.18</ele>
        <time>2009-08-01T07:35:49Z</time>
      </trkpt>
      <trkpt lat="45.24426" lon="6.40619">
        <ele>732.66</ele>
        <time>2009-08-01T07:35:50Z</time>
      </trkpt>
      <trkpt lat="45.24424" lon="6.40621">
        <ele>732.66</ele>
        <time>2009-08-01T07:35:51Z</time>
      </trkpt>
      <trkpt lat="45.24421" lon="6.40623">
        <ele>733.14</ele>
        <time>2009-08-01T07:35:52Z</time>
      </trkpt>
      <trkpt lat="45.24417" lon="6.40626">
        <ele>733.62</ele>
        <time>2009-08-01T07:35:53Z</time>
      </trkpt>
      <trkpt lat="45.24413" lon="6.40631">
        <ele>733.62</ele>
        <time>2009-08-01T07:35:54Z</time>
      </trkpt>
      <trkpt lat="45.24403" lon="6.40675">
        <ele>736.51</ele>
        <time>2009-08-01T07:36:06Z</time>
      </trkpt>
      <trkpt lat="45.24404" lon="6.40684">
        <ele>736.99</ele>
        <time>2009-08-01T07:36:08Z</time>
      </trkpt>
      <trkpt lat="45.24404" lon="6.40687">
        <ele>737.47</ele>
        <time>2009-08-01T07:36:09Z</time>
      </trkpt>
      <trkpt lat="45.24404" lon="6.40691">
        <ele>737.47</ele>
        <time>2009-08-01T07:36:10Z</time>
      </trkpt>
      <trkpt lat="45.24394" lon="6.40731">
        <ele>740.35</ele>
        <time>2009-08-01T07:36:20Z</time>
      </trkpt>
      <trkpt lat="45.24374" lon="6.40771">
        <ele>743.72</ele>
        <time>2009-08-01T07:36:32Z</time>
      </trkpt>
      <trkpt lat="45.24359" lon="6.40797">
        <ele>746.12</ele>
        <time>2009-08-01T07:36:41Z</time>
      </trkpt>
      <trkpt lat="45.24355" lon="6.40823">
        <ele>747.08</ele>
        <time>2009-08-01T07:36:47Z</time>
      </trkpt>
      <trkpt lat="45.24352" lon="6.40824">
        <ele>747.56</ele>
        <time>2009-08-01T07:36:48Z</time>
      </trkpt>
      <trkpt lat="45.2435" lon="6.40825">
        <ele>747.56</ele>
        <time>2009-08-01T07:36:49Z</time>
      </trkpt>
      <trkpt lat="45.24348" lon="6.40825">
        <ele>748.04</ele>
        <time>2009-08-01T07:36:50Z</time>
      </trkpt>
      <trkpt lat="45.24349" lon="6.40824">
        <ele>748.52</ele>
        <time>2009-08-01T07:36:51Z</time>
      </trkpt>
      <trkpt lat="45.24347" lon="6.40822">
        <ele>749</ele>
        <time>2009-08-01T07:36:52Z</time>
      </trkpt>
      <trkpt lat="45.24344" lon="6.40819">
        <ele>749</ele>
        <time>2009-08-01T07:36:53Z</time>
      </trkpt>
      <trkpt lat="45.24342" lon="6.40816">
        <ele>749.49</ele>
        <time>2009-08-01T07:36:54Z</time>
      </trkpt>
      <trkpt lat="45.24345" lon="6.40813">
        <ele>749.49</ele>
        <time>2009-08-01T07:36:55Z</time>
      </trkpt>
      <trkpt lat="45.24347" lon="6.40807">
        <ele>749.49</ele>
        <time>2009-08-01T07:36:56Z</time>
      </trkpt>
      <trkpt lat="45.24348" lon="6.40804">
        <ele>749.97</ele>
        <time>2009-08-01T07:36:57Z</time>
      </trkpt>
      <trkpt lat="45.2435" lon="6.408">
        <ele>749.97</ele>
        <time>2009-08-01T07:36:58Z</time>
      </trkpt>
      <trkpt lat="45.24353" lon="6.40787">
        <ele>750.45</ele>
        <time>2009-08-01T07:37:01Z</time>
      </trkpt>
      <trkpt lat="45.24352" lon="6.40782">
        <ele>750.93</ele>
        <time>2009-08-01T07:37:02Z</time>
      </trkpt>
      <trkpt lat="45.24355" lon="6.40779">
        <ele>751.41</ele>
        <time>2009-08-01T07:37:03Z</time>
      </trkpt>
      <trkpt lat="45.24377" lon="6.40732">
        <ele>753.33</ele>
        <time>2009-08-01T07:37:16Z</time>
      </trkpt>
      <trkpt lat="45.24369" lon="6.40691">
        <ele>755.73</ele>
        <time>2009-08-01T07:37:25Z</time>
      </trkpt>
      <trkpt lat="45.2437" lon="6.40645">
        <ele>758.14</ele>
        <time>2009-08-01T07:37:36Z</time>
      </trkpt>
      <trkpt lat="45.24381" lon="6.40599">
        <ele>761.02</ele>
        <time>2009-08-01T07:37:47Z</time>
      </trkpt>
      <trkpt lat="45.24384" lon="6.40558">
        <ele>763.42</ele>
        <time>2009-08-01T07:37:55Z</time>
      </trkpt>
      <trkpt lat="45.24381" lon="6.40555">
        <ele>763.9</ele>
        <time>2009-08-01T07:37:56Z</time>
      </trkpt>
      <trkpt lat="45.24378" lon="6.40552">
        <ele>763.9</ele>
        <time>2009-08-01T07:37:57Z</time>
      </trkpt>
      <trkpt lat="45.24362" lon="6.40505">
        <ele>767.27</ele>
        <time>2009-08-01T07:38:09Z</time>
      </trkpt>
      <trkpt lat="45.24363" lon="6.40501">
        <ele>767.27</ele>
        <time>2009-08-01T07:38:10Z</time>
      </trkpt>
      <trkpt lat="45.24364" lon="6.40498">
        <ele>767.75</ele>
        <time>2009-08-01T07:38:11Z</time>
      </trkpt>
      <trkpt lat="45.24364" lon="6.40493">
        <ele>767.75</ele>
        <time>2009-08-01T07:38:12Z</time>
      </trkpt>
      <trkpt lat="45.24363" lon="6.40489">
        <ele>768.71</ele>
        <time>2009-08-01T07:38:13Z</time>
      </trkpt>
      <trkpt lat="45.24362" lon="6.40483">
        <ele>768.71</ele>
        <time>2009-08-01T07:38:14Z</time>
      </trkpt>
      <trkpt lat="45.24371" lon="6.40425">
        <ele>771.11</ele>
        <time>2009-08-01T07:38:27Z</time>
      </trkpt>
      <trkpt lat="45.24368" lon="6.40393">
        <ele>772.56</ele>
        <time>2009-08-01T07:38:34Z</time>
      </trkpt>
      <trkpt lat="45.24366" lon="6.40388">
        <ele>772.56</ele>
        <time>2009-08-01T07:38:35Z</time>
      </trkpt>
      <trkpt lat="45.24367" lon="6.40383">
        <ele>773.04</ele>
        <time>2009-08-01T07:38:36Z</time>
      </trkpt>
      <trkpt lat="45.24365" lon="6.40382">
        <ele>773.04</ele>
        <time>2009-08-01T07:38:37Z</time>
      </trkpt>
      <trkpt lat="45.24362" lon="6.40381">
        <ele>773.04</ele>
        <time>2009-08-01T07:38:38Z</time>
      </trkpt>
      <trkpt lat="45.24362" lon="6.40383">
        <ele>773.04</ele>
        <time>2009-08-01T07:38:39Z</time>
      </trkpt>
      <trkpt lat="45.2436" lon="6.40384">
        <ele>773.52</ele>
        <time>2009-08-01T07:38:40Z</time>
      </trkpt>
      <trkpt lat="45.24356" lon="6.40388">
        <ele>774</ele>
        <time>2009-08-01T07:38:41Z</time>
      </trkpt>
      <trkpt lat="45.24355" lon="6.40394">
        <ele>774.48</ele>
        <time>2009-08-01T07:38:42Z</time>
      </trkpt>
      <trkpt lat="45.24355" lon="6.40397">
        <ele>774.48</ele>
        <time>2009-08-01T07:38:43Z</time>
      </trkpt>
      <trkpt lat="45.24354" lon="6.40402">
        <ele>774.48</ele>
        <time>2009-08-01T07:38:44Z</time>
      </trkpt>
      <trkpt lat="45.24352" lon="6.40405">
        <ele>774.96</ele>
        <time>2009-08-01T07:38:45Z</time>
      </trkpt>
      <trkpt lat="45.24351" lon="6.40455">
        <ele>777.36</ele>
        <time>2009-08-01T07:38:57Z</time>
      </trkpt>
      <trkpt lat="45.24344" lon="6.40489">
        <ele>780.25</ele>
        <time>2009-08-01T07:39:07Z</time>
      </trkpt>
      <trkpt lat="45.24335" lon="6.40506">
        <ele>782.17</ele>
        <time>2009-08-01T07:39:12Z</time>
      </trkpt>
      <trkpt lat="45.2434" lon="6.40552">
        <ele>784.09</ele>
        <time>2009-08-01T07:39:23Z</time>
      </trkpt>
      <trkpt lat="45.24336" lon="6.40605">
        <ele>787.46</ele>
        <time>2009-08-01T07:39:35Z</time>
      </trkpt>
      <trkpt lat="45.2432" lon="6.40647">
        <ele>790.34</ele>
        <time>2009-08-01T07:39:47Z</time>
      </trkpt>
      <trkpt lat="45.24323" lon="6.40695">
        <ele>792.74</ele>
        <time>2009-08-01T07:39:58Z</time>
      </trkpt>
      <trkpt lat="45.24319" lon="6.4072">
        <ele>794.19</ele>
        <time>2009-08-01T07:40:05Z</time>
      </trkpt>
      <trkpt lat="45.24317" lon="6.40724">
        <ele>794.19</ele>
        <time>2009-08-01T07:40:06Z</time>
      </trkpt>
      <trkpt lat="45.24315" lon="6.40725">
        <ele>794.19</ele>
        <time>2009-08-01T07:40:07Z</time>
      </trkpt>
      <trkpt lat="45.24314" lon="6.40723">
        <ele>795.15</ele>
        <time>2009-08-01T07:40:08Z</time>
      </trkpt>
      <trkpt lat="45.24312" lon="6.40719">
        <ele>794.67</ele>
        <time>2009-08-01T07:40:09Z</time>
      </trkpt>
      <trkpt lat="45.2431" lon="6.40715">
        <ele>795.63</ele>
        <time>2009-08-01T07:40:10Z</time>
      </trkpt>
      <trkpt lat="45.2431" lon="6.40711">
        <ele>795.63</ele>
        <time>2009-08-01T07:40:11Z</time>
      </trkpt>
      <trkpt lat="45.2431" lon="6.40706">
        <ele>795.63</ele>
        <time>2009-08-01T07:40:12Z</time>
      </trkpt>
      <trkpt lat="45.24312" lon="6.40703">
        <ele>796.11</ele>
        <time>2009-08-01T07:40:13Z</time>
      </trkpt>
      <trkpt lat="45.24312" lon="6.40699">
        <ele>796.11</ele>
        <time>2009-08-01T07:40:14Z</time>
      </trkpt>
      <trkpt lat="45.24311" lon="6.40694">
        <ele>796.59</ele>
        <time>2009-08-01T07:40:15Z</time>
      </trkpt>
      <trkpt lat="45.2431" lon="6.4069">
        <ele>796.59</ele>
        <time>2009-08-01T07:40:16Z</time>
      </trkpt>
      <trkpt lat="45.24308" lon="6.40687">
        <ele>796.59</ele>
        <time>2009-08-01T07:40:17Z</time>
      </trkpt>
      <trkpt lat="45.24305" lon="6.40636">
        <ele>799.47</ele>
        <time>2009-08-01T07:40:29Z</time>
      </trkpt>
      <trkpt lat="45.24319" lon="6.40593">
        <ele>802.36</ele>
        <time>2009-08-01T07:40:40Z</time>
      </trkpt>
      <trkpt lat="45.24308" lon="6.40548">
        <ele>805.72</ele>
        <time>2009-08-01T07:40:52Z</time>
      </trkpt>
      <trkpt lat="45.24311" lon="6.40536">
        <ele>806.68</ele>
        <time>2009-08-01T07:40:55Z</time>
      </trkpt>
      <trkpt lat="45.24308" lon="6.40533">
        <ele>807.16</ele>
        <time>2009-08-01T07:40:56Z</time>
      </trkpt>
      <trkpt lat="45.24306" lon="6.40528">
        <ele>807.64</ele>
        <time>2009-08-01T07:40:57Z</time>
      </trkpt>
      <trkpt lat="45.24302" lon="6.40526">
        <ele>808.13</ele>
        <time>2009-08-01T07:40:58Z</time>
      </trkpt>
      <trkpt lat="45.243" lon="6.40524">
        <ele>808.13</ele>
        <time>2009-08-01T07:40:59Z</time>
      </trkpt>
      <trkpt lat="45.243" lon="6.4052">
        <ele>808.61</ele>
        <time>2009-08-01T07:41:00Z</time>
      </trkpt>
      <trkpt lat="45.243" lon="6.40516">
        <ele>809.09</ele>
        <time>2009-08-01T07:41:01Z</time>
      </trkpt>
      <trkpt lat="45.24298" lon="6.40512">
        <ele>809.09</ele>
        <time>2009-08-01T07:41:02Z</time>
      </trkpt>
      <trkpt lat="45.24296" lon="6.4051">
        <ele>809.09</ele>
        <time>2009-08-01T07:41:03Z</time>
      </trkpt>
      <trkpt lat="45.24296" lon="6.40506">
        <ele>809.57</ele>
        <time>2009-08-01T07:41:04Z</time>
      </trkpt>
      <trkpt lat="45.24297" lon="6.40501">
        <ele>810.05</ele>
        <time>2009-08-01T07:41:05Z</time>
      </trkpt>
      <trkpt lat="45.24298" lon="6.40495">
        <ele>810.53</ele>
        <time>2009-08-01T07:41:06Z</time>
      </trkpt>
      <trkpt lat="45.243" lon="6.40491">
        <ele>810.53</ele>
        <time>2009-08-01T07:41:07Z</time>
      </trkpt>
      <trkpt lat="45.24302" lon="6.40488">
        <ele>811.01</ele>
        <time>2009-08-01T07:41:08Z</time>
      </trkpt>
      <trkpt lat="45.24303" lon="6.40485">
        <ele>811.01</ele>
        <time>2009-08-01T07:41:09Z</time>
      </trkpt>
      <trkpt lat="45.24304" lon="6.40482">
        <ele>811.01</ele>
        <time>2009-08-01T07:41:10Z</time>
      </trkpt>
      <trkpt lat="45.24306" lon="6.40479">
        <ele>811.49</ele>
        <time>2009-08-01T07:41:11Z</time>
      </trkpt>
      <trkpt lat="45.24305" lon="6.40474">
        <ele>811.49</ele>
        <time>2009-08-01T07:41:12Z</time>
      </trkpt>
      <trkpt lat="45.24303" lon="6.40428">
        <ele>813.89</ele>
        <time>2009-08-01T07:41:23Z</time>
      </trkpt>
      <trkpt lat="45.24299" lon="6.40391">
        <ele>815.82</ele>
        <time>2009-08-01T07:41:31Z</time>
      </trkpt>
      <trkpt lat="45.24297" lon="6.40388">
        <ele>815.82</ele>
        <time>2009-08-01T07:41:32Z</time>
      </trkpt>
      <trkpt lat="45.24291" lon="6.40351">
        <ele>818.7</ele>
        <time>2009-08-01T07:41:43Z</time>
      </trkpt>
      <trkpt lat="45.24292" lon="6.40345">
        <ele>819.18</ele>
        <time>2009-08-01T07:41:45Z</time>
      </trkpt>
      <trkpt lat="45.24291" lon="6.40343">
        <ele>819.66</ele>
        <time>2009-08-01T07:41:46Z</time>
      </trkpt>
      <trkpt lat="45.24292" lon="6.40338">
        <ele>820.14</ele>
        <time>2009-08-01T07:41:47Z</time>
      </trkpt>
      <trkpt lat="45.2429" lon="6.40334">
        <ele>820.14</ele>
        <time>2009-08-01T07:41:48Z</time>
      </trkpt>
      <trkpt lat="45.24288" lon="6.4033">
        <ele>821.1</ele>
        <time>2009-08-01T07:41:49Z</time>
      </trkpt>
      <trkpt lat="45.24287" lon="6.40326">
        <ele>821.1</ele>
        <time>2009-08-01T07:41:50Z</time>
      </trkpt>
      <trkpt lat="45.24289" lon="6.40278">
        <ele>824.47</ele>
        <time>2009-08-01T07:42:02Z</time>
      </trkpt>
      <trkpt lat="45.24306" lon="6.40232">
        <ele>826.39</ele>
        <time>2009-08-01T07:42:14Z</time>
      </trkpt>
      <trkpt lat="45.24322" lon="6.40161">
        <ele>828.31</ele>
        <time>2009-08-01T07:42:29Z</time>
      </trkpt>
      <trkpt lat="45.24317" lon="6.40125">
        <ele>830.72</ele>
        <time>2009-08-01T07:42:38Z</time>
      </trkpt>
      <trkpt lat="45.24313" lon="6.40125">
        <ele>831.2</ele>
        <time>2009-08-01T07:42:39Z</time>
      </trkpt>
      <trkpt lat="45.24311" lon="6.40125">
        <ele>831.68</ele>
        <time>2009-08-01T07:42:40Z</time>
      </trkpt>
      <trkpt lat="45.24308" lon="6.40127">
        <ele>831.2</ele>
        <time>2009-08-01T07:42:41Z</time>
      </trkpt>
      <trkpt lat="45.24301" lon="6.40134">
        <ele>831.68</ele>
        <time>2009-08-01T07:42:43Z</time>
      </trkpt>
      <trkpt lat="45.24288" lon="6.402">
        <ele>834.08</ele>
        <time>2009-08-01T07:42:56Z</time>
      </trkpt>
      <trkpt lat="45.24288" lon="6.40212">
        <ele>835.52</ele>
        <time>2009-08-01T07:42:59Z</time>
      </trkpt>
      <trkpt lat="45.24274" lon="6.40251">
        <ele>838.41</ele>
        <time>2009-08-01T07:43:09Z</time>
      </trkpt>
      <trkpt lat="45.24258" lon="6.40303">
        <ele>841.77</ele>
        <time>2009-08-01T07:43:22Z</time>
      </trkpt>
      <trkpt lat="45.24255" lon="6.4036">
        <ele>844.18</ele>
        <time>2009-08-01T07:43:35Z</time>
      </trkpt>
      <trkpt lat="45.24249" lon="6.40416">
        <ele>847.06</ele>
        <time>2009-08-01T07:43:47Z</time>
      </trkpt>
      <trkpt lat="45.24243" lon="6.40456">
        <ele>850.42</ele>
        <time>2009-08-01T07:43:57Z</time>
      </trkpt>
      <trkpt lat="45.24239" lon="6.40464">
        <ele>850.9</ele>
        <time>2009-08-01T07:43:59Z</time>
      </trkpt>
      <trkpt lat="45.24235" lon="6.405">
        <ele>854.27</ele>
        <time>2009-08-01T07:44:08Z</time>
      </trkpt>
      <trkpt lat="45.24237" lon="6.40558">
        <ele>857.63</ele>
        <time>2009-08-01T07:44:22Z</time>
      </trkpt>
      <trkpt lat="45.24233" lon="6.40608">
        <ele>861</ele>
        <time>2009-08-01T07:44:34Z</time>
      </trkpt>
      <trkpt lat="45.24228" lon="6.40659">
        <ele>863.88</ele>
        <time>2009-08-01T07:44:47Z</time>
      </trkpt>
      <trkpt lat="45.24224" lon="6.40692">
        <ele>866.77</ele>
        <time>2009-08-01T07:44:55Z</time>
      </trkpt>
      <trkpt lat="45.24215" lon="6.40741">
        <ele>870.13</ele>
        <time>2009-08-01T07:45:08Z</time>
      </trkpt>
      <trkpt lat="45.24191" lon="6.40785">
        <ele>873.5</ele>
        <time>2009-08-01T07:45:22Z</time>
      </trkpt>
      <trkpt lat="45.24171" lon="6.40806">
        <ele>876.38</ele>
        <time>2009-08-01T07:45:31Z</time>
      </trkpt>
      <trkpt lat="45.24167" lon="6.4081">
        <ele>876.38</ele>
        <time>2009-08-01T07:45:32Z</time>
      </trkpt>
      <trkpt lat="45.24163" lon="6.40813">
        <ele>876.38</ele>
        <time>2009-08-01T07:45:33Z</time>
      </trkpt>
      <trkpt lat="45.24154" lon="6.40858">
        <ele>879.74</ele>
        <time>2009-08-01T07:45:46Z</time>
      </trkpt>
      <trkpt lat="45.2417" lon="6.40906">
        <ele>882.63</ele>
        <time>2009-08-01T07:45:59Z</time>
      </trkpt>
      <trkpt lat="45.24156" lon="6.40952">
        <ele>885.03</ele>
        <time>2009-08-01T07:46:11Z</time>
      </trkpt>
      <trkpt lat="45.24152" lon="6.40996">
        <ele>885.99</ele>
        <time>2009-08-01T07:46:21Z</time>
      </trkpt>
      <trkpt lat="45.2416" lon="6.4105">
        <ele>889.36</ele>
        <time>2009-08-01T07:46:35Z</time>
      </trkpt>
      <trkpt lat="45.24162" lon="6.41097">
        <ele>892.24</ele>
        <time>2009-08-01T07:46:47Z</time>
      </trkpt>
      <trkpt lat="45.24163" lon="6.41138">
        <ele>895.61</ele>
        <time>2009-08-01T07:46:58Z</time>
      </trkpt>
      <trkpt lat="45.24169" lon="6.41184">
        <ele>898.49</ele>
        <time>2009-08-01T07:47:10Z</time>
      </trkpt>
      <trkpt lat="45.24169" lon="6.41232">
        <ele>901.85</ele>
        <time>2009-08-01T07:47:22Z</time>
      </trkpt>
      <trkpt lat="45.24163" lon="6.41259">
        <ele>904.26</ele>
        <time>2009-08-01T07:47:30Z</time>
      </trkpt>
      <trkpt lat="45.24164" lon="6.41297">
        <ele>907.14</ele>
        <time>2009-08-01T07:47:40Z</time>
      </trkpt>
      <trkpt lat="45.24155" lon="6.41344">
        <ele>910.51</ele>
        <time>2009-08-01T07:47:53Z</time>
      </trkpt>
      <trkpt lat="45.24147" lon="6.41386">
        <ele>913.39</ele>
        <time>2009-08-01T07:48:04Z</time>
      </trkpt>
      <trkpt lat="45.24144" lon="6.41441">
        <ele>916.27</ele>
        <time>2009-08-01T07:48:18Z</time>
      </trkpt>
      <trkpt lat="45.24129" lon="6.41488">
        <ele>919.16</ele>
        <time>2009-08-01T07:48:31Z</time>
      </trkpt>
      <trkpt lat="45.24128" lon="6.41536">
        <ele>922.52</ele>
        <time>2009-08-01T07:48:44Z</time>
      </trkpt>
      <trkpt lat="45.24121" lon="6.41573">
        <ele>925.41</ele>
        <time>2009-08-01T07:48:55Z</time>
      </trkpt>
      <trkpt lat="45.24098" lon="6.41598">
        <ele>928.77</ele>
        <time>2009-08-01T07:49:05Z</time>
      </trkpt>
      <trkpt lat="45.24093" lon="6.41599">
        <ele>929.25</ele>
        <time>2009-08-01T07:49:09Z</time>
      </trkpt>
      <trkpt lat="45.24092" lon="6.41596">
        <ele>929.25</ele>
        <time>2009-08-01T07:49:10Z</time>
      </trkpt>
      <trkpt lat="45.24091" lon="6.41592">
        <ele>930.21</ele>
        <time>2009-08-01T07:49:11Z</time>
      </trkpt>
      <trkpt lat="45.2409" lon="6.41588">
        <ele>929.73</ele>
        <time>2009-08-01T07:49:12Z</time>
      </trkpt>
      <trkpt lat="45.2409" lon="6.41585">
        <ele>930.69</ele>
        <time>2009-08-01T07:49:13Z</time>
      </trkpt>
      <trkpt lat="45.24094" lon="6.41582">
        <ele>930.69</ele>
        <time>2009-08-01T07:49:14Z</time>
      </trkpt>
      <trkpt lat="45.24098" lon="6.4158">
        <ele>930.69</ele>
        <time>2009-08-01T07:49:15Z</time>
      </trkpt>
      <trkpt lat="45.24101" lon="6.41576">
        <ele>931.17</ele>
        <time>2009-08-01T07:49:16Z</time>
      </trkpt>
      <trkpt lat="45.24112" lon="6.41538">
        <ele>934.06</ele>
        <time>2009-08-01T07:49:28Z</time>
      </trkpt>
      <trkpt lat="45.24105" lon="6.41482">
        <ele>937.9</ele>
        <time>2009-08-01T07:49:42Z</time>
      </trkpt>
      <trkpt lat="45.24106" lon="6.4146">
        <ele>939.35</ele>
        <time>2009-08-01T07:49:49Z</time>
      </trkpt>
      <trkpt lat="45.24115" lon="6.41414">
        <ele>942.23</ele>
        <time>2009-08-01T07:50:01Z</time>
      </trkpt>
      <trkpt lat="45.24115" lon="6.41362">
        <ele>945.11</ele>
        <time>2009-08-01T07:50:15Z</time>
      </trkpt>
      <trkpt lat="45.24111" lon="6.41321">
        <ele>947.52</ele>
        <time>2009-08-01T07:50:26Z</time>
      </trkpt>
      <trkpt lat="45.24106" lon="6.41275">
        <ele>950.88</ele>
        <time>2009-08-01T07:50:38Z</time>
      </trkpt>
      <trkpt lat="45.24094" lon="6.41236">
        <ele>953.28</ele>
        <time>2009-08-01T07:50:49Z</time>
      </trkpt>
      <trkpt lat="45.24088" lon="6.41192">
        <ele>956.65</ele>
        <time>2009-08-01T07:51:01Z</time>
      </trkpt>
      <trkpt lat="45.24082" lon="6.41155">
        <ele>959.53</ele>
        <time>2009-08-01T07:51:11Z</time>
      </trkpt>
      <trkpt lat="45.24078" lon="6.41103">
        <ele>962.42</ele>
        <time>2009-08-01T07:51:25Z</time>
      </trkpt>
      <trkpt lat="45.24071" lon="6.41073">
        <ele>965.3</ele>
        <time>2009-08-01T07:51:34Z</time>
      </trkpt>
      <trkpt lat="45.24075" lon="6.4103">
        <ele>967.7</ele>
        <time>2009-08-01T07:51:46Z</time>
      </trkpt>
      <trkpt lat="45.2407" lon="6.4099">
        <ele>971.07</ele>
        <time>2009-08-01T07:51:57Z</time>
      </trkpt>
      <trkpt lat="45.2406" lon="6.40976">
        <ele>972.51</ele>
        <time>2009-08-01T07:52:03Z</time>
      </trkpt>
      <trkpt lat="45.2404" lon="6.4095">
        <ele>975.88</ele>
        <time>2009-08-01T07:52:15Z</time>
      </trkpt>
      <trkpt lat="45.24019" lon="6.40914">
        <ele>978.28</ele>
        <time>2009-08-01T07:52:29Z</time>
      </trkpt>
      <trkpt lat="45.2401" lon="6.40888">
        <ele>979.24</ele>
        <time>2009-08-01T07:52:38Z</time>
      </trkpt>
      <trkpt lat="45.24009" lon="6.40886">
        <ele>979.72</ele>
        <time>2009-08-01T07:52:39Z</time>
      </trkpt>
      <trkpt lat="45.24009" lon="6.40884">
        <ele>980.2</ele>
        <time>2009-08-01T07:52:40Z</time>
      </trkpt>
      <trkpt lat="45.24009" lon="6.40883">
        <ele>980.2</ele>
        <time>2009-08-01T07:52:41Z</time>
      </trkpt>
      <trkpt lat="45.24007" lon="6.40886">
        <ele>980.2</ele>
        <time>2009-08-01T07:52:42Z</time>
      </trkpt>
      <trkpt lat="45.2401" lon="6.40889">
        <ele>980.2</ele>
        <time>2009-08-01T07:52:43Z</time>
      </trkpt>
      <trkpt lat="45.24008" lon="6.40894">
        <ele>981.16</ele>
        <time>2009-08-01T07:52:44Z</time>
      </trkpt>
      <trkpt lat="45.24007" lon="6.40896">
        <ele>981.16</ele>
        <time>2009-08-01T07:52:45Z</time>
      </trkpt>
      <trkpt lat="45.24005" lon="6.40902">
        <ele>981.16</ele>
        <time>2009-08-01T07:52:46Z</time>
      </trkpt>
      <trkpt lat="45.24004" lon="6.40906">
        <ele>981.16</ele>
        <time>2009-08-01T07:52:47Z</time>
      </trkpt>
      <trkpt lat="45.24019" lon="6.40947">
        <ele>983.57</ele>
        <time>2009-08-01T07:53:00Z</time>
      </trkpt>
      <trkpt lat="45.24032" lon="6.40976">
        <ele>985.49</ele>
        <time>2009-08-01T07:53:09Z</time>
      </trkpt>
      <trkpt lat="45.24039" lon="6.41019">
        <ele>988.37</ele>
        <time>2009-08-01T07:53:22Z</time>
      </trkpt>
      <trkpt lat="45.24035" lon="6.41066">
        <ele>991.26</ele>
        <time>2009-08-01T07:53:35Z</time>
      </trkpt>
      <trkpt lat="45.24017" lon="6.41097">
        <ele>994.14</ele>
        <time>2009-08-01T07:53:47Z</time>
      </trkpt>
      <trkpt lat="45.24015" lon="6.41106">
        <ele>995.1</ele>
        <time>2009-08-01T07:53:50Z</time>
      </trkpt>
      <trkpt lat="45.24015" lon="6.41134">
        <ele>997.51</ele>
        <time>2009-08-01T07:53:59Z</time>
      </trkpt>
      <trkpt lat="45.24015" lon="6.41137">
        <ele>996.54</ele>
        <time>2009-08-01T07:54:00Z</time>
      </trkpt>
      <trkpt lat="45.24017" lon="6.41165">
        <ele>998.47</ele>
        <time>2009-08-01T07:54:07Z</time>
      </trkpt>
      <trkpt lat="45.24017" lon="6.41168">
        <ele>998.47</ele>
        <time>2009-08-01T07:54:08Z</time>
      </trkpt>
      <trkpt lat="45.24017" lon="6.41172">
        <ele>998.95</ele>
        <time>2009-08-01T07:54:09Z</time>
      </trkpt>
      <trkpt lat="45.24017" lon="6.41176">
        <ele>999.43</ele>
        <time>2009-08-01T07:54:10Z</time>
      </trkpt>
      <trkpt lat="45.24017" lon="6.41178">
        <ele>999.43</ele>
        <time>2009-08-01T07:54:11Z</time>
      </trkpt>
      <trkpt lat="45.24018" lon="6.41221">
        <ele>1002.31</ele>
        <time>2009-08-01T07:54:24Z</time>
      </trkpt>
      <trkpt lat="45.24009" lon="6.41258">
        <ele>1005.2</ele>
        <time>2009-08-01T07:54:36Z</time>
      </trkpt>
      <trkpt lat="45.24003" lon="6.41279">
        <ele>1006.64</ele>
        <time>2009-08-01T07:54:43Z</time>
      </trkpt>
      <trkpt lat="45.24002" lon="6.4129">
        <ele>1007.12</ele>
        <time>2009-08-01T07:54:46Z</time>
      </trkpt>
      <trkpt lat="45.24003" lon="6.41294">
        <ele>1007.12</ele>
        <time>2009-08-01T07:54:47Z</time>
      </trkpt>
      <trkpt lat="45.24003" lon="6.41297">
        <ele>1008.08</ele>
        <time>2009-08-01T07:54:48Z</time>
      </trkpt>
      <trkpt lat="45.24008" lon="6.4134">
        <ele>1010</ele>
        <time>2009-08-01T07:55:00Z</time>
      </trkpt>
      <trkpt lat="45.24014" lon="6.41383">
        <ele>1012.41</ele>
        <time>2009-08-01T07:55:12Z</time>
      </trkpt>
      <trkpt lat="45.24017" lon="6.41393">
        <ele>1013.85</ele>
        <time>2009-08-01T07:55:15Z</time>
      </trkpt>
      <trkpt lat="45.24003" lon="6.41441">
        <ele>1015.77</ele>
        <time>2009-08-01T07:55:29Z</time>
      </trkpt>
      <trkpt lat="45.23972" lon="6.41452">
        <ele>1019.13</ele>
        <time>2009-08-01T07:55:43Z</time>
      </trkpt>
      <trkpt lat="45.23948" lon="6.41476">
        <ele>1022.02</ele>
        <time>2009-08-01T07:55:56Z</time>
      </trkpt>
      <trkpt lat="45.23938" lon="6.41499">
        <ele>1023.94</ele>
        <time>2009-08-01T07:56:03Z</time>
      </trkpt>
      <trkpt lat="45.23942" lon="6.41537">
        <ele>1026.34</ele>
        <time>2009-08-01T07:56:15Z</time>
      </trkpt>
      <trkpt lat="45.23939" lon="6.41588">
        <ele>1028.75</ele>
        <time>2009-08-01T07:56:29Z</time>
      </trkpt>
      <trkpt lat="45.2394" lon="6.41635">
        <ele>1031.15</ele>
        <time>2009-08-01T07:56:42Z</time>
      </trkpt>
      <trkpt lat="45.23942" lon="6.41656">
        <ele>1032.59</ele>
        <time>2009-08-01T07:56:48Z</time>
      </trkpt>
      <trkpt lat="45.23925" lon="6.41683">
        <ele>1034.04</ele>
        <time>2009-08-01T07:56:58Z</time>
      </trkpt>
      <trkpt lat="45.23892" lon="6.41692">
        <ele>1036.92</ele>
        <time>2009-08-01T07:57:11Z</time>
      </trkpt>
      <trkpt lat="45.2389" lon="6.41689">
        <ele>1036.44</ele>
        <time>2009-08-01T07:57:12Z</time>
      </trkpt>
      <trkpt lat="45.2389" lon="6.41686">
        <ele>1036.92</ele>
        <time>2009-08-01T07:57:13Z</time>
      </trkpt>
      <trkpt lat="45.2389" lon="6.41682">
        <ele>1037.4</ele>
        <time>2009-08-01T07:57:14Z</time>
      </trkpt>
      <trkpt lat="45.23891" lon="6.41678">
        <ele>1037.4</ele>
        <time>2009-08-01T07:57:15Z</time>
      </trkpt>
      <trkpt lat="45.23892" lon="6.41675">
        <ele>1037.4</ele>
        <time>2009-08-01T07:57:16Z</time>
      </trkpt>
      <trkpt lat="45.23894" lon="6.41673">
        <ele>1037.4</ele>
        <time>2009-08-01T07:57:17Z</time>
      </trkpt>
      <trkpt lat="45.23897" lon="6.41672">
        <ele>1037.4</ele>
        <time>2009-08-01T07:57:18Z</time>
      </trkpt>
      <trkpt lat="45.239" lon="6.4167">
        <ele>1037.4</ele>
        <time>2009-08-01T07:57:19Z</time>
      </trkpt>
      <trkpt lat="45.23902" lon="6.41668">
        <ele>1037.88</ele>
        <time>2009-08-01T07:57:20Z</time>
      </trkpt>
      <trkpt lat="45.23933" lon="6.41629">
        <ele>1040.76</ele>
        <time>2009-08-01T07:57:35Z</time>
      </trkpt>
      <trkpt lat="45.23928" lon="6.41581">
        <ele>1043.65</ele>
        <time>2009-08-01T07:57:48Z</time>
      </trkpt>
      <trkpt lat="45.23909" lon="6.41539">
        <ele>1045.57</ele>
        <time>2009-08-01T07:58:01Z</time>
      </trkpt>
      <trkpt lat="45.23906" lon="6.41538">
        <ele>1045.57</ele>
        <time>2009-08-01T07:58:02Z</time>
      </trkpt>
      <trkpt lat="45.23905" lon="6.41535">
        <ele>1046.05</ele>
        <time>2009-08-01T07:58:03Z</time>
      </trkpt>
      <trkpt lat="45.23902" lon="6.4153">
        <ele>1046.53</ele>
        <time>2009-08-01T07:58:04Z</time>
      </trkpt>
      <trkpt lat="45.23895" lon="6.41515">
        <ele>1047.49</ele>
        <time>2009-08-01T07:58:09Z</time>
      </trkpt>
      <trkpt lat="45.23894" lon="6.41513">
        <ele>1047.97</ele>
        <time>2009-08-01T07:58:10Z</time>
      </trkpt>
      <trkpt lat="45.23894" lon="6.4151">
        <ele>1047.97</ele>
        <time>2009-08-01T07:58:11Z</time>
      </trkpt>
      <trkpt lat="45.2389" lon="6.41508">
        <ele>1047.97</ele>
        <time>2009-08-01T07:58:12Z</time>
      </trkpt>
      <trkpt lat="45.23888" lon="6.41505">
        <ele>1048.45</ele>
        <time>2009-08-01T07:58:13Z</time>
      </trkpt>
      <trkpt lat="45.23878" lon="6.41491">
        <ele>1049.9</ele>
        <time>2009-08-01T07:58:18Z</time>
      </trkpt>
      <trkpt lat="45.23879" lon="6.41487">
        <ele>1050.38</ele>
        <time>2009-08-01T07:58:19Z</time>
      </trkpt>
      <trkpt lat="45.23878" lon="6.41482">
        <ele>1050.38</ele>
        <time>2009-08-01T07:58:20Z</time>
      </trkpt>
      <trkpt lat="45.23876" lon="6.41479">
        <ele>1050.86</ele>
        <time>2009-08-01T07:58:21Z</time>
      </trkpt>
      <trkpt lat="45.23874" lon="6.41476">
        <ele>1050.86</ele>
        <time>2009-08-01T07:58:22Z</time>
      </trkpt>
      <trkpt lat="45.23875" lon="6.41474">
        <ele>1051.34</ele>
        <time>2009-08-01T07:58:23Z</time>
      </trkpt>
      <trkpt lat="45.23875" lon="6.41471">
        <ele>1051.34</ele>
        <time>2009-08-01T07:58:24Z</time>
      </trkpt>
      <trkpt lat="45.23872" lon="6.41468">
        <ele>1050.86</ele>
        <time>2009-08-01T07:58:25Z</time>
      </trkpt>
      <trkpt lat="45.23872" lon="6.41465">
        <ele>1052.3</ele>
        <time>2009-08-01T07:58:26Z</time>
      </trkpt>
      <trkpt lat="45.23876" lon="6.41461">
        <ele>1052.3</ele>
        <time>2009-08-01T07:58:27Z</time>
      </trkpt>
      <trkpt lat="45.23876" lon="6.41457">
        <ele>1052.3</ele>
        <time>2009-08-01T07:58:28Z</time>
      </trkpt>
      <trkpt lat="45.23873" lon="6.41451">
        <ele>1052.78</ele>
        <time>2009-08-01T07:58:29Z</time>
      </trkpt>
      <trkpt lat="45.23872" lon="6.41447">
        <ele>1053.26</ele>
        <time>2009-08-01T07:58:30Z</time>
      </trkpt>
      <trkpt lat="45.2387" lon="6.41444">
        <ele>1052.78</ele>
        <time>2009-08-01T07:58:31Z</time>
      </trkpt>
      <trkpt lat="45.2387" lon="6.41441">
        <ele>1053.26</ele>
        <time>2009-08-01T07:58:32Z</time>
      </trkpt>
      <trkpt lat="45.23871" lon="6.41434">
        <ele>1053.74</ele>
        <time>2009-08-01T07:58:34Z</time>
      </trkpt>
      <trkpt lat="45.23869" lon="6.4143">
        <ele>1053.74</ele>
        <time>2009-08-01T07:58:35Z</time>
      </trkpt>
      <trkpt lat="45.2387" lon="6.41427">
        <ele>1054.7</ele>
        <time>2009-08-01T07:58:36Z</time>
      </trkpt>
      <trkpt lat="45.23867" lon="6.41425">
        <ele>1054.7</ele>
        <time>2009-08-01T07:58:37Z</time>
      </trkpt>
      <trkpt lat="45.23866" lon="6.4142">
        <ele>1054.7</ele>
        <time>2009-08-01T07:58:38Z</time>
      </trkpt>
      <trkpt lat="45.23863" lon="6.41416">
        <ele>1055.18</ele>
        <time>2009-08-01T07:58:39Z</time>
      </trkpt>
      <trkpt lat="45.23864" lon="6.4141">
        <ele>1055.67</ele>
        <time>2009-08-01T07:58:40Z</time>
      </trkpt>
      <trkpt lat="45.2385" lon="6.41381">
        <ele>1057.59</ele>
        <time>2009-08-01T07:58:49Z</time>
      </trkpt>
      <trkpt lat="45.23858" lon="6.41337">
        <ele>1060.47</ele>
        <time>2009-08-01T07:59:00Z</time>
      </trkpt>
      <trkpt lat="45.23861" lon="6.41316">
        <ele>1061.91</ele>
        <time>2009-08-01T07:59:05Z</time>
      </trkpt>
      <trkpt lat="45.2386" lon="6.41313">
        <ele>1061.91</ele>
        <time>2009-08-01T07:59:06Z</time>
      </trkpt>
      <trkpt lat="45.23849" lon="6.4127">
        <ele>1064.8</ele>
        <time>2009-08-01T07:59:17Z</time>
      </trkpt>
      <trkpt lat="45.23848" lon="6.4126">
        <ele>1065.28</ele>
        <time>2009-08-01T07:59:20Z</time>
      </trkpt>
      <trkpt lat="45.23849" lon="6.41256">
        <ele>1065.76</ele>
        <time>2009-08-01T07:59:21Z</time>
      </trkpt>
      <trkpt lat="45.2385" lon="6.41253">
        <ele>1066.24</ele>
        <time>2009-08-01T07:59:22Z</time>
      </trkpt>
      <trkpt lat="45.2385" lon="6.4125">
        <ele>1066.24</ele>
        <time>2009-08-01T07:59:23Z</time>
      </trkpt>
      <trkpt lat="45.23849" lon="6.41247">
        <ele>1066.72</ele>
        <time>2009-08-01T07:59:24Z</time>
      </trkpt>
      <trkpt lat="45.23849" lon="6.41243">
        <ele>1066.72</ele>
        <time>2009-08-01T07:59:25Z</time>
      </trkpt>
      <trkpt lat="45.23849" lon="6.41205">
        <ele>1069.12</ele>
        <time>2009-08-01T07:59:35Z</time>
      </trkpt>
      <trkpt lat="45.23849" lon="6.41201">
        <ele>1069.6</ele>
        <time>2009-08-01T07:59:36Z</time>
      </trkpt>
      <trkpt lat="45.23849" lon="6.41197">
        <ele>1069.6</ele>
        <time>2009-08-01T07:59:37Z</time>
      </trkpt>
      <trkpt lat="45.23849" lon="6.41187">
        <ele>1070.57</ele>
        <time>2009-08-01T07:59:40Z</time>
      </trkpt>
      <trkpt lat="45.23849" lon="6.41184">
        <ele>1070.57</ele>
        <time>2009-08-01T07:59:41Z</time>
      </trkpt>
      <trkpt lat="45.23849" lon="6.41181">
        <ele>1070.57</ele>
        <time>2009-08-01T07:59:42Z</time>
      </trkpt>
      <trkpt lat="45.23848" lon="6.41177">
        <ele>1072.01</ele>
        <time>2009-08-01T07:59:43Z</time>
      </trkpt>
      <trkpt lat="45.23846" lon="6.41173">
        <ele>1071.53</ele>
        <time>2009-08-01T07:59:44Z</time>
      </trkpt>
      <trkpt lat="45.23845" lon="6.41169">
        <ele>1071.53</ele>
        <time>2009-08-01T07:59:45Z</time>
      </trkpt>
      <trkpt lat="45.23844" lon="6.41165">
        <ele>1072.01</ele>
        <time>2009-08-01T07:59:46Z</time>
      </trkpt>
      <trkpt lat="45.23845" lon="6.41159">
        <ele>1072.97</ele>
        <time>2009-08-01T07:59:47Z</time>
      </trkpt>
      <trkpt lat="45.23848" lon="6.41155">
        <ele>1072.97</ele>
        <time>2009-08-01T07:59:48Z</time>
      </trkpt>
      <trkpt lat="45.23848" lon="6.41152">
        <ele>1073.45</ele>
        <time>2009-08-01T07:59:49Z</time>
      </trkpt>
      <trkpt lat="45.23849" lon="6.41148">
        <ele>1073.45</ele>
        <time>2009-08-01T07:59:50Z</time>
      </trkpt>
      <trkpt lat="45.23846" lon="6.41144">
        <ele>1073.45</ele>
        <time>2009-08-01T07:59:51Z</time>
      </trkpt>
      <trkpt lat="45.23841" lon="6.41141">
        <ele>1073.45</ele>
        <time>2009-08-01T07:59:52Z</time>
      </trkpt>
      <trkpt lat="45.23838" lon="6.41133">
        <ele>1074.89</ele>
        <time>2009-08-01T07:59:55Z</time>
      </trkpt>
      <trkpt lat="45.23839" lon="6.41114">
        <ele>1076.33</ele>
        <time>2009-08-01T08:00:00Z</time>
      </trkpt>
      <trkpt lat="45.23838" lon="6.41111">
        <ele>1075.85</ele>
        <time>2009-08-01T08:00:01Z</time>
      </trkpt>
      <trkpt lat="45.23839" lon="6.41108">
        <ele>1076.81</ele>
        <time>2009-08-01T08:00:02Z</time>
      </trkpt>
      <trkpt lat="45.2384" lon="6.41105">
        <ele>1077.29</ele>
        <time>2009-08-01T08:00:03Z</time>
      </trkpt>
      <trkpt lat="45.2384" lon="6.41102">
        <ele>1077.29</ele>
        <time>2009-08-01T08:00:04Z</time>
      </trkpt>
      <trkpt lat="45.2384" lon="6.41099">
        <ele>1077.29</ele>
        <time>2009-08-01T08:00:05Z</time>
      </trkpt>
      <trkpt lat="45.23841" lon="6.41095">
        <ele>1077.29</ele>
        <time>2009-08-01T08:00:06Z</time>
      </trkpt>
      <trkpt lat="45.23842" lon="6.41091">
        <ele>1077.78</ele>
        <time>2009-08-01T08:00:07Z</time>
      </trkpt>
      <trkpt lat="45.23841" lon="6.41088">
        <ele>1078.26</ele>
        <time>2009-08-01T08:00:08Z</time>
      </trkpt>
      <trkpt lat="45.23841" lon="6.41084">
        <ele>1078.26</ele>
        <time>2009-08-01T08:00:09Z</time>
      </trkpt>
      <trkpt lat="45.23841" lon="6.41081">
        <ele>1078.74</ele>
        <time>2009-08-01T08:00:10Z</time>
      </trkpt>
      <trkpt lat="45.23841" lon="6.41078">
        <ele>1079.22</ele>
        <time>2009-08-01T08:00:11Z</time>
      </trkpt>
      <trkpt lat="45.23843" lon="6.41074">
        <ele>1079.22</ele>
        <time>2009-08-01T08:00:12Z</time>
      </trkpt>
      <trkpt lat="45.23842" lon="6.41071">
        <ele>1079.7</ele>
        <time>2009-08-01T08:00:13Z</time>
      </trkpt>
      <trkpt lat="45.23827" lon="6.41031">
        <ele>1082.58</ele>
        <time>2009-08-01T08:00:25Z</time>
      </trkpt>
      <trkpt lat="45.23804" lon="6.41007">
        <ele>1085.47</ele>
        <time>2009-08-01T08:00:37Z</time>
      </trkpt>
      <trkpt lat="45.23775" lon="6.40987">
        <ele>1088.35</ele>
        <time>2009-08-01T08:00:48Z</time>
      </trkpt>
      <trkpt lat="45.23764" lon="6.40952">
        <ele>1091.71</ele>
        <time>2009-08-01T08:00:58Z</time>
      </trkpt>
      <trkpt lat="45.23747" lon="6.40925">
        <ele>1093.64</ele>
        <time>2009-08-01T08:01:08Z</time>
      </trkpt>
      <trkpt lat="45.23745" lon="6.40922">
        <ele>1093.64</ele>
        <time>2009-08-01T08:01:09Z</time>
      </trkpt>
      <trkpt lat="45.23738" lon="6.40904">
        <ele>1095.56</ele>
        <time>2009-08-01T08:01:13Z</time>
      </trkpt>
      <trkpt lat="45.23728" lon="6.40872">
        <ele>1097.96</ele>
        <time>2009-08-01T08:01:23Z</time>
      </trkpt>
      <trkpt lat="45.23768" lon="6.40825">
        <ele>1101.33</ele>
        <time>2009-08-01T08:01:35Z</time>
      </trkpt>
      <trkpt lat="45.2378" lon="6.40809">
        <ele>1102.29</ele>
        <time>2009-08-01T08:01:41Z</time>
      </trkpt>
      <trkpt lat="45.23781" lon="6.40799">
        <ele>1102.77</ele>
        <time>2009-08-01T08:01:44Z</time>
      </trkpt>
      <trkpt lat="45.23781" lon="6.40797">
        <ele>1102.77</ele>
        <time>2009-08-01T08:01:45Z</time>
      </trkpt>
      <trkpt lat="45.23781" lon="6.40794">
        <ele>1103.25</ele>
        <time>2009-08-01T08:01:46Z</time>
      </trkpt>
      <trkpt lat="45.23783" lon="6.40773">
        <ele>1105.17</ele>
        <time>2009-08-01T08:01:54Z</time>
      </trkpt>
      <trkpt lat="45.23783" lon="6.4077">
        <ele>1105.65</ele>
        <time>2009-08-01T08:01:55Z</time>
      </trkpt>
      <trkpt lat="45.23782" lon="6.40767">
        <ele>1105.65</ele>
        <time>2009-08-01T08:01:56Z</time>
      </trkpt>
      <trkpt lat="45.2378" lon="6.40764">
        <ele>1105.65</ele>
        <time>2009-08-01T08:01:57Z</time>
      </trkpt>
      <trkpt lat="45.23782" lon="6.4076">
        <ele>1106.13</ele>
        <time>2009-08-01T08:01:58Z</time>
      </trkpt>
      <trkpt lat="45.23787" lon="6.40721">
        <ele>1109.02</ele>
        <time>2009-08-01T08:02:09Z</time>
      </trkpt>
      <trkpt lat="45.23789" lon="6.40679">
        <ele>1110.94</ele>
        <time>2009-08-01T08:02:20Z</time>
      </trkpt>
      <trkpt lat="45.2379" lon="6.40634">
        <ele>1113.82</ele>
        <time>2009-08-01T08:02:33Z</time>
      </trkpt>
      <trkpt lat="45.23777" lon="6.40613">
        <ele>1115.75</ele>
        <time>2009-08-01T08:02:41Z</time>
      </trkpt>
      <trkpt lat="45.23769" lon="6.40615">
        <ele>1116.71</ele>
        <time>2009-08-01T08:02:45Z</time>
      </trkpt>
      <trkpt lat="45.23767" lon="6.40617">
        <ele>1116.71</ele>
        <time>2009-08-01T08:02:46Z</time>
      </trkpt>
      <trkpt lat="45.23766" lon="6.40619">
        <ele>1117.19</ele>
        <time>2009-08-01T08:02:47Z</time>
      </trkpt>
      <trkpt lat="45.23765" lon="6.40622">
        <ele>1117.19</ele>
        <time>2009-08-01T08:02:48Z</time>
      </trkpt>
      <trkpt lat="45.23765" lon="6.40625">
        <ele>1117.67</ele>
        <time>2009-08-01T08:02:49Z</time>
      </trkpt>
      <trkpt lat="45.23765" lon="6.40628">
        <ele>1117.67</ele>
        <time>2009-08-01T08:02:50Z</time>
      </trkpt>
      <trkpt lat="45.23765" lon="6.40631">
        <ele>1117.67</ele>
        <time>2009-08-01T08:02:51Z</time>
      </trkpt>
      <trkpt lat="45.23766" lon="6.40635">
        <ele>1118.63</ele>
        <time>2009-08-01T08:02:52Z</time>
      </trkpt>
      <trkpt lat="45.23773" lon="6.40682">
        <ele>1120.55</ele>
        <time>2009-08-01T08:03:06Z</time>
      </trkpt>
      <trkpt lat="45.23766" lon="6.40711">
        <ele>1123.92</ele>
        <time>2009-08-01T08:03:15Z</time>
      </trkpt>
      <trkpt lat="45.23763" lon="6.40726">
        <ele>1124.88</ele>
        <time>2009-08-01T08:03:20Z</time>
      </trkpt>
      <trkpt lat="45.23742" lon="6.40761">
        <ele>1127.76</ele>
        <time>2009-08-01T08:03:32Z</time>
      </trkpt>
      <trkpt lat="45.23725" lon="6.40775">
        <ele>1129.21</ele>
        <time>2009-08-01T08:03:39Z</time>
      </trkpt>
      <trkpt lat="45.23724" lon="6.40775">
        <ele>1129.69</ele>
        <time>2009-08-01T08:03:40Z</time>
      </trkpt>
      <trkpt lat="45.23717" lon="6.40791">
        <ele>1131.61</ele>
        <time>2009-08-01T08:03:46Z</time>
      </trkpt>
      <trkpt lat="45.23716" lon="6.40794">
        <ele>1131.61</ele>
        <time>2009-08-01T08:03:47Z</time>
      </trkpt>
      <trkpt lat="45.23713" lon="6.40796">
        <ele>1132.09</ele>
        <time>2009-08-01T08:03:48Z</time>
      </trkpt>
      <trkpt lat="45.237" lon="6.40814">
        <ele>1134.01</ele>
        <time>2009-08-01T08:03:56Z</time>
      </trkpt>
      <trkpt lat="45.23699" lon="6.40816">
        <ele>1134.49</ele>
        <time>2009-08-01T08:03:57Z</time>
      </trkpt>
      <trkpt lat="45.23697" lon="6.4082">
        <ele>1134.97</ele>
        <time>2009-08-01T08:03:58Z</time>
      </trkpt>
      <trkpt lat="45.23701" lon="6.40826">
        <ele>1135.45</ele>
        <time>2009-08-01T08:04:02Z</time>
      </trkpt>
      <trkpt lat="45.23698" lon="6.4083">
        <ele>1135.45</ele>
        <time>2009-08-01T08:04:03Z</time>
      </trkpt>
      <trkpt lat="45.23696" lon="6.40835">
        <ele>1136.42</ele>
        <time>2009-08-01T08:04:04Z</time>
      </trkpt>
      <trkpt lat="45.23695" lon="6.40838">
        <ele>1136.42</ele>
        <time>2009-08-01T08:04:05Z</time>
      </trkpt>
      <trkpt lat="45.23694" lon="6.40841">
        <ele>1136.42</ele>
        <time>2009-08-01T08:04:06Z</time>
      </trkpt>
      <trkpt lat="45.23694" lon="6.40844">
        <ele>1136.9</ele>
        <time>2009-08-01T08:04:07Z</time>
      </trkpt>
      <trkpt lat="45.23693" lon="6.40847">
        <ele>1136.9</ele>
        <time>2009-08-01T08:04:08Z</time>
      </trkpt>
      <trkpt lat="45.23692" lon="6.4085">
        <ele>1137.38</ele>
        <time>2009-08-01T08:04:09Z</time>
      </trkpt>
      <trkpt lat="45.23691" lon="6.40853">
        <ele>1137.86</ele>
        <time>2009-08-01T08:04:10Z</time>
      </trkpt>
      <trkpt lat="45.23691" lon="6.40855">
        <ele>1137.86</ele>
        <time>2009-08-01T08:04:11Z</time>
      </trkpt>
      <trkpt lat="45.2368" lon="6.40887">
        <ele>1140.74</ele>
        <time>2009-08-01T08:04:23Z</time>
      </trkpt>
      <trkpt lat="45.23676" lon="6.40892">
        <ele>1142.18</ele>
        <time>2009-08-01T08:04:26Z</time>
      </trkpt>
      <trkpt lat="45.23678" lon="6.40897">
        <ele>1142.18</ele>
        <time>2009-08-01T08:04:29Z</time>
      </trkpt>
      <trkpt lat="45.23686" lon="6.40932">
        <ele>1145.07</ele>
        <time>2009-08-01T08:04:40Z</time>
      </trkpt>
      <trkpt lat="45.23682" lon="6.4097">
        <ele>1147.95</ele>
        <time>2009-08-01T08:04:50Z</time>
      </trkpt>
      <trkpt lat="45.23687" lon="6.40995">
        <ele>1149.87</ele>
        <time>2009-08-01T08:04:58Z</time>
      </trkpt>
      <trkpt lat="45.23668" lon="6.41037">
        <ele>1153.72</ele>
        <time>2009-08-01T08:05:12Z</time>
      </trkpt>
      <trkpt lat="45.23668" lon="6.41041">
        <ele>1154.2</ele>
        <time>2009-08-01T08:05:13Z</time>
      </trkpt>
      <trkpt lat="45.23667" lon="6.41066">
        <ele>1156.6</ele>
        <time>2009-08-01T08:05:21Z</time>
      </trkpt>
      <trkpt lat="45.23674" lon="6.41104">
        <ele>1159.01</ele>
        <time>2009-08-01T08:05:33Z</time>
      </trkpt>
      <trkpt lat="45.23677" lon="6.4111">
        <ele>1159.49</ele>
        <time>2009-08-01T08:05:35Z</time>
      </trkpt>
      <trkpt lat="45.23687" lon="6.41142">
        <ele>1162.85</ele>
        <time>2009-08-01T08:05:46Z</time>
      </trkpt>
      <trkpt lat="45.23692" lon="6.41173">
        <ele>1165.74</ele>
        <time>2009-08-01T08:05:57Z</time>
      </trkpt>
      <trkpt lat="45.23694" lon="6.41177">
        <ele>1166.22</ele>
        <time>2009-08-01T08:05:58Z</time>
      </trkpt>
      <trkpt lat="45.23697" lon="6.41187">
        <ele>1166.22</ele>
        <time>2009-08-01T08:06:01Z</time>
      </trkpt>
      <trkpt lat="45.23652" lon="6.41237">
        <ele>1169.58</ele>
        <time>2009-08-01T08:06:12Z</time>
      </trkpt>
      <trkpt lat="45.23629" lon="6.41252">
        <ele>1172.47</ele>
        <time>2009-08-01T08:06:24Z</time>
      </trkpt>
      <trkpt lat="45.23603" lon="6.41255">
        <ele>1174.87</ele>
        <time>2009-08-01T08:06:35Z</time>
      </trkpt>
      <trkpt lat="45.23597" lon="6.41255">
        <ele>1175.83</ele>
        <time>2009-08-01T08:06:37Z</time>
      </trkpt>
      <trkpt lat="45.23577" lon="6.41268">
        <ele>1177.27</ele>
        <time>2009-08-01T08:06:48Z</time>
      </trkpt>
      <trkpt lat="45.23558" lon="6.413">
        <ele>1179.19</ele>
        <time>2009-08-01T08:07:00Z</time>
      </trkpt>
      <trkpt lat="45.23534" lon="6.41323">
        <ele>1180.16</ele>
        <time>2009-08-01T08:07:12Z</time>
      </trkpt>
      <trkpt lat="45.23496" lon="6.41334">
        <ele>1182.08</ele>
        <time>2009-08-01T08:07:26Z</time>
      </trkpt>
      <trkpt lat="45.2348" lon="6.41339">
        <ele>1183.04</ele>
        <time>2009-08-01T08:07:32Z</time>
      </trkpt>
      <trkpt lat="45.23471" lon="6.41321">
        <ele>1183.52</ele>
        <time>2009-08-01T08:07:39Z</time>
      </trkpt>
      <trkpt lat="45.23474" lon="6.41311">
        <ele>1184</ele>
        <time>2009-08-01T08:07:47Z</time>
      </trkpt>
      <trkpt lat="45.23474" lon="6.4131">
        <ele>1183.52</ele>
        <time>2009-08-01T08:08:03Z</time>
      </trkpt>
      <trkpt lat="45.2347" lon="6.41313">
        <ele>1184.48</ele>
        <time>2009-08-01T08:13:44Z</time>
      </trkpt>
      <trkpt lat="45.23471" lon="6.41331">
        <ele>1184</ele>
        <time>2009-08-01T08:13:52Z</time>
      </trkpt>
      <trkpt lat="45.23471" lon="6.41332">
        <ele>1184</ele>
        <time>2009-08-01T08:13:53Z</time>
      </trkpt>
      <trkpt lat="45.23473" lon="6.41334">
        <ele>1184.48</ele>
        <time>2009-08-01T08:14:02Z</time>
      </trkpt>
      <trkpt lat="45.23476" lon="6.41327">
        <ele>1184.48</ele>
        <time>2009-08-01T08:14:17Z</time>
      </trkpt>
      <trkpt lat="45.23476" lon="6.41328">
        <ele>1184</ele>
        <time>2009-08-01T08:14:25Z</time>
      </trkpt>
      <trkpt lat="45.23472" lon="6.41333">
        <ele>1184</ele>
        <time>2009-08-01T08:14:30Z</time>
      </trkpt>
      <trkpt lat="45.23454" lon="6.41334">
        <ele>1185.44</ele>
        <time>2009-08-01T08:14:39Z</time>
      </trkpt>
      <trkpt lat="45.23431" lon="6.4136">
        <ele>1187.85</ele>
        <time>2009-08-01T08:14:53Z</time>
      </trkpt>
      <trkpt lat="45.23413" lon="6.41404">
        <ele>1190.73</ele>
        <time>2009-08-01T08:15:08Z</time>
      </trkpt>
      <trkpt lat="45.23415" lon="6.41428">
        <ele>1191.21</ele>
        <time>2009-08-01T08:15:16Z</time>
      </trkpt>
      <trkpt lat="45.234" lon="6.41421">
        <ele>1193.13</ele>
        <time>2009-08-01T08:15:26Z</time>
      </trkpt>
      <trkpt lat="45.23399" lon="6.41416">
        <ele>1193.61</ele>
        <time>2009-08-01T08:15:28Z</time>
      </trkpt>
      <trkpt lat="45.23391" lon="6.41366">
        <ele>1196.5</ele>
        <time>2009-08-01T08:15:47Z</time>
      </trkpt>
      <trkpt lat="45.23388" lon="6.41358">
        <ele>1196.98</ele>
        <time>2009-08-01T08:15:50Z</time>
      </trkpt>
      <trkpt lat="45.2339" lon="6.41332">
        <ele>1198.42</ele>
        <time>2009-08-01T08:16:00Z</time>
      </trkpt>
      <trkpt lat="45.23394" lon="6.41301">
        <ele>1200.34</ele>
        <time>2009-08-01T08:16:10Z</time>
      </trkpt>
      <trkpt lat="45.23392" lon="6.41279">
        <ele>1201.3</ele>
        <time>2009-08-01T08:16:19Z</time>
      </trkpt>
      <trkpt lat="45.23387" lon="6.41265">
        <ele>1202.27</ele>
        <time>2009-08-01T08:16:24Z</time>
      </trkpt>
      <trkpt lat="45.23391" lon="6.41252">
        <ele>1203.23</ele>
        <time>2009-08-01T08:16:28Z</time>
      </trkpt>
      <trkpt lat="45.23402" lon="6.41221">
        <ele>1205.15</ele>
        <time>2009-08-01T08:16:41Z</time>
      </trkpt>
      <trkpt lat="45.23404" lon="6.41208">
        <ele>1206.59</ele>
        <time>2009-08-01T08:16:47Z</time>
      </trkpt>
      <trkpt lat="45.2342" lon="6.4119">
        <ele>1207.07</ele>
        <time>2009-08-01T08:16:53Z</time>
      </trkpt>
      <trkpt lat="45.23442" lon="6.41148">
        <ele>1209.96</ele>
        <time>2009-08-01T08:17:04Z</time>
      </trkpt>
      <trkpt lat="45.23474" lon="6.41119">
        <ele>1212.84</ele>
        <time>2009-08-01T08:17:16Z</time>
      </trkpt>
      <trkpt lat="45.23487" lon="6.41074">
        <ele>1215.72</ele>
        <time>2009-08-01T08:17:27Z</time>
      </trkpt>
      <trkpt lat="45.23507" lon="6.41034">
        <ele>1219.09</ele>
        <time>2009-08-01T08:17:39Z</time>
      </trkpt>
      <trkpt lat="45.23503" lon="6.40996">
        <ele>1221.01</ele>
        <time>2009-08-01T08:17:49Z</time>
      </trkpt>
      <trkpt lat="45.23477" lon="6.40958">
        <ele>1223.42</ele>
        <time>2009-08-01T08:18:02Z</time>
      </trkpt>
      <trkpt lat="45.2347" lon="6.40959">
        <ele>1224.38</ele>
        <time>2009-08-01T08:18:06Z</time>
      </trkpt>
      <trkpt lat="45.23476" lon="6.40987">
        <ele>1225.34</ele>
        <time>2009-08-01T08:18:13Z</time>
      </trkpt>
      <trkpt lat="45.23484" lon="6.41036">
        <ele>1228.22</ele>
        <time>2009-08-01T08:18:27Z</time>
      </trkpt>
      <trkpt lat="45.23454" lon="6.41062">
        <ele>1229.18</ele>
        <time>2009-08-01T08:18:41Z</time>
      </trkpt>
      <trkpt lat="45.23425" lon="6.41084">
        <ele>1231.11</ele>
        <time>2009-08-01T08:18:56Z</time>
      </trkpt>
      <trkpt lat="45.23399" lon="6.41102">
        <ele>1232.55</ele>
        <time>2009-08-01T08:19:09Z</time>
      </trkpt>
      <trkpt lat="45.23391" lon="6.41101">
        <ele>1233.51</ele>
        <time>2009-08-01T08:19:13Z</time>
      </trkpt>
      <trkpt lat="45.23394" lon="6.41081">
        <ele>1233.99</ele>
        <time>2009-08-01T08:19:18Z</time>
      </trkpt>
      <trkpt lat="45.23397" lon="6.41076">
        <ele>1234.95</ele>
        <time>2009-08-01T08:19:20Z</time>
      </trkpt>
      <trkpt lat="45.23423" lon="6.4105">
        <ele>1236.87</ele>
        <time>2009-08-01T08:19:35Z</time>
      </trkpt>
      <trkpt lat="45.23429" lon="6.4103">
        <ele>1238.32</ele>
        <time>2009-08-01T08:19:43Z</time>
      </trkpt>
      <trkpt lat="45.23425" lon="6.41009">
        <ele>1239.76</ele>
        <time>2009-08-01T08:19:51Z</time>
      </trkpt>
      <trkpt lat="45.23418" lon="6.40994">
        <ele>1241.2</ele>
        <time>2009-08-01T08:19:59Z</time>
      </trkpt>
      <trkpt lat="45.23415" lon="6.40981">
        <ele>1241.68</ele>
        <time>2009-08-01T08:20:05Z</time>
      </trkpt>
      <trkpt lat="45.23408" lon="6.40959">
        <ele>1243.6</ele>
        <time>2009-08-01T08:20:14Z</time>
      </trkpt>
      <trkpt lat="45.23404" lon="6.40913">
        <ele>1246.49</ele>
        <time>2009-08-01T08:20:31Z</time>
      </trkpt>
      <trkpt lat="45.23409" lon="6.40866">
        <ele>1249.37</ele>
        <time>2009-08-01T08:20:48Z</time>
      </trkpt>
      <trkpt lat="45.23423" lon="6.40827">
        <ele>1252.74</ele>
        <time>2009-08-01T08:21:04Z</time>
      </trkpt>
      <trkpt lat="45.23427" lon="6.40788">
        <ele>1254.66</ele>
        <time>2009-08-01T08:21:20Z</time>
      </trkpt>
      <trkpt lat="45.23428" lon="6.40779">
        <ele>1255.62</ele>
        <time>2009-08-01T08:21:24Z</time>
      </trkpt>
      <trkpt lat="45.23429" lon="6.40741">
        <ele>1258.02</ele>
        <time>2009-08-01T08:21:38Z</time>
      </trkpt>
      <trkpt lat="45.23428" lon="6.407">
        <ele>1260.91</ele>
        <time>2009-08-01T08:21:53Z</time>
      </trkpt>
      <trkpt lat="45.23438" lon="6.40663">
        <ele>1264.27</ele>
        <time>2009-08-01T08:22:07Z</time>
      </trkpt>
      <trkpt lat="45.23456" lon="6.40619">
        <ele>1266.67</ele>
        <time>2009-08-01T08:22:24Z</time>
      </trkpt>
      <trkpt lat="45.23465" lon="6.40576">
        <ele>1269.56</ele>
        <time>2009-08-01T08:22:39Z</time>
      </trkpt>
      <trkpt lat="45.23469" lon="6.40539">
        <ele>1272.44</ele>
        <time>2009-08-01T08:22:53Z</time>
      </trkpt>
      <trkpt lat="45.23467" lon="6.405">
        <ele>1275.81</ele>
        <time>2009-08-01T08:23:07Z</time>
      </trkpt>
      <trkpt lat="45.2347" lon="6.40463">
        <ele>1277.73</ele>
        <time>2009-08-01T08:23:20Z</time>
      </trkpt>
      <trkpt lat="45.23473" lon="6.40436">
        <ele>1280.13</ele>
        <time>2009-08-01T08:23:30Z</time>
      </trkpt>
      <trkpt lat="45.23489" lon="6.40407">
        <ele>1281.57</ele>
        <time>2009-08-01T08:23:42Z</time>
      </trkpt>
      <trkpt lat="45.23497" lon="6.40367">
        <ele>1284.46</ele>
        <time>2009-08-01T08:23:58Z</time>
      </trkpt>
      <trkpt lat="45.23508" lon="6.40332">
        <ele>1287.82</ele>
        <time>2009-08-01T08:24:11Z</time>
      </trkpt>
      <trkpt lat="45.23521" lon="6.40298">
        <ele>1290.23</ele>
        <time>2009-08-01T08:24:25Z</time>
      </trkpt>
      <trkpt lat="45.23533" lon="6.40263">
        <ele>1292.63</ele>
        <time>2009-08-01T08:24:41Z</time>
      </trkpt>
      <trkpt lat="45.23546" lon="6.40231">
        <ele>1295.99</ele>
        <time>2009-08-01T08:24:56Z</time>
      </trkpt>
      <trkpt lat="45.2356" lon="6.402">
        <ele>1298.4</ele>
        <time>2009-08-01T08:25:10Z</time>
      </trkpt>
      <trkpt lat="45.23581" lon="6.40187">
        <ele>1300.8</ele>
        <time>2009-08-01T08:25:24Z</time>
      </trkpt>
      <trkpt lat="45.23599" lon="6.40174">
        <ele>1302.72</ele>
        <time>2009-08-01T08:25:37Z</time>
      </trkpt>
      <trkpt lat="45.23607" lon="6.40139">
        <ele>1305.61</ele>
        <time>2009-08-01T08:25:49Z</time>
      </trkpt>
      <trkpt lat="45.23604" lon="6.40132">
        <ele>1305.61</ele>
        <time>2009-08-01T08:25:53Z</time>
      </trkpt>
      <trkpt lat="45.23601" lon="6.40112">
        <ele>1307.53</ele>
        <time>2009-08-01T08:26:03Z</time>
      </trkpt>
      <trkpt lat="45.236" lon="6.40085">
        <ele>1309.45</ele>
        <time>2009-08-01T08:26:15Z</time>
      </trkpt>
      <trkpt lat="45.23603" lon="6.40076">
        <ele>1310.41</ele>
        <time>2009-08-01T08:26:19Z</time>
      </trkpt>
      <trkpt lat="45.23618" lon="6.40045">
        <ele>1312.82</ele>
        <time>2009-08-01T08:26:35Z</time>
      </trkpt>
      <trkpt lat="45.23635" lon="6.40026">
        <ele>1314.74</ele>
        <time>2009-08-01T08:26:47Z</time>
      </trkpt>
      <trkpt lat="45.23644" lon="6.40014">
        <ele>1315.7</ele>
        <time>2009-08-01T08:26:55Z</time>
      </trkpt>
      <trkpt lat="45.23649" lon="6.40004">
        <ele>1317.14</ele>
        <time>2009-08-01T08:26:59Z</time>
      </trkpt>
      <trkpt lat="45.23648" lon="6.40002">
        <ele>1317.14</ele>
        <time>2009-08-01T08:27:01Z</time>
      </trkpt>
      <trkpt lat="45.23667" lon="6.39969">
        <ele>1319.55</ele>
        <time>2009-08-01T08:27:17Z</time>
      </trkpt>
      <trkpt lat="45.23669" lon="6.3996">
        <ele>1320.03</ele>
        <time>2009-08-01T08:27:22Z</time>
      </trkpt>
      <trkpt lat="45.2368" lon="6.39917">
        <ele>1323.39</ele>
        <time>2009-08-01T08:27:40Z</time>
      </trkpt>
      <trkpt lat="45.23679" lon="6.39882">
        <ele>1325.8</ele>
        <time>2009-08-01T08:27:54Z</time>
      </trkpt>
      <trkpt lat="45.23671" lon="6.39853">
        <ele>1327.72</ele>
        <time>2009-08-01T08:28:07Z</time>
      </trkpt>
      <trkpt lat="45.23658" lon="6.39826">
        <ele>1330.12</ele>
        <time>2009-08-01T08:28:20Z</time>
      </trkpt>
      <trkpt lat="45.23647" lon="6.39818">
        <ele>1331.56</ele>
        <time>2009-08-01T08:28:27Z</time>
      </trkpt>
      <trkpt lat="45.23629" lon="6.39788">
        <ele>1333.97</ele>
        <time>2009-08-01T08:28:42Z</time>
      </trkpt>
      <trkpt lat="45.23613" lon="6.39759">
        <ele>1336.85</ele>
        <time>2009-08-01T08:28:57Z</time>
      </trkpt>
      <trkpt lat="45.23608" lon="6.39754">
        <ele>1337.33</ele>
        <time>2009-08-01T08:29:00Z</time>
      </trkpt>
      <trkpt lat="45.23593" lon="6.39726">
        <ele>1340.22</ele>
        <time>2009-08-01T08:29:17Z</time>
      </trkpt>
      <trkpt lat="45.23578" lon="6.39695">
        <ele>1342.62</ele>
        <time>2009-08-01T08:29:30Z</time>
      </trkpt>
      <trkpt lat="45.23574" lon="6.39671">
        <ele>1344.54</ele>
        <time>2009-08-01T08:29:41Z</time>
      </trkpt>
      <trkpt lat="45.23571" lon="6.39635">
        <ele>1347.43</ele>
        <time>2009-08-01T08:29:54Z</time>
      </trkpt>
      <trkpt lat="45.23571" lon="6.39627">
        <ele>1346.94</ele>
        <time>2009-08-01T08:29:57Z</time>
      </trkpt>
      <trkpt lat="45.23568" lon="6.3962">
        <ele>1348.39</ele>
        <time>2009-08-01T08:30:01Z</time>
      </trkpt>
      <trkpt lat="45.23546" lon="6.39609">
        <ele>1349.83</ele>
        <time>2009-08-01T08:30:15Z</time>
      </trkpt>
      <trkpt lat="45.23543" lon="6.39614">
        <ele>1349.83</ele>
        <time>2009-08-01T08:30:18Z</time>
      </trkpt>
      <trkpt lat="45.23527" lon="6.39646">
        <ele>1352.23</ele>
        <time>2009-08-01T08:30:33Z</time>
      </trkpt>
      <trkpt lat="45.23537" lon="6.39689">
        <ele>1354.15</ele>
        <time>2009-08-01T08:30:48Z</time>
      </trkpt>
      <trkpt lat="45.23552" lon="6.39724">
        <ele>1356.08</ele>
        <time>2009-08-01T08:31:02Z</time>
      </trkpt>
      <trkpt lat="45.2358" lon="6.39759">
        <ele>1358.96</ele>
        <time>2009-08-01T08:31:18Z</time>
      </trkpt>
      <trkpt lat="45.23585" lon="6.398">
        <ele>1361.84</ele>
        <time>2009-08-01T08:31:34Z</time>
      </trkpt>
      <trkpt lat="45.23571" lon="6.39832">
        <ele>1364.73</ele>
        <time>2009-08-01T08:31:48Z</time>
      </trkpt>
      <trkpt lat="45.23555" lon="6.39854">
        <ele>1367.13</ele>
        <time>2009-08-01T08:32:03Z</time>
      </trkpt>
      <trkpt lat="45.23536" lon="6.39878">
        <ele>1369.54</ele>
        <time>2009-08-01T08:32:16Z</time>
      </trkpt>
      <trkpt lat="45.23518" lon="6.39903">
        <ele>1371.94</ele>
        <time>2009-08-01T08:32:30Z</time>
      </trkpt>
      <trkpt lat="45.23501" lon="6.39928">
        <ele>1374.34</ele>
        <time>2009-08-01T08:32:44Z</time>
      </trkpt>
      <trkpt lat="45.23488" lon="6.39967">
        <ele>1376.75</ele>
        <time>2009-08-01T08:32:59Z</time>
      </trkpt>
      <trkpt lat="45.23489" lon="6.40007">
        <ele>1379.15</ele>
        <time>2009-08-01T08:33:14Z</time>
      </trkpt>
      <trkpt lat="45.23497" lon="6.40044">
        <ele>1382.03</ele>
        <time>2009-08-01T08:33:29Z</time>
      </trkpt>
      <trkpt lat="45.23495" lon="6.4008">
        <ele>1384.44</ele>
        <time>2009-08-01T08:33:44Z</time>
      </trkpt>
      <trkpt lat="45.23494" lon="6.40084">
        <ele>1384.92</ele>
        <time>2009-08-01T08:33:46Z</time>
      </trkpt>
      <trkpt lat="45.23486" lon="6.40087">
        <ele>1385.88</ele>
        <time>2009-08-01T08:33:50Z</time>
      </trkpt>
      <trkpt lat="45.23455" lon="6.40089">
        <ele>1388.76</ele>
        <time>2009-08-01T08:34:06Z</time>
      </trkpt>
      <trkpt lat="45.23431" lon="6.40096">
        <ele>1390.68</ele>
        <time>2009-08-01T08:34:20Z</time>
      </trkpt>
      <trkpt lat="45.23412" lon="6.40109">
        <ele>1392.61</ele>
        <time>2009-08-01T08:34:32Z</time>
      </trkpt>
      <trkpt lat="45.23389" lon="6.40133">
        <ele>1395.01</ele>
        <time>2009-08-01T08:34:47Z</time>
      </trkpt>
      <trkpt lat="45.23376" lon="6.40159">
        <ele>1397.41</ele>
        <time>2009-08-01T08:35:00Z</time>
      </trkpt>
      <trkpt lat="45.23374" lon="6.40161">
        <ele>1397.41</ele>
        <time>2009-08-01T08:35:01Z</time>
      </trkpt>
      <trkpt lat="45.23366" lon="6.40177">
        <ele>1398.86</ele>
        <time>2009-08-01T08:35:10Z</time>
      </trkpt>
      <trkpt lat="45.23346" lon="6.40208">
        <ele>1401.74</ele>
        <time>2009-08-01T08:35:27Z</time>
      </trkpt>
      <trkpt lat="45.23325" lon="6.40231">
        <ele>1404.14</ele>
        <time>2009-08-01T08:35:42Z</time>
      </trkpt>
      <trkpt lat="45.23305" lon="6.40254">
        <ele>1407.03</ele>
        <time>2009-08-01T08:35:56Z</time>
      </trkpt>
      <trkpt lat="45.23294" lon="6.40286">
        <ele>1409.91</ele>
        <time>2009-08-01T08:36:10Z</time>
      </trkpt>
      <trkpt lat="45.23284" lon="6.40319">
        <ele>1412.31</ele>
        <time>2009-08-01T08:36:25Z</time>
      </trkpt>
      <trkpt lat="45.23276" lon="6.40331">
        <ele>1413.28</ele>
        <time>2009-08-01T08:36:33Z</time>
      </trkpt>
      <trkpt lat="45.23255" lon="6.40355">
        <ele>1415.68</ele>
        <time>2009-08-01T08:36:48Z</time>
      </trkpt>
      <trkpt lat="45.23244" lon="6.40385">
        <ele>1418.08</ele>
        <time>2009-08-01T08:37:02Z</time>
      </trkpt>
      <trkpt lat="45.23238" lon="6.40421">
        <ele>1420.49</ele>
        <time>2009-08-01T08:37:16Z</time>
      </trkpt>
      <trkpt lat="45.23226" lon="6.40455">
        <ele>1422.41</ele>
        <time>2009-08-01T08:37:29Z</time>
      </trkpt>
      <trkpt lat="45.23208" lon="6.40487">
        <ele>1424.81</ele>
        <time>2009-08-01T08:37:44Z</time>
      </trkpt>
      <trkpt lat="45.23193" lon="6.40523">
        <ele>1427.7</ele>
        <time>2009-08-01T08:38:00Z</time>
      </trkpt>
      <trkpt lat="45.23182" lon="6.40561">
        <ele>1430.58</ele>
        <time>2009-08-01T08:38:15Z</time>
      </trkpt>
      <trkpt lat="45.23171" lon="6.40586">
        <ele>1432.5</ele>
        <time>2009-08-01T08:38:25Z</time>
      </trkpt>
      <trkpt lat="45.23164" lon="6.40625">
        <ele>1434.91</ele>
        <time>2009-08-01T08:38:39Z</time>
      </trkpt>
      <trkpt lat="45.23162" lon="6.40659">
        <ele>1436.83</ele>
        <time>2009-08-01T08:38:52Z</time>
      </trkpt>
      <trkpt lat="45.23144" lon="6.40704">
        <ele>1439.23</ele>
        <time>2009-08-01T08:39:08Z</time>
      </trkpt>
      <trkpt lat="45.23119" lon="6.40722">
        <ele>1441.63</ele>
        <time>2009-08-01T08:39:23Z</time>
      </trkpt>
      <trkpt lat="45.2311" lon="6.40721">
        <ele>1442.6</ele>
        <time>2009-08-01T08:39:28Z</time>
      </trkpt>
      <trkpt lat="45.23087" lon="6.40709">
        <ele>1445</ele>
        <time>2009-08-01T08:39:41Z</time>
      </trkpt>
      <trkpt lat="45.23058" lon="6.40706">
        <ele>1447.4</ele>
        <time>2009-08-01T08:39:58Z</time>
      </trkpt>
      <trkpt lat="45.23054" lon="6.40707">
        <ele>1447.88</ele>
        <time>2009-08-01T08:40:00Z</time>
      </trkpt>
      <trkpt lat="45.23046" lon="6.40709">
        <ele>1448.84</ele>
        <time>2009-08-01T08:40:04Z</time>
      </trkpt>
      <trkpt lat="45.23023" lon="6.40731">
        <ele>1450.77</ele>
        <time>2009-08-01T08:40:19Z</time>
      </trkpt>
      <trkpt lat="45.23021" lon="6.40733">
        <ele>1451.25</ele>
        <time>2009-08-01T08:40:20Z</time>
      </trkpt>
      <trkpt lat="45.23021" lon="6.40748">
        <ele>1452.21</ele>
        <time>2009-08-01T08:40:26Z</time>
      </trkpt>
      <trkpt lat="45.23016" lon="6.40771">
        <ele>1453.17</ele>
        <time>2009-08-01T08:40:33Z</time>
      </trkpt>
      <trkpt lat="45.23019" lon="6.40781">
        <ele>1454.13</ele>
        <time>2009-08-01T08:40:38Z</time>
      </trkpt>
      <trkpt lat="45.22998" lon="6.40809">
        <ele>1456.53</ele>
        <time>2009-08-01T08:40:52Z</time>
      </trkpt>
      <trkpt lat="45.22974" lon="6.40828">
        <ele>1458.94</ele>
        <time>2009-08-01T08:41:07Z</time>
      </trkpt>
      <trkpt lat="45.22968" lon="6.40854">
        <ele>1460.86</ele>
        <time>2009-08-01T08:41:18Z</time>
      </trkpt>
      <trkpt lat="45.22959" lon="6.40884">
        <ele>1462.3</ele>
        <time>2009-08-01T08:41:30Z</time>
      </trkpt>
      <trkpt lat="45.2295" lon="6.40914">
        <ele>1463.74</ele>
        <time>2009-08-01T08:41:43Z</time>
      </trkpt>
      <trkpt lat="45.22926" lon="6.40912">
        <ele>1464.71</ele>
        <time>2009-08-01T08:41:54Z</time>
      </trkpt>
      <trkpt lat="45.2293" lon="6.40873">
        <ele>1466.63</ele>
        <time>2009-08-01T08:42:08Z</time>
      </trkpt>
      <trkpt lat="45.22937" lon="6.40841">
        <ele>1468.55</ele>
        <time>2009-08-01T08:42:20Z</time>
      </trkpt>
      <trkpt lat="45.2295" lon="6.40802">
        <ele>1471.44</ele>
        <time>2009-08-01T08:42:35Z</time>
      </trkpt>
      <trkpt lat="45.22962" lon="6.40766">
        <ele>1473.36</ele>
        <time>2009-08-01T08:42:49Z</time>
      </trkpt>
      <trkpt lat="45.22964" lon="6.40755">
        <ele>1474.32</ele>
        <time>2009-08-01T08:42:53Z</time>
      </trkpt>
      <trkpt lat="45.22968" lon="6.40739">
        <ele>1475.28</ele>
        <time>2009-08-01T08:43:00Z</time>
      </trkpt>
      <trkpt lat="45.22962" lon="6.40727">
        <ele>1475.76</ele>
        <time>2009-08-01T08:43:04Z</time>
      </trkpt>
      <trkpt lat="45.22955" lon="6.40735">
        <ele>1476.24</ele>
        <time>2009-08-01T08:43:13Z</time>
      </trkpt>
      <trkpt lat="45.22957" lon="6.40742">
        <ele>1476.72</ele>
        <time>2009-08-01T08:43:16Z</time>
      </trkpt>
      <trkpt lat="45.22934" lon="6.40784">
        <ele>1478.65</ele>
        <time>2009-08-01T08:43:29Z</time>
      </trkpt>
      <trkpt lat="45.22918" lon="6.40811">
        <ele>1480.57</ele>
        <time>2009-08-01T08:43:41Z</time>
      </trkpt>
      <trkpt lat="45.22897" lon="6.40846">
        <ele>1483.45</ele>
        <time>2009-08-01T08:43:57Z</time>
      </trkpt>
      <trkpt lat="45.22892" lon="6.40863">
        <ele>1484.89</ele>
        <time>2009-08-01T08:44:04Z</time>
      </trkpt>
      <trkpt lat="45.2289" lon="6.40871">
        <ele>1485.37</ele>
        <time>2009-08-01T08:44:08Z</time>
      </trkpt>
      <trkpt lat="45.22883" lon="6.40891">
        <ele>1486.82</ele>
        <time>2009-08-01T08:44:17Z</time>
      </trkpt>
      <trkpt lat="45.22873" lon="6.40907">
        <ele>1488.26</ele>
        <time>2009-08-01T08:44:25Z</time>
      </trkpt>
      <trkpt lat="45.22867" lon="6.40915">
        <ele>1488.74</ele>
        <time>2009-08-01T08:44:29Z</time>
      </trkpt>
      <trkpt lat="45.22861" lon="6.40921">
        <ele>1489.7</ele>
        <time>2009-08-01T08:44:33Z</time>
      </trkpt>
      <trkpt lat="45.22855" lon="6.40926">
        <ele>1490.18</ele>
        <time>2009-08-01T08:44:37Z</time>
      </trkpt>
      <trkpt lat="45.22834" lon="6.4094">
        <ele>1492.1</ele>
        <time>2009-08-01T08:44:49Z</time>
      </trkpt>
      <trkpt lat="45.22809" lon="6.4096">
        <ele>1494.51</ele>
        <time>2009-08-01T08:45:03Z</time>
      </trkpt>
      <trkpt lat="45.22802" lon="6.40965">
        <ele>1495.47</ele>
        <time>2009-08-01T08:45:07Z</time>
      </trkpt>
      <trkpt lat="45.22791" lon="6.40964">
        <ele>1495.95</ele>
        <time>2009-08-01T08:45:13Z</time>
      </trkpt>
      <trkpt lat="45.22762" lon="6.40948">
        <ele>1499.31</ele>
        <time>2009-08-01T08:45:29Z</time>
      </trkpt>
      <trkpt lat="45.22748" lon="6.40914">
        <ele>1502.2</ele>
        <time>2009-08-01T08:45:44Z</time>
      </trkpt>
      <trkpt lat="45.22754" lon="6.40882">
        <ele>1503.64</ele>
        <time>2009-08-01T08:45:56Z</time>
      </trkpt>
      <trkpt lat="45.22762" lon="6.40853">
        <ele>1505.56</ele>
        <time>2009-08-01T08:46:09Z</time>
      </trkpt>
      <trkpt lat="45.22764" lon="6.40851">
        <ele>1505.56</ele>
        <time>2009-08-01T08:46:11Z</time>
      </trkpt>
      <trkpt lat="45.22764" lon="6.40849">
        <ele>1501.24</ele>
        <time>2009-08-01T08:46:19Z</time>
      </trkpt>
      <trkpt lat="45.22764" lon="6.40849">
        <ele>1506.52</ele>
        <time>2009-08-01T08:46:29Z</time>
      </trkpt>
      <trkpt lat="45.22764" lon="6.40849">
        <ele>1506.52</ele>
        <time>2009-08-01T08:46:32Z</time>
      </trkpt>
      <trkpt lat="45.22764" lon="6.40848">
        <ele>1502.2</ele>
        <time>2009-08-01T08:48:35Z</time>
      </trkpt>
      <trkpt lat="45.22764" lon="6.40848">
        <ele>1505.56</ele>
        <time>2009-08-01T08:48:36Z</time>
      </trkpt>
      <trkpt lat="45.22765" lon="6.40848">
        <ele>1500.76</ele>
        <time>2009-08-01T08:49:43Z</time>
      </trkpt>
      <trkpt lat="45.22765" lon="6.40848">
        <ele>1506.52</ele>
        <time>2009-08-01T08:49:44Z</time>
      </trkpt>
      <trkpt lat="45.22766" lon="6.40849">
        <ele>1506.04</ele>
        <time>2009-08-01T08:51:23Z</time>
      </trkpt>
      <trkpt lat="45.22765" lon="6.40848">
        <ele>1506.04</ele>
        <time>2009-08-01T08:52:17Z</time>
      </trkpt>
      <trkpt lat="45.22766" lon="6.40848">
        <ele>1506.04</ele>
        <time>2009-08-01T08:58:59Z</time>
      </trkpt>
      <trkpt lat="45.22768" lon="6.40852">
        <ele>1506.52</ele>
        <time>2009-08-01T08:59:27Z</time>
      </trkpt>
      <trkpt lat="45.22766" lon="6.4085">
        <ele>1506.52</ele>
        <time>2009-08-01T09:00:01Z</time>
      </trkpt>
      <trkpt lat="45.22766" lon="6.40851">
        <ele>1506.52</ele>
        <time>2009-08-01T09:01:28Z</time>
      </trkpt>
      <trkpt lat="45.22766" lon="6.40848">
        <ele>1507</ele>
        <time>2009-08-01T09:03:49Z</time>
      </trkpt>
      <trkpt lat="45.22775" lon="6.40845">
        <ele>1507</ele>
        <time>2009-08-01T09:03:58Z</time>
      </trkpt>
      <trkpt lat="45.22783" lon="6.40841">
        <ele>1507.97</ele>
        <time>2009-08-01T09:04:03Z</time>
      </trkpt>
      <trkpt lat="45.22791" lon="6.40834">
        <ele>1509.41</ele>
        <time>2009-08-01T09:04:09Z</time>
      </trkpt>
      <trkpt lat="45.22793" lon="6.40833">
        <ele>1509.41</ele>
        <time>2009-08-01T09:04:10Z</time>
      </trkpt>
      <trkpt lat="45.22795" lon="6.40831">
        <ele>1509.41</ele>
        <time>2009-08-01T09:04:12Z</time>
      </trkpt>
      <trkpt lat="45.22805" lon="6.40836">
        <ele>1509.41</ele>
        <time>2009-08-01T09:04:17Z</time>
      </trkpt>
      <trkpt lat="45.2282" lon="6.40829">
        <ele>1510.37</ele>
        <time>2009-08-01T09:04:25Z</time>
      </trkpt>
      <trkpt lat="45.22826" lon="6.40802">
        <ele>1511.81</ele>
        <time>2009-08-01T09:04:34Z</time>
      </trkpt>
      <trkpt lat="45.22831" lon="6.4076">
        <ele>1513.73</ele>
        <time>2009-08-01T09:04:47Z</time>
      </trkpt>
      <trkpt lat="45.22835" lon="6.40739">
        <ele>1515.18</ele>
        <time>2009-08-01T09:04:54Z</time>
      </trkpt>
      <trkpt lat="45.22842" lon="6.4072">
        <ele>1516.62</ele>
        <time>2009-08-01T09:05:03Z</time>
      </trkpt>
      <trkpt lat="45.22859" lon="6.40703">
        <ele>1518.06</ele>
        <time>2009-08-01T09:05:10Z</time>
      </trkpt>
      <trkpt lat="45.22877" lon="6.4067">
        <ele>1520.94</ele>
        <time>2009-08-01T09:05:25Z</time>
      </trkpt>
      <trkpt lat="45.22891" lon="6.40639">
        <ele>1522.87</ele>
        <time>2009-08-01T09:05:37Z</time>
      </trkpt>
      <trkpt lat="45.22909" lon="6.40612">
        <ele>1525.75</ele>
        <time>2009-08-01T09:05:50Z</time>
      </trkpt>
      <trkpt lat="45.22924" lon="6.40581">
        <ele>1528.15</ele>
        <time>2009-08-01T09:06:03Z</time>
      </trkpt>
      <trkpt lat="45.2294" lon="6.40559">
        <ele>1530.08</ele>
        <time>2009-08-01T09:06:14Z</time>
      </trkpt>
      <trkpt lat="45.22942" lon="6.40552">
        <ele>1530.08</ele>
        <time>2009-08-01T09:06:16Z</time>
      </trkpt>
      <trkpt lat="45.22945" lon="6.40534">
        <ele>1531.04</ele>
        <time>2009-08-01T09:06:21Z</time>
      </trkpt>
      <trkpt lat="45.22938" lon="6.4053">
        <ele>1531.04</ele>
        <time>2009-08-01T09:06:25Z</time>
      </trkpt>
      <trkpt lat="45.22933" lon="6.40529">
        <ele>1531.52</ele>
        <time>2009-08-01T09:06:27Z</time>
      </trkpt>
      <trkpt lat="45.22923" lon="6.40536">
        <ele>1532.48</ele>
        <time>2009-08-01T09:06:31Z</time>
      </trkpt>
      <trkpt lat="45.22902" lon="6.40561">
        <ele>1534.4</ele>
        <time>2009-08-01T09:06:44Z</time>
      </trkpt>
      <trkpt lat="45.22884" lon="6.40576">
        <ele>1536.8</ele>
        <time>2009-08-01T09:06:54Z</time>
      </trkpt>
      <trkpt lat="45.22859" lon="6.40595">
        <ele>1539.21</ele>
        <time>2009-08-01T09:07:08Z</time>
      </trkpt>
      <trkpt lat="45.22831" lon="6.40623">
        <ele>1542.57</ele>
        <time>2009-08-01T09:07:23Z</time>
      </trkpt>
      <trkpt lat="45.22805" lon="6.40638">
        <ele>1545.46</ele>
        <time>2009-08-01T09:07:36Z</time>
      </trkpt>
      <trkpt lat="45.22804" lon="6.40638">
        <ele>1540.65</ele>
        <time>2009-08-01T09:07:37Z</time>
      </trkpt>
      <trkpt lat="45.22801" lon="6.40637">
        <ele>1540.65</ele>
        <time>2009-08-01T09:07:38Z</time>
      </trkpt>
      <trkpt lat="45.22799" lon="6.40635">
        <ele>1545.46</ele>
        <time>2009-08-01T09:07:39Z</time>
      </trkpt>
      <trkpt lat="45.22799" lon="6.40635">
        <ele>1545.46</ele>
        <time>2009-08-01T09:07:40Z</time>
      </trkpt>
      <trkpt lat="45.2278" lon="6.40628">
        <ele>1546.9</ele>
        <time>2009-08-01T09:07:51Z</time>
      </trkpt>
      <trkpt lat="45.22752" lon="6.40607">
        <ele>1549.78</ele>
        <time>2009-08-01T09:08:05Z</time>
      </trkpt>
      <trkpt lat="45.22743" lon="6.40595">
        <ele>1551.22</ele>
        <time>2009-08-01T09:08:12Z</time>
      </trkpt>
      <trkpt lat="45.22735" lon="6.40577">
        <ele>1552.19</ele>
        <time>2009-08-01T09:08:19Z</time>
      </trkpt>
      <trkpt lat="45.22731" lon="6.40572">
        <ele>1552.19</ele>
        <time>2009-08-01T09:08:23Z</time>
      </trkpt>
      <trkpt lat="45.22728" lon="6.40548">
        <ele>1554.11</ele>
        <time>2009-08-01T09:08:32Z</time>
      </trkpt>
      <trkpt lat="45.22723" lon="6.40539">
        <ele>1554.59</ele>
        <time>2009-08-01T09:08:36Z</time>
      </trkpt>
      <trkpt lat="45.2272" lon="6.40495">
        <ele>1557.95</ele>
        <time>2009-08-01T09:08:51Z</time>
      </trkpt>
      <trkpt lat="45.22716" lon="6.40481">
        <ele>1558.43</ele>
        <time>2009-08-01T09:08:56Z</time>
      </trkpt>
      <trkpt lat="45.22689" lon="6.4047">
        <ele>1562.28</ele>
        <time>2009-08-01T09:09:09Z</time>
      </trkpt>
      <trkpt lat="45.22664" lon="6.40477">
        <ele>1564.68</ele>
        <time>2009-08-01T09:09:22Z</time>
      </trkpt>
      <trkpt lat="45.22641" lon="6.40483">
        <ele>1567.57</ele>
        <time>2009-08-01T09:09:35Z</time>
      </trkpt>
      <trkpt lat="45.22614" lon="6.40474">
        <ele>1569.97</ele>
        <time>2009-08-01T09:09:48Z</time>
      </trkpt>
      <trkpt lat="45.22586" lon="6.40455">
        <ele>1572.37</ele>
        <time>2009-08-01T09:10:03Z</time>
      </trkpt>
      <trkpt lat="45.22567" lon="6.4043">
        <ele>1575.26</ele>
        <time>2009-08-01T09:10:16Z</time>
      </trkpt>
      <trkpt lat="45.22541" lon="6.40426">
        <ele>1577.66</ele>
        <time>2009-08-01T09:10:29Z</time>
      </trkpt>
      <trkpt lat="45.22521" lon="6.4045">
        <ele>1580.54</ele>
        <time>2009-08-01T09:10:42Z</time>
      </trkpt>
      <trkpt lat="45.22507" lon="6.40464">
        <ele>1581.51</ele>
        <time>2009-08-01T09:10:50Z</time>
      </trkpt>
      <trkpt lat="45.22492" lon="6.40479">
        <ele>1583.91</ele>
        <time>2009-08-01T09:11:00Z</time>
      </trkpt>
      <trkpt lat="45.22473" lon="6.4051">
        <ele>1586.31</ele>
        <time>2009-08-01T09:11:12Z</time>
      </trkpt>
      <trkpt lat="45.22454" lon="6.40531">
        <ele>1588.24</ele>
        <time>2009-08-01T09:11:24Z</time>
      </trkpt>
      <trkpt lat="45.2244" lon="6.40566">
        <ele>1590.64</ele>
        <time>2009-08-01T09:11:37Z</time>
      </trkpt>
      <trkpt lat="45.22423" lon="6.40586">
        <ele>1592.08</ele>
        <time>2009-08-01T09:11:46Z</time>
      </trkpt>
      <trkpt lat="45.22405" lon="6.40611">
        <ele>1593.52</ele>
        <time>2009-08-01T09:11:56Z</time>
      </trkpt>
      <trkpt lat="45.22393" lon="6.40617">
        <ele>1594.96</ele>
        <time>2009-08-01T09:12:03Z</time>
      </trkpt>
      <trkpt lat="45.22386" lon="6.40638">
        <ele>1595.93</ele>
        <time>2009-08-01T09:12:09Z</time>
      </trkpt>
      <trkpt lat="45.22382" lon="6.40641">
        <ele>1595.93</ele>
        <time>2009-08-01T09:12:11Z</time>
      </trkpt>
      <trkpt lat="45.22385" lon="6.4065">
        <ele>1596.41</ele>
        <time>2009-08-01T09:12:14Z</time>
      </trkpt>
      <trkpt lat="45.22387" lon="6.40676">
        <ele>1597.85</ele>
        <time>2009-08-01T09:12:21Z</time>
      </trkpt>
      <trkpt lat="45.22381" lon="6.40726">
        <ele>1599.77</ele>
        <time>2009-08-01T09:12:34Z</time>
      </trkpt>
      <trkpt lat="45.22378" lon="6.40766">
        <ele>1601.21</ele>
        <time>2009-08-01T09:12:46Z</time>
      </trkpt>
      <trkpt lat="45.22372" lon="6.40771">
        <ele>1602.17</ele>
        <time>2009-08-01T09:12:49Z</time>
      </trkpt>
      <trkpt lat="45.22377" lon="6.40814">
        <ele>1604.1</ele>
        <time>2009-08-01T09:13:00Z</time>
      </trkpt>
      <trkpt lat="45.22376" lon="6.40832">
        <ele>1605.06</ele>
        <time>2009-08-01T09:13:04Z</time>
      </trkpt>
      <trkpt lat="45.22374" lon="6.40849">
        <ele>1606.02</ele>
        <time>2009-08-01T09:13:10Z</time>
      </trkpt>
      <trkpt lat="45.22366" lon="6.40892">
        <ele>1608.9</ele>
        <time>2009-08-01T09:13:23Z</time>
      </trkpt>
      <trkpt lat="45.22358" lon="6.40909">
        <ele>1609.86</ele>
        <time>2009-08-01T09:13:29Z</time>
      </trkpt>
      <trkpt lat="45.22354" lon="6.40925">
        <ele>1610.83</ele>
        <time>2009-08-01T09:13:35Z</time>
      </trkpt>
      <trkpt lat="45.22347" lon="6.40965">
        <ele>1613.23</ele>
        <time>2009-08-01T09:13:47Z</time>
      </trkpt>
      <trkpt lat="45.22345" lon="6.40967">
        <ele>1613.23</ele>
        <time>2009-08-01T09:13:48Z</time>
      </trkpt>
      <trkpt lat="45.22339" lon="6.40981">
        <ele>1614.67</ele>
        <time>2009-08-01T09:13:53Z</time>
      </trkpt>
      <trkpt lat="45.2233" lon="6.41003">
        <ele>1615.63</ele>
        <time>2009-08-01T09:14:01Z</time>
      </trkpt>
      <trkpt lat="45.22324" lon="6.41014">
        <ele>1616.59</ele>
        <time>2009-08-01T09:14:05Z</time>
      </trkpt>
      <trkpt lat="45.22311" lon="6.4105">
        <ele>1618.52</ele>
        <time>2009-08-01T09:14:17Z</time>
      </trkpt>
      <trkpt lat="45.22291" lon="6.41086">
        <ele>1620.92</ele>
        <time>2009-08-01T09:14:32Z</time>
      </trkpt>
      <trkpt lat="45.22265" lon="6.41119">
        <ele>1624.28</ele>
        <time>2009-08-01T09:14:45Z</time>
      </trkpt>
      <trkpt lat="45.22255" lon="6.41126">
        <ele>1625.25</ele>
        <time>2009-08-01T09:14:52Z</time>
      </trkpt>
      <trkpt lat="45.22229" lon="6.41141">
        <ele>1627.17</ele>
        <time>2009-08-01T09:15:04Z</time>
      </trkpt>
      <trkpt lat="45.22227" lon="6.41142">
        <ele>1627.65</ele>
        <time>2009-08-01T09:15:05Z</time>
      </trkpt>
      <trkpt lat="45.2221" lon="6.41155">
        <ele>1630.05</ele>
        <time>2009-08-01T09:15:15Z</time>
      </trkpt>
      <trkpt lat="45.22185" lon="6.41176">
        <ele>1631.98</ele>
        <time>2009-08-01T09:15:27Z</time>
      </trkpt>
      <trkpt lat="45.22184" lon="6.41177">
        <ele>1632.46</ele>
        <time>2009-08-01T09:15:28Z</time>
      </trkpt>
      <trkpt lat="45.22175" lon="6.41182">
        <ele>1633.42</ele>
        <time>2009-08-01T09:15:32Z</time>
      </trkpt>
      <trkpt lat="45.2217" lon="6.41186">
        <ele>1633.9</ele>
        <time>2009-08-01T09:15:34Z</time>
      </trkpt>
      <trkpt lat="45.22149" lon="6.41195">
        <ele>1636.3</ele>
        <time>2009-08-01T09:15:45Z</time>
      </trkpt>
      <trkpt lat="45.2213" lon="6.41203">
        <ele>1638.22</ele>
        <time>2009-08-01T09:15:54Z</time>
      </trkpt>
      <trkpt lat="45.22113" lon="6.41224">
        <ele>1639.67</ele>
        <time>2009-08-01T09:16:04Z</time>
      </trkpt>
      <trkpt lat="45.22108" lon="6.41234">
        <ele>1640.15</ele>
        <time>2009-08-01T09:16:08Z</time>
      </trkpt>
      <trkpt lat="45.22099" lon="6.4124">
        <ele>1641.11</ele>
        <time>2009-08-01T09:16:12Z</time>
      </trkpt>
      <trkpt lat="45.22077" lon="6.41273">
        <ele>1644.47</ele>
        <time>2009-08-01T09:16:26Z</time>
      </trkpt>
      <trkpt lat="45.22059" lon="6.41296">
        <ele>1645.91</ele>
        <time>2009-08-01T09:16:37Z</time>
      </trkpt>
      <trkpt lat="45.22038" lon="6.41311">
        <ele>1647.84</ele>
        <time>2009-08-01T09:16:48Z</time>
      </trkpt>
      <trkpt lat="45.22008" lon="6.41322">
        <ele>1649.76</ele>
        <time>2009-08-01T09:17:00Z</time>
      </trkpt>
      <trkpt lat="45.21976" lon="6.41325">
        <ele>1652.64</ele>
        <time>2009-08-01T09:17:14Z</time>
      </trkpt>
      <trkpt lat="45.21969" lon="6.41327">
        <ele>1653.12</ele>
        <time>2009-08-01T09:17:24Z</time>
      </trkpt>
      <trkpt lat="45.21963" lon="6.41333">
        <ele>1652.16</ele>
        <time>2009-08-01T09:17:35Z</time>
      </trkpt>
      <trkpt lat="45.21963" lon="6.41333">
        <ele>1651.68</ele>
        <time>2009-08-01T09:18:03Z</time>
      </trkpt>
      <trkpt lat="45.21962" lon="6.41334">
        <ele>1650.24</ele>
        <time>2009-08-01T09:18:51Z</time>
      </trkpt>
      <trkpt lat="45.21962" lon="6.41334">
        <ele>1653.6</ele>
        <time>2009-08-01T09:18:53Z</time>
      </trkpt>
      <trkpt lat="45.21962" lon="6.41334">
        <ele>1647.84</ele>
        <time>2009-08-01T09:19:23Z</time>
      </trkpt>
      <trkpt lat="45.21962" lon="6.41334">
        <ele>1655.05</ele>
        <time>2009-08-01T09:19:24Z</time>
      </trkpt>
      <trkpt lat="45.21962" lon="6.41334">
        <ele>1651.2</ele>
        <time>2009-08-01T09:19:25Z</time>
      </trkpt>
      <trkpt lat="45.21962" lon="6.41334">
        <ele>1651.2</ele>
        <time>2009-08-01T09:19:26Z</time>
      </trkpt>
      <trkpt lat="45.21962" lon="6.41334">
        <ele>1655.05</ele>
        <time>2009-08-01T09:19:27Z</time>
      </trkpt>
      <trkpt lat="45.21962" lon="6.41334">
        <ele>1650.72</ele>
        <time>2009-08-01T09:19:32Z</time>
      </trkpt>
      <trkpt lat="45.21962" lon="6.41334">
        <ele>1654.57</ele>
        <time>2009-08-01T09:19:33Z</time>
      </trkpt>
      <trkpt lat="45.21962" lon="6.41334">
        <ele>1654.57</ele>
        <time>2009-08-01T09:19:34Z</time>
      </trkpt>
      <trkpt lat="45.21962" lon="6.41334">
        <ele>1653.12</ele>
        <time>2009-08-01T09:19:35Z</time>
      </trkpt>
      <trkpt lat="45.21962" lon="6.41334">
        <ele>1650.72</ele>
        <time>2009-08-01T09:19:36Z</time>
      </trkpt>
      <trkpt lat="45.21962" lon="6.41334">
        <ele>1654.09</ele>
        <time>2009-08-01T09:19:37Z</time>
      </trkpt>
      <trkpt lat="45.21962" lon="6.41334">
        <ele>1652.16</ele>
        <time>2009-08-01T09:19:38Z</time>
      </trkpt>
      <trkpt lat="45.21962" lon="6.41334">
        <ele>1651.68</ele>
        <time>2009-08-01T09:19:40Z</time>
      </trkpt>
      <trkpt lat="45.21962" lon="6.41334">
        <ele>1650.24</ele>
        <time>2009-08-01T09:19:47Z</time>
      </trkpt>
      <trkpt lat="45.21962" lon="6.41334">
        <ele>1653.6</ele>
        <time>2009-08-01T09:19:48Z</time>
      </trkpt>
      <trkpt lat="45.21962" lon="6.41334">
        <ele>1654.09</ele>
        <time>2009-08-01T09:19:52Z</time>
      </trkpt>
      <trkpt lat="45.21962" lon="6.41334">
        <ele>1653.12</ele>
        <time>2009-08-01T09:20:01Z</time>
      </trkpt>
      <trkpt lat="45.21962" lon="6.41333">
        <ele>1648.8</ele>
        <time>2009-08-01T09:20:21Z</time>
      </trkpt>
      <trkpt lat="45.21962" lon="6.41333">
        <ele>1654.09</ele>
        <time>2009-08-01T09:20:22Z</time>
      </trkpt>
      <trkpt lat="45.21962" lon="6.41333">
        <ele>1650.24</ele>
        <time>2009-08-01T09:20:29Z</time>
      </trkpt>
      <trkpt lat="45.21962" lon="6.41333">
        <ele>1650.72</ele>
        <time>2009-08-01T09:20:30Z</time>
      </trkpt>
      <trkpt lat="45.21962" lon="6.41333">
        <ele>1653.6</ele>
        <time>2009-08-01T09:20:32Z</time>
      </trkpt>
      <trkpt lat="45.21962" lon="6.41333">
        <ele>1656.01</ele>
        <time>2009-08-01T09:20:36Z</time>
      </trkpt>
      <trkpt lat="45.21962" lon="6.41333">
        <ele>1654.09</ele>
        <time>2009-08-01T09:20:38Z</time>
      </trkpt>
      <trkpt lat="45.21962" lon="6.41333">
        <ele>1650.72</ele>
        <time>2009-08-01T09:20:43Z</time>
      </trkpt>
      <trkpt lat="45.21962" lon="6.41333">
        <ele>1652.64</ele>
        <time>2009-08-01T09:20:44Z</time>
      </trkpt>
      <trkpt lat="45.21962" lon="6.41333">
        <ele>1649.28</ele>
        <time>2009-08-01T09:20:45Z</time>
      </trkpt>
      <trkpt lat="45.21962" lon="6.41333">
        <ele>1654.57</ele>
        <time>2009-08-01T09:20:46Z</time>
      </trkpt>
      <trkpt lat="45.21957" lon="6.41335">
        <ele>1656.01</ele>
        <time>2009-08-01T09:21:10Z</time>
      </trkpt>
      <trkpt lat="45.21948" lon="6.41342">
        <ele>1654.57</ele>
        <time>2009-08-01T09:21:14Z</time>
      </trkpt>
      <trkpt lat="45.21936" lon="6.41353">
        <ele>1655.53</ele>
        <time>2009-08-01T09:21:19Z</time>
      </trkpt>
      <trkpt lat="45.21932" lon="6.41356">
        <ele>1656.97</ele>
        <time>2009-08-01T09:21:21Z</time>
      </trkpt>
      <trkpt lat="45.21921" lon="6.41365">
        <ele>1658.89</ele>
        <time>2009-08-01T09:21:28Z</time>
      </trkpt>
      <trkpt lat="45.219" lon="6.41374">
        <ele>1660.33</ele>
        <time>2009-08-01T09:21:37Z</time>
      </trkpt>
      <trkpt lat="45.21873" lon="6.41401">
        <ele>1663.22</ele>
        <time>2009-08-01T09:21:49Z</time>
      </trkpt>
      <trkpt lat="45.21857" lon="6.41423">
        <ele>1664.66</ele>
        <time>2009-08-01T09:21:58Z</time>
      </trkpt>
      <trkpt lat="45.2183" lon="6.41448">
        <ele>1667.54</ele>
        <time>2009-08-01T09:22:12Z</time>
      </trkpt>
      <trkpt lat="45.21813" lon="6.41463">
        <ele>1668.99</ele>
        <time>2009-08-01T09:22:21Z</time>
      </trkpt>
      <trkpt lat="45.21794" lon="6.41477">
        <ele>1671.39</ele>
        <time>2009-08-01T09:22:30Z</time>
      </trkpt>
      <trkpt lat="45.21763" lon="6.41492">
        <ele>1673.79</ele>
        <time>2009-08-01T09:22:44Z</time>
      </trkpt>
      <trkpt lat="45.21741" lon="6.41506">
        <ele>1676.2</ele>
        <time>2009-08-01T09:22:57Z</time>
      </trkpt>
      <trkpt lat="45.21718" lon="6.41512">
        <ele>1678.6</ele>
        <time>2009-08-01T09:23:07Z</time>
      </trkpt>
      <trkpt lat="45.21689" lon="6.41514">
        <ele>1681</ele>
        <time>2009-08-01T09:23:18Z</time>
      </trkpt>
      <trkpt lat="45.21687" lon="6.41514">
        <ele>1681</ele>
        <time>2009-08-01T09:23:19Z</time>
      </trkpt>
      <trkpt lat="45.21668" lon="6.41519">
        <ele>1682.44</ele>
        <time>2009-08-01T09:23:28Z</time>
      </trkpt>
      <trkpt lat="45.2164" lon="6.41525">
        <ele>1683.89</ele>
        <time>2009-08-01T09:23:39Z</time>
      </trkpt>
      <trkpt lat="45.21634" lon="6.41531">
        <ele>1683.41</ele>
        <time>2009-08-01T09:23:51Z</time>
      </trkpt>
      <trkpt lat="45.21634" lon="6.41533">
        <ele>1683.89</ele>
        <time>2009-08-01T09:24:11Z</time>
      </trkpt>
      <trkpt lat="45.21631" lon="6.41536">
        <ele>1683.41</ele>
        <time>2009-08-01T09:24:15Z</time>
      </trkpt>
      <trkpt lat="45.21628" lon="6.41535">
        <ele>1682.93</ele>
        <time>2009-08-01T09:24:20Z</time>
      </trkpt>
      <trkpt lat="45.21626" lon="6.41535">
        <ele>1683.41</ele>
        <time>2009-08-01T09:24:48Z</time>
      </trkpt>
      <trkpt lat="45.21626" lon="6.41538">
        <ele>1683.89</ele>
        <time>2009-08-01T09:25:10Z</time>
      </trkpt>
      <trkpt lat="45.21626" lon="6.41538">
        <ele>1679.08</ele>
        <time>2009-08-01T09:25:22Z</time>
      </trkpt>
      <trkpt lat="45.21626" lon="6.41535">
        <ele>1684.85</ele>
        <time>2009-08-01T09:25:48Z</time>
      </trkpt>
      <trkpt lat="45.21626" lon="6.41535">
        <ele>1680.52</ele>
        <time>2009-08-01T09:25:50Z</time>
      </trkpt>
      <trkpt lat="45.21626" lon="6.41535">
        <ele>1684.85</ele>
        <time>2009-08-01T09:25:53Z</time>
      </trkpt>
      <trkpt lat="45.21626" lon="6.41535">
        <ele>1683.89</ele>
        <time>2009-08-01T09:25:54Z</time>
      </trkpt>
      <trkpt lat="45.21626" lon="6.41535">
        <ele>1681.96</ele>
        <time>2009-08-01T09:25:59Z</time>
      </trkpt>
      <trkpt lat="45.21626" lon="6.41535">
        <ele>1683.41</ele>
        <time>2009-08-01T09:26:00Z</time>
      </trkpt>
      <trkpt lat="45.21626" lon="6.41535">
        <ele>1681.96</ele>
        <time>2009-08-01T09:26:03Z</time>
      </trkpt>
      <trkpt lat="45.21626" lon="6.41535">
        <ele>1683.89</ele>
        <time>2009-08-01T09:26:04Z</time>
      </trkpt>
      <trkpt lat="45.21626" lon="6.41535">
        <ele>1682.93</ele>
        <time>2009-08-01T09:26:06Z</time>
      </trkpt>
      <trkpt lat="45.2162" lon="6.41525">
        <ele>1683.41</ele>
        <time>2009-08-01T09:26:38Z</time>
      </trkpt>
      <trkpt lat="45.21611" lon="6.41518">
        <ele>1683.89</ele>
        <time>2009-08-01T09:26:42Z</time>
      </trkpt>
      <trkpt lat="45.21573" lon="6.41502">
        <ele>1686.77</ele>
        <time>2009-08-01T09:26:56Z</time>
      </trkpt>
      <trkpt lat="45.21556" lon="6.41495">
        <ele>1687.73</ele>
        <time>2009-08-01T09:27:07Z</time>
      </trkpt>
      <trkpt lat="45.21554" lon="6.41494">
        <ele>1687.73</ele>
        <time>2009-08-01T09:27:08Z</time>
      </trkpt>
      <trkpt lat="45.21518" lon="6.41488">
        <ele>1690.62</ele>
        <time>2009-08-01T09:27:22Z</time>
      </trkpt>
      <trkpt lat="45.21485" lon="6.41493">
        <ele>1693.02</ele>
        <time>2009-08-01T09:27:36Z</time>
      </trkpt>
      <trkpt lat="45.21462" lon="6.41498">
        <ele>1694.46</ele>
        <time>2009-08-01T09:27:46Z</time>
      </trkpt>
      <trkpt lat="45.21441" lon="6.41499">
        <ele>1696.38</ele>
        <time>2009-08-01T09:27:56Z</time>
      </trkpt>
      <trkpt lat="45.21421" lon="6.41503">
        <ele>1697.83</ele>
        <time>2009-08-01T09:28:05Z</time>
      </trkpt>
      <trkpt lat="45.21395" lon="6.41499">
        <ele>1700.71</ele>
        <time>2009-08-01T09:28:16Z</time>
      </trkpt>
      <trkpt lat="45.21369" lon="6.41492">
        <ele>1703.11</ele>
        <time>2009-08-01T09:28:27Z</time>
      </trkpt>
      <trkpt lat="45.21357" lon="6.41498">
        <ele>1703.59</ele>
        <time>2009-08-01T09:28:32Z</time>
      </trkpt>
      <trkpt lat="45.21341" lon="6.41512">
        <ele>1705.52</ele>
        <time>2009-08-01T09:28:40Z</time>
      </trkpt>
      <trkpt lat="45.21315" lon="6.41515">
        <ele>1707.92</ele>
        <time>2009-08-01T09:28:51Z</time>
      </trkpt>
      <trkpt lat="45.21306" lon="6.41514">
        <ele>1708.4</ele>
        <time>2009-08-01T09:28:55Z</time>
      </trkpt>
      <trkpt lat="45.21291" lon="6.41514">
        <ele>1710.32</ele>
        <time>2009-08-01T09:29:03Z</time>
      </trkpt>
      <trkpt lat="45.21279" lon="6.41521">
        <ele>1712.73</ele>
        <time>2009-08-01T09:29:10Z</time>
      </trkpt>
      <trkpt lat="45.21256" lon="6.41535">
        <ele>1716.09</ele>
        <time>2009-08-01T09:29:22Z</time>
      </trkpt>
      <trkpt lat="45.21236" lon="6.41544">
        <ele>1718.97</ele>
        <time>2009-08-01T09:29:33Z</time>
      </trkpt>
      <trkpt lat="45.21213" lon="6.41554">
        <ele>1720.9</ele>
        <time>2009-08-01T09:29:44Z</time>
      </trkpt>
      <trkpt lat="45.21194" lon="6.41563">
        <ele>1723.3</ele>
        <time>2009-08-01T09:29:53Z</time>
      </trkpt>
      <trkpt lat="45.21174" lon="6.41582">
        <ele>1724.74</ele>
        <time>2009-08-01T09:30:03Z</time>
      </trkpt>
      <trkpt lat="45.21173" lon="6.41583">
        <ele>1725.22</ele>
        <time>2009-08-01T09:30:04Z</time>
      </trkpt>
      <trkpt lat="45.21153" lon="6.41593">
        <ele>1726.67</ele>
        <time>2009-08-01T09:30:14Z</time>
      </trkpt>
      <trkpt lat="45.21145" lon="6.41594">
        <ele>1727.63</ele>
        <time>2009-08-01T09:30:17Z</time>
      </trkpt>
      <trkpt lat="45.21118" lon="6.41593">
        <ele>1730.99</ele>
        <time>2009-08-01T09:30:29Z</time>
      </trkpt>
      <trkpt lat="45.21094" lon="6.41584">
        <ele>1731.47</ele>
        <time>2009-08-01T09:30:40Z</time>
      </trkpt>
      <trkpt lat="45.21072" lon="6.41566">
        <ele>1733.39</ele>
        <time>2009-08-01T09:30:51Z</time>
      </trkpt>
      <trkpt lat="45.21063" lon="6.4155">
        <ele>1734.36</ele>
        <time>2009-08-01T09:30:58Z</time>
      </trkpt>
      <trkpt lat="45.21058" lon="6.41528">
        <ele>1736.28</ele>
        <time>2009-08-01T09:31:09Z</time>
      </trkpt>
      <trkpt lat="45.21058" lon="6.41528">
        <ele>1733.88</ele>
        <time>2009-08-01T09:31:17Z</time>
      </trkpt>
      <trkpt lat="45.21058" lon="6.41528">
        <ele>1735.8</ele>
        <time>2009-08-01T09:31:19Z</time>
      </trkpt>
      <trkpt lat="45.21058" lon="6.41528">
        <ele>1736.76</ele>
        <time>2009-08-01T09:31:26Z</time>
      </trkpt>
      <trkpt lat="45.21058" lon="6.41528">
        <ele>1733.39</ele>
        <time>2009-08-01T09:31:31Z</time>
      </trkpt>
      <trkpt lat="45.21058" lon="6.41528">
        <ele>1737.24</ele>
        <time>2009-08-01T09:31:32Z</time>
      </trkpt>
      <trkpt lat="45.21057" lon="6.41526">
        <ele>1735.8</ele>
        <time>2009-08-01T09:31:36Z</time>
      </trkpt>
      <trkpt lat="45.21069" lon="6.41497">
        <ele>1738.2</ele>
        <time>2009-08-01T09:31:48Z</time>
      </trkpt>
      <trkpt lat="45.21075" lon="6.41494">
        <ele>1739.64</ele>
        <time>2009-08-01T09:31:51Z</time>
      </trkpt>
      <trkpt lat="45.21101" lon="6.41473">
        <ele>1741.08</ele>
        <time>2009-08-01T09:32:04Z</time>
      </trkpt>
      <trkpt lat="45.21113" lon="6.41461">
        <ele>1741.57</ele>
        <time>2009-08-01T09:32:12Z</time>
      </trkpt>
      <trkpt lat="45.21124" lon="6.41439">
        <ele>1742.05</ele>
        <time>2009-08-01T09:32:24Z</time>
      </trkpt>
      <trkpt lat="45.21141" lon="6.4142">
        <ele>1742.05</ele>
        <time>2009-08-01T09:32:35Z</time>
      </trkpt>
      <trkpt lat="45.21147" lon="6.41414">
        <ele>1741.57</ele>
        <time>2009-08-01T09:32:39Z</time>
      </trkpt>
      <trkpt lat="45.21144" lon="6.41413">
        <ele>1741.57</ele>
        <time>2009-08-01T09:32:46Z</time>
      </trkpt>
      <trkpt lat="45.21141" lon="6.41417">
        <ele>1741.57</ele>
        <time>2009-08-01T09:32:48Z</time>
      </trkpt>
      <trkpt lat="45.21121" lon="6.41444">
        <ele>1742.05</ele>
        <time>2009-08-01T09:33:00Z</time>
      </trkpt>
      <trkpt lat="45.21103" lon="6.41473">
        <ele>1741.57</ele>
        <time>2009-08-01T09:33:11Z</time>
      </trkpt>
      <trkpt lat="45.2107" lon="6.41499">
        <ele>1739.64</ele>
        <time>2009-08-01T09:33:22Z</time>
      </trkpt>
      <trkpt lat="45.2106" lon="6.41509">
        <ele>1737.72</ele>
        <time>2009-08-01T09:33:25Z</time>
      </trkpt>
      <trkpt lat="45.21057" lon="6.41513">
        <ele>1736.76</ele>
        <time>2009-08-01T09:33:26Z</time>
      </trkpt>
      <trkpt lat="45.21055" lon="6.41517">
        <ele>1736.76</ele>
        <time>2009-08-01T09:33:27Z</time>
      </trkpt>
      <trkpt lat="45.21053" lon="6.41521">
        <ele>1736.28</ele>
        <time>2009-08-01T09:33:28Z</time>
      </trkpt>
      <trkpt lat="45.21052" lon="6.41524">
        <ele>1737.24</ele>
        <time>2009-08-01T09:33:37Z</time>
      </trkpt>
      <trkpt lat="45.21052" lon="6.41524">
        <ele>1733.39</ele>
        <time>2009-08-01T09:33:53Z</time>
      </trkpt>
      <trkpt lat="45.21052" lon="6.41524">
        <ele>1738.2</ele>
        <time>2009-08-01T09:33:55Z</time>
      </trkpt>
      <trkpt lat="45.21052" lon="6.41524">
        <ele>1735.32</ele>
        <time>2009-08-01T09:33:56Z</time>
      </trkpt>
      <trkpt lat="45.21052" lon="6.41524">
        <ele>1733.39</ele>
        <time>2009-08-01T09:33:58Z</time>
      </trkpt>
      <trkpt lat="45.21052" lon="6.41524">
        <ele>1733.88</ele>
        <time>2009-08-01T09:34:01Z</time>
      </trkpt>
      <trkpt lat="45.21052" lon="6.41524">
        <ele>1735.8</ele>
        <time>2009-08-01T09:34:03Z</time>
      </trkpt>
      <trkpt lat="45.21053" lon="6.41525">
        <ele>1736.76</ele>
        <time>2009-08-01T09:34:30Z</time>
      </trkpt>
      <trkpt lat="45.21056" lon="6.41526">
        <ele>1736.76</ele>
        <time>2009-08-01T09:34:52Z</time>
      </trkpt>
      <trkpt lat="45.21057" lon="6.41527">
        <ele>1736.76</ele>
        <time>2009-08-01T09:35:45Z</time>
      </trkpt>
      <trkpt lat="45.21057" lon="6.41529">
        <ele>1736.28</ele>
        <time>2009-08-01T09:35:46Z</time>
      </trkpt>
      <trkpt lat="45.21058" lon="6.41532">
        <ele>1736.28</ele>
        <time>2009-08-01T09:35:47Z</time>
      </trkpt>
      <trkpt lat="45.21057" lon="6.41534">
        <ele>1736.28</ele>
        <time>2009-08-01T09:35:48Z</time>
      </trkpt>
      <trkpt lat="45.21056" lon="6.41536">
        <ele>1736.28</ele>
        <time>2009-08-01T09:35:49Z</time>
      </trkpt>
      <trkpt lat="45.21054" lon="6.41538">
        <ele>1735.8</ele>
        <time>2009-08-01T09:35:50Z</time>
      </trkpt>
      <trkpt lat="45.21052" lon="6.4154">
        <ele>1734.84</ele>
        <time>2009-08-01T09:35:51Z</time>
      </trkpt>
      <trkpt lat="45.21039" lon="6.41552">
        <ele>1730.51</ele>
        <time>2009-08-01T09:35:56Z</time>
      </trkpt>
      <trkpt lat="45.21037" lon="6.41555">
        <ele>1730.03</ele>
        <time>2009-08-01T09:35:58Z</time>
      </trkpt>
      <trkpt lat="45.21035" lon="6.41556">
        <ele>1729.07</ele>
        <time>2009-08-01T09:35:59Z</time>
      </trkpt>
      <trkpt lat="45.21033" lon="6.41556">
        <ele>1729.07</ele>
        <time>2009-08-01T09:36:14Z</time>
      </trkpt>
      <trkpt lat="45.21023" lon="6.41563">
        <ele>1725.7</ele>
        <time>2009-08-01T09:36:37Z</time>
      </trkpt>
      <trkpt lat="45.21012" lon="6.41569">
        <ele>1721.38</ele>
        <time>2009-08-01T09:36:40Z</time>
      </trkpt>
      <trkpt lat="45.21007" lon="6.41569">
        <ele>1719.46</ele>
        <time>2009-08-01T09:36:41Z</time>
      </trkpt>
      <trkpt lat="45.21002" lon="6.41569">
        <ele>1718.01</ele>
        <time>2009-08-01T09:36:42Z</time>
      </trkpt>
      <trkpt lat="45.20998" lon="6.4157">
        <ele>1717.53</ele>
        <time>2009-08-01T09:36:43Z</time>
      </trkpt>
      <trkpt lat="45.20994" lon="6.4157">
        <ele>1716.09</ele>
        <time>2009-08-01T09:36:44Z</time>
      </trkpt>
      <trkpt lat="45.20982" lon="6.41575">
        <ele>1712.73</ele>
        <time>2009-08-01T09:36:47Z</time>
      </trkpt>
      <trkpt lat="45.20977" lon="6.41575">
        <ele>1711.28</ele>
        <time>2009-08-01T09:36:48Z</time>
      </trkpt>
      <trkpt lat="45.20965" lon="6.41575">
        <ele>1709.84</ele>
        <time>2009-08-01T09:36:50Z</time>
      </trkpt>
      <trkpt lat="45.2096" lon="6.41575">
        <ele>1709.84</ele>
        <time>2009-08-01T09:36:51Z</time>
      </trkpt>
      <trkpt lat="45.20944" lon="6.41576">
        <ele>1707.92</ele>
        <time>2009-08-01T09:36:54Z</time>
      </trkpt>
      <trkpt lat="45.20924" lon="6.41589">
        <ele>1706</ele>
        <time>2009-08-01T09:37:02Z</time>
      </trkpt>
      <trkpt lat="45.20919" lon="6.41592">
        <ele>1704.07</ele>
        <time>2009-08-01T09:37:16Z</time>
      </trkpt>
      <trkpt lat="45.20918" lon="6.41595">
        <ele>1704.55</ele>
        <time>2009-08-01T09:37:21Z</time>
      </trkpt>
      <trkpt lat="45.20916" lon="6.41597">
        <ele>1704.07</ele>
        <time>2009-08-01T09:37:22Z</time>
      </trkpt>
      <trkpt lat="45.20914" lon="6.416">
        <ele>1703.11</ele>
        <time>2009-08-01T09:37:23Z</time>
      </trkpt>
      <trkpt lat="45.20911" lon="6.41604">
        <ele>1702.63</ele>
        <time>2009-08-01T09:37:24Z</time>
      </trkpt>
      <trkpt lat="45.20909" lon="6.41608">
        <ele>1701.67</ele>
        <time>2009-08-01T09:37:25Z</time>
      </trkpt>
      <trkpt lat="45.20907" lon="6.41613">
        <ele>1701.67</ele>
        <time>2009-08-01T09:37:26Z</time>
      </trkpt>
      <trkpt lat="45.20904" lon="6.41619">
        <ele>1700.23</ele>
        <time>2009-08-01T09:37:27Z</time>
      </trkpt>
      <trkpt lat="45.20901" lon="6.41623">
        <ele>1700.23</ele>
        <time>2009-08-01T09:37:28Z</time>
      </trkpt>
      <trkpt lat="45.20898" lon="6.41626">
        <ele>1699.75</ele>
        <time>2009-08-01T09:37:29Z</time>
      </trkpt>
      <trkpt lat="45.20895" lon="6.41628">
        <ele>1699.27</ele>
        <time>2009-08-01T09:37:30Z</time>
      </trkpt>
      <trkpt lat="45.20891" lon="6.41628">
        <ele>1699.75</ele>
        <time>2009-08-01T09:37:31Z</time>
      </trkpt>
      <trkpt lat="45.20888" lon="6.41628">
        <ele>1699.27</ele>
        <time>2009-08-01T09:37:32Z</time>
      </trkpt>
      <trkpt lat="45.20884" lon="6.41628">
        <ele>1699.27</ele>
        <time>2009-08-01T09:37:33Z</time>
      </trkpt>
      <trkpt lat="45.20855" lon="6.41608">
        <ele>1699.75</ele>
        <time>2009-08-01T09:37:42Z</time>
      </trkpt>
      <trkpt lat="45.20836" lon="6.4158">
        <ele>1695.42</ele>
        <time>2009-08-01T09:37:48Z</time>
      </trkpt>
      <trkpt lat="45.20831" lon="6.41579">
        <ele>1694.94</ele>
        <time>2009-08-01T09:37:49Z</time>
      </trkpt>
      <trkpt lat="45.20811" lon="6.41581">
        <ele>1691.1</ele>
        <time>2009-08-01T09:37:52Z</time>
      </trkpt>
      <trkpt lat="45.20803" lon="6.41578">
        <ele>1689.17</ele>
        <time>2009-08-01T09:37:53Z</time>
      </trkpt>
      <trkpt lat="45.20779" lon="6.41566">
        <ele>1686.29</ele>
        <time>2009-08-01T09:37:56Z</time>
      </trkpt>
      <trkpt lat="45.20773" lon="6.4156">
        <ele>1686.29</ele>
        <time>2009-08-01T09:37:57Z</time>
      </trkpt>
      <trkpt lat="45.20767" lon="6.41552">
        <ele>1685.81</ele>
        <time>2009-08-01T09:37:58Z</time>
      </trkpt>
      <trkpt lat="45.20763" lon="6.41545">
        <ele>1685.33</ele>
        <time>2009-08-01T09:37:59Z</time>
      </trkpt>
      <trkpt lat="45.20759" lon="6.41537">
        <ele>1685.33</ele>
        <time>2009-08-01T09:38:00Z</time>
      </trkpt>
      <trkpt lat="45.20746" lon="6.4151">
        <ele>1686.29</ele>
        <time>2009-08-01T09:38:04Z</time>
      </trkpt>
      <trkpt lat="45.20707" lon="6.41464">
        <ele>1687.73</ele>
        <time>2009-08-01T09:38:16Z</time>
      </trkpt>
      <trkpt lat="45.20702" lon="6.41456">
        <ele>1687.73</ele>
        <time>2009-08-01T09:38:20Z</time>
      </trkpt>
      <trkpt lat="45.20698" lon="6.41454">
        <ele>1687.25</ele>
        <time>2009-08-01T09:38:25Z</time>
      </trkpt>
      <trkpt lat="45.20695" lon="6.41447">
        <ele>1687.25</ele>
        <time>2009-08-01T09:38:28Z</time>
      </trkpt>
      <trkpt lat="45.20694" lon="6.41444">
        <ele>1687.25</ele>
        <time>2009-08-01T09:38:29Z</time>
      </trkpt>
      <trkpt lat="45.20694" lon="6.41441">
        <ele>1687.25</ele>
        <time>2009-08-01T09:38:30Z</time>
      </trkpt>
      <trkpt lat="45.20692" lon="6.41438">
        <ele>1687.25</ele>
        <time>2009-08-01T09:38:31Z</time>
      </trkpt>
      <trkpt lat="45.20691" lon="6.41434">
        <ele>1687.25</ele>
        <time>2009-08-01T09:38:32Z</time>
      </trkpt>
      <trkpt lat="45.20689" lon="6.41431">
        <ele>1687.25</ele>
        <time>2009-08-01T09:38:33Z</time>
      </trkpt>
      <trkpt lat="45.20688" lon="6.41429">
        <ele>1687.73</ele>
        <time>2009-08-01T09:38:34Z</time>
      </trkpt>
      <trkpt lat="45.20686" lon="6.41428">
        <ele>1687.73</ele>
        <time>2009-08-01T09:38:35Z</time>
      </trkpt>
      <trkpt lat="45.20684" lon="6.41427">
        <ele>1687.73</ele>
        <time>2009-08-01T09:38:36Z</time>
      </trkpt>
      <trkpt lat="45.20682" lon="6.41426">
        <ele>1688.21</ele>
        <time>2009-08-01T09:38:37Z</time>
      </trkpt>
      <trkpt lat="45.2068" lon="6.41426">
        <ele>1688.69</ele>
        <time>2009-08-01T09:38:38Z</time>
      </trkpt>
      <trkpt lat="45.20678" lon="6.41425">
        <ele>1688.69</ele>
        <time>2009-08-01T09:38:39Z</time>
      </trkpt>
      <trkpt lat="45.20653" lon="6.41417">
        <ele>1691.1</ele>
        <time>2009-08-01T09:38:52Z</time>
      </trkpt>
      <trkpt lat="45.20646" lon="6.41412">
        <ele>1694.94</ele>
        <time>2009-08-01T09:39:01Z</time>
      </trkpt>
      <trkpt lat="45.20646" lon="6.41412">
        <ele>1688.21</ele>
        <time>2009-08-01T09:39:02Z</time>
      </trkpt>
      <trkpt lat="45.20646" lon="6.41412">
        <ele>1695.9</ele>
        <time>2009-08-01T09:39:03Z</time>
      </trkpt>
      <trkpt lat="45.20646" lon="6.41412">
        <ele>1691.1</ele>
        <time>2009-08-01T09:39:04Z</time>
      </trkpt>
      <trkpt lat="45.20646" lon="6.41412">
        <ele>1685.33</ele>
        <time>2009-08-01T09:39:05Z</time>
      </trkpt>
      <trkpt lat="45.20646" lon="6.41412">
        <ele>1692.06</ele>
        <time>2009-08-01T09:39:06Z</time>
      </trkpt>
      <trkpt lat="45.20644" lon="6.41411">
        <ele>1692.06</ele>
        <time>2009-08-01T09:39:08Z</time>
      </trkpt>
      <trkpt lat="45.20642" lon="6.41411">
        <ele>1692.06</ele>
        <time>2009-08-01T09:39:09Z</time>
      </trkpt>
      <trkpt lat="45.20639" lon="6.41411">
        <ele>1692.06</ele>
        <time>2009-08-01T09:39:10Z</time>
      </trkpt>
      <trkpt lat="45.20636" lon="6.4141">
        <ele>1693.02</ele>
        <time>2009-08-01T09:39:11Z</time>
      </trkpt>
      <trkpt lat="45.20634" lon="6.4141">
        <ele>1693.02</ele>
        <time>2009-08-01T09:39:12Z</time>
      </trkpt>
      <trkpt lat="45.20631" lon="6.4141">
        <ele>1693.5</ele>
        <time>2009-08-01T09:39:13Z</time>
      </trkpt>
      <trkpt lat="45.20628" lon="6.4141">
        <ele>1693.02</ele>
        <time>2009-08-01T09:39:14Z</time>
      </trkpt>
      <trkpt lat="45.20626" lon="6.4141">
        <ele>1693.5</ele>
        <time>2009-08-01T09:39:15Z</time>
      </trkpt>
      <trkpt lat="45.20604" lon="6.41406">
        <ele>1696.86</ele>
        <time>2009-08-01T09:39:25Z</time>
      </trkpt>
      <trkpt lat="45.20583" lon="6.414">
        <ele>1698.79</ele>
        <time>2009-08-01T09:39:35Z</time>
      </trkpt>
      <trkpt lat="45.2056" lon="6.41379">
        <ele>1701.19</ele>
        <time>2009-08-01T09:39:47Z</time>
      </trkpt>
      <trkpt lat="45.20535" lon="6.41368">
        <ele>1704.55</ele>
        <time>2009-08-01T09:40:00Z</time>
      </trkpt>
      <trkpt lat="45.2052" lon="6.41366">
        <ele>1706</ele>
        <time>2009-08-01T09:40:07Z</time>
      </trkpt>
      <trkpt lat="45.20519" lon="6.41365">
        <ele>1706</ele>
        <time>2009-08-01T09:40:08Z</time>
      </trkpt>
      <trkpt lat="45.20517" lon="6.41365">
        <ele>1706.48</ele>
        <time>2009-08-01T09:40:09Z</time>
      </trkpt>
      <trkpt lat="45.20488" lon="6.41355">
        <ele>1709.84</ele>
        <time>2009-08-01T09:40:22Z</time>
      </trkpt>
      <trkpt lat="45.20464" lon="6.41347">
        <ele>1712.73</ele>
        <time>2009-08-01T09:40:34Z</time>
      </trkpt>
      <trkpt lat="45.20436" lon="6.41329">
        <ele>1715.61</ele>
        <time>2009-08-01T09:40:48Z</time>
      </trkpt>
      <trkpt lat="45.20414" lon="6.41308">
        <ele>1718.01</ele>
        <time>2009-08-01T09:41:01Z</time>
      </trkpt>
      <trkpt lat="45.20389" lon="6.4129">
        <ele>1721.38</ele>
        <time>2009-08-01T09:41:15Z</time>
      </trkpt>
      <trkpt lat="45.2037" lon="6.41273">
        <ele>1724.26</ele>
        <time>2009-08-01T09:41:27Z</time>
      </trkpt>
      <trkpt lat="45.20357" lon="6.41254">
        <ele>1726.67</ele>
        <time>2009-08-01T09:41:39Z</time>
      </trkpt>
      <trkpt lat="45.20342" lon="6.41226">
        <ele>1729.07</ele>
        <time>2009-08-01T09:41:51Z</time>
      </trkpt>
      <trkpt lat="45.20319" lon="6.41197">
        <ele>1730.99</ele>
        <time>2009-08-01T09:42:03Z</time>
      </trkpt>
      <trkpt lat="45.20291" lon="6.41185">
        <ele>1732.91</ele>
        <time>2009-08-01T09:42:15Z</time>
      </trkpt>
      <trkpt lat="45.2026" lon="6.4117">
        <ele>1734.84</ele>
        <time>2009-08-01T09:42:29Z</time>
      </trkpt>
      <trkpt lat="45.20244" lon="6.41152">
        <ele>1736.28</ele>
        <time>2009-08-01T09:42:39Z</time>
      </trkpt>
      <trkpt lat="45.20235" lon="6.4114">
        <ele>1737.72</ele>
        <time>2009-08-01T09:42:45Z</time>
      </trkpt>
      <trkpt lat="45.20233" lon="6.41139">
        <ele>1738.2</ele>
        <time>2009-08-01T09:42:46Z</time>
      </trkpt>
      <trkpt lat="45.20205" lon="6.4112">
        <ele>1739.64</ele>
        <time>2009-08-01T09:42:58Z</time>
      </trkpt>
      <trkpt lat="45.20177" lon="6.41114">
        <ele>1741.08</ele>
        <time>2009-08-01T09:43:09Z</time>
      </trkpt>
      <trkpt lat="45.20149" lon="6.41112">
        <ele>1743.01</ele>
        <time>2009-08-01T09:43:21Z</time>
      </trkpt>
      <trkpt lat="45.20121" lon="6.41102">
        <ele>1745.41</ele>
        <time>2009-08-01T09:43:34Z</time>
      </trkpt>
      <trkpt lat="45.20085" lon="6.41092">
        <ele>1747.81</ele>
        <time>2009-08-01T09:43:50Z</time>
      </trkpt>
      <trkpt lat="45.20054" lon="6.41096">
        <ele>1749.26</ele>
        <time>2009-08-01T09:44:03Z</time>
      </trkpt>
      <trkpt lat="45.20028" lon="6.41114">
        <ele>1751.18</ele>
        <time>2009-08-01T09:44:14Z</time>
      </trkpt>
      <trkpt lat="45.20004" lon="6.41148">
        <ele>1753.58</ele>
        <time>2009-08-01T09:44:27Z</time>
      </trkpt>
      <trkpt lat="45.19983" lon="6.41157">
        <ele>1754.06</ele>
        <time>2009-08-01T09:44:37Z</time>
      </trkpt>
      <trkpt lat="45.19956" lon="6.41121">
        <ele>1755.5</ele>
        <time>2009-08-01T09:44:49Z</time>
      </trkpt>
      <trkpt lat="45.19916" lon="6.41102">
        <ele>1757.43</ele>
        <time>2009-08-01T09:45:03Z</time>
      </trkpt>
      <trkpt lat="45.19887" lon="6.41073">
        <ele>1758.87</ele>
        <time>2009-08-01T09:45:15Z</time>
      </trkpt>
      <trkpt lat="45.19862" lon="6.41037">
        <ele>1760.79</ele>
        <time>2009-08-01T09:45:28Z</time>
      </trkpt>
      <trkpt lat="45.19845" lon="6.41">
        <ele>1763.2</ele>
        <time>2009-08-01T09:45:39Z</time>
      </trkpt>
      <trkpt lat="45.1983" lon="6.40989">
        <ele>1763.68</ele>
        <time>2009-08-01T09:45:45Z</time>
      </trkpt>
      <trkpt lat="45.19828" lon="6.40987">
        <ele>1763.68</ele>
        <time>2009-08-01T09:45:46Z</time>
      </trkpt>
      <trkpt lat="45.19826" lon="6.40985">
        <ele>1764.16</ele>
        <time>2009-08-01T09:45:47Z</time>
      </trkpt>
      <trkpt lat="45.19823" lon="6.40983">
        <ele>1764.16</ele>
        <time>2009-08-01T09:45:48Z</time>
      </trkpt>
      <trkpt lat="45.19821" lon="6.40981">
        <ele>1764.64</ele>
        <time>2009-08-01T09:45:49Z</time>
      </trkpt>
      <trkpt lat="45.19819" lon="6.40979">
        <ele>1765.12</ele>
        <time>2009-08-01T09:45:50Z</time>
      </trkpt>
      <trkpt lat="45.1979" lon="6.40957">
        <ele>1766.56</ele>
        <time>2009-08-01T09:46:01Z</time>
      </trkpt>
      <trkpt lat="45.19774" lon="6.40923">
        <ele>1768.48</ele>
        <time>2009-08-01T09:46:12Z</time>
      </trkpt>
      <trkpt lat="45.19755" lon="6.40873">
        <ele>1770.41</ele>
        <time>2009-08-01T09:46:26Z</time>
      </trkpt>
      <trkpt lat="45.19736" lon="6.40833">
        <ele>1772.33</ele>
        <time>2009-08-01T09:46:38Z</time>
      </trkpt>
      <trkpt lat="45.19726" lon="6.40796">
        <ele>1774.73</ele>
        <time>2009-08-01T09:46:49Z</time>
      </trkpt>
      <trkpt lat="45.19711" lon="6.40764">
        <ele>1776.65</ele>
        <time>2009-08-01T09:47:00Z</time>
      </trkpt>
      <trkpt lat="45.19686" lon="6.40725">
        <ele>1778.1</ele>
        <time>2009-08-01T09:47:12Z</time>
      </trkpt>
      <trkpt lat="45.19658" lon="6.40688">
        <ele>1779.54</ele>
        <time>2009-08-01T09:47:25Z</time>
      </trkpt>
      <trkpt lat="45.1964" lon="6.40649">
        <ele>1781.94</ele>
        <time>2009-08-01T09:47:37Z</time>
      </trkpt>
      <trkpt lat="45.19637" lon="6.40624">
        <ele>1784.34</ele>
        <time>2009-08-01T09:47:45Z</time>
      </trkpt>
      <trkpt lat="45.19632" lon="6.40606">
        <ele>1786.27</ele>
        <time>2009-08-01T09:47:57Z</time>
      </trkpt>
      <trkpt lat="45.1963" lon="6.40604">
        <ele>1786.27</ele>
        <time>2009-08-01T09:48:36Z</time>
      </trkpt>
      <trkpt lat="45.1963" lon="6.40596">
        <ele>1789.15</ele>
        <time>2009-08-01T09:48:52Z</time>
      </trkpt>
      <trkpt lat="45.19631" lon="6.40594">
        <ele>1786.75</ele>
        <time>2009-08-01T09:49:11Z</time>
      </trkpt>
      <trkpt lat="45.19631" lon="6.40594">
        <ele>1790.11</ele>
        <time>2009-08-01T09:49:12Z</time>
      </trkpt>
      <trkpt lat="45.19631" lon="6.40594">
        <ele>1787.23</ele>
        <time>2009-08-01T09:49:14Z</time>
      </trkpt>
      <trkpt lat="45.19631" lon="6.40594">
        <ele>1790.11</ele>
        <time>2009-08-01T09:49:16Z</time>
      </trkpt>
      <trkpt lat="45.19631" lon="6.40594">
        <ele>1786.27</ele>
        <time>2009-08-01T09:49:19Z</time>
      </trkpt>
      <trkpt lat="45.19631" lon="6.40594">
        <ele>1787.23</ele>
        <time>2009-08-01T09:49:21Z</time>
      </trkpt>
      <trkpt lat="45.19631" lon="6.40594">
        <ele>1788.19</ele>
        <time>2009-08-01T09:49:23Z</time>
      </trkpt>
      <trkpt lat="45.19631" lon="6.40594">
        <ele>1789.63</ele>
        <time>2009-08-01T09:49:32Z</time>
      </trkpt>
      <trkpt lat="45.1963" lon="6.40594">
        <ele>1788.67</ele>
        <time>2009-08-01T09:49:36Z</time>
      </trkpt>
      <trkpt lat="45.1963" lon="6.40594">
        <ele>1789.15</ele>
        <time>2009-08-01T09:50:12Z</time>
      </trkpt>
      <trkpt lat="45.1963" lon="6.40594">
        <ele>1789.63</ele>
        <time>2009-08-01T09:50:17Z</time>
      </trkpt>
      <trkpt lat="45.19632" lon="6.40597">
        <ele>1788.19</ele>
        <time>2009-08-01T09:51:51Z</time>
      </trkpt>
      <trkpt lat="45.19633" lon="6.406">
        <ele>1787.71</ele>
        <time>2009-08-01T09:51:53Z</time>
      </trkpt>
      <trkpt lat="45.19633" lon="6.40602">
        <ele>1787.23</ele>
        <time>2009-08-01T09:51:54Z</time>
      </trkpt>
      <trkpt lat="45.19621" lon="6.40599">
        <ele>1785.31</ele>
        <time>2009-08-01T09:52:01Z</time>
      </trkpt>
      <trkpt lat="45.19615" lon="6.40593">
        <ele>1784.82</ele>
        <time>2009-08-01T09:52:03Z</time>
      </trkpt>
      <trkpt lat="45.19611" lon="6.40591">
        <ele>1784.34</ele>
        <time>2009-08-01T09:52:04Z</time>
      </trkpt>
      <trkpt lat="45.19607" lon="6.4059">
        <ele>1782.9</ele>
        <time>2009-08-01T09:52:05Z</time>
      </trkpt>
      <trkpt lat="45.19602" lon="6.40591">
        <ele>1782.42</ele>
        <time>2009-08-01T09:52:06Z</time>
      </trkpt>
      <trkpt lat="45.19598" lon="6.40592">
        <ele>1782.9</ele>
        <time>2009-08-01T09:52:07Z</time>
      </trkpt>
      <trkpt lat="45.19593" lon="6.40592">
        <ele>1781.94</ele>
        <time>2009-08-01T09:52:09Z</time>
      </trkpt>
      <trkpt lat="45.19585" lon="6.40597">
        <ele>1782.9</ele>
        <time>2009-08-01T09:52:22Z</time>
      </trkpt>
      <trkpt lat="45.19585" lon="6.40597">
        <ele>1783.38</ele>
        <time>2009-08-01T09:52:42Z</time>
      </trkpt>
      <trkpt lat="45.19585" lon="6.40597">
        <ele>1783.38</ele>
        <time>2009-08-01T09:53:08Z</time>
      </trkpt>
      <trkpt lat="45.19584" lon="6.40596">
        <ele>1781.46</ele>
        <time>2009-08-01T09:53:15Z</time>
      </trkpt>
      <trkpt lat="45.19584" lon="6.40596">
        <ele>1778.1</ele>
        <time>2009-08-01T09:53:16Z</time>
      </trkpt>
      <trkpt lat="45.19584" lon="6.40596">
        <ele>1784.82</ele>
        <time>2009-08-01T09:53:17Z</time>
      </trkpt>
      <trkpt lat="45.19584" lon="6.40596">
        <ele>1780.02</ele>
        <time>2009-08-01T09:53:19Z</time>
      </trkpt>
      <trkpt lat="45.19584" lon="6.40596">
        <ele>1781.46</ele>
        <time>2009-08-01T09:53:20Z</time>
      </trkpt>
      <trkpt lat="45.19584" lon="6.40596">
        <ele>1785.31</ele>
        <time>2009-08-01T09:53:21Z</time>
      </trkpt>
      <trkpt lat="45.19584" lon="6.40596">
        <ele>1783.86</ele>
        <time>2009-08-01T09:53:22Z</time>
      </trkpt>
      <trkpt lat="45.19584" lon="6.40596">
        <ele>1783.38</ele>
        <time>2009-08-01T09:53:48Z</time>
      </trkpt>
      <trkpt lat="45.19582" lon="6.40616">
        <ele>1782.9</ele>
        <time>2009-08-01T09:53:55Z</time>
      </trkpt>
      <trkpt lat="45.19579" lon="6.40624">
        <ele>1783.38</ele>
        <time>2009-08-01T09:53:59Z</time>
      </trkpt>
      <trkpt lat="45.19576" lon="6.40637">
        <ele>1783.86</ele>
        <time>2009-08-01T09:54:07Z</time>
      </trkpt>
      <trkpt lat="45.19574" lon="6.4064">
        <ele>1784.82</ele>
        <time>2009-08-01T09:54:10Z</time>
      </trkpt>
      <trkpt lat="45.19569" lon="6.40647">
        <ele>1786.75</ele>
        <time>2009-08-01T09:54:20Z</time>
      </trkpt>
      <trkpt lat="45.19571" lon="6.40656">
        <ele>1788.67</ele>
        <time>2009-08-01T09:54:31Z</time>
      </trkpt>
      <trkpt lat="45.19577" lon="6.40665">
        <ele>1788.67</ele>
        <time>2009-08-01T09:54:43Z</time>
      </trkpt>
      <trkpt lat="45.19575" lon="6.40669">
        <ele>1788.67</ele>
        <time>2009-08-01T09:54:45Z</time>
      </trkpt>
      <trkpt lat="45.19573" lon="6.40682">
        <ele>1788.67</ele>
        <time>2009-08-01T09:54:49Z</time>
      </trkpt>
      <trkpt lat="45.19574" lon="6.40705">
        <ele>1789.15</ele>
        <time>2009-08-01T09:54:58Z</time>
      </trkpt>
      <trkpt lat="45.19572" lon="6.40709">
        <ele>1789.15</ele>
        <time>2009-08-01T09:55:00Z</time>
      </trkpt>
      <trkpt lat="45.19563" lon="6.4072">
        <ele>1790.11</ele>
        <time>2009-08-01T09:55:05Z</time>
      </trkpt>
      <trkpt lat="45.19548" lon="6.40735">
        <ele>1790.11</ele>
        <time>2009-08-01T09:55:13Z</time>
      </trkpt>
      <trkpt lat="45.19534" lon="6.40766">
        <ele>1790.11</ele>
        <time>2009-08-01T09:55:23Z</time>
      </trkpt>
      <trkpt lat="45.1953" lon="6.40782">
        <ele>1790.59</ele>
        <time>2009-08-01T09:55:28Z</time>
      </trkpt>
      <trkpt lat="45.19528" lon="6.40791">
        <ele>1792.03</ele>
        <time>2009-08-01T09:55:32Z</time>
      </trkpt>
      <trkpt lat="45.19527" lon="6.40801">
        <ele>1793.48</ele>
        <time>2009-08-01T09:55:36Z</time>
      </trkpt>
      <trkpt lat="45.19525" lon="6.40809">
        <ele>1794.44</ele>
        <time>2009-08-01T09:55:40Z</time>
      </trkpt>
      <trkpt lat="45.19522" lon="6.40813">
        <ele>1795.88</ele>
        <time>2009-08-01T09:55:43Z</time>
      </trkpt>
      <trkpt lat="45.19519" lon="6.40824">
        <ele>1797.32</ele>
        <time>2009-08-01T09:55:53Z</time>
      </trkpt>
      <trkpt lat="45.19518" lon="6.40828">
        <ele>1797.8</ele>
        <time>2009-08-01T09:55:56Z</time>
      </trkpt>
      <trkpt lat="45.19512" lon="6.40839">
        <ele>1801.17</ele>
        <time>2009-08-01T09:56:09Z</time>
      </trkpt>
      <trkpt lat="45.19506" lon="6.40846">
        <ele>1802.13</ele>
        <time>2009-08-01T09:56:13Z</time>
      </trkpt>
      <trkpt lat="45.19503" lon="6.40848">
        <ele>1802.61</ele>
        <time>2009-08-01T09:56:16Z</time>
      </trkpt>
      <trkpt lat="45.19498" lon="6.4086">
        <ele>1805.49</ele>
        <time>2009-08-01T09:56:30Z</time>
      </trkpt>
      <trkpt lat="45.19497" lon="6.40867">
        <ele>1806.94</ele>
        <time>2009-08-01T09:56:39Z</time>
      </trkpt>
      <trkpt lat="45.19496" lon="6.40875">
        <ele>1808.86</ele>
        <time>2009-08-01T09:56:53Z</time>
      </trkpt>
      <trkpt lat="45.19493" lon="6.40878">
        <ele>1808.86</ele>
        <time>2009-08-01T09:56:55Z</time>
      </trkpt>
      <trkpt lat="45.19488" lon="6.40892">
        <ele>1810.78</ele>
        <time>2009-08-01T09:57:03Z</time>
      </trkpt>
      <trkpt lat="45.19486" lon="6.40896">
        <ele>1810.78</ele>
        <time>2009-08-01T09:57:10Z</time>
      </trkpt>
      <trkpt lat="45.1947" lon="6.409">
        <ele>1814.15</ele>
        <time>2009-08-01T09:57:19Z</time>
      </trkpt>
      <trkpt lat="45.19468" lon="6.40901">
        <ele>1814.63</ele>
        <time>2009-08-01T09:57:20Z</time>
      </trkpt>
      <trkpt lat="45.19462" lon="6.40902">
        <ele>1816.55</ele>
        <time>2009-08-01T09:57:24Z</time>
      </trkpt>
      <trkpt lat="45.19462" lon="6.40909">
        <ele>1817.99</ele>
        <time>2009-08-01T09:57:34Z</time>
      </trkpt>
      <trkpt lat="45.19456" lon="6.40919">
        <ele>1819.43</ele>
        <time>2009-08-01T09:57:42Z</time>
      </trkpt>
      <trkpt lat="45.19451" lon="6.40925">
        <ele>1821.84</ele>
        <time>2009-08-01T09:57:51Z</time>
      </trkpt>
      <trkpt lat="45.19448" lon="6.40934">
        <ele>1823.28</ele>
        <time>2009-08-01T09:57:59Z</time>
      </trkpt>
      <trkpt lat="45.19443" lon="6.40945">
        <ele>1825.2</ele>
        <time>2009-08-01T09:58:08Z</time>
      </trkpt>
      <trkpt lat="45.19439" lon="6.40956">
        <ele>1825.68</ele>
        <time>2009-08-01T09:58:16Z</time>
      </trkpt>
      <trkpt lat="45.19434" lon="6.40961">
        <ele>1825.68</ele>
        <time>2009-08-01T09:58:19Z</time>
      </trkpt>
      <trkpt lat="45.19429" lon="6.40979">
        <ele>1827.6</ele>
        <time>2009-08-01T09:58:28Z</time>
      </trkpt>
      <trkpt lat="45.19418" lon="6.40991">
        <ele>1830.49</ele>
        <time>2009-08-01T09:58:35Z</time>
      </trkpt>
      <trkpt lat="45.19416" lon="6.40992">
        <ele>1830.97</ele>
        <time>2009-08-01T09:58:36Z</time>
      </trkpt>
      <trkpt lat="45.19415" lon="6.40995">
        <ele>1831.93</ele>
        <time>2009-08-01T09:58:38Z</time>
      </trkpt>
      <trkpt lat="45.19405" lon="6.41007">
        <ele>1833.37</ele>
        <time>2009-08-01T09:58:46Z</time>
      </trkpt>
      <trkpt lat="45.19405" lon="6.41007">
        <ele>1828.08</ele>
        <time>2009-08-01T09:58:47Z</time>
      </trkpt>
      <trkpt lat="45.19405" lon="6.41007">
        <ele>1832.89</ele>
        <time>2009-08-01T09:58:48Z</time>
      </trkpt>
      <trkpt lat="45.19404" lon="6.41008">
        <ele>1832.89</ele>
        <time>2009-08-01T09:58:55Z</time>
      </trkpt>
      <trkpt lat="45.194" lon="6.41016">
        <ele>1834.33</ele>
        <time>2009-08-01T09:59:02Z</time>
      </trkpt>
      <trkpt lat="45.19398" lon="6.41023">
        <ele>1833.85</ele>
        <time>2009-08-01T09:59:05Z</time>
      </trkpt>
      <trkpt lat="45.19395" lon="6.41046">
        <ele>1834.33</ele>
        <time>2009-08-01T09:59:13Z</time>
      </trkpt>
      <trkpt lat="45.19396" lon="6.41051">
        <ele>1833.85</ele>
        <time>2009-08-01T09:59:15Z</time>
      </trkpt>
      <trkpt lat="45.19394" lon="6.41058">
        <ele>1834.81</ele>
        <time>2009-08-01T09:59:19Z</time>
      </trkpt>
      <trkpt lat="45.19394" lon="6.41064">
        <ele>1834.81</ele>
        <time>2009-08-01T09:59:27Z</time>
      </trkpt>
      <trkpt lat="45.19388" lon="6.41068">
        <ele>1835.29</ele>
        <time>2009-08-01T09:59:31Z</time>
      </trkpt>
      <trkpt lat="45.19385" lon="6.41077">
        <ele>1835.77</ele>
        <time>2009-08-01T09:59:35Z</time>
      </trkpt>
      <trkpt lat="45.19359" lon="6.41092">
        <ele>1837.22</ele>
        <time>2009-08-01T09:59:45Z</time>
      </trkpt>
      <trkpt lat="45.19345" lon="6.41112">
        <ele>1836.26</ele>
        <time>2009-08-01T09:59:54Z</time>
      </trkpt>
      <trkpt lat="45.19342" lon="6.41113">
        <ele>1835.29</ele>
        <time>2009-08-01T09:59:55Z</time>
      </trkpt>
      <trkpt lat="45.19326" lon="6.41135">
        <ele>1835.77</ele>
        <time>2009-08-01T10:00:03Z</time>
      </trkpt>
      <trkpt lat="45.19324" lon="6.41139">
        <ele>1836.74</ele>
        <time>2009-08-01T10:00:08Z</time>
      </trkpt>
      <trkpt lat="45.19322" lon="6.41151">
        <ele>1836.26</ele>
        <time>2009-08-01T10:00:13Z</time>
      </trkpt>
      <trkpt lat="45.193" lon="6.41169">
        <ele>1837.22</ele>
        <time>2009-08-01T10:00:22Z</time>
      </trkpt>
      <trkpt lat="45.19285" lon="6.41186">
        <ele>1840.1</ele>
        <time>2009-08-01T10:00:28Z</time>
      </trkpt>
      <trkpt lat="45.19286" lon="6.41188">
        <ele>1840.1</ele>
        <time>2009-08-01T10:00:29Z</time>
      </trkpt>
      <trkpt lat="45.19284" lon="6.41202">
        <ele>1841.06</ele>
        <time>2009-08-01T10:00:38Z</time>
      </trkpt>
      <trkpt lat="45.19283" lon="6.41205">
        <ele>1840.58</ele>
        <time>2009-08-01T10:00:39Z</time>
      </trkpt>
      <trkpt lat="45.19283" lon="6.41209">
        <ele>1840.1</ele>
        <time>2009-08-01T10:00:40Z</time>
      </trkpt>
      <trkpt lat="45.1928" lon="6.41216">
        <ele>1840.58</ele>
        <time>2009-08-01T10:00:42Z</time>
      </trkpt>
      <trkpt lat="45.19279" lon="6.41219">
        <ele>1842.5</ele>
        <time>2009-08-01T10:00:44Z</time>
      </trkpt>
      <trkpt lat="45.19276" lon="6.4122">
        <ele>1843.47</ele>
        <time>2009-08-01T10:00:45Z</time>
      </trkpt>
      <trkpt lat="45.19272" lon="6.41222">
        <ele>1843.47</ele>
        <time>2009-08-01T10:00:46Z</time>
      </trkpt>
      <trkpt lat="45.19269" lon="6.41223">
        <ele>1843.47</ele>
        <time>2009-08-01T10:00:47Z</time>
      </trkpt>
      <trkpt lat="45.19267" lon="6.41225">
        <ele>1843.95</ele>
        <time>2009-08-01T10:00:48Z</time>
      </trkpt>
      <trkpt lat="45.1927" lon="6.41233">
        <ele>1844.91</ele>
        <time>2009-08-01T10:00:57Z</time>
      </trkpt>
      <trkpt lat="45.19274" lon="6.41235">
        <ele>1846.35</ele>
        <time>2009-08-01T10:01:04Z</time>
      </trkpt>
      <trkpt lat="45.19267" lon="6.41241">
        <ele>1846.35</ele>
        <time>2009-08-01T10:01:18Z</time>
      </trkpt>
      <trkpt lat="45.19265" lon="6.41243">
        <ele>1846.35</ele>
        <time>2009-08-01T10:01:19Z</time>
      </trkpt>
      <trkpt lat="45.19263" lon="6.41244">
        <ele>1846.35</ele>
        <time>2009-08-01T10:01:20Z</time>
      </trkpt>
      <trkpt lat="45.1926" lon="6.41245">
        <ele>1846.35</ele>
        <time>2009-08-01T10:01:21Z</time>
      </trkpt>
      <trkpt lat="45.19259" lon="6.41245">
        <ele>1846.83</ele>
        <time>2009-08-01T10:01:22Z</time>
      </trkpt>
      <trkpt lat="45.19257" lon="6.41245">
        <ele>1847.31</ele>
        <time>2009-08-01T10:01:23Z</time>
      </trkpt>
      <trkpt lat="45.19256" lon="6.41245">
        <ele>1847.79</ele>
        <time>2009-08-01T10:01:24Z</time>
      </trkpt>
      <trkpt lat="45.19255" lon="6.41246">
        <ele>1848.27</ele>
        <time>2009-08-01T10:01:28Z</time>
      </trkpt>
      <trkpt lat="45.19253" lon="6.41247">
        <ele>1848.75</ele>
        <time>2009-08-01T10:01:29Z</time>
      </trkpt>
      <trkpt lat="45.19252" lon="6.41248">
        <ele>1848.27</ele>
        <time>2009-08-01T10:01:30Z</time>
      </trkpt>
      <trkpt lat="45.19246" lon="6.41252">
        <ele>1849.23</ele>
        <time>2009-08-01T10:01:39Z</time>
      </trkpt>
      <trkpt lat="45.19242" lon="6.41254">
        <ele>1850.68</ele>
        <time>2009-08-01T10:01:48Z</time>
      </trkpt>
      <trkpt lat="45.19237" lon="6.41258">
        <ele>1850.68</ele>
        <time>2009-08-01T10:02:00Z</time>
      </trkpt>
      <trkpt lat="45.19226" lon="6.41274">
        <ele>1852.12</ele>
        <time>2009-08-01T10:02:06Z</time>
      </trkpt>
      <trkpt lat="45.19224" lon="6.41276">
        <ele>1852.12</ele>
        <time>2009-08-01T10:02:07Z</time>
      </trkpt>
      <trkpt lat="45.19223" lon="6.41278">
        <ele>1852.12</ele>
        <time>2009-08-01T10:02:08Z</time>
      </trkpt>
      <trkpt lat="45.19222" lon="6.41281">
        <ele>1852.12</ele>
        <time>2009-08-01T10:02:09Z</time>
      </trkpt>
      <trkpt lat="45.19213" lon="6.41293">
        <ele>1852.6</ele>
        <time>2009-08-01T10:02:14Z</time>
      </trkpt>
      <trkpt lat="45.19211" lon="6.41298">
        <ele>1852.12</ele>
        <time>2009-08-01T10:02:15Z</time>
      </trkpt>
      <trkpt lat="45.19208" lon="6.41302">
        <ele>1852.12</ele>
        <time>2009-08-01T10:02:16Z</time>
      </trkpt>
      <trkpt lat="45.19207" lon="6.41304">
        <ele>1852.12</ele>
        <time>2009-08-01T10:02:17Z</time>
      </trkpt>
      <trkpt lat="45.19207" lon="6.41307">
        <ele>1852.6</ele>
        <time>2009-08-01T10:02:18Z</time>
      </trkpt>
      <trkpt lat="45.19207" lon="6.41309">
        <ele>1853.56</ele>
        <time>2009-08-01T10:02:19Z</time>
      </trkpt>
      <trkpt lat="45.19207" lon="6.41312">
        <ele>1853.56</ele>
        <time>2009-08-01T10:02:20Z</time>
      </trkpt>
      <trkpt lat="45.19205" lon="6.41314">
        <ele>1854.04</ele>
        <time>2009-08-01T10:02:21Z</time>
      </trkpt>
      <trkpt lat="45.19203" lon="6.41317">
        <ele>1854.04</ele>
        <time>2009-08-01T10:02:22Z</time>
      </trkpt>
      <trkpt lat="45.19191" lon="6.41336">
        <ele>1852.12</ele>
        <time>2009-08-01T10:02:27Z</time>
      </trkpt>
      <trkpt lat="45.19191" lon="6.41339">
        <ele>1852.6</ele>
        <time>2009-08-01T10:02:28Z</time>
      </trkpt>
      <trkpt lat="45.1919" lon="6.41342">
        <ele>1852.6</ele>
        <time>2009-08-01T10:02:29Z</time>
      </trkpt>
      <trkpt lat="45.19189" lon="6.41344">
        <ele>1852.6</ele>
        <time>2009-08-01T10:02:30Z</time>
      </trkpt>
      <trkpt lat="45.19189" lon="6.41347">
        <ele>1853.08</ele>
        <time>2009-08-01T10:02:31Z</time>
      </trkpt>
      <trkpt lat="45.1919" lon="6.41352">
        <ele>1853.56</ele>
        <time>2009-08-01T10:02:33Z</time>
      </trkpt>
      <trkpt lat="45.19189" lon="6.41354">
        <ele>1854.04</ele>
        <time>2009-08-01T10:02:34Z</time>
      </trkpt>
      <trkpt lat="45.19189" lon="6.41356">
        <ele>1854.52</ele>
        <time>2009-08-01T10:02:35Z</time>
      </trkpt>
      <trkpt lat="45.19188" lon="6.41359">
        <ele>1854.52</ele>
        <time>2009-08-01T10:02:36Z</time>
      </trkpt>
      <trkpt lat="45.19187" lon="6.41363">
        <ele>1854.04</ele>
        <time>2009-08-01T10:02:37Z</time>
      </trkpt>
      <trkpt lat="45.19185" lon="6.41367">
        <ele>1854.52</ele>
        <time>2009-08-01T10:02:38Z</time>
      </trkpt>
      <trkpt lat="45.19184" lon="6.4137">
        <ele>1854.04</ele>
        <time>2009-08-01T10:02:39Z</time>
      </trkpt>
      <trkpt lat="45.19184" lon="6.41373">
        <ele>1854.04</ele>
        <time>2009-08-01T10:02:40Z</time>
      </trkpt>
      <trkpt lat="45.19185" lon="6.41377">
        <ele>1854.04</ele>
        <time>2009-08-01T10:02:41Z</time>
      </trkpt>
      <trkpt lat="45.19185" lon="6.41381">
        <ele>1853.56</ele>
        <time>2009-08-01T10:02:42Z</time>
      </trkpt>
      <trkpt lat="45.19187" lon="6.41385">
        <ele>1853.56</ele>
        <time>2009-08-01T10:02:43Z</time>
      </trkpt>
      <trkpt lat="45.19188" lon="6.41388">
        <ele>1854.04</ele>
        <time>2009-08-01T10:02:44Z</time>
      </trkpt>
      <trkpt lat="45.19189" lon="6.41391">
        <ele>1855</ele>
        <time>2009-08-01T10:02:45Z</time>
      </trkpt>
      <trkpt lat="45.19189" lon="6.41395">
        <ele>1855</ele>
        <time>2009-08-01T10:02:46Z</time>
      </trkpt>
      <trkpt lat="45.19191" lon="6.41419">
        <ele>1856.92</ele>
        <time>2009-08-01T10:02:54Z</time>
      </trkpt>
      <trkpt lat="45.19194" lon="6.41439">
        <ele>1857.89</ele>
        <time>2009-08-01T10:03:03Z</time>
      </trkpt>
      <trkpt lat="45.19194" lon="6.41442">
        <ele>1857.89</ele>
        <time>2009-08-01T10:03:04Z</time>
      </trkpt>
      <trkpt lat="45.19194" lon="6.41444">
        <ele>1857.89</ele>
        <time>2009-08-01T10:03:05Z</time>
      </trkpt>
      <trkpt lat="45.19193" lon="6.41448">
        <ele>1857.89</ele>
        <time>2009-08-01T10:03:06Z</time>
      </trkpt>
      <trkpt lat="45.19192" lon="6.4145">
        <ele>1858.37</ele>
        <time>2009-08-01T10:03:07Z</time>
      </trkpt>
      <trkpt lat="45.1919" lon="6.41452">
        <ele>1859.33</ele>
        <time>2009-08-01T10:03:08Z</time>
      </trkpt>
      <trkpt lat="45.19189" lon="6.41454">
        <ele>1860.29</ele>
        <time>2009-08-01T10:03:09Z</time>
      </trkpt>
      <trkpt lat="45.19189" lon="6.41456">
        <ele>1860.29</ele>
        <time>2009-08-01T10:03:10Z</time>
      </trkpt>
      <trkpt lat="45.19187" lon="6.4147">
        <ele>1862.69</ele>
        <time>2009-08-01T10:03:19Z</time>
      </trkpt>
      <trkpt lat="45.19189" lon="6.41483">
        <ele>1864.61</ele>
        <time>2009-08-01T10:03:30Z</time>
      </trkpt>
      <trkpt lat="45.19186" lon="6.41487">
        <ele>1864.13</ele>
        <time>2009-08-01T10:03:32Z</time>
      </trkpt>
      <trkpt lat="45.19185" lon="6.41488">
        <ele>1864.13</ele>
        <time>2009-08-01T10:03:33Z</time>
      </trkpt>
      <trkpt lat="45.19177" lon="6.41497">
        <ele>1865.09</ele>
        <time>2009-08-01T10:03:38Z</time>
      </trkpt>
      <trkpt lat="45.19175" lon="6.41499">
        <ele>1865.58</ele>
        <time>2009-08-01T10:03:39Z</time>
      </trkpt>
      <trkpt lat="45.19173" lon="6.415">
        <ele>1865.09</ele>
        <time>2009-08-01T10:03:40Z</time>
      </trkpt>
      <trkpt lat="45.19172" lon="6.41503">
        <ele>1865.58</ele>
        <time>2009-08-01T10:03:42Z</time>
      </trkpt>
      <trkpt lat="45.19171" lon="6.41505">
        <ele>1866.06</ele>
        <time>2009-08-01T10:03:43Z</time>
      </trkpt>
      <trkpt lat="45.19158" lon="6.41522">
        <ele>1868.94</ele>
        <time>2009-08-01T10:03:54Z</time>
      </trkpt>
      <trkpt lat="45.19146" lon="6.4153">
        <ele>1872.3</ele>
        <time>2009-08-01T10:04:04Z</time>
      </trkpt>
      <trkpt lat="45.19141" lon="6.41533">
        <ele>1873.75</ele>
        <time>2009-08-01T10:04:08Z</time>
      </trkpt>
      <trkpt lat="45.19137" lon="6.41538">
        <ele>1874.71</ele>
        <time>2009-08-01T10:04:12Z</time>
      </trkpt>
      <trkpt lat="45.19133" lon="6.41541">
        <ele>1875.67</ele>
        <time>2009-08-01T10:04:15Z</time>
      </trkpt>
      <trkpt lat="45.1912" lon="6.41554">
        <ele>1877.59</ele>
        <time>2009-08-01T10:04:26Z</time>
      </trkpt>
      <trkpt lat="45.19102" lon="6.41561">
        <ele>1880</ele>
        <time>2009-08-01T10:04:37Z</time>
      </trkpt>
      <trkpt lat="45.19093" lon="6.41566">
        <ele>1881.92</ele>
        <time>2009-08-01T10:04:43Z</time>
      </trkpt>
      <trkpt lat="45.19092" lon="6.41566">
        <ele>1881.92</ele>
        <time>2009-08-01T10:04:44Z</time>
      </trkpt>
      <trkpt lat="45.1909" lon="6.41567">
        <ele>1882.4</ele>
        <time>2009-08-01T10:04:45Z</time>
      </trkpt>
      <trkpt lat="45.19088" lon="6.41568">
        <ele>1882.4</ele>
        <time>2009-08-01T10:04:46Z</time>
      </trkpt>
      <trkpt lat="45.19087" lon="6.41569">
        <ele>1882.4</ele>
        <time>2009-08-01T10:04:47Z</time>
      </trkpt>
      <trkpt lat="45.19076" lon="6.41577">
        <ele>1883.84</ele>
        <time>2009-08-01T10:04:56Z</time>
      </trkpt>
      <trkpt lat="45.19068" lon="6.4158">
        <ele>1885.28</ele>
        <time>2009-08-01T10:05:08Z</time>
      </trkpt>
      <trkpt lat="45.19061" lon="6.41582">
        <ele>1886.24</ele>
        <time>2009-08-01T10:05:28Z</time>
      </trkpt>
      <trkpt lat="45.19058" lon="6.41582">
        <ele>1886.24</ele>
        <time>2009-08-01T10:05:30Z</time>
      </trkpt>
      <trkpt lat="45.19056" lon="6.41582">
        <ele>1886.24</ele>
        <time>2009-08-01T10:05:31Z</time>
      </trkpt>
      <trkpt lat="45.19055" lon="6.41582">
        <ele>1886.72</ele>
        <time>2009-08-01T10:05:32Z</time>
      </trkpt>
      <trkpt lat="45.19053" lon="6.41582">
        <ele>1886.72</ele>
        <time>2009-08-01T10:05:33Z</time>
      </trkpt>
      <trkpt lat="45.19052" lon="6.41582">
        <ele>1886.72</ele>
        <time>2009-08-01T10:05:34Z</time>
      </trkpt>
      <trkpt lat="45.19044" lon="6.41582">
        <ele>1887.69</ele>
        <time>2009-08-01T10:05:44Z</time>
      </trkpt>
      <trkpt lat="45.19036" lon="6.41578">
        <ele>1888.65</ele>
        <time>2009-08-01T10:06:06Z</time>
      </trkpt>
      <trkpt lat="45.19031" lon="6.41578">
        <ele>1889.13</ele>
        <time>2009-08-01T10:06:10Z</time>
      </trkpt>
      <trkpt lat="45.19029" lon="6.4158">
        <ele>1888.65</ele>
        <time>2009-08-01T10:06:11Z</time>
      </trkpt>
      <trkpt lat="45.19026" lon="6.41583">
        <ele>1888.65</ele>
        <time>2009-08-01T10:06:12Z</time>
      </trkpt>
      <trkpt lat="45.19024" lon="6.41585">
        <ele>1888.65</ele>
        <time>2009-08-01T10:06:13Z</time>
      </trkpt>
      <trkpt lat="45.19022" lon="6.41587">
        <ele>1888.17</ele>
        <time>2009-08-01T10:06:14Z</time>
      </trkpt>
      <trkpt lat="45.19021" lon="6.41589">
        <ele>1888.65</ele>
        <time>2009-08-01T10:06:15Z</time>
      </trkpt>
      <trkpt lat="45.19019" lon="6.41592">
        <ele>1888.65</ele>
        <time>2009-08-01T10:06:16Z</time>
      </trkpt>
      <trkpt lat="45.18999" lon="6.41599">
        <ele>1890.09</ele>
        <time>2009-08-01T10:06:28Z</time>
      </trkpt>
      <trkpt lat="45.1899" lon="6.41592">
        <ele>1890.09</ele>
        <time>2009-08-01T10:06:35Z</time>
      </trkpt>
      <trkpt lat="45.18988" lon="6.41591">
        <ele>1889.61</ele>
        <time>2009-08-01T10:06:36Z</time>
      </trkpt>
      <trkpt lat="45.18985" lon="6.4159">
        <ele>1890.09</ele>
        <time>2009-08-01T10:06:37Z</time>
      </trkpt>
      <trkpt lat="45.18985" lon="6.41591">
        <ele>1890.09</ele>
        <time>2009-08-01T10:06:38Z</time>
      </trkpt>
      <trkpt lat="45.18983" lon="6.41592">
        <ele>1890.57</ele>
        <time>2009-08-01T10:06:39Z</time>
      </trkpt>
      <trkpt lat="45.18982" lon="6.4159">
        <ele>1890.57</ele>
        <time>2009-08-01T10:06:40Z</time>
      </trkpt>
      <trkpt lat="45.18979" lon="6.41589">
        <ele>1891.05</ele>
        <time>2009-08-01T10:06:50Z</time>
      </trkpt>
      <trkpt lat="45.18977" lon="6.41589">
        <ele>1890.57</ele>
        <time>2009-08-01T10:06:51Z</time>
      </trkpt>
      <trkpt lat="45.18975" lon="6.41591">
        <ele>1890.09</ele>
        <time>2009-08-01T10:06:52Z</time>
      </trkpt>
      <trkpt lat="45.18974" lon="6.41591">
        <ele>1890.57</ele>
        <time>2009-08-01T10:06:53Z</time>
      </trkpt>
      <trkpt lat="45.18972" lon="6.41591">
        <ele>1890.57</ele>
        <time>2009-08-01T10:06:54Z</time>
      </trkpt>
      <trkpt lat="45.18942" lon="6.41591">
        <ele>1890.57</ele>
        <time>2009-08-01T10:07:08Z</time>
      </trkpt>
      <trkpt lat="45.18933" lon="6.4159">
        <ele>1890.09</ele>
        <time>2009-08-01T10:07:12Z</time>
      </trkpt>
      <trkpt lat="45.18932" lon="6.41589">
        <ele>1890.57</ele>
        <time>2009-08-01T10:07:13Z</time>
      </trkpt>
      <trkpt lat="45.18931" lon="6.41588">
        <ele>1890.57</ele>
        <time>2009-08-01T10:07:14Z</time>
      </trkpt>
      <trkpt lat="45.18929" lon="6.4159">
        <ele>1890.57</ele>
        <time>2009-08-01T10:07:16Z</time>
      </trkpt>
      <trkpt lat="45.18928" lon="6.41589">
        <ele>1890.57</ele>
        <time>2009-08-01T10:07:17Z</time>
      </trkpt>
      <trkpt lat="45.18929" lon="6.41604">
        <ele>1892.01</ele>
        <time>2009-08-01T10:07:25Z</time>
      </trkpt>
      <trkpt lat="45.18935" lon="6.41621">
        <ele>1895.86</ele>
        <time>2009-08-01T10:07:34Z</time>
      </trkpt>
      <trkpt lat="45.18942" lon="6.41634">
        <ele>1897.3</ele>
        <time>2009-08-01T10:07:38Z</time>
      </trkpt>
      <trkpt lat="45.18951" lon="6.41645">
        <ele>1899.22</ele>
        <time>2009-08-01T10:07:42Z</time>
      </trkpt>
      <trkpt lat="45.18954" lon="6.41644">
        <ele>1900.18</ele>
        <time>2009-08-01T10:08:01Z</time>
      </trkpt>
      <trkpt lat="45.18953" lon="6.4165">
        <ele>1902.59</ele>
        <time>2009-08-01T10:08:30Z</time>
      </trkpt>
      <trkpt lat="45.18951" lon="6.41656">
        <ele>1905.95</ele>
        <time>2009-08-01T10:08:42Z</time>
      </trkpt>
      <trkpt lat="45.1895" lon="6.41656">
        <ele>1909.32</ele>
        <time>2009-08-01T10:09:00Z</time>
      </trkpt>
      <trkpt lat="45.18954" lon="6.41665">
        <ele>1912.2</ele>
        <time>2009-08-01T10:09:13Z</time>
      </trkpt>
      <trkpt lat="45.18958" lon="6.41668">
        <ele>1915.08</ele>
        <time>2009-08-01T10:09:24Z</time>
      </trkpt>
      <trkpt lat="45.1896" lon="6.41676">
        <ele>1917.01</ele>
        <time>2009-08-01T10:09:37Z</time>
      </trkpt>
      <trkpt lat="45.18965" lon="6.41683">
        <ele>1919.89</ele>
        <time>2009-08-01T10:09:49Z</time>
      </trkpt>
      <trkpt lat="45.18965" lon="6.41687">
        <ele>1921.33</ele>
        <time>2009-08-01T10:10:03Z</time>
      </trkpt>
      <trkpt lat="45.18968" lon="6.41695">
        <ele>1924.22</ele>
        <time>2009-08-01T10:10:16Z</time>
      </trkpt>
      <trkpt lat="45.18972" lon="6.417">
        <ele>1926.62</ele>
        <time>2009-08-01T10:10:28Z</time>
      </trkpt>
      <trkpt lat="45.18975" lon="6.41697">
        <ele>1926.62</ele>
        <time>2009-08-01T10:10:40Z</time>
      </trkpt>
      <trkpt lat="45.18976" lon="6.41698">
        <ele>1926.14</ele>
        <time>2009-08-01T10:11:10Z</time>
      </trkpt>
      <trkpt lat="45.18978" lon="6.41701">
        <ele>1928.06</ele>
        <time>2009-08-01T10:18:05Z</time>
      </trkpt>
      <trkpt lat="45.18978" lon="6.41701">
        <ele>1926.62</ele>
        <time>2009-08-01T10:18:08Z</time>
      </trkpt>
      <trkpt lat="45.18978" lon="6.41701">
        <ele>1926.14</ele>
        <time>2009-08-01T10:18:12Z</time>
      </trkpt>
      <trkpt lat="45.18979" lon="6.417">
        <ele>1927.1</ele>
        <time>2009-08-01T10:18:45Z</time>
      </trkpt>
      <trkpt lat="45.19005" lon="6.41697">
        <ele>1923.25</ele>
        <time>2009-08-01T10:18:54Z</time>
      </trkpt>
      <trkpt lat="45.19008" lon="6.41697">
        <ele>1922.77</ele>
        <time>2009-08-01T10:18:55Z</time>
      </trkpt>
      <trkpt lat="45.19012" lon="6.41698">
        <ele>1921.81</ele>
        <time>2009-08-01T10:18:56Z</time>
      </trkpt>
      <trkpt lat="45.1902" lon="6.41699">
        <ele>1918.93</ele>
        <time>2009-08-01T10:18:58Z</time>
      </trkpt>
      <trkpt lat="45.19024" lon="6.417">
        <ele>1917.97</ele>
        <time>2009-08-01T10:18:59Z</time>
      </trkpt>
      <trkpt lat="45.19027" lon="6.41701">
        <ele>1916.53</ele>
        <time>2009-08-01T10:19:00Z</time>
      </trkpt>
      <trkpt lat="45.19031" lon="6.41704">
        <ele>1915.08</ele>
        <time>2009-08-01T10:19:02Z</time>
      </trkpt>
      <trkpt lat="45.19033" lon="6.41704">
        <ele>1914.12</ele>
        <time>2009-08-01T10:19:03Z</time>
      </trkpt>
      <trkpt lat="45.19036" lon="6.41702">
        <ele>1913.16</ele>
        <time>2009-08-01T10:19:05Z</time>
      </trkpt>
      <trkpt lat="45.19041" lon="6.41706">
        <ele>1909.8</ele>
        <time>2009-08-01T10:19:09Z</time>
      </trkpt>
      <trkpt lat="45.19042" lon="6.41709">
        <ele>1908.83</ele>
        <time>2009-08-01T10:19:10Z</time>
      </trkpt>
      <trkpt lat="45.19043" lon="6.4171">
        <ele>1907.39</ele>
        <time>2009-08-01T10:19:11Z</time>
      </trkpt>
      <trkpt lat="45.19044" lon="6.4171">
        <ele>1907.39</ele>
        <time>2009-08-01T10:19:12Z</time>
      </trkpt>
      <trkpt lat="45.19045" lon="6.41709">
        <ele>1907.39</ele>
        <time>2009-08-01T10:19:13Z</time>
      </trkpt>
      <trkpt lat="45.19047" lon="6.41709">
        <ele>1906.43</ele>
        <time>2009-08-01T10:19:14Z</time>
      </trkpt>
      <trkpt lat="45.19048" lon="6.4171">
        <ele>1905.95</ele>
        <time>2009-08-01T10:19:15Z</time>
      </trkpt>
      <trkpt lat="45.1905" lon="6.4171">
        <ele>1904.51</ele>
        <time>2009-08-01T10:19:16Z</time>
      </trkpt>
      <trkpt lat="45.19051" lon="6.41709">
        <ele>1904.03</ele>
        <time>2009-08-01T10:19:17Z</time>
      </trkpt>
      <trkpt lat="45.19053" lon="6.41706">
        <ele>1904.03</ele>
        <time>2009-08-01T10:19:18Z</time>
      </trkpt>
      <trkpt lat="45.1906" lon="6.41697">
        <ele>1900.66</ele>
        <time>2009-08-01T10:19:21Z</time>
      </trkpt>
      <trkpt lat="45.19063" lon="6.41692">
        <ele>1899.22</ele>
        <time>2009-08-01T10:19:22Z</time>
      </trkpt>
      <trkpt lat="45.19068" lon="6.41675">
        <ele>1895.86</ele>
        <time>2009-08-01T10:19:25Z</time>
      </trkpt>
      <trkpt lat="45.19068" lon="6.4165">
        <ele>1892.01</ele>
        <time>2009-08-01T10:19:30Z</time>
      </trkpt>
      <trkpt lat="45.19066" lon="6.41638">
        <ele>1891.53</ele>
        <time>2009-08-01T10:19:32Z</time>
      </trkpt>
      <trkpt lat="45.19065" lon="6.4163">
        <ele>1891.05</ele>
        <time>2009-08-01T10:19:33Z</time>
      </trkpt>
      <trkpt lat="45.19064" lon="6.41616">
        <ele>1889.61</ele>
        <time>2009-08-01T10:19:35Z</time>
      </trkpt>
      <trkpt lat="45.19064" lon="6.41592">
        <ele>1887.21</ele>
        <time>2009-08-01T10:19:38Z</time>
      </trkpt>
      <trkpt lat="45.19066" lon="6.41585">
        <ele>1886.72</ele>
        <time>2009-08-01T10:19:39Z</time>
      </trkpt>
      <trkpt lat="45.19068" lon="6.41582">
        <ele>1886.72</ele>
        <time>2009-08-01T10:19:40Z</time>
      </trkpt>
      <trkpt lat="45.1907" lon="6.4158">
        <ele>1886.24</ele>
        <time>2009-08-01T10:19:41Z</time>
      </trkpt>
      <trkpt lat="45.19071" lon="6.41578">
        <ele>1886.24</ele>
        <time>2009-08-01T10:19:42Z</time>
      </trkpt>
      <trkpt lat="45.19073" lon="6.41577">
        <ele>1886.24</ele>
        <time>2009-08-01T10:19:49Z</time>
      </trkpt>
      <trkpt lat="45.19075" lon="6.41578">
        <ele>1885.28</ele>
        <time>2009-08-01T10:19:50Z</time>
      </trkpt>
      <trkpt lat="45.19078" lon="6.41582">
        <ele>1884.8</ele>
        <time>2009-08-01T10:19:51Z</time>
      </trkpt>
      <trkpt lat="45.19081" lon="6.41586">
        <ele>1884.8</ele>
        <time>2009-08-01T10:19:52Z</time>
      </trkpt>
      <trkpt lat="45.1909" lon="6.41593">
        <ele>1883.84</ele>
        <time>2009-08-01T10:19:55Z</time>
      </trkpt>
      <trkpt lat="45.19092" lon="6.41593">
        <ele>1882.88</ele>
        <time>2009-08-01T10:19:56Z</time>
      </trkpt>
      <trkpt lat="45.19108" lon="6.41587">
        <ele>1879.03</ele>
        <time>2009-08-01T10:20:00Z</time>
      </trkpt>
      <trkpt lat="45.19112" lon="6.41586">
        <ele>1878.07</ele>
        <time>2009-08-01T10:20:01Z</time>
      </trkpt>
      <trkpt lat="45.19116" lon="6.41585">
        <ele>1877.59</ele>
        <time>2009-08-01T10:20:02Z</time>
      </trkpt>
      <trkpt lat="45.1912" lon="6.41582">
        <ele>1876.15</ele>
        <time>2009-08-01T10:20:03Z</time>
      </trkpt>
      <trkpt lat="45.19125" lon="6.41572">
        <ele>1875.19</ele>
        <time>2009-08-01T10:20:05Z</time>
      </trkpt>
      <trkpt lat="45.19129" lon="6.41569">
        <ele>1874.23</ele>
        <time>2009-08-01T10:20:06Z</time>
      </trkpt>
      <trkpt lat="45.19133" lon="6.41567">
        <ele>1873.75</ele>
        <time>2009-08-01T10:20:07Z</time>
      </trkpt>
      <trkpt lat="45.19137" lon="6.41565">
        <ele>1872.3</ele>
        <time>2009-08-01T10:20:08Z</time>
      </trkpt>
      <trkpt lat="45.19141" lon="6.41562">
        <ele>1871.82</ele>
        <time>2009-08-01T10:20:09Z</time>
      </trkpt>
      <trkpt lat="45.19151" lon="6.41555">
        <ele>1869.9</ele>
        <time>2009-08-01T10:20:11Z</time>
      </trkpt>
      <trkpt lat="45.19156" lon="6.4155">
        <ele>1867.98</ele>
        <time>2009-08-01T10:20:12Z</time>
      </trkpt>
      <trkpt lat="45.19164" lon="6.41544">
        <ele>1865.09</ele>
        <time>2009-08-01T10:20:14Z</time>
      </trkpt>
      <trkpt lat="45.19168" lon="6.41546">
        <ele>1864.13</ele>
        <time>2009-08-01T10:20:15Z</time>
      </trkpt>
      <trkpt lat="45.19178" lon="6.41553">
        <ele>1862.69</ele>
        <time>2009-08-01T10:20:17Z</time>
      </trkpt>
      <trkpt lat="45.19183" lon="6.41558">
        <ele>1861.73</ele>
        <time>2009-08-01T10:20:18Z</time>
      </trkpt>
      <trkpt lat="45.19192" lon="6.41569">
        <ele>1858.37</ele>
        <time>2009-08-01T10:20:21Z</time>
      </trkpt>
      <trkpt lat="45.19193" lon="6.41573">
        <ele>1857.89</ele>
        <time>2009-08-01T10:20:22Z</time>
      </trkpt>
      <trkpt lat="45.19193" lon="6.41578">
        <ele>1856.92</ele>
        <time>2009-08-01T10:20:23Z</time>
      </trkpt>
      <trkpt lat="45.19193" lon="6.41581">
        <ele>1855.96</ele>
        <time>2009-08-01T10:20:24Z</time>
      </trkpt>
      <trkpt lat="45.19194" lon="6.41584">
        <ele>1854.52</ele>
        <time>2009-08-01T10:20:26Z</time>
      </trkpt>
      <trkpt lat="45.19195" lon="6.41585">
        <ele>1854.04</ele>
        <time>2009-08-01T10:20:27Z</time>
      </trkpt>
      <trkpt lat="45.19198" lon="6.41585">
        <ele>1853.08</ele>
        <time>2009-08-01T10:20:28Z</time>
      </trkpt>
      <trkpt lat="45.19201" lon="6.41585">
        <ele>1851.64</ele>
        <time>2009-08-01T10:20:29Z</time>
      </trkpt>
      <trkpt lat="45.19204" lon="6.41586">
        <ele>1850.19</ele>
        <time>2009-08-01T10:20:30Z</time>
      </trkpt>
      <trkpt lat="45.19206" lon="6.4159">
        <ele>1849.23</ele>
        <time>2009-08-01T10:20:31Z</time>
      </trkpt>
      <trkpt lat="45.19207" lon="6.41594">
        <ele>1847.79</ele>
        <time>2009-08-01T10:20:32Z</time>
      </trkpt>
      <trkpt lat="45.19207" lon="6.41597">
        <ele>1847.79</ele>
        <time>2009-08-01T10:20:33Z</time>
      </trkpt>
      <trkpt lat="45.19207" lon="6.41601">
        <ele>1846.83</ele>
        <time>2009-08-01T10:20:34Z</time>
      </trkpt>
      <trkpt lat="45.19208" lon="6.41612">
        <ele>1846.35</ele>
        <time>2009-08-01T10:20:36Z</time>
      </trkpt>
      <trkpt lat="45.19209" lon="6.41618">
        <ele>1845.87</ele>
        <time>2009-08-01T10:20:37Z</time>
      </trkpt>
      <trkpt lat="45.19214" lon="6.4163">
        <ele>1844.43</ele>
        <time>2009-08-01T10:20:39Z</time>
      </trkpt>
      <trkpt lat="45.19221" lon="6.41644">
        <ele>1842.02</ele>
        <time>2009-08-01T10:20:41Z</time>
      </trkpt>
      <trkpt lat="45.19227" lon="6.41661">
        <ele>1838.66</ele>
        <time>2009-08-01T10:20:43Z</time>
      </trkpt>
      <trkpt lat="45.1923" lon="6.4167">
        <ele>1836.74</ele>
        <time>2009-08-01T10:20:44Z</time>
      </trkpt>
      <trkpt lat="45.19234" lon="6.41677">
        <ele>1835.77</ele>
        <time>2009-08-01T10:20:45Z</time>
      </trkpt>
      <trkpt lat="45.19237" lon="6.41683">
        <ele>1833.85</ele>
        <time>2009-08-01T10:20:46Z</time>
      </trkpt>
      <trkpt lat="45.19238" lon="6.41689">
        <ele>1832.41</ele>
        <time>2009-08-01T10:20:47Z</time>
      </trkpt>
      <trkpt lat="45.1924" lon="6.41694">
        <ele>1831.45</ele>
        <time>2009-08-01T10:20:48Z</time>
      </trkpt>
      <trkpt lat="45.19241" lon="6.417">
        <ele>1830.01</ele>
        <time>2009-08-01T10:20:49Z</time>
      </trkpt>
      <trkpt lat="45.19242" lon="6.41705">
        <ele>1828.56</ele>
        <time>2009-08-01T10:20:50Z</time>
      </trkpt>
      <trkpt lat="45.19243" lon="6.41709">
        <ele>1828.08</ele>
        <time>2009-08-01T10:20:51Z</time>
      </trkpt>
      <trkpt lat="45.19244" lon="6.41712">
        <ele>1827.12</ele>
        <time>2009-08-01T10:20:52Z</time>
      </trkpt>
      <trkpt lat="45.19245" lon="6.41713">
        <ele>1824.72</ele>
        <time>2009-08-01T10:20:56Z</time>
      </trkpt>
      <trkpt lat="45.19247" lon="6.41699">
        <ele>1821.35</ele>
        <time>2009-08-01T10:21:00Z</time>
      </trkpt>
      <trkpt lat="45.19248" lon="6.41683">
        <ele>1818.95</ele>
        <time>2009-08-01T10:21:03Z</time>
      </trkpt>
      <trkpt lat="45.19248" lon="6.41678">
        <ele>1817.51</ele>
        <time>2009-08-01T10:21:04Z</time>
      </trkpt>
      <trkpt lat="45.19249" lon="6.41664">
        <ele>1814.63</ele>
        <time>2009-08-01T10:21:07Z</time>
      </trkpt>
      <trkpt lat="45.19249" lon="6.41661">
        <ele>1814.15</ele>
        <time>2009-08-01T10:21:08Z</time>
      </trkpt>
      <trkpt lat="45.19251" lon="6.4166">
        <ele>1812.22</ele>
        <time>2009-08-01T10:21:10Z</time>
      </trkpt>
      <trkpt lat="45.19253" lon="6.41662">
        <ele>1810.78</ele>
        <time>2009-08-01T10:21:11Z</time>
      </trkpt>
      <trkpt lat="45.19255" lon="6.41666">
        <ele>1810.3</ele>
        <time>2009-08-01T10:21:12Z</time>
      </trkpt>
      <trkpt lat="45.19258" lon="6.4167">
        <ele>1808.86</ele>
        <time>2009-08-01T10:21:13Z</time>
      </trkpt>
      <trkpt lat="45.1926" lon="6.41674">
        <ele>1807.9</ele>
        <time>2009-08-01T10:21:14Z</time>
      </trkpt>
      <trkpt lat="45.19267" lon="6.4168">
        <ele>1804.05</ele>
        <time>2009-08-01T10:21:16Z</time>
      </trkpt>
      <trkpt lat="45.19275" lon="6.41685">
        <ele>1800.69</ele>
        <time>2009-08-01T10:21:18Z</time>
      </trkpt>
      <trkpt lat="45.1928" lon="6.41686">
        <ele>1800.21</ele>
        <time>2009-08-01T10:21:19Z</time>
      </trkpt>
      <trkpt lat="45.19284" lon="6.41688">
        <ele>1798.28</ele>
        <time>2009-08-01T10:21:20Z</time>
      </trkpt>
      <trkpt lat="45.19288" lon="6.4169">
        <ele>1797.8</ele>
        <time>2009-08-01T10:21:21Z</time>
      </trkpt>
      <trkpt lat="45.1929" lon="6.41692">
        <ele>1796.84</ele>
        <time>2009-08-01T10:21:22Z</time>
      </trkpt>
      <trkpt lat="45.19293" lon="6.41693">
        <ele>1795.4</ele>
        <time>2009-08-01T10:21:23Z</time>
      </trkpt>
      <trkpt lat="45.19295" lon="6.41694">
        <ele>1794.44</ele>
        <time>2009-08-01T10:21:24Z</time>
      </trkpt>
      <trkpt lat="45.19298" lon="6.41695">
        <ele>1793.96</ele>
        <time>2009-08-01T10:21:25Z</time>
      </trkpt>
      <trkpt lat="45.193" lon="6.41696">
        <ele>1793</ele>
        <time>2009-08-01T10:21:26Z</time>
      </trkpt>
      <trkpt lat="45.19301" lon="6.41695">
        <ele>1792.03</ele>
        <time>2009-08-01T10:21:28Z</time>
      </trkpt>
      <trkpt lat="45.193" lon="6.41693">
        <ele>1792.03</ele>
        <time>2009-08-01T10:21:29Z</time>
      </trkpt>
      <trkpt lat="45.19299" lon="6.41691">
        <ele>1791.55</ele>
        <time>2009-08-01T10:21:30Z</time>
      </trkpt>
      <trkpt lat="45.19299" lon="6.41687">
        <ele>1791.55</ele>
        <time>2009-08-01T10:21:31Z</time>
      </trkpt>
      <trkpt lat="45.19299" lon="6.41684">
        <ele>1791.07</ele>
        <time>2009-08-01T10:21:32Z</time>
      </trkpt>
      <trkpt lat="45.19298" lon="6.41682">
        <ele>1790.59</ele>
        <time>2009-08-01T10:21:33Z</time>
      </trkpt>
      <trkpt lat="45.19297" lon="6.4168">
        <ele>1789.15</ele>
        <time>2009-08-01T10:21:36Z</time>
      </trkpt>
      <trkpt lat="45.19297" lon="6.41682">
        <ele>1789.15</ele>
        <time>2009-08-01T10:21:38Z</time>
      </trkpt>
      <trkpt lat="45.19297" lon="6.41685">
        <ele>1789.15</ele>
        <time>2009-08-01T10:21:39Z</time>
      </trkpt>
      <trkpt lat="45.19299" lon="6.41687">
        <ele>1789.15</ele>
        <time>2009-08-01T10:21:40Z</time>
      </trkpt>
      <trkpt lat="45.19302" lon="6.4169">
        <ele>1788.19</ele>
        <time>2009-08-01T10:21:41Z</time>
      </trkpt>
      <trkpt lat="45.19305" lon="6.41693">
        <ele>1787.71</ele>
        <time>2009-08-01T10:21:42Z</time>
      </trkpt>
      <trkpt lat="45.19307" lon="6.41695">
        <ele>1787.23</ele>
        <time>2009-08-01T10:21:43Z</time>
      </trkpt>
      <trkpt lat="45.1931" lon="6.41696">
        <ele>1786.75</ele>
        <time>2009-08-01T10:21:44Z</time>
      </trkpt>
      <trkpt lat="45.19322" lon="6.41693">
        <ele>1784.82</ele>
        <time>2009-08-01T10:21:49Z</time>
      </trkpt>
      <trkpt lat="45.19322" lon="6.4169">
        <ele>1784.82</ele>
        <time>2009-08-01T10:21:50Z</time>
      </trkpt>
      <trkpt lat="45.1932" lon="6.41688">
        <ele>1784.34</ele>
        <time>2009-08-01T10:21:51Z</time>
      </trkpt>
      <trkpt lat="45.19318" lon="6.41683">
        <ele>1782.9</ele>
        <time>2009-08-01T10:21:56Z</time>
      </trkpt>
      <trkpt lat="45.19332" lon="6.41694">
        <ele>1779.06</ele>
        <time>2009-08-01T10:22:02Z</time>
      </trkpt>
      <trkpt lat="45.19337" lon="6.41695">
        <ele>1777.61</ele>
        <time>2009-08-01T10:22:03Z</time>
      </trkpt>
      <trkpt lat="45.19349" lon="6.41708">
        <ele>1775.69</ele>
        <time>2009-08-01T10:22:06Z</time>
      </trkpt>
      <trkpt lat="45.19355" lon="6.41726">
        <ele>1772.33</ele>
        <time>2009-08-01T10:22:09Z</time>
      </trkpt>
      <trkpt lat="45.19356" lon="6.41734">
        <ele>1770.89</ele>
        <time>2009-08-01T10:22:11Z</time>
      </trkpt>
      <trkpt lat="45.19351" lon="6.41737">
        <ele>1769.44</ele>
        <time>2009-08-01T10:22:13Z</time>
      </trkpt>
      <trkpt lat="45.19358" lon="6.41725">
        <ele>1766.56</ele>
        <time>2009-08-01T10:22:22Z</time>
      </trkpt>
      <trkpt lat="45.19363" lon="6.41731">
        <ele>1767.04</ele>
        <time>2009-08-01T10:22:23Z</time>
      </trkpt>
      <trkpt lat="45.19364" lon="6.4174">
        <ele>1765.12</ele>
        <time>2009-08-01T10:22:25Z</time>
      </trkpt>
      <trkpt lat="45.19363" lon="6.41746">
        <ele>1763.68</ele>
        <time>2009-08-01T10:22:26Z</time>
      </trkpt>
      <trkpt lat="45.19365" lon="6.41752">
        <ele>1762.71</ele>
        <time>2009-08-01T10:22:27Z</time>
      </trkpt>
      <trkpt lat="45.19366" lon="6.41759">
        <ele>1761.27</ele>
        <time>2009-08-01T10:22:28Z</time>
      </trkpt>
      <trkpt lat="45.19367" lon="6.41765">
        <ele>1760.31</ele>
        <time>2009-08-01T10:22:29Z</time>
      </trkpt>
      <trkpt lat="45.19367" lon="6.4177">
        <ele>1759.35</ele>
        <time>2009-08-01T10:22:30Z</time>
      </trkpt>
      <trkpt lat="45.19367" lon="6.41775">
        <ele>1758.39</ele>
        <time>2009-08-01T10:22:31Z</time>
      </trkpt>
      <trkpt lat="45.19369" lon="6.41781">
        <ele>1757.43</ele>
        <time>2009-08-01T10:22:32Z</time>
      </trkpt>
      <trkpt lat="45.1937" lon="6.41787">
        <ele>1755.02</ele>
        <time>2009-08-01T10:22:33Z</time>
      </trkpt>
      <trkpt lat="45.19375" lon="6.41809">
        <ele>1749.74</ele>
        <time>2009-08-01T10:22:36Z</time>
      </trkpt>
      <trkpt lat="45.19377" lon="6.41816">
        <ele>1748.29</ele>
        <time>2009-08-01T10:22:37Z</time>
      </trkpt>
      <trkpt lat="45.19379" lon="6.41823">
        <ele>1746.85</ele>
        <time>2009-08-01T10:22:38Z</time>
      </trkpt>
      <trkpt lat="45.19383" lon="6.41829">
        <ele>1745.41</ele>
        <time>2009-08-01T10:22:39Z</time>
      </trkpt>
      <trkpt lat="45.19386" lon="6.41834">
        <ele>1743.49</ele>
        <time>2009-08-01T10:22:40Z</time>
      </trkpt>
      <trkpt lat="45.19388" lon="6.41837">
        <ele>1743.01</ele>
        <time>2009-08-01T10:22:41Z</time>
      </trkpt>
      <trkpt lat="45.1939" lon="6.4184">
        <ele>1742.53</ele>
        <time>2009-08-01T10:22:42Z</time>
      </trkpt>
      <trkpt lat="45.19389" lon="6.41842">
        <ele>1741.57</ele>
        <time>2009-08-01T10:22:44Z</time>
      </trkpt>
      <trkpt lat="45.19388" lon="6.41844">
        <ele>1741.57</ele>
        <time>2009-08-01T10:22:55Z</time>
      </trkpt>
      <trkpt lat="45.19387" lon="6.41852">
        <ele>1741.57</ele>
        <time>2009-08-01T10:23:05Z</time>
      </trkpt>
      <trkpt lat="45.19387" lon="6.41857">
        <ele>1741.08</ele>
        <time>2009-08-01T10:23:18Z</time>
      </trkpt>
      <trkpt lat="45.19388" lon="6.4186">
        <ele>1740.6</ele>
        <time>2009-08-01T10:23:19Z</time>
      </trkpt>
      <trkpt lat="45.19388" lon="6.41862">
        <ele>1741.08</ele>
        <time>2009-08-01T10:23:20Z</time>
      </trkpt>
      <trkpt lat="45.19388" lon="6.41865">
        <ele>1741.08</ele>
        <time>2009-08-01T10:23:21Z</time>
      </trkpt>
      <trkpt lat="45.19388" lon="6.41868">
        <ele>1741.08</ele>
        <time>2009-08-01T10:23:22Z</time>
      </trkpt>
      <trkpt lat="45.19388" lon="6.4187">
        <ele>1741.57</ele>
        <time>2009-08-01T10:23:23Z</time>
      </trkpt>
      <trkpt lat="45.19388" lon="6.41873">
        <ele>1742.05</ele>
        <time>2009-08-01T10:23:24Z</time>
      </trkpt>
      <trkpt lat="45.19388" lon="6.41882">
        <ele>1742.05</ele>
        <time>2009-08-01T10:23:27Z</time>
      </trkpt>
      <trkpt lat="45.19388" lon="6.41884">
        <ele>1742.05</ele>
        <time>2009-08-01T10:23:28Z</time>
      </trkpt>
      <trkpt lat="45.19388" lon="6.41887">
        <ele>1742.05</ele>
        <time>2009-08-01T10:23:29Z</time>
      </trkpt>
      <trkpt lat="45.19388" lon="6.41889">
        <ele>1742.05</ele>
        <time>2009-08-01T10:23:30Z</time>
      </trkpt>
      <trkpt lat="45.19386" lon="6.41891">
        <ele>1742.05</ele>
        <time>2009-08-01T10:23:47Z</time>
      </trkpt>
      <trkpt lat="45.19386" lon="6.41892">
        <ele>1742.05</ele>
        <time>2009-08-01T10:25:16Z</time>
      </trkpt>
      <trkpt lat="45.19376" lon="6.41906">
        <ele>1743.01</ele>
        <time>2009-08-01T10:25:21Z</time>
      </trkpt>
      <trkpt lat="45.19377" lon="6.41909">
        <ele>1742.53</ele>
        <time>2009-08-01T10:25:23Z</time>
      </trkpt>
      <trkpt lat="45.19379" lon="6.41911">
        <ele>1742.53</ele>
        <time>2009-08-01T10:25:24Z</time>
      </trkpt>
      <trkpt lat="45.1938" lon="6.41913">
        <ele>1741.57</ele>
        <time>2009-08-01T10:25:25Z</time>
      </trkpt>
      <trkpt lat="45.19382" lon="6.41918">
        <ele>1740.6</ele>
        <time>2009-08-01T10:25:26Z</time>
      </trkpt>
      <trkpt lat="45.19384" lon="6.41922">
        <ele>1738.68</ele>
        <time>2009-08-01T10:25:27Z</time>
      </trkpt>
      <trkpt lat="45.19387" lon="6.41927">
        <ele>1737.24</ele>
        <time>2009-08-01T10:25:28Z</time>
      </trkpt>
      <trkpt lat="45.19388" lon="6.41932">
        <ele>1736.28</ele>
        <time>2009-08-01T10:25:29Z</time>
      </trkpt>
      <trkpt lat="45.19389" lon="6.41941">
        <ele>1734.84</ele>
        <time>2009-08-01T10:25:30Z</time>
      </trkpt>
      <trkpt lat="45.19389" lon="6.4195">
        <ele>1734.36</ele>
        <time>2009-08-01T10:25:31Z</time>
      </trkpt>
      <trkpt lat="45.1939" lon="6.41958">
        <ele>1734.84</ele>
        <time>2009-08-01T10:25:32Z</time>
      </trkpt>
      <trkpt lat="45.1939" lon="6.41962">
        <ele>1735.32</ele>
        <time>2009-08-01T10:25:33Z</time>
      </trkpt>
      <trkpt lat="45.19392" lon="6.41971">
        <ele>1735.32</ele>
        <time>2009-08-01T10:25:36Z</time>
      </trkpt>
      <trkpt lat="45.19394" lon="6.41976">
        <ele>1734.84</ele>
        <time>2009-08-01T10:25:39Z</time>
      </trkpt>
      <trkpt lat="45.19394" lon="6.41978">
        <ele>1733.88</ele>
        <time>2009-08-01T10:25:46Z</time>
      </trkpt>
      <trkpt lat="45.19394" lon="6.4198">
        <ele>1733.88</ele>
        <time>2009-08-01T10:25:47Z</time>
      </trkpt>
      <trkpt lat="45.19394" lon="6.41983">
        <ele>1733.39</ele>
        <time>2009-08-01T10:25:48Z</time>
      </trkpt>
      <trkpt lat="45.19393" lon="6.41987">
        <ele>1731.95</ele>
        <time>2009-08-01T10:25:49Z</time>
      </trkpt>
      <trkpt lat="45.19383" lon="6.42003">
        <ele>1728.11</ele>
        <time>2009-08-01T10:25:54Z</time>
      </trkpt>
      <trkpt lat="45.19379" lon="6.42008">
        <ele>1725.7</ele>
        <time>2009-08-01T10:25:56Z</time>
      </trkpt>
      <trkpt lat="45.19367" lon="6.42021">
        <ele>1721.38</ele>
        <time>2009-08-01T10:26:01Z</time>
      </trkpt>
      <trkpt lat="45.19357" lon="6.42027">
        <ele>1718.97</ele>
        <time>2009-08-01T10:26:04Z</time>
      </trkpt>
      <trkpt lat="45.19353" lon="6.42027">
        <ele>1718.01</ele>
        <time>2009-08-01T10:26:05Z</time>
      </trkpt>
      <trkpt lat="45.19344" lon="6.42036">
        <ele>1714.17</ele>
        <time>2009-08-01T10:26:09Z</time>
      </trkpt>
      <trkpt lat="45.19345" lon="6.42042">
        <ele>1711.28</ele>
        <time>2009-08-01T10:26:12Z</time>
      </trkpt>
      <trkpt lat="45.19356" lon="6.42052">
        <ele>1707.44</ele>
        <time>2009-08-01T10:26:16Z</time>
      </trkpt>
      <trkpt lat="45.19366" lon="6.4206">
        <ele>1706</ele>
        <time>2009-08-01T10:26:19Z</time>
      </trkpt>
      <trkpt lat="45.1937" lon="6.42066">
        <ele>1704.55</ele>
        <time>2009-08-01T10:26:21Z</time>
      </trkpt>
      <trkpt lat="45.19379" lon="6.42082">
        <ele>1700.71</ele>
        <time>2009-08-01T10:26:26Z</time>
      </trkpt>
      <trkpt lat="45.19397" lon="6.42101">
        <ele>1697.34</ele>
        <time>2009-08-01T10:26:32Z</time>
      </trkpt>
      <trkpt lat="45.1939" lon="6.42116">
        <ele>1695.9</ele>
        <time>2009-08-01T10:26:33Z</time>
      </trkpt>
      <trkpt lat="45.19384" lon="6.42143">
        <ele>1692.06</ele>
        <time>2009-08-01T10:26:37Z</time>
      </trkpt>
      <trkpt lat="45.19383" lon="6.42147">
        <ele>1691.1</ele>
        <time>2009-08-01T10:26:38Z</time>
      </trkpt>
      <trkpt lat="45.19378" lon="6.42154">
        <ele>1686.29</ele>
        <time>2009-08-01T10:26:42Z</time>
      </trkpt>
      <trkpt lat="45.19378" lon="6.42154">
        <ele>1690.14</ele>
        <time>2009-08-01T10:26:43Z</time>
      </trkpt>
      <trkpt lat="45.19368" lon="6.42173">
        <ele>1687.25</ele>
        <time>2009-08-01T10:27:05Z</time>
      </trkpt>
      <trkpt lat="45.19359" lon="6.4218">
        <ele>1685.33</ele>
        <time>2009-08-01T10:27:10Z</time>
      </trkpt>
      <trkpt lat="45.19361" lon="6.4217">
        <ele>1683.89</ele>
        <time>2009-08-01T10:27:14Z</time>
      </trkpt>
      <trkpt lat="45.19365" lon="6.4216">
        <ele>1680.52</ele>
        <time>2009-08-01T10:27:17Z</time>
      </trkpt>
      <trkpt lat="45.19368" lon="6.42146">
        <ele>1678.12</ele>
        <time>2009-08-01T10:27:20Z</time>
      </trkpt>
      <trkpt lat="45.19372" lon="6.42133">
        <ele>1673.79</ele>
        <time>2009-08-01T10:27:24Z</time>
      </trkpt>
      <trkpt lat="45.19372" lon="6.42133">
        <ele>1672.83</ele>
        <time>2009-08-01T10:27:26Z</time>
      </trkpt>
      <trkpt lat="45.19371" lon="6.42134">
        <ele>1672.35</ele>
        <time>2009-08-01T10:27:27Z</time>
      </trkpt>
      <trkpt lat="45.19371" lon="6.4214">
        <ele>1670.43</ele>
        <time>2009-08-01T10:27:42Z</time>
      </trkpt>
      <trkpt lat="45.19372" lon="6.42145">
        <ele>1669.47</ele>
        <time>2009-08-01T10:27:45Z</time>
      </trkpt>
      <trkpt lat="45.19384" lon="6.42148">
        <ele>1666.58</ele>
        <time>2009-08-01T10:27:49Z</time>
      </trkpt>
      <trkpt lat="45.19409" lon="6.4216">
        <ele>1660.81</ele>
        <time>2009-08-01T10:27:54Z</time>
      </trkpt>
      <trkpt lat="45.19414" lon="6.42161">
        <ele>1660.33</ele>
        <time>2009-08-01T10:27:55Z</time>
      </trkpt>
      <trkpt lat="45.19439" lon="6.42162">
        <ele>1653.6</ele>
        <time>2009-08-01T10:28:00Z</time>
      </trkpt>
      <trkpt lat="45.19459" lon="6.42166">
        <ele>1649.28</ele>
        <time>2009-08-01T10:28:03Z</time>
      </trkpt>
      <trkpt lat="45.19471" lon="6.42167">
        <ele>1645.91</ele>
        <time>2009-08-01T10:28:05Z</time>
      </trkpt>
      <trkpt lat="45.19478" lon="6.42167">
        <ele>1644.95</ele>
        <time>2009-08-01T10:28:06Z</time>
      </trkpt>
      <trkpt lat="45.19484" lon="6.42169">
        <ele>1643.03</ele>
        <time>2009-08-01T10:28:07Z</time>
      </trkpt>
      <trkpt lat="45.19489" lon="6.42173">
        <ele>1641.59</ele>
        <time>2009-08-01T10:28:08Z</time>
      </trkpt>
      <trkpt lat="45.19495" lon="6.42176">
        <ele>1640.15</ele>
        <time>2009-08-01T10:28:09Z</time>
      </trkpt>
      <trkpt lat="45.19501" lon="6.42178">
        <ele>1638.7</ele>
        <time>2009-08-01T10:28:10Z</time>
      </trkpt>
      <trkpt lat="45.19506" lon="6.42177">
        <ele>1637.74</ele>
        <time>2009-08-01T10:28:11Z</time>
      </trkpt>
      <trkpt lat="45.1951" lon="6.42176">
        <ele>1637.26</ele>
        <time>2009-08-01T10:28:12Z</time>
      </trkpt>
      <trkpt lat="45.19512" lon="6.42174">
        <ele>1636.78</ele>
        <time>2009-08-01T10:28:13Z</time>
      </trkpt>
      <trkpt lat="45.19515" lon="6.42169">
        <ele>1634.86</ele>
        <time>2009-08-01T10:28:26Z</time>
      </trkpt>
      <trkpt lat="45.19519" lon="6.42165">
        <ele>1633.9</ele>
        <time>2009-08-01T10:28:31Z</time>
      </trkpt>
      <trkpt lat="45.1952" lon="6.42168">
        <ele>1632.94</ele>
        <time>2009-08-01T10:28:36Z</time>
      </trkpt>
      <trkpt lat="45.19519" lon="6.42169">
        <ele>1630.05</ele>
        <time>2009-08-01T10:28:41Z</time>
      </trkpt>
      <trkpt lat="45.1953" lon="6.42168">
        <ele>1627.17</ele>
        <time>2009-08-01T10:28:46Z</time>
      </trkpt>
      <trkpt lat="45.19535" lon="6.42167">
        <ele>1626.69</ele>
        <time>2009-08-01T10:28:47Z</time>
      </trkpt>
      <trkpt lat="45.19541" lon="6.42167">
        <ele>1625.73</ele>
        <time>2009-08-01T10:28:48Z</time>
      </trkpt>
      <trkpt lat="45.19547" lon="6.42167">
        <ele>1623.8</ele>
        <time>2009-08-01T10:28:49Z</time>
      </trkpt>
      <trkpt lat="45.19553" lon="6.42167">
        <ele>1621.88</ele>
        <time>2009-08-01T10:28:50Z</time>
      </trkpt>
      <trkpt lat="45.19559" lon="6.42169">
        <ele>1619.96</ele>
        <time>2009-08-01T10:28:51Z</time>
      </trkpt>
      <trkpt lat="45.1957" lon="6.42174">
        <ele>1615.63</ele>
        <time>2009-08-01T10:28:53Z</time>
      </trkpt>
      <trkpt lat="45.1958" lon="6.42178">
        <ele>1612.75</ele>
        <time>2009-08-01T10:28:55Z</time>
      </trkpt>
      <trkpt lat="45.19588" lon="6.42177">
        <ele>1609.38</ele>
        <time>2009-08-01T10:28:57Z</time>
      </trkpt>
      <trkpt lat="45.19592" lon="6.42177">
        <ele>1608.9</ele>
        <time>2009-08-01T10:28:59Z</time>
      </trkpt>
      <trkpt lat="45.19592" lon="6.42177">
        <ele>1608.42</ele>
        <time>2009-08-01T10:29:00Z</time>
      </trkpt>
      <trkpt lat="45.19591" lon="6.42178">
        <ele>1607.94</ele>
        <time>2009-08-01T10:29:01Z</time>
      </trkpt>
      <trkpt lat="45.1959" lon="6.42181">
        <ele>1606.98</ele>
        <time>2009-08-01T10:29:02Z</time>
      </trkpt>
      <trkpt lat="45.19589" lon="6.42184">
        <ele>1605.54</ele>
        <time>2009-08-01T10:29:03Z</time>
      </trkpt>
      <trkpt lat="45.19586" lon="6.42187">
        <ele>1604.58</ele>
        <time>2009-08-01T10:29:04Z</time>
      </trkpt>
      <trkpt lat="45.19584" lon="6.4219">
        <ele>1604.1</ele>
        <time>2009-08-01T10:29:05Z</time>
      </trkpt>
      <trkpt lat="45.19584" lon="6.42191">
        <ele>1602.66</ele>
        <time>2009-08-01T10:29:07Z</time>
      </trkpt>
      <trkpt lat="45.19587" lon="6.42192">
        <ele>1602.17</ele>
        <time>2009-08-01T10:29:08Z</time>
      </trkpt>
      <trkpt lat="45.196" lon="6.42197">
        <ele>1598.33</ele>
        <time>2009-08-01T10:29:11Z</time>
      </trkpt>
      <trkpt lat="45.19613" lon="6.42201">
        <ele>1595.45</ele>
        <time>2009-08-01T10:29:14Z</time>
      </trkpt>
      <trkpt lat="45.19621" lon="6.42192">
        <ele>1592.08</ele>
        <time>2009-08-01T10:29:18Z</time>
      </trkpt>
      <trkpt lat="45.19621" lon="6.42188">
        <ele>1592.08</ele>
        <time>2009-08-01T10:29:19Z</time>
      </trkpt>
      <trkpt lat="45.19622" lon="6.42184">
        <ele>1592.08</ele>
        <time>2009-08-01T10:29:20Z</time>
      </trkpt>
      <trkpt lat="45.19622" lon="6.42181">
        <ele>1594</ele>
        <time>2009-08-01T10:29:21Z</time>
      </trkpt>
      <trkpt lat="45.19622" lon="6.42179">
        <ele>1592.56</ele>
        <time>2009-08-01T10:29:39Z</time>
      </trkpt>
      <trkpt lat="45.19622" lon="6.42179">
        <ele>1591.12</ele>
        <time>2009-08-01T10:29:45Z</time>
      </trkpt>
      <trkpt lat="45.19622" lon="6.42179">
        <ele>1593.04</ele>
        <time>2009-08-01T10:29:51Z</time>
      </trkpt>
      <trkpt lat="45.19623" lon="6.42179">
        <ele>1592.08</ele>
        <time>2009-08-01T10:30:06Z</time>
      </trkpt>
      <trkpt lat="45.19623" lon="6.42181">
        <ele>1591.6</ele>
        <time>2009-08-01T10:30:07Z</time>
      </trkpt>
      <trkpt lat="45.19623" lon="6.42188">
        <ele>1591.6</ele>
        <time>2009-08-01T10:30:10Z</time>
      </trkpt>
      <trkpt lat="45.19625" lon="6.42191">
        <ele>1591.6</ele>
        <time>2009-08-01T10:30:11Z</time>
      </trkpt>
      <trkpt lat="45.19635" lon="6.42201">
        <ele>1588.24</ele>
        <time>2009-08-01T10:30:15Z</time>
      </trkpt>
      <trkpt lat="45.19635" lon="6.42201">
        <ele>1587.27</ele>
        <time>2009-08-01T10:30:16Z</time>
      </trkpt>
      <trkpt lat="45.19641" lon="6.42205">
        <ele>1583.91</ele>
        <time>2009-08-01T10:30:20Z</time>
      </trkpt>
      <trkpt lat="45.19647" lon="6.42216">
        <ele>1580.54</ele>
        <time>2009-08-01T10:30:24Z</time>
      </trkpt>
      <trkpt lat="45.19643" lon="6.42221">
        <ele>1579.1</ele>
        <time>2009-08-01T10:30:25Z</time>
      </trkpt>
      <trkpt lat="45.19639" lon="6.42225">
        <ele>1578.62</ele>
        <time>2009-08-01T10:30:26Z</time>
      </trkpt>
      <trkpt lat="45.19635" lon="6.42228">
        <ele>1577.66</ele>
        <time>2009-08-01T10:30:27Z</time>
      </trkpt>
      <trkpt lat="45.19632" lon="6.4223">
        <ele>1576.22</ele>
        <time>2009-08-01T10:30:28Z</time>
      </trkpt>
      <trkpt lat="45.19631" lon="6.42232">
        <ele>1575.26</ele>
        <time>2009-08-01T10:30:29Z</time>
      </trkpt>
      <trkpt lat="45.19633" lon="6.42234">
        <ele>1574.3</ele>
        <time>2009-08-01T10:30:31Z</time>
      </trkpt>
      <trkpt lat="45.19635" lon="6.42234">
        <ele>1573.82</ele>
        <time>2009-08-01T10:30:32Z</time>
      </trkpt>
      <trkpt lat="45.19652" lon="6.42236">
        <ele>1570.93</ele>
        <time>2009-08-01T10:30:36Z</time>
      </trkpt>
      <trkpt lat="45.19658" lon="6.42236">
        <ele>1569.01</ele>
        <time>2009-08-01T10:30:38Z</time>
      </trkpt>
      <trkpt lat="45.19659" lon="6.42238">
        <ele>1568.53</ele>
        <time>2009-08-01T10:30:39Z</time>
      </trkpt>
      <trkpt lat="45.19658" lon="6.4224">
        <ele>1568.05</ele>
        <time>2009-08-01T10:30:40Z</time>
      </trkpt>
      <trkpt lat="45.19657" lon="6.42243">
        <ele>1567.57</ele>
        <time>2009-08-01T10:30:41Z</time>
      </trkpt>
      <trkpt lat="45.19654" lon="6.42247">
        <ele>1566.61</ele>
        <time>2009-08-01T10:30:42Z</time>
      </trkpt>
      <trkpt lat="45.19651" lon="6.42251">
        <ele>1566.12</ele>
        <time>2009-08-01T10:30:43Z</time>
      </trkpt>
      <trkpt lat="45.19644" lon="6.4226">
        <ele>1564.2</ele>
        <time>2009-08-01T10:30:45Z</time>
      </trkpt>
      <trkpt lat="45.1964" lon="6.42263">
        <ele>1563.24</ele>
        <time>2009-08-01T10:30:46Z</time>
      </trkpt>
      <trkpt lat="45.19634" lon="6.42272">
        <ele>1561.32</ele>
        <time>2009-08-01T10:30:51Z</time>
      </trkpt>
      <trkpt lat="45.19653" lon="6.42275">
        <ele>1557.95</ele>
        <time>2009-08-01T10:30:57Z</time>
      </trkpt>
      <trkpt lat="45.19659" lon="6.42276">
        <ele>1556.99</ele>
        <time>2009-08-01T10:30:58Z</time>
      </trkpt>
      <trkpt lat="45.19663" lon="6.42277">
        <ele>1555.55</ele>
        <time>2009-08-01T10:30:59Z</time>
      </trkpt>
      <trkpt lat="45.19667" lon="6.42279">
        <ele>1555.07</ele>
        <time>2009-08-01T10:31:00Z</time>
      </trkpt>
      <trkpt lat="45.1967" lon="6.4228">
        <ele>1554.11</ele>
        <time>2009-08-01T10:31:01Z</time>
      </trkpt>
      <trkpt lat="45.19672" lon="6.4228">
        <ele>1554.11</ele>
        <time>2009-08-01T10:31:02Z</time>
      </trkpt>
      <trkpt lat="45.19673" lon="6.42281">
        <ele>1553.15</ele>
        <time>2009-08-01T10:31:18Z</time>
      </trkpt>
      <trkpt lat="45.19674" lon="6.42281">
        <ele>1553.15</ele>
        <time>2009-08-01T10:31:48Z</time>
      </trkpt>
      <trkpt lat="45.19676" lon="6.4228">
        <ele>1552.67</ele>
        <time>2009-08-01T10:31:49Z</time>
      </trkpt>
      <trkpt lat="45.19678" lon="6.42281">
        <ele>1552.19</ele>
        <time>2009-08-01T10:31:50Z</time>
      </trkpt>
      <trkpt lat="45.19681" lon="6.42281">
        <ele>1551.71</ele>
        <time>2009-08-01T10:31:51Z</time>
      </trkpt>
      <trkpt lat="45.19684" lon="6.42281">
        <ele>1551.22</ele>
        <time>2009-08-01T10:31:52Z</time>
      </trkpt>
      <trkpt lat="45.1969" lon="6.42278">
        <ele>1549.78</ele>
        <time>2009-08-01T10:31:54Z</time>
      </trkpt>
      <trkpt lat="45.19692" lon="6.42275">
        <ele>1548.82</ele>
        <time>2009-08-01T10:31:55Z</time>
      </trkpt>
      <trkpt lat="45.19699" lon="6.42263">
        <ele>1546.9</ele>
        <time>2009-08-01T10:31:57Z</time>
      </trkpt>
      <trkpt lat="45.19706" lon="6.42255">
        <ele>1544.98</ele>
        <time>2009-08-01T10:31:58Z</time>
      </trkpt>
      <trkpt lat="45.1971" lon="6.42249">
        <ele>1543.53</ele>
        <time>2009-08-01T10:31:59Z</time>
      </trkpt>
      <trkpt lat="45.19713" lon="6.42245">
        <ele>1543.05</ele>
        <time>2009-08-01T10:32:00Z</time>
      </trkpt>
      <trkpt lat="45.19715" lon="6.42241">
        <ele>1542.09</ele>
        <time>2009-08-01T10:32:01Z</time>
      </trkpt>
      <trkpt lat="45.19715" lon="6.42239">
        <ele>1541.13</ele>
        <time>2009-08-01T10:32:02Z</time>
      </trkpt>
      <trkpt lat="45.19716" lon="6.42238">
        <ele>1539.69</ele>
        <time>2009-08-01T10:32:04Z</time>
      </trkpt>
      <trkpt lat="45.19719" lon="6.42248">
        <ele>1538.25</ele>
        <time>2009-08-01T10:32:06Z</time>
      </trkpt>
      <trkpt lat="45.19722" lon="6.42261">
        <ele>1535.36</ele>
        <time>2009-08-01T10:32:08Z</time>
      </trkpt>
      <trkpt lat="45.19723" lon="6.42279">
        <ele>1532.48</ele>
        <time>2009-08-01T10:32:11Z</time>
      </trkpt>
      <trkpt lat="45.19722" lon="6.42282">
        <ele>1532</ele>
        <time>2009-08-01T10:32:12Z</time>
      </trkpt>
      <trkpt lat="45.19721" lon="6.42285">
        <ele>1530.56</ele>
        <time>2009-08-01T10:32:13Z</time>
      </trkpt>
      <trkpt lat="45.19721" lon="6.42286">
        <ele>1528.63</ele>
        <time>2009-08-01T10:32:15Z</time>
      </trkpt>
      <trkpt lat="45.19721" lon="6.42285">
        <ele>1528.15</ele>
        <time>2009-08-01T10:32:16Z</time>
      </trkpt>
      <trkpt lat="45.19723" lon="6.42283">
        <ele>1528.63</ele>
        <time>2009-08-01T10:32:17Z</time>
      </trkpt>
      <trkpt lat="45.19726" lon="6.42281">
        <ele>1528.15</ele>
        <time>2009-08-01T10:32:18Z</time>
      </trkpt>
      <trkpt lat="45.19728" lon="6.42277">
        <ele>1527.19</ele>
        <time>2009-08-01T10:32:19Z</time>
      </trkpt>
      <trkpt lat="45.19734" lon="6.42267">
        <ele>1525.27</ele>
        <time>2009-08-01T10:32:23Z</time>
      </trkpt>
      <trkpt lat="45.19736" lon="6.42268">
        <ele>1524.31</ele>
        <time>2009-08-01T10:32:26Z</time>
      </trkpt>
      <trkpt lat="45.19737" lon="6.4227">
        <ele>1523.83</ele>
        <time>2009-08-01T10:32:27Z</time>
      </trkpt>
      <trkpt lat="45.19737" lon="6.42279">
        <ele>1521.9</ele>
        <time>2009-08-01T10:32:29Z</time>
      </trkpt>
      <trkpt lat="45.19738" lon="6.42286">
        <ele>1519.98</ele>
        <time>2009-08-01T10:32:30Z</time>
      </trkpt>
      <trkpt lat="45.1974" lon="6.42294">
        <ele>1518.54</ele>
        <time>2009-08-01T10:32:31Z</time>
      </trkpt>
      <trkpt lat="45.19744" lon="6.42306">
        <ele>1514.69</ele>
        <time>2009-08-01T10:32:33Z</time>
      </trkpt>
      <trkpt lat="45.19745" lon="6.4232">
        <ele>1511.33</ele>
        <time>2009-08-01T10:32:36Z</time>
      </trkpt>
      <trkpt lat="45.19741" lon="6.42335">
        <ele>1507</ele>
        <time>2009-08-01T10:32:39Z</time>
      </trkpt>
      <trkpt lat="45.19736" lon="6.42355">
        <ele>1503.16</ele>
        <time>2009-08-01T10:32:42Z</time>
      </trkpt>
      <trkpt lat="45.19736" lon="6.42363">
        <ele>1502.2</ele>
        <time>2009-08-01T10:32:43Z</time>
      </trkpt>
      <trkpt lat="45.19736" lon="6.4237">
        <ele>1500.76</ele>
        <time>2009-08-01T10:32:44Z</time>
      </trkpt>
      <trkpt lat="45.19734" lon="6.42377">
        <ele>1500.27</ele>
        <time>2009-08-01T10:32:45Z</time>
      </trkpt>
      <trkpt lat="45.19732" lon="6.42382">
        <ele>1499.31</ele>
        <time>2009-08-01T10:32:46Z</time>
      </trkpt>
      <trkpt lat="45.1973" lon="6.42387">
        <ele>1499.31</ele>
        <time>2009-08-01T10:32:47Z</time>
      </trkpt>
      <trkpt lat="45.19729" lon="6.42392">
        <ele>1498.35</ele>
        <time>2009-08-01T10:32:48Z</time>
      </trkpt>
      <trkpt lat="45.19723" lon="6.424">
        <ele>1496.91</ele>
        <time>2009-08-01T10:32:51Z</time>
      </trkpt>
      <trkpt lat="45.19722" lon="6.42401">
        <ele>1496.43</ele>
        <time>2009-08-01T10:32:52Z</time>
      </trkpt>
      <trkpt lat="45.19722" lon="6.42399">
        <ele>1496.43</ele>
        <time>2009-08-01T10:32:53Z</time>
      </trkpt>
      <trkpt lat="45.19729" lon="6.42383">
        <ele>1493.06</ele>
        <time>2009-08-01T10:32:58Z</time>
      </trkpt>
      <trkpt lat="45.1973" lon="6.4238">
        <ele>1493.06</ele>
        <time>2009-08-01T10:32:59Z</time>
      </trkpt>
      <trkpt lat="45.19731" lon="6.42379">
        <ele>1492.1</ele>
        <time>2009-08-01T10:33:00Z</time>
      </trkpt>
      <trkpt lat="45.19733" lon="6.4238">
        <ele>1492.1</ele>
        <time>2009-08-01T10:33:01Z</time>
      </trkpt>
      <trkpt lat="45.19733" lon="6.42385">
        <ele>1491.14</ele>
        <time>2009-08-01T10:33:06Z</time>
      </trkpt>
      <trkpt lat="45.19734" lon="6.42388">
        <ele>1490.18</ele>
        <time>2009-08-01T10:33:07Z</time>
      </trkpt>
      <trkpt lat="45.19734" lon="6.42392">
        <ele>1489.7</ele>
        <time>2009-08-01T10:33:08Z</time>
      </trkpt>
      <trkpt lat="45.19733" lon="6.42396">
        <ele>1488.74</ele>
        <time>2009-08-01T10:33:09Z</time>
      </trkpt>
      <trkpt lat="45.19733" lon="6.42399">
        <ele>1488.74</ele>
        <time>2009-08-01T10:33:10Z</time>
      </trkpt>
      <trkpt lat="45.19733" lon="6.42402">
        <ele>1487.78</ele>
        <time>2009-08-01T10:33:11Z</time>
      </trkpt>
      <trkpt lat="45.19732" lon="6.42403">
        <ele>1486.34</ele>
        <time>2009-08-01T10:33:13Z</time>
      </trkpt>
      <trkpt lat="45.19733" lon="6.42402">
        <ele>1485.85</ele>
        <time>2009-08-01T10:33:14Z</time>
      </trkpt>
      <trkpt lat="45.19735" lon="6.424">
        <ele>1485.37</ele>
        <time>2009-08-01T10:33:15Z</time>
      </trkpt>
      <trkpt lat="45.19738" lon="6.42396">
        <ele>1484.41</ele>
        <time>2009-08-01T10:33:17Z</time>
      </trkpt>
      <trkpt lat="45.19743" lon="6.42404">
        <ele>1480.57</ele>
        <time>2009-08-01T10:33:21Z</time>
      </trkpt>
      <trkpt lat="45.19742" lon="6.42412">
        <ele>1477.2</ele>
        <time>2009-08-01T10:33:25Z</time>
      </trkpt>
      <trkpt lat="45.19746" lon="6.42412">
        <ele>1476.24</ele>
        <time>2009-08-01T10:33:28Z</time>
      </trkpt>
      <trkpt lat="45.19748" lon="6.42413">
        <ele>1474.8</ele>
        <time>2009-08-01T10:33:30Z</time>
      </trkpt>
      <trkpt lat="45.19748" lon="6.42413">
        <ele>1473.36</ele>
        <time>2009-08-01T10:33:33Z</time>
      </trkpt>
      <trkpt lat="45.1975" lon="6.42412">
        <ele>1473.36</ele>
        <time>2009-08-01T10:33:35Z</time>
      </trkpt>
      <trkpt lat="45.19745" lon="6.42425">
        <ele>1469.03</ele>
        <time>2009-08-01T10:33:39Z</time>
      </trkpt>
      <trkpt lat="45.19743" lon="6.4244">
        <ele>1465.67</ele>
        <time>2009-08-01T10:33:42Z</time>
      </trkpt>
      <trkpt lat="45.19745" lon="6.42458">
        <ele>1460.86</ele>
        <time>2009-08-01T10:33:45Z</time>
      </trkpt>
      <trkpt lat="45.19747" lon="6.42464">
        <ele>1459.9</ele>
        <time>2009-08-01T10:33:46Z</time>
      </trkpt>
      <trkpt lat="45.19748" lon="6.4247">
        <ele>1458.46</ele>
        <time>2009-08-01T10:33:47Z</time>
      </trkpt>
      <trkpt lat="45.1975" lon="6.42477">
        <ele>1456.53</ele>
        <time>2009-08-01T10:33:48Z</time>
      </trkpt>
      <trkpt lat="45.19752" lon="6.42484">
        <ele>1455.57</ele>
        <time>2009-08-01T10:33:49Z</time>
      </trkpt>
      <trkpt lat="45.19754" lon="6.42489">
        <ele>1453.65</ele>
        <time>2009-08-01T10:33:50Z</time>
      </trkpt>
      <trkpt lat="45.19756" lon="6.42494">
        <ele>1452.21</ele>
        <time>2009-08-01T10:33:51Z</time>
      </trkpt>
      <trkpt lat="45.19762" lon="6.42504">
        <ele>1450.29</ele>
        <time>2009-08-01T10:33:53Z</time>
      </trkpt>
      <trkpt lat="45.19765" lon="6.42508">
        <ele>1448.84</ele>
        <time>2009-08-01T10:33:54Z</time>
      </trkpt>
      <trkpt lat="45.19768" lon="6.42512">
        <ele>1446.92</ele>
        <time>2009-08-01T10:33:55Z</time>
      </trkpt>
      <trkpt lat="45.1977" lon="6.42515">
        <ele>1446.44</ele>
        <time>2009-08-01T10:33:56Z</time>
      </trkpt>
      <trkpt lat="45.19769" lon="6.42518">
        <ele>1445.96</ele>
        <time>2009-08-01T10:33:57Z</time>
      </trkpt>
      <trkpt lat="45.19768" lon="6.42522">
        <ele>1445.96</ele>
        <time>2009-08-01T10:33:58Z</time>
      </trkpt>
      <trkpt lat="45.19764" lon="6.42525">
        <ele>1445.48</ele>
        <time>2009-08-01T10:34:09Z</time>
      </trkpt>
      <trkpt lat="45.19763" lon="6.42527">
        <ele>1445.96</ele>
        <time>2009-08-01T10:34:37Z</time>
      </trkpt>
      <trkpt lat="45.19761" lon="6.42528">
        <ele>1445.48</ele>
        <time>2009-08-01T10:34:55Z</time>
      </trkpt>
      <trkpt lat="45.19761" lon="6.42528">
        <ele>1445.48</ele>
        <time>2009-08-01T10:35:14Z</time>
      </trkpt>
      <trkpt lat="45.19755" lon="6.42524">
        <ele>1445.96</ele>
        <time>2009-08-01T10:35:20Z</time>
      </trkpt>
      <trkpt lat="45.19754" lon="6.42511">
        <ele>1446.44</ele>
        <time>2009-08-01T10:35:26Z</time>
      </trkpt>
      <trkpt lat="45.19746" lon="6.42502">
        <ele>1446.92</ele>
        <time>2009-08-01T10:35:31Z</time>
      </trkpt>
      <trkpt lat="45.19749" lon="6.42502">
        <ele>1447.4</ele>
        <time>2009-08-01T10:35:44Z</time>
      </trkpt>
      <trkpt lat="45.19744" lon="6.42501">
        <ele>1446.92</ele>
        <time>2009-08-01T10:36:08Z</time>
      </trkpt>
      <trkpt lat="45.19745" lon="6.42501">
        <ele>1447.4</ele>
        <time>2009-08-01T10:37:11Z</time>
      </trkpt>
      <trkpt lat="45.19745" lon="6.42502">
        <ele>1447.88</ele>
        <time>2009-08-01T10:38:52Z</time>
      </trkpt>
      <trkpt lat="45.19742" lon="6.42478">
        <ele>1448.36</ele>
        <time>2009-08-01T10:39:03Z</time>
      </trkpt>
      <trkpt lat="45.19758" lon="6.42437">
        <ele>1449.81</ele>
        <time>2009-08-01T10:39:15Z</time>
      </trkpt>
      <trkpt lat="45.19771" lon="6.42407">
        <ele>1451.73</ele>
        <time>2009-08-01T10:39:24Z</time>
      </trkpt>
      <trkpt lat="45.19779" lon="6.42355">
        <ele>1454.13</ele>
        <time>2009-08-01T10:39:37Z</time>
      </trkpt>
      <trkpt lat="45.19782" lon="6.42314">
        <ele>1457.5</ele>
        <time>2009-08-01T10:39:48Z</time>
      </trkpt>
      <trkpt lat="45.19789" lon="6.42279">
        <ele>1459.42</ele>
        <time>2009-08-01T10:39:58Z</time>
      </trkpt>
      <trkpt lat="45.19801" lon="6.42238">
        <ele>1462.3</ele>
        <time>2009-08-01T10:40:10Z</time>
      </trkpt>
      <trkpt lat="45.19801" lon="6.42201">
        <ele>1465.67</ele>
        <time>2009-08-01T10:40:22Z</time>
      </trkpt>
      <trkpt lat="45.19807" lon="6.42179">
        <ele>1467.11</ele>
        <time>2009-08-01T10:40:29Z</time>
      </trkpt>
      <trkpt lat="45.19808" lon="6.42175">
        <ele>1466.63</ele>
        <time>2009-08-01T10:40:30Z</time>
      </trkpt>
      <trkpt lat="45.19812" lon="6.4216">
        <ele>1467.59</ele>
        <time>2009-08-01T10:40:35Z</time>
      </trkpt>
      <trkpt lat="45.19831" lon="6.42142">
        <ele>1470.95</ele>
        <time>2009-08-01T10:40:48Z</time>
      </trkpt>
      <trkpt lat="45.19846" lon="6.42123">
        <ele>1472.88</ele>
        <time>2009-08-01T10:40:57Z</time>
      </trkpt>
      <trkpt lat="45.19859" lon="6.42106">
        <ele>1473.36</ele>
        <time>2009-08-01T10:41:01Z</time>
      </trkpt>
      <trkpt lat="45.19876" lon="6.42078">
        <ele>1476.24</ele>
        <time>2009-08-01T10:41:13Z</time>
      </trkpt>
      <trkpt lat="45.19871" lon="6.42055">
        <ele>1477.68</ele>
        <time>2009-08-01T10:41:20Z</time>
      </trkpt>
      <trkpt lat="45.19857" lon="6.42029">
        <ele>1480.09</ele>
        <time>2009-08-01T10:41:32Z</time>
      </trkpt>
      <trkpt lat="45.1986" lon="6.42029">
        <ele>1480.09</ele>
        <time>2009-08-01T10:41:33Z</time>
      </trkpt>
      <trkpt lat="45.19846" lon="6.42008">
        <ele>1481.53</ele>
        <time>2009-08-01T10:41:41Z</time>
      </trkpt>
      <trkpt lat="45.19839" lon="6.41998">
        <ele>1482.49</ele>
        <time>2009-08-01T10:41:45Z</time>
      </trkpt>
      <trkpt lat="45.1982" lon="6.41971">
        <ele>1484.89</ele>
        <time>2009-08-01T10:41:55Z</time>
      </trkpt>
      <trkpt lat="45.19818" lon="6.41948">
        <ele>1487.3</ele>
        <time>2009-08-01T10:42:05Z</time>
      </trkpt>
      <trkpt lat="45.19811" lon="6.41967">
        <ele>1488.74</ele>
        <time>2009-08-01T10:42:11Z</time>
      </trkpt>
      <trkpt lat="45.19822" lon="6.42005">
        <ele>1491.14</ele>
        <time>2009-08-01T10:42:24Z</time>
      </trkpt>
      <trkpt lat="45.19839" lon="6.42041">
        <ele>1493.06</ele>
        <time>2009-08-01T10:42:37Z</time>
      </trkpt>
      <trkpt lat="45.19843" lon="6.42055">
        <ele>1494.99</ele>
        <time>2009-08-01T10:42:41Z</time>
      </trkpt>
      <trkpt lat="45.19829" lon="6.42051">
        <ele>1496.91</ele>
        <time>2009-08-01T10:42:49Z</time>
      </trkpt>
      <trkpt lat="45.19825" lon="6.42044">
        <ele>1497.87</ele>
        <time>2009-08-01T10:42:52Z</time>
      </trkpt>
      <trkpt lat="45.19818" lon="6.42023">
        <ele>1499.31</ele>
        <time>2009-08-01T10:43:00Z</time>
      </trkpt>
      <trkpt lat="45.19806" lon="6.42007">
        <ele>1500.76</ele>
        <time>2009-08-01T10:43:06Z</time>
      </trkpt>
      <trkpt lat="45.19788" lon="6.41979">
        <ele>1502.68</ele>
        <time>2009-08-01T10:43:16Z</time>
      </trkpt>
      <trkpt lat="45.19786" lon="6.41976">
        <ele>1502.2</ele>
        <time>2009-08-01T10:43:17Z</time>
      </trkpt>
      <trkpt lat="45.19777" lon="6.41959">
        <ele>1503.64</ele>
        <time>2009-08-01T10:43:22Z</time>
      </trkpt>
      <trkpt lat="45.19785" lon="6.41941">
        <ele>1504.6</ele>
        <time>2009-08-01T10:43:27Z</time>
      </trkpt>
      <trkpt lat="45.19786" lon="6.41904">
        <ele>1507</ele>
        <time>2009-08-01T10:43:39Z</time>
      </trkpt>
      <trkpt lat="45.19785" lon="6.41884">
        <ele>1509.41</ele>
        <time>2009-08-01T10:43:46Z</time>
      </trkpt>
      <trkpt lat="45.19788" lon="6.41876">
        <ele>1510.37</ele>
        <time>2009-08-01T10:43:49Z</time>
      </trkpt>
      <trkpt lat="45.19799" lon="6.41864">
        <ele>1511.81</ele>
        <time>2009-08-01T10:43:56Z</time>
      </trkpt>
      <trkpt lat="45.19814" lon="6.41835">
        <ele>1513.73</ele>
        <time>2009-08-01T10:44:08Z</time>
      </trkpt>
      <trkpt lat="45.19821" lon="6.41817">
        <ele>1516.14</ele>
        <time>2009-08-01T10:44:14Z</time>
      </trkpt>
      <trkpt lat="45.19829" lon="6.41809">
        <ele>1517.1</ele>
        <time>2009-08-01T10:44:18Z</time>
      </trkpt>
      <trkpt lat="45.19836" lon="6.41792">
        <ele>1517.58</ele>
        <time>2009-08-01T10:44:23Z</time>
      </trkpt>
      <trkpt lat="45.19843" lon="6.41751">
        <ele>1520.46</ele>
        <time>2009-08-01T10:44:36Z</time>
      </trkpt>
      <trkpt lat="45.19849" lon="6.41733">
        <ele>1521.9</ele>
        <time>2009-08-01T10:44:42Z</time>
      </trkpt>
      <trkpt lat="45.19863" lon="6.41715">
        <ele>1523.83</ele>
        <time>2009-08-01T10:44:52Z</time>
      </trkpt>
      <trkpt lat="45.19885" lon="6.41705">
        <ele>1527.19</ele>
        <time>2009-08-01T10:45:04Z</time>
      </trkpt>
      <trkpt lat="45.19904" lon="6.41701">
        <ele>1529.11</ele>
        <time>2009-08-01T10:45:13Z</time>
      </trkpt>
      <trkpt lat="45.1992" lon="6.41682">
        <ele>1530.56</ele>
        <time>2009-08-01T10:45:21Z</time>
      </trkpt>
      <trkpt lat="45.19921" lon="6.41668">
        <ele>1531.52</ele>
        <time>2009-08-01T10:45:25Z</time>
      </trkpt>
      <trkpt lat="45.19914" lon="6.41637">
        <ele>1532.48</ele>
        <time>2009-08-01T10:45:38Z</time>
      </trkpt>
      <trkpt lat="45.19926" lon="6.41622">
        <ele>1533.92</ele>
        <time>2009-08-01T10:45:48Z</time>
      </trkpt>
      <trkpt lat="45.19933" lon="6.41622">
        <ele>1533.44</ele>
        <time>2009-08-01T10:45:51Z</time>
      </trkpt>
      <trkpt lat="45.19961" lon="6.41638">
        <ele>1536.32</ele>
        <time>2009-08-01T10:46:05Z</time>
      </trkpt>
      <trkpt lat="45.19963" lon="6.41639">
        <ele>1536.8</ele>
        <time>2009-08-01T10:46:07Z</time>
      </trkpt>
      <trkpt lat="45.19983" lon="6.41666">
        <ele>1539.69</ele>
        <time>2009-08-01T10:46:19Z</time>
      </trkpt>
      <trkpt lat="45.2001" lon="6.41683">
        <ele>1542.09</ele>
        <time>2009-08-01T10:46:31Z</time>
      </trkpt>
      <trkpt lat="45.20019" lon="6.41685">
        <ele>1542.57</ele>
        <time>2009-08-01T10:46:35Z</time>
      </trkpt>
      <trkpt lat="45.20048" lon="6.41677">
        <ele>1544.5</ele>
        <time>2009-08-01T10:46:47Z</time>
      </trkpt>
      <trkpt lat="45.20068" lon="6.41679">
        <ele>1546.42</ele>
        <time>2009-08-01T10:46:57Z</time>
      </trkpt>
      <trkpt lat="45.20074" lon="6.41682">
        <ele>1550.74</ele>
        <time>2009-08-01T10:47:02Z</time>
      </trkpt>
      <trkpt lat="45.20076" lon="6.41682">
        <ele>1544.98</ele>
        <time>2009-08-01T10:47:03Z</time>
      </trkpt>
      <trkpt lat="45.20078" lon="6.41682">
        <ele>1548.34</ele>
        <time>2009-08-01T10:47:04Z</time>
      </trkpt>
      <trkpt lat="45.20117" lon="6.4171">
        <ele>1550.74</ele>
        <time>2009-08-01T10:47:18Z</time>
      </trkpt>
      <trkpt lat="45.20129" lon="6.41724">
        <ele>1552.67</ele>
        <time>2009-08-01T10:47:27Z</time>
      </trkpt>
      <trkpt lat="45.20137" lon="6.4172">
        <ele>1553.63</ele>
        <time>2009-08-01T10:47:31Z</time>
      </trkpt>
      <trkpt lat="45.20155" lon="6.41698">
        <ele>1555.07</ele>
        <time>2009-08-01T10:47:39Z</time>
      </trkpt>
      <trkpt lat="45.20162" lon="6.41663">
        <ele>1557.47</ele>
        <time>2009-08-01T10:47:50Z</time>
      </trkpt>
      <trkpt lat="45.20174" lon="6.41631">
        <ele>1559.4</ele>
        <time>2009-08-01T10:47:59Z</time>
      </trkpt>
      <trkpt lat="45.20183" lon="6.41595">
        <ele>1562.28</ele>
        <time>2009-08-01T10:48:11Z</time>
      </trkpt>
      <trkpt lat="45.20206" lon="6.4161">
        <ele>1563.72</ele>
        <time>2009-08-01T10:48:21Z</time>
      </trkpt>
      <trkpt lat="45.20229" lon="6.41645">
        <ele>1565.16</ele>
        <time>2009-08-01T10:48:32Z</time>
      </trkpt>
      <trkpt lat="45.20254" lon="6.41684">
        <ele>1565.64</ele>
        <time>2009-08-01T10:48:41Z</time>
      </trkpt>
      <trkpt lat="45.20274" lon="6.41707">
        <ele>1565.64</ele>
        <time>2009-08-01T10:48:51Z</time>
      </trkpt>
      <trkpt lat="45.20301" lon="6.41703">
        <ele>1566.12</ele>
        <time>2009-08-01T10:49:02Z</time>
      </trkpt>
      <trkpt lat="45.20341" lon="6.4168">
        <ele>1569.01</ele>
        <time>2009-08-01T10:49:15Z</time>
      </trkpt>
      <trkpt lat="45.20365" lon="6.41706">
        <ele>1570.93</ele>
        <time>2009-08-01T10:49:25Z</time>
      </trkpt>
      <trkpt lat="45.20383" lon="6.41746">
        <ele>1573.82</ele>
        <time>2009-08-01T10:49:36Z</time>
      </trkpt>
      <trkpt lat="45.20406" lon="6.41797">
        <ele>1576.7</ele>
        <time>2009-08-01T10:49:50Z</time>
      </trkpt>
      <trkpt lat="45.20438" lon="6.41834">
        <ele>1578.62</ele>
        <time>2009-08-01T10:50:04Z</time>
      </trkpt>
      <trkpt lat="45.20467" lon="6.41853">
        <ele>1580.54</ele>
        <time>2009-08-01T10:50:16Z</time>
      </trkpt>
      <trkpt lat="45.20469" lon="6.41853">
        <ele>1580.54</ele>
        <time>2009-08-01T10:50:17Z</time>
      </trkpt>
      <trkpt lat="45.20466" lon="6.41861">
        <ele>1580.06</ele>
        <time>2009-08-01T10:50:28Z</time>
      </trkpt>
      <trkpt lat="45.2047" lon="6.41861">
        <ele>1581.51</ele>
        <time>2009-08-01T10:51:41Z</time>
      </trkpt>
      <trkpt lat="45.20488" lon="6.41887">
        <ele>1581.03</ele>
        <time>2009-08-01T10:51:50Z</time>
      </trkpt>
      <trkpt lat="45.20498" lon="6.41902">
        <ele>1580.54</ele>
        <time>2009-08-01T10:51:53Z</time>
      </trkpt>
      <trkpt lat="45.20508" lon="6.41921">
        <ele>1579.1</ele>
        <time>2009-08-01T10:51:56Z</time>
      </trkpt>
      <trkpt lat="45.20527" lon="6.4195">
        <ele>1577.18</ele>
        <time>2009-08-01T10:52:00Z</time>
      </trkpt>
      <trkpt lat="45.20534" lon="6.41955">
        <ele>1577.18</ele>
        <time>2009-08-01T10:52:01Z</time>
      </trkpt>
      <trkpt lat="45.2054" lon="6.41959">
        <ele>1577.18</ele>
        <time>2009-08-01T10:52:02Z</time>
      </trkpt>
      <trkpt lat="45.20548" lon="6.4196">
        <ele>1576.7</ele>
        <time>2009-08-01T10:52:03Z</time>
      </trkpt>
      <trkpt lat="45.20554" lon="6.4196">
        <ele>1577.18</ele>
        <time>2009-08-01T10:52:04Z</time>
      </trkpt>
      <trkpt lat="45.20559" lon="6.41959">
        <ele>1577.18</ele>
        <time>2009-08-01T10:52:05Z</time>
      </trkpt>
      <trkpt lat="45.20563" lon="6.41957">
        <ele>1577.66</ele>
        <time>2009-08-01T10:52:06Z</time>
      </trkpt>
      <trkpt lat="45.20566" lon="6.41954">
        <ele>1578.14</ele>
        <time>2009-08-01T10:52:07Z</time>
      </trkpt>
      <trkpt lat="45.20568" lon="6.41951">
        <ele>1578.62</ele>
        <time>2009-08-01T10:52:08Z</time>
      </trkpt>
      <trkpt lat="45.20577" lon="6.41938">
        <ele>1580.06</ele>
        <time>2009-08-01T10:52:18Z</time>
      </trkpt>
      <trkpt lat="45.20577" lon="6.41938">
        <ele>1580.06</ele>
        <time>2009-08-01T10:57:50Z</time>
      </trkpt>
      <trkpt lat="45.2059" lon="6.41947">
        <ele>1581.51</ele>
        <time>2009-08-01T10:57:59Z</time>
      </trkpt>
      <trkpt lat="45.2062" lon="6.41981">
        <ele>1584.39</ele>
        <time>2009-08-01T10:58:12Z</time>
      </trkpt>
      <trkpt lat="45.20648" lon="6.42014">
        <ele>1585.83</ele>
        <time>2009-08-01T10:58:24Z</time>
      </trkpt>
      <trkpt lat="45.2068" lon="6.42046">
        <ele>1585.83</ele>
        <time>2009-08-01T10:58:35Z</time>
      </trkpt>
      <trkpt lat="45.20684" lon="6.42047">
        <ele>1585.83</ele>
        <time>2009-08-01T10:58:36Z</time>
      </trkpt>
      <trkpt lat="45.20689" lon="6.42049">
        <ele>1585.83</ele>
        <time>2009-08-01T10:58:37Z</time>
      </trkpt>
      <trkpt lat="45.20693" lon="6.4205">
        <ele>1585.83</ele>
        <time>2009-08-01T10:58:38Z</time>
      </trkpt>
      <trkpt lat="45.20697" lon="6.42049">
        <ele>1585.83</ele>
        <time>2009-08-01T10:58:39Z</time>
      </trkpt>
      <trkpt lat="45.207" lon="6.42048">
        <ele>1585.83</ele>
        <time>2009-08-01T10:58:40Z</time>
      </trkpt>
      <trkpt lat="45.20704" lon="6.42048">
        <ele>1586.31</ele>
        <time>2009-08-01T10:58:41Z</time>
      </trkpt>
      <trkpt lat="45.20708" lon="6.42048">
        <ele>1585.83</ele>
        <time>2009-08-01T10:58:42Z</time>
      </trkpt>
      <trkpt lat="45.20712" lon="6.42049">
        <ele>1585.83</ele>
        <time>2009-08-01T10:58:43Z</time>
      </trkpt>
      <trkpt lat="45.20717" lon="6.4205">
        <ele>1585.83</ele>
        <time>2009-08-01T10:58:44Z</time>
      </trkpt>
      <trkpt lat="45.20763" lon="6.42054">
        <ele>1581.03</ele>
        <time>2009-08-01T10:58:56Z</time>
      </trkpt>
      <trkpt lat="45.20767" lon="6.42054">
        <ele>1586.79</ele>
        <time>2009-08-01T10:58:57Z</time>
      </trkpt>
      <trkpt lat="45.20774" lon="6.42054">
        <ele>1587.75</ele>
        <time>2009-08-01T10:58:59Z</time>
      </trkpt>
      <trkpt lat="45.20813" lon="6.42053">
        <ele>1589.68</ele>
        <time>2009-08-01T10:59:12Z</time>
      </trkpt>
      <trkpt lat="45.20814" lon="6.42052">
        <ele>1589.68</ele>
        <time>2009-08-01T10:59:13Z</time>
      </trkpt>
      <trkpt lat="45.20809" lon="6.42043">
        <ele>1590.16</ele>
        <time>2009-08-01T10:59:18Z</time>
      </trkpt>
      <trkpt lat="45.20776" lon="6.42027">
        <ele>1593.04</ele>
        <time>2009-08-01T10:59:31Z</time>
      </trkpt>
      <trkpt lat="45.20753" lon="6.42009">
        <ele>1596.41</ele>
        <time>2009-08-01T10:59:42Z</time>
      </trkpt>
      <trkpt lat="45.20748" lon="6.42005">
        <ele>1596.89</ele>
        <time>2009-08-01T10:59:44Z</time>
      </trkpt>
      <trkpt lat="45.20757" lon="6.4199">
        <ele>1598.33</ele>
        <time>2009-08-01T10:59:53Z</time>
      </trkpt>
      <trkpt lat="45.20786" lon="6.42006">
        <ele>1601.69</ele>
        <time>2009-08-01T11:00:06Z</time>
      </trkpt>
      <trkpt lat="45.2079" lon="6.41981">
        <ele>1603.14</ele>
        <time>2009-08-01T11:00:15Z</time>
      </trkpt>
      <trkpt lat="45.20786" lon="6.4198">
        <ele>1603.14</ele>
        <time>2009-08-01T11:00:16Z</time>
      </trkpt>
      <trkpt lat="45.20772" lon="6.41973">
        <ele>1604.58</ele>
        <time>2009-08-01T11:00:21Z</time>
      </trkpt>
      <trkpt lat="45.20754" lon="6.41951">
        <ele>1606.98</ele>
        <time>2009-08-01T11:00:32Z</time>
      </trkpt>
      <trkpt lat="45.20736" lon="6.41929">
        <ele>1609.38</ele>
        <time>2009-08-01T11:00:43Z</time>
      </trkpt>
      <trkpt lat="45.20723" lon="6.41915">
        <ele>1610.35</ele>
        <time>2009-08-01T11:00:49Z</time>
      </trkpt>
      <trkpt lat="45.20732" lon="6.41913">
        <ele>1612.27</ele>
        <time>2009-08-01T11:00:57Z</time>
      </trkpt>
      <trkpt lat="45.20737" lon="6.41915">
        <ele>1612.75</ele>
        <time>2009-08-01T11:00:59Z</time>
      </trkpt>
      <trkpt lat="45.20769" lon="6.41925">
        <ele>1615.63</ele>
        <time>2009-08-01T11:01:14Z</time>
      </trkpt>
      <trkpt lat="45.20806" lon="6.41931">
        <ele>1618.52</ele>
        <time>2009-08-01T11:01:28Z</time>
      </trkpt>
      <trkpt lat="45.20838" lon="6.41932">
        <ele>1621.88</ele>
        <time>2009-08-01T11:01:43Z</time>
      </trkpt>
      <trkpt lat="45.20871" lon="6.41925">
        <ele>1624.77</ele>
        <time>2009-08-01T11:01:59Z</time>
      </trkpt>
      <trkpt lat="45.20906" lon="6.41919">
        <ele>1627.17</ele>
        <time>2009-08-01T11:02:11Z</time>
      </trkpt>
      <trkpt lat="45.20941" lon="6.41909">
        <ele>1629.57</ele>
        <time>2009-08-01T11:02:25Z</time>
      </trkpt>
      <trkpt lat="45.20972" lon="6.41906">
        <ele>1632.46</ele>
        <time>2009-08-01T11:02:40Z</time>
      </trkpt>
      <trkpt lat="45.21001" lon="6.41902">
        <ele>1635.34</ele>
        <time>2009-08-01T11:02:52Z</time>
      </trkpt>
      <trkpt lat="45.21026" lon="6.41928">
        <ele>1637.74</ele>
        <time>2009-08-01T11:03:06Z</time>
      </trkpt>
      <trkpt lat="45.21027" lon="6.41946">
        <ele>1638.22</ele>
        <time>2009-08-01T11:03:10Z</time>
      </trkpt>
      <trkpt lat="45.21026" lon="6.41977">
        <ele>1639.67</ele>
        <time>2009-08-01T11:03:20Z</time>
      </trkpt>
      <trkpt lat="45.2103" lon="6.41983">
        <ele>1643.03</ele>
        <time>2009-08-01T11:03:22Z</time>
      </trkpt>
      <trkpt lat="45.21032" lon="6.41985">
        <ele>1642.07</ele>
        <time>2009-08-01T11:03:23Z</time>
      </trkpt>
      <trkpt lat="45.21036" lon="6.41984">
        <ele>1641.11</ele>
        <time>2009-08-01T11:03:25Z</time>
      </trkpt>
      <trkpt lat="45.21038" lon="6.41981">
        <ele>1641.11</ele>
        <time>2009-08-01T11:03:26Z</time>
      </trkpt>
      <trkpt lat="45.21046" lon="6.41939">
        <ele>1642.55</ele>
        <time>2009-08-01T11:03:38Z</time>
      </trkpt>
      <trkpt lat="45.21075" lon="6.41901">
        <ele>1644.95</ele>
        <time>2009-08-01T11:03:51Z</time>
      </trkpt>
      <trkpt lat="45.21085" lon="6.4187">
        <ele>1645.91</ele>
        <time>2009-08-01T11:04:01Z</time>
      </trkpt>
      <trkpt lat="45.21103" lon="6.4186">
        <ele>1649.28</ele>
        <time>2009-08-01T11:04:10Z</time>
      </trkpt>
      <trkpt lat="45.21135" lon="6.41842">
        <ele>1649.76</ele>
        <time>2009-08-01T11:04:23Z</time>
      </trkpt>
      <trkpt lat="45.21138" lon="6.41842">
        <ele>1649.76</ele>
        <time>2009-08-01T11:04:24Z</time>
      </trkpt>
      <trkpt lat="45.21159" lon="6.4184">
        <ele>1653.6</ele>
        <time>2009-08-01T11:04:31Z</time>
      </trkpt>
      <trkpt lat="45.21178" lon="6.41846">
        <ele>1653.6</ele>
        <time>2009-08-01T11:04:39Z</time>
      </trkpt>
      <trkpt lat="45.21203" lon="6.41853">
        <ele>1656.49</ele>
        <time>2009-08-01T11:04:50Z</time>
      </trkpt>
      <trkpt lat="45.21231" lon="6.41842">
        <ele>1659.37</ele>
        <time>2009-08-01T11:05:03Z</time>
      </trkpt>
      <trkpt lat="45.21263" lon="6.41819">
        <ele>1662.74</ele>
        <time>2009-08-01T11:05:17Z</time>
      </trkpt>
      <trkpt lat="45.21299" lon="6.4181">
        <ele>1666.1</ele>
        <time>2009-08-01T11:05:32Z</time>
      </trkpt>
      <trkpt lat="45.21331" lon="6.41807">
        <ele>1668.51</ele>
        <time>2009-08-01T11:05:43Z</time>
      </trkpt>
      <trkpt lat="45.21359" lon="6.41794">
        <ele>1671.39</ele>
        <time>2009-08-01T11:05:57Z</time>
      </trkpt>
      <trkpt lat="45.21384" lon="6.41788">
        <ele>1675.23</ele>
        <time>2009-08-01T11:06:06Z</time>
      </trkpt>
      <trkpt lat="45.21386" lon="6.41788">
        <ele>1673.31</ele>
        <time>2009-08-01T11:06:10Z</time>
      </trkpt>
      <trkpt lat="45.214" lon="6.41788">
        <ele>1674.75</ele>
        <time>2009-08-01T11:06:18Z</time>
      </trkpt>
      <trkpt lat="45.21412" lon="6.41785">
        <ele>1675.23</ele>
        <time>2009-08-01T11:06:22Z</time>
      </trkpt>
      <trkpt lat="45.21444" lon="6.41776">
        <ele>1678.12</ele>
        <time>2009-08-01T11:06:36Z</time>
      </trkpt>
      <trkpt lat="45.21475" lon="6.41767">
        <ele>1679.56</ele>
        <time>2009-08-01T11:06:48Z</time>
      </trkpt>
      <trkpt lat="45.21507" lon="6.41755">
        <ele>1681.96</ele>
        <time>2009-08-01T11:07:00Z</time>
      </trkpt>
      <trkpt lat="45.21547" lon="6.41735">
        <ele>1684.37</ele>
        <time>2009-08-01T11:07:13Z</time>
      </trkpt>
      <trkpt lat="45.21575" lon="6.41704">
        <ele>1686.29</ele>
        <time>2009-08-01T11:07:26Z</time>
      </trkpt>
      <trkpt lat="45.21605" lon="6.41678">
        <ele>1688.21</ele>
        <time>2009-08-01T11:07:38Z</time>
      </trkpt>
      <trkpt lat="45.21606" lon="6.41673">
        <ele>1688.21</ele>
        <time>2009-08-01T11:07:39Z</time>
      </trkpt>
      <trkpt lat="45.21608" lon="6.41659">
        <ele>1688.69</ele>
        <time>2009-08-01T11:07:44Z</time>
      </trkpt>
      <trkpt lat="45.21617" lon="6.41639">
        <ele>1689.65</ele>
        <time>2009-08-01T11:07:50Z</time>
      </trkpt>
      <trkpt lat="45.2163" lon="6.41625">
        <ele>1689.65</ele>
        <time>2009-08-01T11:07:57Z</time>
      </trkpt>
      <trkpt lat="45.21635" lon="6.41612">
        <ele>1690.14</ele>
        <time>2009-08-01T11:08:01Z</time>
      </trkpt>
      <trkpt lat="45.21645" lon="6.41576">
        <ele>1690.14</ele>
        <time>2009-08-01T11:08:11Z</time>
      </trkpt>
      <trkpt lat="45.2162" lon="6.41531">
        <ele>1690.14</ele>
        <time>2009-08-01T11:08:22Z</time>
      </trkpt>
      <trkpt lat="45.21583" lon="6.4151">
        <ele>1691.58</ele>
        <time>2009-08-01T11:08:34Z</time>
      </trkpt>
      <trkpt lat="45.21549" lon="6.41495">
        <ele>1693.98</ele>
        <time>2009-08-01T11:08:45Z</time>
      </trkpt>
      <trkpt lat="45.21549" lon="6.41498">
        <ele>1693.98</ele>
        <time>2009-08-01T11:08:52Z</time>
      </trkpt>
      <trkpt lat="45.21549" lon="6.41497">
        <ele>1693.98</ele>
        <time>2009-08-01T11:08:54Z</time>
      </trkpt>
      <trkpt lat="45.21551" lon="6.41497">
        <ele>1693.98</ele>
        <time>2009-08-01T11:08:56Z</time>
      </trkpt>
      <trkpt lat="45.21541" lon="6.41507">
        <ele>1692.54</ele>
        <time>2009-08-01T11:09:02Z</time>
      </trkpt>
      <trkpt lat="45.21524" lon="6.41514">
        <ele>1691.58</ele>
        <time>2009-08-01T11:09:06Z</time>
      </trkpt>
      <trkpt lat="45.21501" lon="6.41525">
        <ele>1690.62</ele>
        <time>2009-08-01T11:09:11Z</time>
      </trkpt>
      <trkpt lat="45.21497" lon="6.41529">
        <ele>1691.1</ele>
        <time>2009-08-01T11:09:12Z</time>
      </trkpt>
      <trkpt lat="45.21493" lon="6.41532">
        <ele>1690.62</ele>
        <time>2009-08-01T11:09:13Z</time>
      </trkpt>
      <trkpt lat="45.21483" lon="6.41543">
        <ele>1690.62</ele>
        <time>2009-08-01T11:09:17Z</time>
      </trkpt>
      <trkpt lat="45.21484" lon="6.41548">
        <ele>1690.14</ele>
        <time>2009-08-01T11:09:20Z</time>
      </trkpt>
      <trkpt lat="45.21484" lon="6.4155">
        <ele>1690.14</ele>
        <time>2009-08-01T11:09:35Z</time>
      </trkpt>
      <trkpt lat="45.2149" lon="6.41575">
        <ele>1690.62</ele>
        <time>2009-08-01T11:10:09Z</time>
      </trkpt>
      <trkpt lat="45.21492" lon="6.41576">
        <ele>1690.62</ele>
        <time>2009-08-01T11:10:10Z</time>
      </trkpt>
      <trkpt lat="45.21495" lon="6.41576">
        <ele>1690.62</ele>
        <time>2009-08-01T11:10:11Z</time>
      </trkpt>
      <trkpt lat="45.21498" lon="6.41575">
        <ele>1690.62</ele>
        <time>2009-08-01T11:10:12Z</time>
      </trkpt>
      <trkpt lat="45.21525" lon="6.41577">
        <ele>1690.14</ele>
        <time>2009-08-01T11:10:22Z</time>
      </trkpt>
      <trkpt lat="45.21523" lon="6.41574">
        <ele>1689.65</ele>
        <time>2009-08-01T11:10:29Z</time>
      </trkpt>
      <trkpt lat="45.2152" lon="6.41577">
        <ele>1689.65</ele>
        <time>2009-08-01T11:10:30Z</time>
      </trkpt>
      <trkpt lat="45.21526" lon="6.41587">
        <ele>1690.62</ele>
        <time>2009-08-01T11:10:36Z</time>
      </trkpt>
      <trkpt lat="45.21529" lon="6.41601">
        <ele>1691.1</ele>
        <time>2009-08-01T11:10:46Z</time>
      </trkpt>
      <trkpt lat="45.21522" lon="6.41603">
        <ele>1692.06</ele>
        <time>2009-08-01T11:24:45Z</time>
      </trkpt>
      <trkpt lat="45.21522" lon="6.41602">
        <ele>1692.54</ele>
        <time>2009-08-01T11:26:26Z</time>
      </trkpt>
      <trkpt lat="45.21521" lon="6.41603">
        <ele>1692.54</ele>
        <time>2009-08-01T11:29:38Z</time>
      </trkpt>
      <trkpt lat="45.21519" lon="6.41603">
        <ele>1692.54</ele>
        <time>2009-08-01T11:39:25Z</time>
      </trkpt>
      <trkpt lat="45.21516" lon="6.41603">
        <ele>1693.02</ele>
        <time>2009-08-01T11:39:28Z</time>
      </trkpt>
      <trkpt lat="45.21502" lon="6.41596">
        <ele>1693.98</ele>
        <time>2009-08-01T11:39:37Z</time>
      </trkpt>
      <trkpt lat="45.21492" lon="6.41579">
        <ele>1692.54</ele>
        <time>2009-08-01T11:39:41Z</time>
      </trkpt>
      <trkpt lat="45.2149" lon="6.41573">
        <ele>1691.58</ele>
        <time>2009-08-01T11:39:42Z</time>
      </trkpt>
      <trkpt lat="45.21487" lon="6.41561">
        <ele>1691.58</ele>
        <time>2009-08-01T11:39:44Z</time>
      </trkpt>
      <trkpt lat="45.21486" lon="6.41556">
        <ele>1691.1</ele>
        <time>2009-08-01T11:39:45Z</time>
      </trkpt>
      <trkpt lat="45.21485" lon="6.4155">
        <ele>1691.1</ele>
        <time>2009-08-01T11:39:46Z</time>
      </trkpt>
      <trkpt lat="45.21484" lon="6.41546">
        <ele>1691.1</ele>
        <time>2009-08-01T11:39:47Z</time>
      </trkpt>
      <trkpt lat="45.21485" lon="6.41542">
        <ele>1691.1</ele>
        <time>2009-08-01T11:39:48Z</time>
      </trkpt>
      <trkpt lat="45.21486" lon="6.41538">
        <ele>1691.1</ele>
        <time>2009-08-01T11:39:49Z</time>
      </trkpt>
      <trkpt lat="45.21487" lon="6.41536">
        <ele>1691.1</ele>
        <time>2009-08-01T11:39:50Z</time>
      </trkpt>
      <trkpt lat="45.21489" lon="6.41534">
        <ele>1691.1</ele>
        <time>2009-08-01T11:39:51Z</time>
      </trkpt>
      <trkpt lat="45.21491" lon="6.41532">
        <ele>1691.58</ele>
        <time>2009-08-01T11:39:52Z</time>
      </trkpt>
      <trkpt lat="45.21494" lon="6.4153">
        <ele>1691.58</ele>
        <time>2009-08-01T11:39:53Z</time>
      </trkpt>
      <trkpt lat="45.21496" lon="6.41527">
        <ele>1691.58</ele>
        <time>2009-08-01T11:39:54Z</time>
      </trkpt>
      <trkpt lat="45.21531" lon="6.4151">
        <ele>1693.5</ele>
        <time>2009-08-01T11:40:06Z</time>
      </trkpt>
      <trkpt lat="45.21551" lon="6.41497">
        <ele>1694.94</ele>
        <time>2009-08-01T11:40:15Z</time>
      </trkpt>
      <trkpt lat="45.2155" lon="6.41494">
        <ele>1695.42</ele>
        <time>2009-08-01T11:40:18Z</time>
      </trkpt>
      <trkpt lat="45.21546" lon="6.41495">
        <ele>1695.42</ele>
        <time>2009-08-01T11:40:19Z</time>
      </trkpt>
      <trkpt lat="45.21543" lon="6.41494">
        <ele>1695.9</ele>
        <time>2009-08-01T11:40:20Z</time>
      </trkpt>
      <trkpt lat="45.2154" lon="6.41494">
        <ele>1696.38</ele>
        <time>2009-08-01T11:40:21Z</time>
      </trkpt>
      <trkpt lat="45.21537" lon="6.41494">
        <ele>1696.38</ele>
        <time>2009-08-01T11:40:22Z</time>
      </trkpt>
      <trkpt lat="45.21535" lon="6.41493">
        <ele>1696.86</ele>
        <time>2009-08-01T11:40:23Z</time>
      </trkpt>
      <trkpt lat="45.21532" lon="6.41493">
        <ele>1696.86</ele>
        <time>2009-08-01T11:40:24Z</time>
      </trkpt>
      <trkpt lat="45.21529" lon="6.41492">
        <ele>1697.34</ele>
        <time>2009-08-01T11:40:25Z</time>
      </trkpt>
      <trkpt lat="45.21527" lon="6.41492">
        <ele>1697.83</ele>
        <time>2009-08-01T11:40:26Z</time>
      </trkpt>
      <trkpt lat="45.21498" lon="6.41495">
        <ele>1699.27</ele>
        <time>2009-08-01T11:40:37Z</time>
      </trkpt>
      <trkpt lat="45.21463" lon="6.41499">
        <ele>1701.67</ele>
        <time>2009-08-01T11:40:49Z</time>
      </trkpt>
      <trkpt lat="45.21433" lon="6.41504">
        <ele>1704.07</ele>
        <time>2009-08-01T11:41:00Z</time>
      </trkpt>
      <trkpt lat="45.21403" lon="6.41508">
        <ele>1706</ele>
        <time>2009-08-01T11:41:13Z</time>
      </trkpt>
      <trkpt lat="45.21391" lon="6.41501">
        <ele>1708.4</ele>
        <time>2009-08-01T11:41:19Z</time>
      </trkpt>
      <trkpt lat="45.21389" lon="6.415">
        <ele>1708.4</ele>
        <time>2009-08-01T11:41:21Z</time>
      </trkpt>
      <trkpt lat="45.21387" lon="6.41499">
        <ele>1708.88</ele>
        <time>2009-08-01T11:41:22Z</time>
      </trkpt>
      <trkpt lat="45.21385" lon="6.41499">
        <ele>1708.88</ele>
        <time>2009-08-01T11:41:23Z</time>
      </trkpt>
      <trkpt lat="45.21383" lon="6.41498">
        <ele>1709.36</ele>
        <time>2009-08-01T11:41:24Z</time>
      </trkpt>
      <trkpt lat="45.21381" lon="6.41496">
        <ele>1709.36</ele>
        <time>2009-08-01T11:41:25Z</time>
      </trkpt>
      <trkpt lat="45.21379" lon="6.41495">
        <ele>1709.84</ele>
        <time>2009-08-01T11:41:26Z</time>
      </trkpt>
      <trkpt lat="45.21376" lon="6.41494">
        <ele>1709.36</ele>
        <time>2009-08-01T11:41:27Z</time>
      </trkpt>
      <trkpt lat="45.21372" lon="6.41493">
        <ele>1709.36</ele>
        <time>2009-08-01T11:41:28Z</time>
      </trkpt>
      <trkpt lat="45.21369" lon="6.41494">
        <ele>1709.84</ele>
        <time>2009-08-01T11:41:29Z</time>
      </trkpt>
      <trkpt lat="45.21367" lon="6.41495">
        <ele>1710.32</ele>
        <time>2009-08-01T11:41:30Z</time>
      </trkpt>
      <trkpt lat="45.21341" lon="6.41513">
        <ele>1712.25</ele>
        <time>2009-08-01T11:41:41Z</time>
      </trkpt>
      <trkpt lat="45.21335" lon="6.41514">
        <ele>1712.25</ele>
        <time>2009-08-01T11:41:43Z</time>
      </trkpt>
      <trkpt lat="45.21333" lon="6.41513">
        <ele>1712.73</ele>
        <time>2009-08-01T11:41:44Z</time>
      </trkpt>
      <trkpt lat="45.2133" lon="6.41513">
        <ele>1712.73</ele>
        <time>2009-08-01T11:41:45Z</time>
      </trkpt>
      <trkpt lat="45.21329" lon="6.41513">
        <ele>1713.21</ele>
        <time>2009-08-01T11:41:46Z</time>
      </trkpt>
      <trkpt lat="45.21327" lon="6.41515">
        <ele>1713.69</ele>
        <time>2009-08-01T11:41:47Z</time>
      </trkpt>
      <trkpt lat="45.21325" lon="6.41516">
        <ele>1713.69</ele>
        <time>2009-08-01T11:41:48Z</time>
      </trkpt>
      <trkpt lat="45.21323" lon="6.41516">
        <ele>1713.69</ele>
        <time>2009-08-01T11:41:49Z</time>
      </trkpt>
      <trkpt lat="45.21321" lon="6.41517">
        <ele>1714.17</ele>
        <time>2009-08-01T11:41:50Z</time>
      </trkpt>
      <trkpt lat="45.21297" lon="6.41518">
        <ele>1716.09</ele>
        <time>2009-08-01T11:42:02Z</time>
      </trkpt>
      <trkpt lat="45.2128" lon="6.41525">
        <ele>1718.97</ele>
        <time>2009-08-01T11:42:14Z</time>
      </trkpt>
      <trkpt lat="45.21262" lon="6.41536">
        <ele>1721.38</ele>
        <time>2009-08-01T11:42:25Z</time>
      </trkpt>
      <trkpt lat="45.2124" lon="6.41545">
        <ele>1724.74</ele>
        <time>2009-08-01T11:42:37Z</time>
      </trkpt>
      <trkpt lat="45.21217" lon="6.41546">
        <ele>1726.67</ele>
        <time>2009-08-01T11:42:48Z</time>
      </trkpt>
      <trkpt lat="45.2121" lon="6.41559">
        <ele>1728.11</ele>
        <time>2009-08-01T11:42:55Z</time>
      </trkpt>
      <trkpt lat="45.21195" lon="6.4157">
        <ele>1729.55</ele>
        <time>2009-08-01T11:43:02Z</time>
      </trkpt>
      <trkpt lat="45.21193" lon="6.41568">
        <ele>1730.03</ele>
        <time>2009-08-01T11:43:03Z</time>
      </trkpt>
      <trkpt lat="45.21192" lon="6.41568">
        <ele>1730.03</ele>
        <time>2009-08-01T11:43:04Z</time>
      </trkpt>
      <trkpt lat="45.21176" lon="6.41587">
        <ele>1732.43</ele>
        <time>2009-08-01T11:43:16Z</time>
      </trkpt>
      <trkpt lat="45.21175" lon="6.41587">
        <ele>1732.43</ele>
        <time>2009-08-01T11:43:17Z</time>
      </trkpt>
      <trkpt lat="45.21173" lon="6.41589">
        <ele>1732.43</ele>
        <time>2009-08-01T11:43:18Z</time>
      </trkpt>
      <trkpt lat="45.21169" lon="6.41589">
        <ele>1732.91</ele>
        <time>2009-08-01T11:43:19Z</time>
      </trkpt>
      <trkpt lat="45.21166" lon="6.41589">
        <ele>1732.91</ele>
        <time>2009-08-01T11:43:20Z</time>
      </trkpt>
      <trkpt lat="45.21163" lon="6.41589">
        <ele>1733.39</ele>
        <time>2009-08-01T11:43:21Z</time>
      </trkpt>
      <trkpt lat="45.21161" lon="6.41589">
        <ele>1732.91</ele>
        <time>2009-08-01T11:43:22Z</time>
      </trkpt>
      <trkpt lat="45.21157" lon="6.41589">
        <ele>1732.91</ele>
        <time>2009-08-01T11:43:24Z</time>
      </trkpt>
      <trkpt lat="45.21155" lon="6.41592">
        <ele>1733.39</ele>
        <time>2009-08-01T11:43:25Z</time>
      </trkpt>
      <trkpt lat="45.21152" lon="6.41593">
        <ele>1733.88</ele>
        <time>2009-08-01T11:43:26Z</time>
      </trkpt>
      <trkpt lat="45.2115" lon="6.41593">
        <ele>1733.88</ele>
        <time>2009-08-01T11:43:27Z</time>
      </trkpt>
      <trkpt lat="45.21146" lon="6.41596">
        <ele>1733.88</ele>
        <time>2009-08-01T11:43:28Z</time>
      </trkpt>
      <trkpt lat="45.21144" lon="6.41597">
        <ele>1733.88</ele>
        <time>2009-08-01T11:43:29Z</time>
      </trkpt>
      <trkpt lat="45.21142" lon="6.41597">
        <ele>1734.36</ele>
        <time>2009-08-01T11:43:30Z</time>
      </trkpt>
      <trkpt lat="45.21141" lon="6.41599">
        <ele>1734.84</ele>
        <time>2009-08-01T11:43:31Z</time>
      </trkpt>
      <trkpt lat="45.2114" lon="6.41599">
        <ele>1734.36</ele>
        <time>2009-08-01T11:43:32Z</time>
      </trkpt>
      <trkpt lat="45.21139" lon="6.41598">
        <ele>1735.32</ele>
        <time>2009-08-01T11:43:33Z</time>
      </trkpt>
      <trkpt lat="45.21138" lon="6.41598">
        <ele>1735.32</ele>
        <time>2009-08-01T11:43:34Z</time>
      </trkpt>
      <trkpt lat="45.21137" lon="6.41597">
        <ele>1735.8</ele>
        <time>2009-08-01T11:43:35Z</time>
      </trkpt>
      <trkpt lat="45.21136" lon="6.41599">
        <ele>1735.8</ele>
        <time>2009-08-01T11:43:36Z</time>
      </trkpt>
      <trkpt lat="45.21118" lon="6.41599">
        <ele>1738.68</ele>
        <time>2009-08-01T11:43:43Z</time>
      </trkpt>
      <trkpt lat="45.21117" lon="6.416">
        <ele>1738.68</ele>
        <time>2009-08-01T11:43:44Z</time>
      </trkpt>
      <trkpt lat="45.21116" lon="6.41599">
        <ele>1738.68</ele>
        <time>2009-08-01T11:43:45Z</time>
      </trkpt>
      <trkpt lat="45.21114" lon="6.41598">
        <ele>1738.2</ele>
        <time>2009-08-01T11:43:46Z</time>
      </trkpt>
      <trkpt lat="45.21112" lon="6.41598">
        <ele>1738.68</ele>
        <time>2009-08-01T11:43:47Z</time>
      </trkpt>
      <trkpt lat="45.2111" lon="6.41598">
        <ele>1739.16</ele>
        <time>2009-08-01T11:43:48Z</time>
      </trkpt>
      <trkpt lat="45.21108" lon="6.41598">
        <ele>1739.16</ele>
        <time>2009-08-01T11:43:49Z</time>
      </trkpt>
      <trkpt lat="45.21106" lon="6.41598">
        <ele>1739.16</ele>
        <time>2009-08-01T11:43:50Z</time>
      </trkpt>
      <trkpt lat="45.21079" lon="6.41577">
        <ele>1739.64</ele>
        <time>2009-08-01T11:44:02Z</time>
      </trkpt>
      <trkpt lat="45.21059" lon="6.41541">
        <ele>1742.53</ele>
        <time>2009-08-01T11:44:17Z</time>
      </trkpt>
      <trkpt lat="45.21058" lon="6.41506">
        <ele>1744.93</ele>
        <time>2009-08-01T11:44:29Z</time>
      </trkpt>
      <trkpt lat="45.21083" lon="6.41491">
        <ele>1747.81</ele>
        <time>2009-08-01T11:44:42Z</time>
      </trkpt>
      <trkpt lat="45.21087" lon="6.41488">
        <ele>1748.29</ele>
        <time>2009-08-01T11:44:44Z</time>
      </trkpt>
      <trkpt lat="45.21098" lon="6.41483">
        <ele>1748.78</ele>
        <time>2009-08-01T11:44:49Z</time>
      </trkpt>
      <trkpt lat="45.21115" lon="6.41462">
        <ele>1752.62</ele>
        <time>2009-08-01T11:45:02Z</time>
      </trkpt>
      <trkpt lat="45.21117" lon="6.4146">
        <ele>1751.66</ele>
        <time>2009-08-01T11:45:03Z</time>
      </trkpt>
      <trkpt lat="45.21118" lon="6.41458">
        <ele>1750.22</ele>
        <time>2009-08-01T11:45:04Z</time>
      </trkpt>
      <trkpt lat="45.2112" lon="6.41455">
        <ele>1749.26</ele>
        <time>2009-08-01T11:45:06Z</time>
      </trkpt>
      <trkpt lat="45.21134" lon="6.41439">
        <ele>1755.02</ele>
        <time>2009-08-01T11:45:15Z</time>
      </trkpt>
      <trkpt lat="45.21135" lon="6.41438">
        <ele>1750.7</ele>
        <time>2009-08-01T11:45:16Z</time>
      </trkpt>
      <trkpt lat="45.2114" lon="6.41427">
        <ele>1755.5</ele>
        <time>2009-08-01T11:45:22Z</time>
      </trkpt>
      <trkpt lat="45.21156" lon="6.41413">
        <ele>1749.26</ele>
        <time>2009-08-01T11:45:35Z</time>
      </trkpt>
      <trkpt lat="45.21163" lon="6.41401">
        <ele>1730.51</ele>
        <time>2009-08-01T11:45:41Z</time>
      </trkpt>
      <trkpt lat="45.21164" lon="6.41399">
        <ele>1755.99</ele>
        <time>2009-08-01T11:45:42Z</time>
      </trkpt>
      <trkpt lat="45.21166" lon="6.41398">
        <ele>1752.14</ele>
        <time>2009-08-01T11:45:43Z</time>
      </trkpt>
      <trkpt lat="45.2117" lon="6.41395">
        <ele>1750.22</ele>
        <time>2009-08-01T11:45:45Z</time>
      </trkpt>
      <trkpt lat="45.21172" lon="6.41392">
        <ele>1748.78</ele>
        <time>2009-08-01T11:45:47Z</time>
      </trkpt>
      <trkpt lat="45.2118" lon="6.41385">
        <ele>1749.26</ele>
        <time>2009-08-01T11:45:51Z</time>
      </trkpt>
      <trkpt lat="45.2119" lon="6.41377">
        <ele>1749.74</ele>
        <time>2009-08-01T11:45:56Z</time>
      </trkpt>
      <trkpt lat="45.21192" lon="6.41375">
        <ele>1755.02</ele>
        <time>2009-08-01T11:45:57Z</time>
      </trkpt>
      <trkpt lat="45.21194" lon="6.41373">
        <ele>1750.7</ele>
        <time>2009-08-01T11:45:58Z</time>
      </trkpt>
      <trkpt lat="45.21195" lon="6.41371">
        <ele>1740.12</ele>
        <time>2009-08-01T11:45:59Z</time>
      </trkpt>
      <trkpt lat="45.21197" lon="6.41369">
        <ele>1755.5</ele>
        <time>2009-08-01T11:46:00Z</time>
      </trkpt>
      <trkpt lat="45.21199" lon="6.41368">
        <ele>1755.02</ele>
        <time>2009-08-01T11:46:01Z</time>
      </trkpt>
      <trkpt lat="45.21202" lon="6.41365">
        <ele>1751.18</ele>
        <time>2009-08-01T11:46:03Z</time>
      </trkpt>
      <trkpt lat="45.21203" lon="6.41364">
        <ele>1754.54</ele>
        <time>2009-08-01T11:46:04Z</time>
      </trkpt>
      <trkpt lat="45.21207" lon="6.41361">
        <ele>1750.7</ele>
        <time>2009-08-01T11:46:06Z</time>
      </trkpt>
      <trkpt lat="45.21217" lon="6.41356">
        <ele>1746.37</ele>
        <time>2009-08-01T11:46:12Z</time>
      </trkpt>
      <trkpt lat="45.21219" lon="6.41355">
        <ele>1751.66</ele>
        <time>2009-08-01T11:46:13Z</time>
      </trkpt>
      <trkpt lat="45.21239" lon="6.41342">
        <ele>1752.62</ele>
        <time>2009-08-01T11:46:23Z</time>
      </trkpt>
      <trkpt lat="45.2125" lon="6.41327">
        <ele>1754.54</ele>
        <time>2009-08-01T11:46:31Z</time>
      </trkpt>
      <trkpt lat="45.21251" lon="6.41328">
        <ele>1754.54</ele>
        <time>2009-08-01T11:47:05Z</time>
      </trkpt>
      <trkpt lat="45.21254" lon="6.41328">
        <ele>1754.54</ele>
        <time>2009-08-01T11:47:08Z</time>
      </trkpt>
      <trkpt lat="45.21281" lon="6.41316">
        <ele>1756.47</ele>
        <time>2009-08-01T11:47:20Z</time>
      </trkpt>
      <trkpt lat="45.21284" lon="6.41315">
        <ele>1756.47</ele>
        <time>2009-08-01T11:47:21Z</time>
      </trkpt>
      <trkpt lat="45.21303" lon="6.41307">
        <ele>1758.39</ele>
        <time>2009-08-01T11:47:31Z</time>
      </trkpt>
      <trkpt lat="45.21323" lon="6.413">
        <ele>1760.79</ele>
        <time>2009-08-01T11:47:41Z</time>
      </trkpt>
      <trkpt lat="45.2134" lon="6.41294">
        <ele>1762.71</ele>
        <time>2009-08-01T11:47:50Z</time>
      </trkpt>
      <trkpt lat="45.2135" lon="6.41296">
        <ele>1764.16</ele>
        <time>2009-08-01T11:47:55Z</time>
      </trkpt>
      <trkpt lat="45.21378" lon="6.41294">
        <ele>1766.56</ele>
        <time>2009-08-01T11:48:09Z</time>
      </trkpt>
      <trkpt lat="45.21401" lon="6.41284">
        <ele>1769.92</ele>
        <time>2009-08-01T11:48:23Z</time>
      </trkpt>
      <trkpt lat="45.21421" lon="6.41274">
        <ele>1773.29</ele>
        <time>2009-08-01T11:48:35Z</time>
      </trkpt>
      <trkpt lat="45.21423" lon="6.41272">
        <ele>1773.29</ele>
        <time>2009-08-01T11:48:36Z</time>
      </trkpt>
      <trkpt lat="45.21444" lon="6.41253">
        <ele>1776.65</ele>
        <time>2009-08-01T11:48:49Z</time>
      </trkpt>
      <trkpt lat="45.21459" lon="6.4124">
        <ele>1778.58</ele>
        <time>2009-08-01T11:48:57Z</time>
      </trkpt>
      <trkpt lat="45.21481" lon="6.41219">
        <ele>1781.94</ele>
        <time>2009-08-01T11:49:11Z</time>
      </trkpt>
      <trkpt lat="45.21491" lon="6.41202">
        <ele>1784.34</ele>
        <time>2009-08-01T11:49:21Z</time>
      </trkpt>
      <trkpt lat="45.21506" lon="6.41188">
        <ele>1786.75</ele>
        <time>2009-08-01T11:49:32Z</time>
      </trkpt>
      <trkpt lat="45.2151" lon="6.41184">
        <ele>1787.23</ele>
        <time>2009-08-01T11:49:35Z</time>
      </trkpt>
      <trkpt lat="45.21518" lon="6.41179">
        <ele>1788.19</ele>
        <time>2009-08-01T11:49:40Z</time>
      </trkpt>
      <trkpt lat="45.21538" lon="6.41162">
        <ele>1789.63</ele>
        <time>2009-08-01T11:49:51Z</time>
      </trkpt>
      <trkpt lat="45.21548" lon="6.41147">
        <ele>1791.07</ele>
        <time>2009-08-01T11:49:59Z</time>
      </trkpt>
      <trkpt lat="45.21573" lon="6.41137">
        <ele>1793.48</ele>
        <time>2009-08-01T11:50:12Z</time>
      </trkpt>
      <trkpt lat="45.21591" lon="6.41126">
        <ele>1795.88</ele>
        <time>2009-08-01T11:50:22Z</time>
      </trkpt>
      <trkpt lat="45.21612" lon="6.41114">
        <ele>1797.32</ele>
        <time>2009-08-01T11:50:33Z</time>
      </trkpt>
      <trkpt lat="45.21628" lon="6.41105">
        <ele>1799.73</ele>
        <time>2009-08-01T11:50:44Z</time>
      </trkpt>
      <trkpt lat="45.21649" lon="6.41098">
        <ele>1801.65</ele>
        <time>2009-08-01T11:50:55Z</time>
      </trkpt>
      <trkpt lat="45.21668" lon="6.41091">
        <ele>1803.57</ele>
        <time>2009-08-01T11:51:07Z</time>
      </trkpt>
      <trkpt lat="45.21687" lon="6.41087">
        <ele>1805.97</ele>
        <time>2009-08-01T11:51:18Z</time>
      </trkpt>
      <trkpt lat="45.21696" lon="6.41082">
        <ele>1807.9</ele>
        <time>2009-08-01T11:51:23Z</time>
      </trkpt>
      <trkpt lat="45.21704" lon="6.4108">
        <ele>1808.38</ele>
        <time>2009-08-01T11:51:28Z</time>
      </trkpt>
      <trkpt lat="45.21727" lon="6.41067">
        <ele>1810.3</ele>
        <time>2009-08-01T11:51:40Z</time>
      </trkpt>
      <trkpt lat="45.2173" lon="6.41059">
        <ele>1810.78</ele>
        <time>2009-08-01T11:51:43Z</time>
      </trkpt>
      <trkpt lat="45.21752" lon="6.41047">
        <ele>1813.66</ele>
        <time>2009-08-01T11:51:56Z</time>
      </trkpt>
      <trkpt lat="45.2178" lon="6.41031">
        <ele>1814.63</ele>
        <time>2009-08-01T11:52:08Z</time>
      </trkpt>
      <trkpt lat="45.21798" lon="6.41009">
        <ele>1817.51</ele>
        <time>2009-08-01T11:52:20Z</time>
      </trkpt>
      <trkpt lat="45.21817" lon="6.40979">
        <ele>1819.91</ele>
        <time>2009-08-01T11:52:35Z</time>
      </trkpt>
      <trkpt lat="45.2182" lon="6.40954">
        <ele>1822.32</ele>
        <time>2009-08-01T11:52:45Z</time>
      </trkpt>
      <trkpt lat="45.21821" lon="6.40943">
        <ele>1822.8</ele>
        <time>2009-08-01T11:52:48Z</time>
      </trkpt>
      <trkpt lat="45.21826" lon="6.40932">
        <ele>1823.76</ele>
        <time>2009-08-01T11:52:53Z</time>
      </trkpt>
      <trkpt lat="45.21832" lon="6.40904">
        <ele>1825.68</ele>
        <time>2009-08-01T11:53:03Z</time>
      </trkpt>
      <trkpt lat="45.21841" lon="6.40872">
        <ele>1827.12</ele>
        <time>2009-08-01T11:53:12Z</time>
      </trkpt>
      <trkpt lat="45.21845" lon="6.40866">
        <ele>1827.6</ele>
        <time>2009-08-01T11:53:15Z</time>
      </trkpt>
      <trkpt lat="45.21851" lon="6.40854">
        <ele>1828.56</ele>
        <time>2009-08-01T11:53:20Z</time>
      </trkpt>
      <trkpt lat="45.21859" lon="6.40843">
        <ele>1829.05</ele>
        <time>2009-08-01T11:53:25Z</time>
      </trkpt>
      <trkpt lat="45.21865" lon="6.40835">
        <ele>1829.53</ele>
        <time>2009-08-01T11:53:28Z</time>
      </trkpt>
      <trkpt lat="45.21876" lon="6.40818">
        <ele>1831.93</ele>
        <time>2009-08-01T11:53:39Z</time>
      </trkpt>
      <trkpt lat="45.21882" lon="6.40804">
        <ele>1832.89</ele>
        <time>2009-08-01T11:53:45Z</time>
      </trkpt>
      <trkpt lat="45.21876" lon="6.40773">
        <ele>1833.85</ele>
        <time>2009-08-01T11:53:56Z</time>
      </trkpt>
      <trkpt lat="45.21868" lon="6.40758">
        <ele>1834.33</ele>
        <time>2009-08-01T11:54:09Z</time>
      </trkpt>
      <trkpt lat="45.21868" lon="6.40758">
        <ele>1834.33</ele>
        <time>2009-08-01T11:54:27Z</time>
      </trkpt>
      <trkpt lat="45.21868" lon="6.40758">
        <ele>1833.85</ele>
        <time>2009-08-01T11:54:44Z</time>
      </trkpt>
      <trkpt lat="45.21868" lon="6.40758">
        <ele>1839.62</ele>
        <time>2009-08-01T11:55:04Z</time>
      </trkpt>
      <trkpt lat="45.21868" lon="6.40758">
        <ele>1830.97</ele>
        <time>2009-08-01T11:55:05Z</time>
      </trkpt>
      <trkpt lat="45.21868" lon="6.40758">
        <ele>1835.29</ele>
        <time>2009-08-01T11:55:06Z</time>
      </trkpt>
      <trkpt lat="45.21868" lon="6.40762">
        <ele>1834.81</ele>
        <time>2009-08-01T11:55:30Z</time>
      </trkpt>
      <trkpt lat="45.21865" lon="6.40789">
        <ele>1834.81</ele>
        <time>2009-08-01T11:55:39Z</time>
      </trkpt>
      <trkpt lat="45.2186" lon="6.40795">
        <ele>1835.77</ele>
        <time>2009-08-01T11:55:43Z</time>
      </trkpt>
      <trkpt lat="45.21828" lon="6.40825">
        <ele>1837.7</ele>
        <time>2009-08-01T11:55:58Z</time>
      </trkpt>
      <trkpt lat="45.21798" lon="6.40847">
        <ele>1839.62</ele>
        <time>2009-08-01T11:56:11Z</time>
      </trkpt>
      <trkpt lat="45.21772" lon="6.40857">
        <ele>1832.89</ele>
        <time>2009-08-01T11:56:21Z</time>
      </trkpt>
      <trkpt lat="45.21769" lon="6.4086">
        <ele>1840.58</ele>
        <time>2009-08-01T11:56:22Z</time>
      </trkpt>
      <trkpt lat="45.21741" lon="6.40873">
        <ele>1842.5</ele>
        <time>2009-08-01T11:56:33Z</time>
      </trkpt>
      <trkpt lat="45.21709" lon="6.40891">
        <ele>1843.95</ele>
        <time>2009-08-01T11:56:44Z</time>
      </trkpt>
      <trkpt lat="45.21681" lon="6.40906">
        <ele>1844.43</ele>
        <time>2009-08-01T11:56:55Z</time>
      </trkpt>
      <trkpt lat="45.21651" lon="6.40924">
        <ele>1846.35</ele>
        <time>2009-08-01T11:57:08Z</time>
      </trkpt>
      <trkpt lat="45.21647" lon="6.40926">
        <ele>1846.83</ele>
        <time>2009-08-01T11:57:10Z</time>
      </trkpt>
      <trkpt lat="45.2162" lon="6.40946">
        <ele>1849.23</ele>
        <time>2009-08-01T11:57:22Z</time>
      </trkpt>
      <trkpt lat="45.21592" lon="6.40969">
        <ele>1851.16</ele>
        <time>2009-08-01T11:57:34Z</time>
      </trkpt>
      <trkpt lat="45.21558" lon="6.40987">
        <ele>1853.56</ele>
        <time>2009-08-01T11:57:50Z</time>
      </trkpt>
      <trkpt lat="45.2153" lon="6.40993">
        <ele>1856.92</ele>
        <time>2009-08-01T11:58:02Z</time>
      </trkpt>
      <trkpt lat="45.21514" lon="6.40994">
        <ele>1858.85</ele>
        <time>2009-08-01T11:58:09Z</time>
      </trkpt>
      <trkpt lat="45.21489" lon="6.40989">
        <ele>1861.73</ele>
        <time>2009-08-01T11:58:22Z</time>
      </trkpt>
      <trkpt lat="45.21463" lon="6.40988">
        <ele>1863.65</ele>
        <time>2009-08-01T11:58:34Z</time>
      </trkpt>
      <trkpt lat="45.21445" lon="6.40994">
        <ele>1866.06</ele>
        <time>2009-08-01T11:58:44Z</time>
      </trkpt>
      <trkpt lat="45.21429" lon="6.40999">
        <ele>1867.98</ele>
        <time>2009-08-01T11:58:52Z</time>
      </trkpt>
      <trkpt lat="45.21402" lon="6.41008">
        <ele>1870.86</ele>
        <time>2009-08-01T11:59:05Z</time>
      </trkpt>
      <trkpt lat="45.214" lon="6.41007">
        <ele>1870.86</ele>
        <time>2009-08-01T11:59:06Z</time>
      </trkpt>
      <trkpt lat="45.21376" lon="6.41008">
        <ele>1872.79</ele>
        <time>2009-08-01T11:59:20Z</time>
      </trkpt>
      <trkpt lat="45.2136" lon="6.41">
        <ele>1874.71</ele>
        <time>2009-08-01T11:59:31Z</time>
      </trkpt>
      <trkpt lat="45.21346" lon="6.40998">
        <ele>1875.19</ele>
        <time>2009-08-01T11:59:35Z</time>
      </trkpt>
      <trkpt lat="45.21321" lon="6.40991">
        <ele>1876.63</ele>
        <time>2009-08-01T11:59:45Z</time>
      </trkpt>
      <trkpt lat="45.21295" lon="6.4098">
        <ele>1879.03</ele>
        <time>2009-08-01T11:59:58Z</time>
      </trkpt>
      <trkpt lat="45.21278" lon="6.40953">
        <ele>1880.96</ele>
        <time>2009-08-01T12:00:11Z</time>
      </trkpt>
      <trkpt lat="45.21266" lon="6.4093">
        <ele>1884.32</ele>
        <time>2009-08-01T12:00:22Z</time>
      </trkpt>
      <trkpt lat="45.21249" lon="6.40908">
        <ele>1887.69</ele>
        <time>2009-08-01T12:00:35Z</time>
      </trkpt>
      <trkpt lat="45.21229" lon="6.40906">
        <ele>1890.57</ele>
        <time>2009-08-01T12:00:47Z</time>
      </trkpt>
      <trkpt lat="45.21226" lon="6.40908">
        <ele>1891.05</ele>
        <time>2009-08-01T12:00:49Z</time>
      </trkpt>
      <trkpt lat="45.21223" lon="6.40921">
        <ele>1892.49</ele>
        <time>2009-08-01T12:00:55Z</time>
      </trkpt>
      <trkpt lat="45.21221" lon="6.40938">
        <ele>1894.42</ele>
        <time>2009-08-01T12:01:02Z</time>
      </trkpt>
      <trkpt lat="45.21219" lon="6.40959">
        <ele>1896.82</ele>
        <time>2009-08-01T12:01:11Z</time>
      </trkpt>
      <trkpt lat="45.21202" lon="6.40986">
        <ele>1899.22</ele>
        <time>2009-08-01T12:01:25Z</time>
      </trkpt>
      <trkpt lat="45.21197" lon="6.40984">
        <ele>1899.7</ele>
        <time>2009-08-01T12:01:34Z</time>
      </trkpt>
      <trkpt lat="45.21197" lon="6.40984">
        <ele>1899.7</ele>
        <time>2009-08-01T12:01:53Z</time>
      </trkpt>
      <trkpt lat="45.21185" lon="6.40965">
        <ele>1902.11</ele>
        <time>2009-08-01T12:02:04Z</time>
      </trkpt>
      <trkpt lat="45.21177" lon="6.40954">
        <ele>1903.07</ele>
        <time>2009-08-01T12:02:09Z</time>
      </trkpt>
      <trkpt lat="45.21175" lon="6.4095">
        <ele>1904.03</ele>
        <time>2009-08-01T12:02:11Z</time>
      </trkpt>
      <trkpt lat="45.21173" lon="6.40948">
        <ele>1904.03</ele>
        <time>2009-08-01T12:02:12Z</time>
      </trkpt>
      <trkpt lat="45.21164" lon="6.40928">
        <ele>1905.95</ele>
        <time>2009-08-01T12:02:22Z</time>
      </trkpt>
      <trkpt lat="45.21168" lon="6.40901">
        <ele>1907.87</ele>
        <time>2009-08-01T12:02:33Z</time>
      </trkpt>
      <trkpt lat="45.21172" lon="6.4089">
        <ele>1908.83</ele>
        <time>2009-08-01T12:02:37Z</time>
      </trkpt>
      <trkpt lat="45.21173" lon="6.40879">
        <ele>1909.32</ele>
        <time>2009-08-01T12:02:41Z</time>
      </trkpt>
      <trkpt lat="45.21175" lon="6.40863">
        <ele>1911.24</ele>
        <time>2009-08-01T12:02:48Z</time>
      </trkpt>
      <trkpt lat="45.21165" lon="6.40822">
        <ele>1912.68</ele>
        <time>2009-08-01T12:03:02Z</time>
      </trkpt>
      <trkpt lat="45.21146" lon="6.40802">
        <ele>1915.56</ele>
        <time>2009-08-01T12:03:14Z</time>
      </trkpt>
      <trkpt lat="45.21119" lon="6.40786">
        <ele>1918.45</ele>
        <time>2009-08-01T12:03:28Z</time>
      </trkpt>
      <trkpt lat="45.21092" lon="6.40774">
        <ele>1921.33</ele>
        <time>2009-08-01T12:03:41Z</time>
      </trkpt>
      <trkpt lat="45.21072" lon="6.40762">
        <ele>1924.7</ele>
        <time>2009-08-01T12:03:52Z</time>
      </trkpt>
      <trkpt lat="45.21046" lon="6.40761">
        <ele>1927.1</ele>
        <time>2009-08-01T12:04:04Z</time>
      </trkpt>
      <trkpt lat="45.21022" lon="6.40765">
        <ele>1929.5</ele>
        <time>2009-08-01T12:04:17Z</time>
      </trkpt>
      <trkpt lat="45.21001" lon="6.40774">
        <ele>1932.87</ele>
        <time>2009-08-01T12:04:29Z</time>
      </trkpt>
      <trkpt lat="45.2098" lon="6.40781">
        <ele>1935.27</ele>
        <time>2009-08-01T12:04:41Z</time>
      </trkpt>
      <trkpt lat="45.20974" lon="6.40781">
        <ele>1935.75</ele>
        <time>2009-08-01T12:04:44Z</time>
      </trkpt>
      <trkpt lat="45.20966" lon="6.40781">
        <ele>1936.23</ele>
        <time>2009-08-01T12:04:48Z</time>
      </trkpt>
      <trkpt lat="45.20937" lon="6.40772">
        <ele>1939.12</ele>
        <time>2009-08-01T12:05:04Z</time>
      </trkpt>
      <trkpt lat="45.20935" lon="6.4077">
        <ele>1939.12</ele>
        <time>2009-08-01T12:05:05Z</time>
      </trkpt>
      <trkpt lat="45.20926" lon="6.40766">
        <ele>1940.56</ele>
        <time>2009-08-01T12:05:10Z</time>
      </trkpt>
      <trkpt lat="45.20902" lon="6.40757">
        <ele>1943.44</ele>
        <time>2009-08-01T12:05:25Z</time>
      </trkpt>
      <trkpt lat="45.20888" lon="6.40752">
        <ele>1945.36</ele>
        <time>2009-08-01T12:05:33Z</time>
      </trkpt>
      <trkpt lat="45.20868" lon="6.40744">
        <ele>1947.77</ele>
        <time>2009-08-01T12:05:44Z</time>
      </trkpt>
      <trkpt lat="45.20847" lon="6.40732">
        <ele>1950.17</ele>
        <time>2009-08-01T12:05:56Z</time>
      </trkpt>
      <trkpt lat="45.20831" lon="6.40732">
        <ele>1951.61</ele>
        <time>2009-08-01T12:06:09Z</time>
      </trkpt>
      <trkpt lat="45.20821" lon="6.40726">
        <ele>1952.09</ele>
        <time>2009-08-01T12:06:39Z</time>
      </trkpt>
      <trkpt lat="45.20794" lon="6.40708">
        <ele>1954.02</ele>
        <time>2009-08-01T12:06:51Z</time>
      </trkpt>
      <trkpt lat="45.2078" lon="6.40678">
        <ele>1955.94</ele>
        <time>2009-08-01T12:07:05Z</time>
      </trkpt>
      <trkpt lat="45.20764" lon="6.40664">
        <ele>1958.34</ele>
        <time>2009-08-01T12:07:17Z</time>
      </trkpt>
      <trkpt lat="45.2074" lon="6.40645">
        <ele>1960.27</ele>
        <time>2009-08-01T12:07:30Z</time>
      </trkpt>
      <trkpt lat="45.20712" lon="6.40636">
        <ele>1961.23</ele>
        <time>2009-08-01T12:07:42Z</time>
      </trkpt>
      <trkpt lat="45.207" lon="6.40623">
        <ele>1962.67</ele>
        <time>2009-08-01T12:07:50Z</time>
      </trkpt>
      <trkpt lat="45.2067" lon="6.40619">
        <ele>1964.11</ele>
        <time>2009-08-01T12:08:01Z</time>
      </trkpt>
      <trkpt lat="45.20646" lon="6.40607">
        <ele>1965.55</ele>
        <time>2009-08-01T12:08:12Z</time>
      </trkpt>
      <trkpt lat="45.20621" lon="6.40597">
        <ele>1967.96</ele>
        <time>2009-08-01T12:08:24Z</time>
      </trkpt>
      <trkpt lat="45.20596" lon="6.40586">
        <ele>1969.88</ele>
        <time>2009-08-01T12:08:35Z</time>
      </trkpt>
      <trkpt lat="45.20567" lon="6.40574">
        <ele>1972.28</ele>
        <time>2009-08-01T12:08:48Z</time>
      </trkpt>
      <trkpt lat="45.20538" lon="6.40556">
        <ele>1973.72</ele>
        <time>2009-08-01T12:09:01Z</time>
      </trkpt>
      <trkpt lat="45.20509" lon="6.40535">
        <ele>1976.13</ele>
        <time>2009-08-01T12:09:14Z</time>
      </trkpt>
      <trkpt lat="45.20489" lon="6.40521">
        <ele>1979.01</ele>
        <time>2009-08-01T12:09:26Z</time>
      </trkpt>
      <trkpt lat="45.20457" lon="6.40501">
        <ele>1981.9</ele>
        <time>2009-08-01T12:09:43Z</time>
      </trkpt>
      <trkpt lat="45.20435" lon="6.40491">
        <ele>1985.74</ele>
        <time>2009-08-01T12:09:55Z</time>
      </trkpt>
      <trkpt lat="45.20425" lon="6.40476">
        <ele>1986.7</ele>
        <time>2009-08-01T12:10:04Z</time>
      </trkpt>
      <trkpt lat="45.20436" lon="6.40466">
        <ele>1988.14</ele>
        <time>2009-08-01T12:10:17Z</time>
      </trkpt>
      <trkpt lat="45.20444" lon="6.40464">
        <ele>1988.14</ele>
        <time>2009-08-01T12:10:28Z</time>
      </trkpt>
      <trkpt lat="45.20437" lon="6.40466">
        <ele>1987.66</ele>
        <time>2009-08-01T12:10:42Z</time>
      </trkpt>
      <trkpt lat="45.20445" lon="6.40458">
        <ele>1988.62</ele>
        <time>2009-08-01T12:10:47Z</time>
      </trkpt>
      <trkpt lat="45.2047" lon="6.40447">
        <ele>1990.07</ele>
        <time>2009-08-01T12:10:59Z</time>
      </trkpt>
      <trkpt lat="45.20479" lon="6.40446">
        <ele>1984.78</ele>
        <time>2009-08-01T12:11:04Z</time>
      </trkpt>
      <trkpt lat="45.20481" lon="6.40445">
        <ele>1991.03</ele>
        <time>2009-08-01T12:11:05Z</time>
      </trkpt>
      <trkpt lat="45.20506" lon="6.40438">
        <ele>1991.99</ele>
        <time>2009-08-01T12:11:18Z</time>
      </trkpt>
      <trkpt lat="45.20531" lon="6.4043">
        <ele>1994.87</ele>
        <time>2009-08-01T12:11:31Z</time>
      </trkpt>
      <trkpt lat="45.20563" lon="6.4042">
        <ele>1997.76</ele>
        <time>2009-08-01T12:11:47Z</time>
      </trkpt>
      <trkpt lat="45.20592" lon="6.40412">
        <ele>2000.64</ele>
        <time>2009-08-01T12:12:02Z</time>
      </trkpt>
      <trkpt lat="45.20625" lon="6.40419">
        <ele>2003.04</ele>
        <time>2009-08-01T12:12:17Z</time>
      </trkpt>
      <trkpt lat="45.20653" lon="6.40437">
        <ele>2005.45</ele>
        <time>2009-08-01T12:12:32Z</time>
      </trkpt>
      <trkpt lat="45.20677" lon="6.40447">
        <ele>2007.85</ele>
        <time>2009-08-01T12:12:45Z</time>
      </trkpt>
      <trkpt lat="45.20706" lon="6.40464">
        <ele>2010.73</ele>
        <time>2009-08-01T12:13:01Z</time>
      </trkpt>
      <trkpt lat="45.20729" lon="6.40471">
        <ele>2012.66</ele>
        <time>2009-08-01T12:13:16Z</time>
      </trkpt>
      <trkpt lat="45.2076" lon="6.40467">
        <ele>2015.54</ele>
        <time>2009-08-01T12:13:29Z</time>
      </trkpt>
      <trkpt lat="45.20786" lon="6.40456">
        <ele>2017.94</ele>
        <time>2009-08-01T12:13:44Z</time>
      </trkpt>
      <trkpt lat="45.20796" lon="6.40448">
        <ele>2018.91</ele>
        <time>2009-08-01T12:13:50Z</time>
      </trkpt>
      <trkpt lat="45.20795" lon="6.40447">
        <ele>2019.39</ele>
        <time>2009-08-01T12:13:51Z</time>
      </trkpt>
      <trkpt lat="45.20819" lon="6.40445">
        <ele>2020.83</ele>
        <time>2009-08-01T12:14:01Z</time>
      </trkpt>
      <trkpt lat="45.20847" lon="6.4043">
        <ele>2023.71</ele>
        <time>2009-08-01T12:14:15Z</time>
      </trkpt>
      <trkpt lat="45.20875" lon="6.40423">
        <ele>2026.12</ele>
        <time>2009-08-01T12:14:30Z</time>
      </trkpt>
      <trkpt lat="45.20902" lon="6.40421">
        <ele>2028.52</ele>
        <time>2009-08-01T12:14:45Z</time>
      </trkpt>
      <trkpt lat="45.20903" lon="6.4042">
        <ele>2028.52</ele>
        <time>2009-08-01T12:14:46Z</time>
      </trkpt>
      <trkpt lat="45.20941" lon="6.40417">
        <ele>2031.4</ele>
        <time>2009-08-01T12:15:02Z</time>
      </trkpt>
      <trkpt lat="45.20968" lon="6.40421">
        <ele>2034.29</ele>
        <time>2009-08-01T12:15:16Z</time>
      </trkpt>
      <trkpt lat="45.20992" lon="6.40392">
        <ele>2036.69</ele>
        <time>2009-08-01T12:15:32Z</time>
      </trkpt>
      <trkpt lat="45.21007" lon="6.40373">
        <ele>2038.61</ele>
        <time>2009-08-01T12:15:42Z</time>
      </trkpt>
      <trkpt lat="45.21032" lon="6.40353">
        <ele>2041.02</ele>
        <time>2009-08-01T12:15:57Z</time>
      </trkpt>
      <trkpt lat="45.2106" lon="6.40343">
        <ele>2043.42</ele>
        <time>2009-08-01T12:16:11Z</time>
      </trkpt>
      <trkpt lat="45.21082" lon="6.40335">
        <ele>2046.78</ele>
        <time>2009-08-01T12:16:21Z</time>
      </trkpt>
      <trkpt lat="45.21102" lon="6.40322">
        <ele>2048.23</ele>
        <time>2009-08-01T12:16:33Z</time>
      </trkpt>
      <trkpt lat="45.2112" lon="6.40307">
        <ele>2050.15</ele>
        <time>2009-08-01T12:16:45Z</time>
      </trkpt>
      <trkpt lat="45.21146" lon="6.40289">
        <ele>2052.55</ele>
        <time>2009-08-01T12:16:58Z</time>
      </trkpt>
      <trkpt lat="45.21168" lon="6.40273">
        <ele>2055.44</ele>
        <time>2009-08-01T12:17:12Z</time>
      </trkpt>
      <trkpt lat="45.21181" lon="6.40261">
        <ele>2057.84</ele>
        <time>2009-08-01T12:17:25Z</time>
      </trkpt>
      <trkpt lat="45.21187" lon="6.40259">
        <ele>2059.76</ele>
        <time>2009-08-01T12:17:30Z</time>
      </trkpt>
      <trkpt lat="45.21205" lon="6.40246">
        <ele>2062.65</ele>
        <time>2009-08-01T12:17:46Z</time>
      </trkpt>
      <trkpt lat="45.21215" lon="6.40237">
        <ele>2066.01</ele>
        <time>2009-08-01T12:17:57Z</time>
      </trkpt>
      <trkpt lat="45.21227" lon="6.4023">
        <ele>2068.89</ele>
        <time>2009-08-01T12:18:11Z</time>
      </trkpt>
      <trkpt lat="45.21236" lon="6.40216">
        <ele>2070.82</ele>
        <time>2009-08-01T12:18:24Z</time>
      </trkpt>
      <trkpt lat="45.21243" lon="6.40206">
        <ele>2071.78</ele>
        <time>2009-08-01T12:18:37Z</time>
      </trkpt>
      <trkpt lat="45.21255" lon="6.40193">
        <ele>2071.78</ele>
        <time>2009-08-01T12:18:51Z</time>
      </trkpt>
      <trkpt lat="45.21277" lon="6.40174">
        <ele>2072.74</ele>
        <time>2009-08-01T12:19:03Z</time>
      </trkpt>
      <trkpt lat="45.21295" lon="6.40159">
        <ele>2074.66</ele>
        <time>2009-08-01T12:19:15Z</time>
      </trkpt>
      <trkpt lat="45.21297" lon="6.40154">
        <ele>2075.14</ele>
        <time>2009-08-01T12:19:17Z</time>
      </trkpt>
      <trkpt lat="45.21294" lon="6.40146">
        <ele>2076.1</ele>
        <time>2009-08-01T12:19:22Z</time>
      </trkpt>
      <trkpt lat="45.21271" lon="6.40154">
        <ele>2079.47</ele>
        <time>2009-08-01T12:19:37Z</time>
      </trkpt>
      <trkpt lat="45.21251" lon="6.40162">
        <ele>2081.87</ele>
        <time>2009-08-01T12:19:49Z</time>
      </trkpt>
      <trkpt lat="45.21228" lon="6.40165">
        <ele>2084.28</ele>
        <time>2009-08-01T12:20:03Z</time>
      </trkpt>
      <trkpt lat="45.21226" lon="6.40164">
        <ele>2083.79</ele>
        <time>2009-08-01T12:20:05Z</time>
      </trkpt>
      <trkpt lat="45.21216" lon="6.4016">
        <ele>2082.83</ele>
        <time>2009-08-01T12:20:10Z</time>
      </trkpt>
      <trkpt lat="45.21215" lon="6.40158">
        <ele>2085.24</ele>
        <time>2009-08-01T12:20:12Z</time>
      </trkpt>
      <trkpt lat="45.2121" lon="6.40155">
        <ele>2085.24</ele>
        <time>2009-08-01T12:20:14Z</time>
      </trkpt>
      <trkpt lat="45.21209" lon="6.40146">
        <ele>2086.68</ele>
        <time>2009-08-01T12:20:20Z</time>
      </trkpt>
      <trkpt lat="45.21203" lon="6.40132">
        <ele>2089.56</ele>
        <time>2009-08-01T12:20:34Z</time>
      </trkpt>
      <trkpt lat="45.21198" lon="6.40112">
        <ele>2092.45</ele>
        <time>2009-08-01T12:20:48Z</time>
      </trkpt>
      <trkpt lat="45.21195" lon="6.40109">
        <ele>2088.12</ele>
        <time>2009-08-01T12:20:53Z</time>
      </trkpt>
      <trkpt lat="45.21193" lon="6.40112">
        <ele>2093.41</ele>
        <time>2009-08-01T12:20:54Z</time>
      </trkpt>
      <trkpt lat="45.21178" lon="6.40118">
        <ele>2094.85</ele>
        <time>2009-08-01T12:21:06Z</time>
      </trkpt>
      <trkpt lat="45.21176" lon="6.4012">
        <ele>2094.37</ele>
        <time>2009-08-01T12:21:08Z</time>
      </trkpt>
      <trkpt lat="45.21163" lon="6.40143">
        <ele>2097.73</ele>
        <time>2009-08-01T12:21:21Z</time>
      </trkpt>
      <trkpt lat="45.21148" lon="6.40162">
        <ele>2100.14</ele>
        <time>2009-08-01T12:21:33Z</time>
      </trkpt>
      <trkpt lat="45.21142" lon="6.40166">
        <ele>2100.62</ele>
        <time>2009-08-01T12:21:37Z</time>
      </trkpt>
      <trkpt lat="45.21112" lon="6.40172">
        <ele>2103.02</ele>
        <time>2009-08-01T12:21:53Z</time>
      </trkpt>
      <trkpt lat="45.21086" lon="6.40165">
        <ele>2104.94</ele>
        <time>2009-08-01T12:22:05Z</time>
      </trkpt>
      <trkpt lat="45.21063" lon="6.40149">
        <ele>2105.91</ele>
        <time>2009-08-01T12:22:19Z</time>
      </trkpt>
      <trkpt lat="45.21032" lon="6.40125">
        <ele>2105.91</ele>
        <time>2009-08-01T12:22:33Z</time>
      </trkpt>
      <trkpt lat="45.20998" lon="6.40123">
        <ele>2106.87</ele>
        <time>2009-08-01T12:22:46Z</time>
      </trkpt>
      <trkpt lat="45.20974" lon="6.40124">
        <ele>2110.23</ele>
        <time>2009-08-01T12:22:58Z</time>
      </trkpt>
      <trkpt lat="45.20941" lon="6.40136">
        <ele>2113.12</ele>
        <time>2009-08-01T12:23:14Z</time>
      </trkpt>
      <trkpt lat="45.20919" lon="6.40136">
        <ele>2116.48</ele>
        <time>2009-08-01T12:23:27Z</time>
      </trkpt>
      <trkpt lat="45.2089" lon="6.40128">
        <ele>2118.4</ele>
        <time>2009-08-01T12:23:42Z</time>
      </trkpt>
      <trkpt lat="45.20865" lon="6.40119">
        <ele>2121.77</ele>
        <time>2009-08-01T12:23:57Z</time>
      </trkpt>
      <trkpt lat="45.20843" lon="6.40095">
        <ele>2123.69</ele>
        <time>2009-08-01T12:24:12Z</time>
      </trkpt>
      <trkpt lat="45.20828" lon="6.40061">
        <ele>2125.61</ele>
        <time>2009-08-01T12:24:26Z</time>
      </trkpt>
      <trkpt lat="45.20814" lon="6.40034">
        <ele>2128.02</ele>
        <time>2009-08-01T12:24:39Z</time>
      </trkpt>
      <trkpt lat="45.20805" lon="6.40018">
        <ele>2131.38</ele>
        <time>2009-08-01T12:24:52Z</time>
      </trkpt>
      <trkpt lat="45.20799" lon="6.39999">
        <ele>2134.26</ele>
        <time>2009-08-01T12:25:06Z</time>
      </trkpt>
      <trkpt lat="45.20789" lon="6.3999">
        <ele>2135.23</ele>
        <time>2009-08-01T12:25:14Z</time>
      </trkpt>
      <trkpt lat="45.20776" lon="6.3997">
        <ele>2136.67</ele>
        <time>2009-08-01T12:25:26Z</time>
      </trkpt>
      <trkpt lat="45.20773" lon="6.39966">
        <ele>2137.15</ele>
        <time>2009-08-01T12:25:29Z</time>
      </trkpt>
      <trkpt lat="45.20767" lon="6.39959">
        <ele>2137.63</ele>
        <time>2009-08-01T12:25:33Z</time>
      </trkpt>
      <trkpt lat="45.20742" lon="6.39931">
        <ele>2140.51</ele>
        <time>2009-08-01T12:25:49Z</time>
      </trkpt>
      <trkpt lat="45.20711" lon="6.39904">
        <ele>2143.4</ele>
        <time>2009-08-01T12:26:07Z</time>
      </trkpt>
      <trkpt lat="45.20701" lon="6.39898">
        <ele>2143.88</ele>
        <time>2009-08-01T12:26:13Z</time>
      </trkpt>
      <trkpt lat="45.20696" lon="6.39892">
        <ele>2145.32</ele>
        <time>2009-08-01T12:26:23Z</time>
      </trkpt>
      <trkpt lat="45.20681" lon="6.39886">
        <ele>2148.68</ele>
        <time>2009-08-01T12:26:36Z</time>
      </trkpt>
      <trkpt lat="45.20661" lon="6.39876">
        <ele>2151.57</ele>
        <time>2009-08-01T12:26:52Z</time>
      </trkpt>
      <trkpt lat="45.20644" lon="6.39867">
        <ele>2154.93</ele>
        <time>2009-08-01T12:27:08Z</time>
      </trkpt>
      <trkpt lat="45.20637" lon="6.3986">
        <ele>2155.89</ele>
        <time>2009-08-01T12:27:15Z</time>
      </trkpt>
      <trkpt lat="45.20627" lon="6.39847">
        <ele>2158.3</ele>
        <time>2009-08-01T12:27:28Z</time>
      </trkpt>
      <trkpt lat="45.20608" lon="6.39842">
        <ele>2162.14</ele>
        <time>2009-08-01T12:27:46Z</time>
      </trkpt>
      <trkpt lat="45.20608" lon="6.3984">
        <ele>2163.1</ele>
        <time>2009-08-01T12:27:51Z</time>
      </trkpt>
      <trkpt lat="45.20595" lon="6.39831">
        <ele>2164.06</ele>
        <time>2009-08-01T12:28:05Z</time>
      </trkpt>
      <trkpt lat="45.20593" lon="6.39828">
        <ele>2164.55</ele>
        <time>2009-08-01T12:28:09Z</time>
      </trkpt>
      <trkpt lat="45.20588" lon="6.39828">
        <ele>2164.06</ele>
        <time>2009-08-01T12:28:14Z</time>
      </trkpt>
      <trkpt lat="45.20555" lon="6.39823">
        <ele>2165.99</ele>
        <time>2009-08-01T12:28:29Z</time>
      </trkpt>
      <trkpt lat="45.20552" lon="6.39819">
        <ele>2165.99</ele>
        <time>2009-08-01T12:28:32Z</time>
      </trkpt>
      <trkpt lat="45.20545" lon="6.3979">
        <ele>2166.95</ele>
        <time>2009-08-01T12:28:44Z</time>
      </trkpt>
      <trkpt lat="45.20547" lon="6.39785">
        <ele>2168.39</ele>
        <time>2009-08-01T12:28:50Z</time>
      </trkpt>
      <trkpt lat="45.20557" lon="6.39779">
        <ele>2171.27</ele>
        <time>2009-08-01T12:29:05Z</time>
      </trkpt>
      <trkpt lat="45.20569" lon="6.39777">
        <ele>2174.16</ele>
        <time>2009-08-01T12:29:18Z</time>
      </trkpt>
      <trkpt lat="45.20569" lon="6.39776">
        <ele>2174.64</ele>
        <time>2009-08-01T12:29:19Z</time>
      </trkpt>
      <trkpt lat="45.20578" lon="6.39769">
        <ele>2176.56</ele>
        <time>2009-08-01T12:29:31Z</time>
      </trkpt>
      <trkpt lat="45.20582" lon="6.39766">
        <ele>2177.04</ele>
        <time>2009-08-01T12:29:35Z</time>
      </trkpt>
      <trkpt lat="45.20576" lon="6.39761">
        <ele>2178.48</ele>
        <time>2009-08-01T12:29:41Z</time>
      </trkpt>
      <trkpt lat="45.20573" lon="6.39747">
        <ele>2181.37</ele>
        <time>2009-08-01T12:29:53Z</time>
      </trkpt>
      <trkpt lat="45.20565" lon="6.39733">
        <ele>2184.73</ele>
        <time>2009-08-01T12:30:10Z</time>
      </trkpt>
      <trkpt lat="45.20556" lon="6.39717">
        <ele>2187.62</ele>
        <time>2009-08-01T12:30:25Z</time>
      </trkpt>
      <trkpt lat="45.20554" lon="6.39709">
        <ele>2188.1</ele>
        <time>2009-08-01T12:30:30Z</time>
      </trkpt>
      <trkpt lat="45.20547" lon="6.39695">
        <ele>2190.5</ele>
        <time>2009-08-01T12:30:41Z</time>
      </trkpt>
      <trkpt lat="45.20534" lon="6.39675">
        <ele>2192.9</ele>
        <time>2009-08-01T12:30:57Z</time>
      </trkpt>
      <trkpt lat="45.20523" lon="6.39654">
        <ele>2195.79</ele>
        <time>2009-08-01T12:31:15Z</time>
      </trkpt>
      <trkpt lat="45.20521" lon="6.39652">
        <ele>2196.27</ele>
        <time>2009-08-01T12:31:17Z</time>
      </trkpt>
      <trkpt lat="45.20518" lon="6.39648">
        <ele>2197.23</ele>
        <time>2009-08-01T12:31:20Z</time>
      </trkpt>
      <trkpt lat="45.20515" lon="6.3964">
        <ele>2198.67</ele>
        <time>2009-08-01T12:31:27Z</time>
      </trkpt>
      <trkpt lat="45.20508" lon="6.39625">
        <ele>2200.59</ele>
        <time>2009-08-01T12:31:39Z</time>
      </trkpt>
      <trkpt lat="45.20499" lon="6.39608">
        <ele>2203</ele>
        <time>2009-08-01T12:31:55Z</time>
      </trkpt>
      <trkpt lat="45.20494" lon="6.39597">
        <ele>2204.44</ele>
        <time>2009-08-01T12:32:03Z</time>
      </trkpt>
      <trkpt lat="45.20491" lon="6.39592">
        <ele>2205.88</ele>
        <time>2009-08-01T12:32:09Z</time>
      </trkpt>
      <trkpt lat="45.20491" lon="6.39592">
        <ele>2204.92</ele>
        <time>2009-08-01T12:32:11Z</time>
      </trkpt>
      <trkpt lat="45.20486" lon="6.39576">
        <ele>2205.88</ele>
        <time>2009-08-01T12:32:36Z</time>
      </trkpt>
      <trkpt lat="45.20476" lon="6.39546">
        <ele>2209.25</ele>
        <time>2009-08-01T12:32:50Z</time>
      </trkpt>
      <trkpt lat="45.20474" lon="6.3953">
        <ele>2210.69</ele>
        <time>2009-08-01T12:32:56Z</time>
      </trkpt>
      <trkpt lat="45.20473" lon="6.39526">
        <ele>2210.69</ele>
        <time>2009-08-01T12:32:58Z</time>
      </trkpt>
      <trkpt lat="45.20466" lon="6.39513">
        <ele>2212.13</ele>
        <time>2009-08-01T12:33:06Z</time>
      </trkpt>
      <trkpt lat="45.20457" lon="6.39486">
        <ele>2214.53</ele>
        <time>2009-08-01T12:33:20Z</time>
      </trkpt>
      <trkpt lat="45.20451" lon="6.39463">
        <ele>2217.42</ele>
        <time>2009-08-01T12:33:33Z</time>
      </trkpt>
      <trkpt lat="45.20447" lon="6.39443">
        <ele>2218.86</ele>
        <time>2009-08-01T12:33:42Z</time>
      </trkpt>
      <trkpt lat="45.2044" lon="6.39424">
        <ele>2220.3</ele>
        <time>2009-08-01T12:33:51Z</time>
      </trkpt>
      <trkpt lat="45.20432" lon="6.39386">
        <ele>2223.19</ele>
        <time>2009-08-01T12:34:07Z</time>
      </trkpt>
      <trkpt lat="45.20428" lon="6.3937">
        <ele>2224.15</ele>
        <time>2009-08-01T12:34:13Z</time>
      </trkpt>
      <trkpt lat="45.20427" lon="6.39362">
        <ele>2225.11</ele>
        <time>2009-08-01T12:34:17Z</time>
      </trkpt>
      <trkpt lat="45.20424" lon="6.39317">
        <ele>2227.99</ele>
        <time>2009-08-01T12:34:32Z</time>
      </trkpt>
      <trkpt lat="45.20421" lon="6.39287">
        <ele>2230.4</ele>
        <time>2009-08-01T12:34:45Z</time>
      </trkpt>
      <trkpt lat="45.20418" lon="6.3928">
        <ele>2230.88</ele>
        <time>2009-08-01T12:34:49Z</time>
      </trkpt>
      <trkpt lat="45.20419" lon="6.39263">
        <ele>2233.28</ele>
        <time>2009-08-01T12:34:55Z</time>
      </trkpt>
      <trkpt lat="45.20417" lon="6.39233">
        <ele>2236.16</ele>
        <time>2009-08-01T12:35:09Z</time>
      </trkpt>
      <trkpt lat="45.20396" lon="6.39214">
        <ele>2238.09</ele>
        <time>2009-08-01T12:35:22Z</time>
      </trkpt>
      <trkpt lat="45.20388" lon="6.39193">
        <ele>2240.01</ele>
        <time>2009-08-01T12:35:33Z</time>
      </trkpt>
      <trkpt lat="45.20385" lon="6.39192">
        <ele>2240.49</ele>
        <time>2009-08-01T12:35:34Z</time>
      </trkpt>
      <trkpt lat="45.20382" lon="6.39166">
        <ele>2242.41</ele>
        <time>2009-08-01T12:35:47Z</time>
      </trkpt>
      <trkpt lat="45.20369" lon="6.3914">
        <ele>2244.82</ele>
        <time>2009-08-01T12:35:59Z</time>
      </trkpt>
      <trkpt lat="45.20365" lon="6.3913">
        <ele>2245.78</ele>
        <time>2009-08-01T12:36:05Z</time>
      </trkpt>
      <trkpt lat="45.20357" lon="6.39093">
        <ele>2248.18</ele>
        <time>2009-08-01T12:36:22Z</time>
      </trkpt>
      <trkpt lat="45.20356" lon="6.39081">
        <ele>2249.14</ele>
        <time>2009-08-01T12:36:27Z</time>
      </trkpt>
      <trkpt lat="45.20342" lon="6.39049">
        <ele>2250.58</ele>
        <time>2009-08-01T12:36:42Z</time>
      </trkpt>
      <trkpt lat="45.20337" lon="6.39038">
        <ele>2252.03</ele>
        <time>2009-08-01T12:36:55Z</time>
      </trkpt>
      <trkpt lat="45.20337" lon="6.39038">
        <ele>2252.03</ele>
        <time>2009-08-01T12:36:56Z</time>
      </trkpt>
      <trkpt lat="45.20337" lon="6.39038">
        <ele>2252.99</ele>
        <time>2009-08-01T12:37:06Z</time>
      </trkpt>
      <trkpt lat="45.20337" lon="6.39036">
        <ele>2252.03</ele>
        <time>2009-08-01T12:37:10Z</time>
      </trkpt>
      <trkpt lat="45.20336" lon="6.39034">
        <ele>2252.03</ele>
        <time>2009-08-01T12:37:13Z</time>
      </trkpt>
      <trkpt lat="45.20334" lon="6.39031">
        <ele>2253.47</ele>
        <time>2009-08-01T12:37:16Z</time>
      </trkpt>
      <trkpt lat="45.20325" lon="6.39011">
        <ele>2255.87</ele>
        <time>2009-08-01T12:37:31Z</time>
      </trkpt>
      <trkpt lat="45.20318" lon="6.38994">
        <ele>2259.24</ele>
        <time>2009-08-01T12:37:46Z</time>
      </trkpt>
      <trkpt lat="45.2032" lon="6.38991">
        <ele>2259.24</ele>
        <time>2009-08-01T12:37:51Z</time>
      </trkpt>
      <trkpt lat="45.20321" lon="6.38983">
        <ele>2259.72</ele>
        <time>2009-08-01T12:37:55Z</time>
      </trkpt>
      <trkpt lat="45.20323" lon="6.38953">
        <ele>2263.08</ele>
        <time>2009-08-01T12:38:09Z</time>
      </trkpt>
      <trkpt lat="45.20323" lon="6.38937">
        <ele>2265.96</ele>
        <time>2009-08-01T12:38:24Z</time>
      </trkpt>
      <trkpt lat="45.20327" lon="6.38933">
        <ele>2268.85</ele>
        <time>2009-08-01T12:38:37Z</time>
      </trkpt>
      <trkpt lat="45.20337" lon="6.38926">
        <ele>2269.81</ele>
        <time>2009-08-01T12:38:55Z</time>
      </trkpt>
      <trkpt lat="45.2034" lon="6.38926">
        <ele>2270.77</ele>
        <time>2009-08-01T12:38:59Z</time>
      </trkpt>
      <trkpt lat="45.20354" lon="6.38927">
        <ele>2271.73</ele>
        <time>2009-08-01T12:39:12Z</time>
      </trkpt>
      <trkpt lat="45.20371" lon="6.38956">
        <ele>2274.14</ele>
        <time>2009-08-01T12:39:27Z</time>
      </trkpt>
      <trkpt lat="45.20385" lon="6.38996">
        <ele>2275.58</ele>
        <time>2009-08-01T12:39:43Z</time>
      </trkpt>
      <trkpt lat="45.20397" lon="6.39041">
        <ele>2277.98</ele>
        <time>2009-08-01T12:39:57Z</time>
      </trkpt>
      <trkpt lat="45.20412" lon="6.39077">
        <ele>2279.42</ele>
        <time>2009-08-01T12:40:10Z</time>
      </trkpt>
      <trkpt lat="45.20434" lon="6.3912">
        <ele>2281.35</ele>
        <time>2009-08-01T12:40:25Z</time>
      </trkpt>
      <trkpt lat="45.2045" lon="6.39148">
        <ele>2282.31</ele>
        <time>2009-08-01T12:40:36Z</time>
      </trkpt>
      <trkpt lat="45.20473" lon="6.39185">
        <ele>2284.23</ele>
        <time>2009-08-01T12:40:50Z</time>
      </trkpt>
      <trkpt lat="45.20489" lon="6.39228">
        <ele>2287.11</ele>
        <time>2009-08-01T12:41:06Z</time>
      </trkpt>
      <trkpt lat="45.20506" lon="6.39256">
        <ele>2290</ele>
        <time>2009-08-01T12:41:21Z</time>
      </trkpt>
      <trkpt lat="45.20515" lon="6.39279">
        <ele>2292.88</ele>
        <time>2009-08-01T12:41:35Z</time>
      </trkpt>
      <trkpt lat="45.20523" lon="6.39301">
        <ele>2295.28</ele>
        <time>2009-08-01T12:41:50Z</time>
      </trkpt>
      <trkpt lat="45.2053" lon="6.39322">
        <ele>2298.65</ele>
        <time>2009-08-01T12:42:05Z</time>
      </trkpt>
      <trkpt lat="45.2054" lon="6.39338">
        <ele>2302.01</ele>
        <time>2009-08-01T12:42:21Z</time>
      </trkpt>
      <trkpt lat="45.2054" lon="6.39344">
        <ele>2302.49</ele>
        <time>2009-08-01T12:42:25Z</time>
      </trkpt>
      <trkpt lat="45.20555" lon="6.39353">
        <ele>2304.9</ele>
        <time>2009-08-01T12:42:40Z</time>
      </trkpt>
      <trkpt lat="45.20565" lon="6.3936">
        <ele>2308.26</ele>
        <time>2009-08-01T12:42:55Z</time>
      </trkpt>
      <trkpt lat="45.2058" lon="6.39365">
        <ele>2311.15</ele>
        <time>2009-08-01T12:43:12Z</time>
      </trkpt>
      <trkpt lat="45.20593" lon="6.39366">
        <ele>2314.03</ele>
        <time>2009-08-01T12:43:27Z</time>
      </trkpt>
      <trkpt lat="45.20611" lon="6.39374">
        <ele>2316.91</ele>
        <time>2009-08-01T12:43:44Z</time>
      </trkpt>
      <trkpt lat="45.20609" lon="6.39378">
        <ele>2318.84</ele>
        <time>2009-08-01T12:44:03Z</time>
      </trkpt>
      <trkpt lat="45.20609" lon="6.39378">
        <ele>2317.88</ele>
        <time>2009-08-01T12:44:07Z</time>
      </trkpt>
      <trkpt lat="45.20609" lon="6.39378">
        <ele>2314.99</ele>
        <time>2009-08-01T12:44:17Z</time>
      </trkpt>
      <trkpt lat="45.20609" lon="6.39378">
        <ele>2317.88</ele>
        <time>2009-08-01T12:44:20Z</time>
      </trkpt>
      <trkpt lat="45.20622" lon="6.39379">
        <ele>2320.76</ele>
        <time>2009-08-01T12:44:42Z</time>
      </trkpt>
      <trkpt lat="45.20633" lon="6.39383">
        <ele>2323.64</ele>
        <time>2009-08-01T12:44:55Z</time>
      </trkpt>
      <trkpt lat="45.20648" lon="6.39378">
        <ele>2327.01</ele>
        <time>2009-08-01T12:45:12Z</time>
      </trkpt>
      <trkpt lat="45.20659" lon="6.39374">
        <ele>2328.93</ele>
        <time>2009-08-01T12:45:26Z</time>
      </trkpt>
      <trkpt lat="45.20661" lon="6.39369">
        <ele>2330.37</ele>
        <time>2009-08-01T12:45:40Z</time>
      </trkpt>
      <trkpt lat="45.20673" lon="6.39358">
        <ele>2333.74</ele>
        <time>2009-08-01T12:45:54Z</time>
      </trkpt>
      <trkpt lat="45.20684" lon="6.39345">
        <ele>2336.62</ele>
        <time>2009-08-01T12:46:12Z</time>
      </trkpt>
      <trkpt lat="45.20684" lon="6.39344">
        <ele>2336.62</ele>
        <time>2009-08-01T12:46:13Z</time>
      </trkpt>
      <trkpt lat="45.20689" lon="6.39329">
        <ele>2339.99</ele>
        <time>2009-08-01T12:46:29Z</time>
      </trkpt>
      <trkpt lat="45.20689" lon="6.39306">
        <ele>2342.87</ele>
        <time>2009-08-01T12:46:46Z</time>
      </trkpt>
      <trkpt lat="45.20687" lon="6.3929">
        <ele>2345.27</ele>
        <time>2009-08-01T12:47:03Z</time>
      </trkpt>
      <trkpt lat="45.20686" lon="6.39277">
        <ele>2347.68</ele>
        <time>2009-08-01T12:47:23Z</time>
      </trkpt>
      <trkpt lat="45.20678" lon="6.39265">
        <ele>2349.6</ele>
        <time>2009-08-01T12:47:35Z</time>
      </trkpt>
      <trkpt lat="45.20679" lon="6.39242">
        <ele>2352.48</ele>
        <time>2009-08-01T12:47:51Z</time>
      </trkpt>
      <trkpt lat="45.20676" lon="6.39239">
        <ele>2352.96</ele>
        <time>2009-08-01T12:47:53Z</time>
      </trkpt>
      <trkpt lat="45.20672" lon="6.39218">
        <ele>2356.33</ele>
        <time>2009-08-01T12:48:10Z</time>
      </trkpt>
      <trkpt lat="45.20668" lon="6.3921">
        <ele>2358.25</ele>
        <time>2009-08-01T12:48:27Z</time>
      </trkpt>
      <trkpt lat="45.20665" lon="6.39195">
        <ele>2361.62</ele>
        <time>2009-08-01T12:48:41Z</time>
      </trkpt>
      <trkpt lat="45.20657" lon="6.39187">
        <ele>2364.5</ele>
        <time>2009-08-01T12:48:56Z</time>
      </trkpt>
      <trkpt lat="45.20652" lon="6.3918">
        <ele>2366.42</ele>
        <time>2009-08-01T12:49:02Z</time>
      </trkpt>
      <trkpt lat="45.20643" lon="6.39165">
        <ele>2369.79</ele>
        <time>2009-08-01T12:49:19Z</time>
      </trkpt>
      <trkpt lat="45.20632" lon="6.39153">
        <ele>2372.67</ele>
        <time>2009-08-01T12:49:36Z</time>
      </trkpt>
      <trkpt lat="45.20619" lon="6.39143">
        <ele>2375.07</ele>
        <time>2009-08-01T12:49:53Z</time>
      </trkpt>
      <trkpt lat="45.20616" lon="6.39138">
        <ele>2375.07</ele>
        <time>2009-08-01T12:50:10Z</time>
      </trkpt>
      <trkpt lat="45.20617" lon="6.39132">
        <ele>2376.04</ele>
        <time>2009-08-01T12:50:15Z</time>
      </trkpt>
      <trkpt lat="45.20616" lon="6.39114">
        <ele>2379.4</ele>
        <time>2009-08-01T12:50:27Z</time>
      </trkpt>
      <trkpt lat="45.20609" lon="6.39089">
        <ele>2381.32</ele>
        <time>2009-08-01T12:50:44Z</time>
      </trkpt>
      <trkpt lat="45.206" lon="6.39066">
        <ele>2384.69</ele>
        <time>2009-08-01T12:51:01Z</time>
      </trkpt>
      <trkpt lat="45.20596" lon="6.39053">
        <ele>2385.65</ele>
        <time>2009-08-01T12:51:10Z</time>
      </trkpt>
      <trkpt lat="45.20592" lon="6.39038">
        <ele>2387.57</ele>
        <time>2009-08-01T12:51:20Z</time>
      </trkpt>
      <trkpt lat="45.20589" lon="6.39033">
        <ele>2387.57</ele>
        <time>2009-08-01T12:51:22Z</time>
      </trkpt>
      <trkpt lat="45.20584" lon="6.38997">
        <ele>2390.94</ele>
        <time>2009-08-01T12:51:38Z</time>
      </trkpt>
      <trkpt lat="45.20582" lon="6.38952">
        <ele>2391.42</ele>
        <time>2009-08-01T12:51:53Z</time>
      </trkpt>
      <trkpt lat="45.20576" lon="6.389">
        <ele>2392.38</ele>
        <time>2009-08-01T12:52:09Z</time>
      </trkpt>
      <trkpt lat="45.20569" lon="6.38835">
        <ele>2393.34</ele>
        <time>2009-08-01T12:52:26Z</time>
      </trkpt>
      <trkpt lat="45.20566" lon="6.38785">
        <ele>2394.3</ele>
        <time>2009-08-01T12:52:39Z</time>
      </trkpt>
      <trkpt lat="45.20561" lon="6.38748">
        <ele>2397.67</ele>
        <time>2009-08-01T12:52:50Z</time>
      </trkpt>
      <trkpt lat="45.20558" lon="6.38737">
        <ele>2399.59</ele>
        <time>2009-08-01T12:52:54Z</time>
      </trkpt>
      <trkpt lat="45.20557" lon="6.38719">
        <ele>2402.95</ele>
        <time>2009-08-01T12:53:00Z</time>
      </trkpt>
      <trkpt lat="45.20556" lon="6.38704">
        <ele>2404.88</ele>
        <time>2009-08-01T12:53:06Z</time>
      </trkpt>
      <trkpt lat="45.20557" lon="6.38694">
        <ele>2406.8</ele>
        <time>2009-08-01T12:53:10Z</time>
      </trkpt>
      <trkpt lat="45.20561" lon="6.3868">
        <ele>2408.72</ele>
        <time>2009-08-01T12:53:21Z</time>
      </trkpt>
      <trkpt lat="45.20562" lon="6.38682">
        <ele>2408.72</ele>
        <time>2009-08-01T13:04:17Z</time>
      </trkpt>
      <trkpt lat="45.20563" lon="6.38682">
        <ele>2408.72</ele>
        <time>2009-08-01T13:06:55Z</time>
      </trkpt>
      <trkpt lat="45.20563" lon="6.38682">
        <ele>2408.72</ele>
        <time>2009-08-01T13:08:24Z</time>
      </trkpt>
      <trkpt lat="45.20559" lon="6.38681">
        <ele>2410.64</ele>
        <time>2009-08-01T13:11:51Z</time>
      </trkpt>
      <trkpt lat="45.20559" lon="6.38681">
        <ele>2407.28</ele>
        <time>2009-08-01T13:11:56Z</time>
      </trkpt>
      <trkpt lat="45.20559" lon="6.38681">
        <ele>2410.16</ele>
        <time>2009-08-01T13:11:59Z</time>
      </trkpt>
      <trkpt lat="45.20562" lon="6.38676">
        <ele>2409.68</ele>
        <time>2009-08-01T13:12:25Z</time>
      </trkpt>
      <trkpt lat="45.20566" lon="6.38669">
        <ele>2409.68</ele>
        <time>2009-08-01T13:12:42Z</time>
      </trkpt>
      <trkpt lat="45.2057" lon="6.38664">
        <ele>2409.68</ele>
        <time>2009-08-01T13:12:45Z</time>
      </trkpt>
      <trkpt lat="45.2058" lon="6.38661">
        <ele>2409.68</ele>
        <time>2009-08-01T13:12:58Z</time>
      </trkpt>
      <trkpt lat="45.20603" lon="6.38651">
        <ele>2408.24</ele>
        <time>2009-08-01T13:13:09Z</time>
      </trkpt>
      <trkpt lat="45.20626" lon="6.38642">
        <ele>2405.36</ele>
        <time>2009-08-01T13:13:13Z</time>
      </trkpt>
      <trkpt lat="45.20633" lon="6.38639">
        <ele>2405.36</ele>
        <time>2009-08-01T13:13:14Z</time>
      </trkpt>
      <trkpt lat="45.20665" lon="6.38636">
        <ele>2401.99</ele>
        <time>2009-08-01T13:13:18Z</time>
      </trkpt>
      <trkpt lat="45.20691" lon="6.38638">
        <ele>2400.07</ele>
        <time>2009-08-01T13:13:21Z</time>
      </trkpt>
      <trkpt lat="45.207" lon="6.3864">
        <ele>2399.11</ele>
        <time>2009-08-01T13:13:22Z</time>
      </trkpt>
      <trkpt lat="45.20724" lon="6.38649">
        <ele>2396.7</ele>
        <time>2009-08-01T13:13:25Z</time>
      </trkpt>
      <trkpt lat="45.2075" lon="6.38657">
        <ele>2393.82</ele>
        <time>2009-08-01T13:13:29Z</time>
      </trkpt>
      <trkpt lat="45.20757" lon="6.38658">
        <ele>2393.82</ele>
        <time>2009-08-01T13:13:30Z</time>
      </trkpt>
      <trkpt lat="45.20764" lon="6.38659">
        <ele>2392.86</ele>
        <time>2009-08-01T13:13:31Z</time>
      </trkpt>
      <trkpt lat="45.20771" lon="6.38658">
        <ele>2392.38</ele>
        <time>2009-08-01T13:13:32Z</time>
      </trkpt>
      <trkpt lat="45.20777" lon="6.38656">
        <ele>2391.9</ele>
        <time>2009-08-01T13:13:33Z</time>
      </trkpt>
      <trkpt lat="45.20784" lon="6.38652">
        <ele>2391.42</ele>
        <time>2009-08-01T13:13:34Z</time>
      </trkpt>
      <trkpt lat="45.2079" lon="6.38646">
        <ele>2390.46</ele>
        <time>2009-08-01T13:13:35Z</time>
      </trkpt>
      <trkpt lat="45.20797" lon="6.3864">
        <ele>2389.97</ele>
        <time>2009-08-01T13:13:36Z</time>
      </trkpt>
      <trkpt lat="45.20815" lon="6.38622">
        <ele>2388.05</ele>
        <time>2009-08-01T13:13:39Z</time>
      </trkpt>
      <trkpt lat="45.20819" lon="6.38616">
        <ele>2386.61</ele>
        <time>2009-08-01T13:13:40Z</time>
      </trkpt>
      <trkpt lat="45.20826" lon="6.38603">
        <ele>2385.17</ele>
        <time>2009-08-01T13:13:42Z</time>
      </trkpt>
      <trkpt lat="45.20829" lon="6.38596">
        <ele>2384.69</ele>
        <time>2009-08-01T13:13:43Z</time>
      </trkpt>
      <trkpt lat="45.20835" lon="6.3858">
        <ele>2383.73</ele>
        <time>2009-08-01T13:13:45Z</time>
      </trkpt>
      <trkpt lat="45.20838" lon="6.38572">
        <ele>2383.73</ele>
        <time>2009-08-01T13:13:46Z</time>
      </trkpt>
      <trkpt lat="45.20842" lon="6.38565">
        <ele>2382.28</ele>
        <time>2009-08-01T13:13:47Z</time>
      </trkpt>
      <trkpt lat="45.20846" lon="6.38558">
        <ele>2381.8</ele>
        <time>2009-08-01T13:13:48Z</time>
      </trkpt>
      <trkpt lat="45.2085" lon="6.3855">
        <ele>2381.8</ele>
        <time>2009-08-01T13:13:49Z</time>
      </trkpt>
      <trkpt lat="45.20855" lon="6.38543">
        <ele>2380.84</ele>
        <time>2009-08-01T13:13:50Z</time>
      </trkpt>
      <trkpt lat="45.20863" lon="6.38529">
        <ele>2379.88</ele>
        <time>2009-08-01T13:13:52Z</time>
      </trkpt>
      <trkpt lat="45.20879" lon="6.38505">
        <ele>2377</ele>
        <time>2009-08-01T13:13:56Z</time>
      </trkpt>
      <trkpt lat="45.20882" lon="6.38499">
        <ele>2377</ele>
        <time>2009-08-01T13:13:57Z</time>
      </trkpt>
      <trkpt lat="45.20884" lon="6.38492">
        <ele>2376.04</ele>
        <time>2009-08-01T13:13:58Z</time>
      </trkpt>
      <trkpt lat="45.20887" lon="6.38485">
        <ele>2375.55</ele>
        <time>2009-08-01T13:13:59Z</time>
      </trkpt>
      <trkpt lat="45.20889" lon="6.38478">
        <ele>2375.07</ele>
        <time>2009-08-01T13:14:00Z</time>
      </trkpt>
      <trkpt lat="45.20892" lon="6.3847">
        <ele>2374.11</ele>
        <time>2009-08-01T13:14:01Z</time>
      </trkpt>
      <trkpt lat="45.20899" lon="6.38443">
        <ele>2371.23</ele>
        <time>2009-08-01T13:14:05Z</time>
      </trkpt>
      <trkpt lat="45.20899" lon="6.38437">
        <ele>2370.75</ele>
        <time>2009-08-01T13:14:06Z</time>
      </trkpt>
      <trkpt lat="45.20902" lon="6.38416">
        <ele>2367.38</ele>
        <time>2009-08-01T13:14:09Z</time>
      </trkpt>
      <trkpt lat="45.20904" lon="6.3841">
        <ele>2367.38</ele>
        <time>2009-08-01T13:14:10Z</time>
      </trkpt>
      <trkpt lat="45.20907" lon="6.38404">
        <ele>2366.9</ele>
        <time>2009-08-01T13:14:11Z</time>
      </trkpt>
      <trkpt lat="45.20912" lon="6.38399">
        <ele>2365.46</ele>
        <time>2009-08-01T13:14:12Z</time>
      </trkpt>
      <trkpt lat="45.20917" lon="6.38394">
        <ele>2364.02</ele>
        <time>2009-08-01T13:14:13Z</time>
      </trkpt>
      <trkpt lat="45.20923" lon="6.38391">
        <ele>2363.06</ele>
        <time>2009-08-01T13:14:14Z</time>
      </trkpt>
      <trkpt lat="45.2093" lon="6.38391">
        <ele>2361.62</ele>
        <time>2009-08-01T13:14:15Z</time>
      </trkpt>
      <trkpt lat="45.20937" lon="6.38392">
        <ele>2360.65</ele>
        <time>2009-08-01T13:14:16Z</time>
      </trkpt>
      <trkpt lat="45.20944" lon="6.38395">
        <ele>2359.69</ele>
        <time>2009-08-01T13:14:17Z</time>
      </trkpt>
      <trkpt lat="45.20951" lon="6.38398">
        <ele>2358.73</ele>
        <time>2009-08-01T13:14:18Z</time>
      </trkpt>
      <trkpt lat="45.20959" lon="6.38403">
        <ele>2358.25</ele>
        <time>2009-08-01T13:14:19Z</time>
      </trkpt>
      <trkpt lat="45.20966" lon="6.38407">
        <ele>2358.25</ele>
        <time>2009-08-01T13:14:20Z</time>
      </trkpt>
      <trkpt lat="45.20981" lon="6.38413">
        <ele>2357.77</ele>
        <time>2009-08-01T13:14:22Z</time>
      </trkpt>
      <trkpt lat="45.20988" lon="6.38413">
        <ele>2357.29</ele>
        <time>2009-08-01T13:14:23Z</time>
      </trkpt>
      <trkpt lat="45.21044" lon="6.38397">
        <ele>2359.21</ele>
        <time>2009-08-01T13:14:33Z</time>
      </trkpt>
      <trkpt lat="45.21046" lon="6.38396">
        <ele>2359.21</ele>
        <time>2009-08-01T13:14:34Z</time>
      </trkpt>
      <trkpt lat="45.21072" lon="6.38376">
        <ele>2361.62</ele>
        <time>2009-08-01T13:14:49Z</time>
      </trkpt>
      <trkpt lat="45.21101" lon="6.38364">
        <ele>2364.02</ele>
        <time>2009-08-01T13:15:04Z</time>
      </trkpt>
      <trkpt lat="45.21132" lon="6.38362">
        <ele>2365.94</ele>
        <time>2009-08-01T13:15:18Z</time>
      </trkpt>
      <trkpt lat="45.21156" lon="6.38361">
        <ele>2367.86</ele>
        <time>2009-08-01T13:15:29Z</time>
      </trkpt>
      <trkpt lat="45.21174" lon="6.38359">
        <ele>2371.23</ele>
        <time>2009-08-01T13:15:41Z</time>
      </trkpt>
      <trkpt lat="45.21198" lon="6.38354">
        <ele>2373.15</ele>
        <time>2009-08-01T13:15:56Z</time>
      </trkpt>
      <trkpt lat="45.21226" lon="6.38359">
        <ele>2374.59</ele>
        <time>2009-08-01T13:16:13Z</time>
      </trkpt>
      <trkpt lat="45.21244" lon="6.38371">
        <ele>2376.52</ele>
        <time>2009-08-01T13:16:25Z</time>
      </trkpt>
      <trkpt lat="45.21245" lon="6.3837">
        <ele>2377</ele>
        <time>2009-08-01T13:16:26Z</time>
      </trkpt>
      <trkpt lat="45.21262" lon="6.3838">
        <ele>2377.96</ele>
        <time>2009-08-01T13:16:39Z</time>
      </trkpt>
      <trkpt lat="45.21264" lon="6.38379">
        <ele>2378.44</ele>
        <time>2009-08-01T13:16:53Z</time>
      </trkpt>
      <trkpt lat="45.21264" lon="6.38379">
        <ele>2378.44</ele>
        <time>2009-08-01T13:18:45Z</time>
      </trkpt>
      <trkpt lat="45.21266" lon="6.38381">
        <ele>2379.4</ele>
        <time>2009-08-01T13:19:09Z</time>
      </trkpt>
      <trkpt lat="45.21271" lon="6.38384">
        <ele>2381.8</ele>
        <time>2009-08-01T13:19:23Z</time>
      </trkpt>
      <trkpt lat="45.21277" lon="6.38387">
        <ele>2384.21</ele>
        <time>2009-08-01T13:19:37Z</time>
      </trkpt>
      <trkpt lat="45.21278" lon="6.38387">
        <ele>2385.17</ele>
        <time>2009-08-01T13:19:51Z</time>
      </trkpt>
      <trkpt lat="45.21285" lon="6.38388">
        <ele>2388.05</ele>
        <time>2009-08-01T13:20:03Z</time>
      </trkpt>
      <trkpt lat="45.2129" lon="6.38389">
        <ele>2389.49</ele>
        <time>2009-08-01T13:20:18Z</time>
      </trkpt>
      <trkpt lat="45.21296" lon="6.38384">
        <ele>2391.42</ele>
        <time>2009-08-01T13:20:31Z</time>
      </trkpt>
      <trkpt lat="45.21299" lon="6.38384">
        <ele>2392.38</ele>
        <time>2009-08-01T13:20:43Z</time>
      </trkpt>
      <trkpt lat="45.21306" lon="6.38383">
        <ele>2394.3</ele>
        <time>2009-08-01T13:20:55Z</time>
      </trkpt>
      <trkpt lat="45.21309" lon="6.38381">
        <ele>2394.3</ele>
        <time>2009-08-01T13:21:09Z</time>
      </trkpt>
      <trkpt lat="45.21312" lon="6.38379">
        <ele>2395.74</ele>
        <time>2009-08-01T13:21:23Z</time>
      </trkpt>
      <trkpt lat="45.21315" lon="6.3838">
        <ele>2395.26</ele>
        <time>2009-08-01T13:22:35Z</time>
      </trkpt>
      <trkpt lat="45.21314" lon="6.38379">
        <ele>2395.26</ele>
        <time>2009-08-01T13:23:09Z</time>
      </trkpt>
      <trkpt lat="45.21309" lon="6.38386">
        <ele>2394.3</ele>
        <time>2009-08-01T13:23:25Z</time>
      </trkpt>
      <trkpt lat="45.21307" lon="6.38386">
        <ele>2394.3</ele>
        <time>2009-08-01T13:23:26Z</time>
      </trkpt>
      <trkpt lat="45.21305" lon="6.38385">
        <ele>2392.86</ele>
        <time>2009-08-01T13:23:27Z</time>
      </trkpt>
      <trkpt lat="45.21295" lon="6.38388">
        <ele>2390.46</ele>
        <time>2009-08-01T13:23:32Z</time>
      </trkpt>
      <trkpt lat="45.21293" lon="6.38389">
        <ele>2390.46</ele>
        <time>2009-08-01T13:23:33Z</time>
      </trkpt>
      <trkpt lat="45.21289" lon="6.38389">
        <ele>2388.53</ele>
        <time>2009-08-01T13:23:40Z</time>
      </trkpt>
      <trkpt lat="45.21288" lon="6.38392">
        <ele>2387.57</ele>
        <time>2009-08-01T13:23:43Z</time>
      </trkpt>
      <trkpt lat="45.21278" lon="6.38389">
        <ele>2384.69</ele>
        <time>2009-08-01T13:23:53Z</time>
      </trkpt>
      <trkpt lat="45.21274" lon="6.3839">
        <ele>2383.73</ele>
        <time>2009-08-01T13:23:55Z</time>
      </trkpt>
      <trkpt lat="45.21269" lon="6.38383">
        <ele>2381.8</ele>
        <time>2009-08-01T13:24:09Z</time>
      </trkpt>
      <trkpt lat="45.21268" lon="6.38381">
        <ele>2380.84</ele>
        <time>2009-08-01T13:24:10Z</time>
      </trkpt>
      <trkpt lat="45.21266" lon="6.38381">
        <ele>2380.36</ele>
        <time>2009-08-01T13:24:11Z</time>
      </trkpt>
      <trkpt lat="45.21264" lon="6.3838">
        <ele>2379.4</ele>
        <time>2009-08-01T13:24:12Z</time>
      </trkpt>
      <trkpt lat="45.21263" lon="6.38379">
        <ele>2378.92</ele>
        <time>2009-08-01T13:24:13Z</time>
      </trkpt>
      <trkpt lat="45.21265" lon="6.38372">
        <ele>2378.92</ele>
        <time>2009-08-01T13:24:17Z</time>
      </trkpt>
      <trkpt lat="45.21277" lon="6.38363">
        <ele>2378.92</ele>
        <time>2009-08-01T13:24:32Z</time>
      </trkpt>
      <trkpt lat="45.21277" lon="6.3836">
        <ele>2378.44</ele>
        <time>2009-08-01T13:24:34Z</time>
      </trkpt>
      <trkpt lat="45.21283" lon="6.38356">
        <ele>2377.96</ele>
        <time>2009-08-01T13:24:39Z</time>
      </trkpt>
      <trkpt lat="45.21285" lon="6.38352">
        <ele>2377.48</ele>
        <time>2009-08-01T13:24:42Z</time>
      </trkpt>
      <trkpt lat="45.21289" lon="6.38349">
        <ele>2377.96</ele>
        <time>2009-08-01T13:24:55Z</time>
      </trkpt>
      <trkpt lat="45.21304" lon="6.38343">
        <ele>2376.52</ele>
        <time>2009-08-01T13:25:23Z</time>
      </trkpt>
      <trkpt lat="45.21307" lon="6.38339">
        <ele>2376.52</ele>
        <time>2009-08-01T13:25:38Z</time>
      </trkpt>
      <trkpt lat="45.21307" lon="6.38336">
        <ele>2376.52</ele>
        <time>2009-08-01T13:25:52Z</time>
      </trkpt>
      <trkpt lat="45.21306" lon="6.38333">
        <ele>2376.04</ele>
        <time>2009-08-01T13:26:46Z</time>
      </trkpt>
      <trkpt lat="45.21308" lon="6.38331">
        <ele>2376.52</ele>
        <time>2009-08-01T13:29:09Z</time>
      </trkpt>
      <trkpt lat="45.21316" lon="6.38332">
        <ele>2376.52</ele>
        <time>2009-08-01T13:29:13Z</time>
      </trkpt>
      <trkpt lat="45.21335" lon="6.38327">
        <ele>2373.63</ele>
        <time>2009-08-01T13:29:18Z</time>
      </trkpt>
      <trkpt lat="45.21345" lon="6.38324">
        <ele>2371.71</ele>
        <time>2009-08-01T13:29:20Z</time>
      </trkpt>
      <trkpt lat="45.2135" lon="6.38321">
        <ele>2370.75</ele>
        <time>2009-08-01T13:29:21Z</time>
      </trkpt>
      <trkpt lat="45.21355" lon="6.3832">
        <ele>2370.75</ele>
        <time>2009-08-01T13:29:22Z</time>
      </trkpt>
      <trkpt lat="45.21358" lon="6.38318">
        <ele>2369.31</ele>
        <time>2009-08-01T13:29:23Z</time>
      </trkpt>
      <trkpt lat="45.21361" lon="6.38317">
        <ele>2368.83</ele>
        <time>2009-08-01T13:29:24Z</time>
      </trkpt>
      <trkpt lat="45.21364" lon="6.38317">
        <ele>2367.86</ele>
        <time>2009-08-01T13:29:25Z</time>
      </trkpt>
      <trkpt lat="45.21367" lon="6.38316">
        <ele>2366.9</ele>
        <time>2009-08-01T13:29:26Z</time>
      </trkpt>
      <trkpt lat="45.21369" lon="6.38313">
        <ele>2365.46</ele>
        <time>2009-08-01T13:29:27Z</time>
      </trkpt>
      <trkpt lat="45.21375" lon="6.38307">
        <ele>2363.54</ele>
        <time>2009-08-01T13:29:29Z</time>
      </trkpt>
      <trkpt lat="45.21378" lon="6.38301">
        <ele>2361.62</ele>
        <time>2009-08-01T13:29:30Z</time>
      </trkpt>
      <trkpt lat="45.21381" lon="6.38295">
        <ele>2360.65</ele>
        <time>2009-08-01T13:29:31Z</time>
      </trkpt>
      <trkpt lat="45.21384" lon="6.3829">
        <ele>2359.69</ele>
        <time>2009-08-01T13:29:32Z</time>
      </trkpt>
      <trkpt lat="45.21388" lon="6.38287">
        <ele>2358.73</ele>
        <time>2009-08-01T13:29:33Z</time>
      </trkpt>
      <trkpt lat="45.21391" lon="6.38287">
        <ele>2358.73</ele>
        <time>2009-08-01T13:29:34Z</time>
      </trkpt>
      <trkpt lat="45.21394" lon="6.38289">
        <ele>2358.73</ele>
        <time>2009-08-01T13:29:35Z</time>
      </trkpt>
      <trkpt lat="45.21398" lon="6.3829">
        <ele>2358.25</ele>
        <time>2009-08-01T13:29:36Z</time>
      </trkpt>
      <trkpt lat="45.21402" lon="6.38291">
        <ele>2358.25</ele>
        <time>2009-08-01T13:29:37Z</time>
      </trkpt>
      <trkpt lat="45.21406" lon="6.3829">
        <ele>2357.77</ele>
        <time>2009-08-01T13:29:38Z</time>
      </trkpt>
      <trkpt lat="45.2141" lon="6.38288">
        <ele>2356.33</ele>
        <time>2009-08-01T13:29:41Z</time>
      </trkpt>
      <trkpt lat="45.21412" lon="6.38286">
        <ele>2355.37</ele>
        <time>2009-08-01T13:29:42Z</time>
      </trkpt>
      <trkpt lat="45.21413" lon="6.38284">
        <ele>2355.37</ele>
        <time>2009-08-01T13:29:43Z</time>
      </trkpt>
      <trkpt lat="45.21415" lon="6.38282">
        <ele>2354.89</ele>
        <time>2009-08-01T13:29:44Z</time>
      </trkpt>
      <trkpt lat="45.21417" lon="6.3828">
        <ele>2354.41</ele>
        <time>2009-08-01T13:29:45Z</time>
      </trkpt>
      <trkpt lat="45.21419" lon="6.38277">
        <ele>2354.41</ele>
        <time>2009-08-01T13:29:46Z</time>
      </trkpt>
      <trkpt lat="45.21421" lon="6.38274">
        <ele>2353.93</ele>
        <time>2009-08-01T13:29:47Z</time>
      </trkpt>
      <trkpt lat="45.21422" lon="6.38272">
        <ele>2352.96</ele>
        <time>2009-08-01T13:29:48Z</time>
      </trkpt>
      <trkpt lat="45.21424" lon="6.3827">
        <ele>2352.48</ele>
        <time>2009-08-01T13:29:49Z</time>
      </trkpt>
      <trkpt lat="45.21427" lon="6.38267">
        <ele>2351.52</ele>
        <time>2009-08-01T13:29:51Z</time>
      </trkpt>
      <trkpt lat="45.21428" lon="6.38264">
        <ele>2350.08</ele>
        <time>2009-08-01T13:30:01Z</time>
      </trkpt>
      <trkpt lat="45.21428" lon="6.38262">
        <ele>2349.12</ele>
        <time>2009-08-01T13:30:12Z</time>
      </trkpt>
      <trkpt lat="45.21423" lon="6.38261">
        <ele>2347.68</ele>
        <time>2009-08-01T13:31:37Z</time>
      </trkpt>
      <trkpt lat="45.2143" lon="6.38249">
        <ele>2348.16</ele>
        <time>2009-08-01T13:31:57Z</time>
      </trkpt>
      <trkpt lat="45.21433" lon="6.38246">
        <ele>2347.2</ele>
        <time>2009-08-01T13:31:58Z</time>
      </trkpt>
      <trkpt lat="45.21434" lon="6.38243">
        <ele>2346.23</ele>
        <time>2009-08-01T13:31:59Z</time>
      </trkpt>
      <trkpt lat="45.21433" lon="6.38239">
        <ele>2345.27</ele>
        <time>2009-08-01T13:32:00Z</time>
      </trkpt>
      <trkpt lat="45.21436" lon="6.38236">
        <ele>2343.83</ele>
        <time>2009-08-01T13:32:01Z</time>
      </trkpt>
      <trkpt lat="45.21439" lon="6.3823">
        <ele>2341.91</ele>
        <time>2009-08-01T13:32:02Z</time>
      </trkpt>
      <trkpt lat="45.21443" lon="6.38227">
        <ele>2340.95</ele>
        <time>2009-08-01T13:32:03Z</time>
      </trkpt>
      <trkpt lat="45.21446" lon="6.38225">
        <ele>2340.47</ele>
        <time>2009-08-01T13:32:04Z</time>
      </trkpt>
      <trkpt lat="45.21449" lon="6.38224">
        <ele>2339.99</ele>
        <time>2009-08-01T13:32:05Z</time>
      </trkpt>
      <trkpt lat="45.2145" lon="6.38224">
        <ele>2339.02</ele>
        <time>2009-08-01T13:32:06Z</time>
      </trkpt>
      <trkpt lat="45.21453" lon="6.38224">
        <ele>2339.02</ele>
        <time>2009-08-01T13:32:07Z</time>
      </trkpt>
      <trkpt lat="45.21455" lon="6.38223">
        <ele>2338.54</ele>
        <time>2009-08-01T13:32:08Z</time>
      </trkpt>
      <trkpt lat="45.21459" lon="6.38221">
        <ele>2337.1</ele>
        <time>2009-08-01T13:32:11Z</time>
      </trkpt>
      <trkpt lat="45.21455" lon="6.38215">
        <ele>2334.7</ele>
        <time>2009-08-01T13:32:24Z</time>
      </trkpt>
      <trkpt lat="45.21459" lon="6.38202">
        <ele>2331.81</ele>
        <time>2009-08-01T13:32:38Z</time>
      </trkpt>
      <trkpt lat="45.21453" lon="6.382">
        <ele>2329.41</ele>
        <time>2009-08-01T13:32:47Z</time>
      </trkpt>
      <trkpt lat="45.21453" lon="6.38192">
        <ele>2327.49</ele>
        <time>2009-08-01T13:32:51Z</time>
      </trkpt>
      <trkpt lat="45.21455" lon="6.38192">
        <ele>2326.05</ele>
        <time>2009-08-01T13:33:01Z</time>
      </trkpt>
      <trkpt lat="45.21461" lon="6.38192">
        <ele>2324.61</ele>
        <time>2009-08-01T13:33:50Z</time>
      </trkpt>
      <trkpt lat="45.21461" lon="6.38192">
        <ele>2324.12</ele>
        <time>2009-08-01T13:33:55Z</time>
      </trkpt>
      <trkpt lat="45.21463" lon="6.38191">
        <ele>2324.12</ele>
        <time>2009-08-01T13:33:56Z</time>
      </trkpt>
      <trkpt lat="45.21464" lon="6.38189">
        <ele>2323.64</ele>
        <time>2009-08-01T13:33:57Z</time>
      </trkpt>
      <trkpt lat="45.21466" lon="6.38188">
        <ele>2322.68</ele>
        <time>2009-08-01T13:33:58Z</time>
      </trkpt>
      <trkpt lat="45.21469" lon="6.38187">
        <ele>2321.72</ele>
        <time>2009-08-01T13:33:59Z</time>
      </trkpt>
      <trkpt lat="45.21472" lon="6.38186">
        <ele>2321.24</ele>
        <time>2009-08-01T13:34:00Z</time>
      </trkpt>
      <trkpt lat="45.21485" lon="6.38173">
        <ele>2318.36</ele>
        <time>2009-08-01T13:34:05Z</time>
      </trkpt>
      <trkpt lat="45.2149" lon="6.38168">
        <ele>2316.91</ele>
        <time>2009-08-01T13:34:06Z</time>
      </trkpt>
      <trkpt lat="45.21496" lon="6.38166">
        <ele>2316.43</ele>
        <time>2009-08-01T13:34:07Z</time>
      </trkpt>
      <trkpt lat="45.21501" lon="6.38165">
        <ele>2316.43</ele>
        <time>2009-08-01T13:34:08Z</time>
      </trkpt>
      <trkpt lat="45.21505" lon="6.38165">
        <ele>2316.91</ele>
        <time>2009-08-01T13:34:09Z</time>
      </trkpt>
      <trkpt lat="45.2151" lon="6.38165">
        <ele>2316.43</ele>
        <time>2009-08-01T13:34:10Z</time>
      </trkpt>
      <trkpt lat="45.21543" lon="6.38161">
        <ele>2317.88</ele>
        <time>2009-08-01T13:34:21Z</time>
      </trkpt>
      <trkpt lat="45.21572" lon="6.38153">
        <ele>2319.8</ele>
        <time>2009-08-01T13:34:34Z</time>
      </trkpt>
      <trkpt lat="45.2158" lon="6.38147">
        <ele>2319.32</ele>
        <time>2009-08-01T13:34:37Z</time>
      </trkpt>
      <trkpt lat="45.21584" lon="6.38146">
        <ele>2318.84</ele>
        <time>2009-08-01T13:34:38Z</time>
      </trkpt>
      <trkpt lat="45.21588" lon="6.38145">
        <ele>2318.36</ele>
        <time>2009-08-01T13:34:39Z</time>
      </trkpt>
      <trkpt lat="45.21591" lon="6.38143">
        <ele>2318.84</ele>
        <time>2009-08-01T13:34:40Z</time>
      </trkpt>
      <trkpt lat="45.21593" lon="6.38141">
        <ele>2318.84</ele>
        <time>2009-08-01T13:34:41Z</time>
      </trkpt>
      <trkpt lat="45.21595" lon="6.38141">
        <ele>2319.32</ele>
        <time>2009-08-01T13:34:42Z</time>
      </trkpt>
      <trkpt lat="45.21597" lon="6.3814">
        <ele>2319.32</ele>
        <time>2009-08-01T13:34:43Z</time>
      </trkpt>
      <trkpt lat="45.2162" lon="6.38129">
        <ele>2320.28</ele>
        <time>2009-08-01T13:34:54Z</time>
      </trkpt>
      <trkpt lat="45.21631" lon="6.38124">
        <ele>2319.32</ele>
        <time>2009-08-01T13:35:04Z</time>
      </trkpt>
      <trkpt lat="45.21632" lon="6.38122">
        <ele>2319.32</ele>
        <time>2009-08-01T13:35:05Z</time>
      </trkpt>
      <trkpt lat="45.21634" lon="6.38121">
        <ele>2319.32</ele>
        <time>2009-08-01T13:35:07Z</time>
      </trkpt>
      <trkpt lat="45.21634" lon="6.38117">
        <ele>2317.88</ele>
        <time>2009-08-01T13:35:17Z</time>
      </trkpt>
      <trkpt lat="45.21635" lon="6.38117">
        <ele>2316.91</ele>
        <time>2009-08-01T13:35:20Z</time>
      </trkpt>
      <trkpt lat="45.21637" lon="6.38117">
        <ele>2316.43</ele>
        <time>2009-08-01T13:35:21Z</time>
      </trkpt>
      <trkpt lat="45.2166" lon="6.38109">
        <ele>2315.95</ele>
        <time>2009-08-01T13:35:30Z</time>
      </trkpt>
      <trkpt lat="45.21685" lon="6.38108">
        <ele>2315.47</ele>
        <time>2009-08-01T13:35:36Z</time>
      </trkpt>
      <trkpt lat="45.21688" lon="6.38104">
        <ele>2315.47</ele>
        <time>2009-08-01T13:35:38Z</time>
      </trkpt>
      <trkpt lat="45.21689" lon="6.38104">
        <ele>2314.99</ele>
        <time>2009-08-01T13:35:39Z</time>
      </trkpt>
      <trkpt lat="45.21691" lon="6.38103">
        <ele>2315.47</ele>
        <time>2009-08-01T13:35:40Z</time>
      </trkpt>
      <trkpt lat="45.21693" lon="6.38102">
        <ele>2315.47</ele>
        <time>2009-08-01T13:35:41Z</time>
      </trkpt>
      <trkpt lat="45.21695" lon="6.38101">
        <ele>2315.47</ele>
        <time>2009-08-01T13:35:42Z</time>
      </trkpt>
      <trkpt lat="45.21697" lon="6.381">
        <ele>2315.95</ele>
        <time>2009-08-01T13:35:43Z</time>
      </trkpt>
      <trkpt lat="45.21698" lon="6.38099">
        <ele>2315.95</ele>
        <time>2009-08-01T13:35:44Z</time>
      </trkpt>
      <trkpt lat="45.217" lon="6.38098">
        <ele>2316.43</ele>
        <time>2009-08-01T13:35:45Z</time>
      </trkpt>
      <trkpt lat="45.21702" lon="6.38097">
        <ele>2316.43</ele>
        <time>2009-08-01T13:35:46Z</time>
      </trkpt>
      <trkpt lat="45.21704" lon="6.38095">
        <ele>2316.91</ele>
        <time>2009-08-01T13:35:47Z</time>
      </trkpt>
      <trkpt lat="45.21706" lon="6.38094">
        <ele>2316.91</ele>
        <time>2009-08-01T13:35:48Z</time>
      </trkpt>
      <trkpt lat="45.21707" lon="6.38093">
        <ele>2316.91</ele>
        <time>2009-08-01T13:35:49Z</time>
      </trkpt>
      <trkpt lat="45.21711" lon="6.38087">
        <ele>2318.36</ele>
        <time>2009-08-01T13:36:02Z</time>
      </trkpt>
      <trkpt lat="45.21717" lon="6.38082">
        <ele>2317.88</ele>
        <time>2009-08-01T13:36:12Z</time>
      </trkpt>
      <trkpt lat="45.21738" lon="6.38073">
        <ele>2320.76</ele>
        <time>2009-08-01T13:36:23Z</time>
      </trkpt>
      <trkpt lat="45.21738" lon="6.38072">
        <ele>2321.72</ele>
        <time>2009-08-01T13:36:36Z</time>
      </trkpt>
      <trkpt lat="45.21741" lon="6.38069">
        <ele>2322.68</ele>
        <time>2009-08-01T13:36:55Z</time>
      </trkpt>
      <trkpt lat="45.21748" lon="6.38063">
        <ele>2324.61</ele>
        <time>2009-08-01T13:37:07Z</time>
      </trkpt>
      <trkpt lat="45.21753" lon="6.38058">
        <ele>2326.53</ele>
        <time>2009-08-01T13:37:19Z</time>
      </trkpt>
      <trkpt lat="45.21764" lon="6.38053">
        <ele>2328.45</ele>
        <time>2009-08-01T13:37:34Z</time>
      </trkpt>
      <trkpt lat="45.21771" lon="6.38048">
        <ele>2330.37</ele>
        <time>2009-08-01T13:37:46Z</time>
      </trkpt>
      <trkpt lat="45.21782" lon="6.38044">
        <ele>2333.26</ele>
        <time>2009-08-01T13:38:02Z</time>
      </trkpt>
      <trkpt lat="45.21793" lon="6.38038">
        <ele>2335.18</ele>
        <time>2009-08-01T13:38:17Z</time>
      </trkpt>
      <trkpt lat="45.218" lon="6.3803">
        <ele>2337.58</ele>
        <time>2009-08-01T13:38:31Z</time>
      </trkpt>
      <trkpt lat="45.2181" lon="6.38025">
        <ele>2339.99</ele>
        <time>2009-08-01T13:38:45Z</time>
      </trkpt>
      <trkpt lat="45.21822" lon="6.38026">
        <ele>2340.95</ele>
        <time>2009-08-01T13:38:57Z</time>
      </trkpt>
      <trkpt lat="45.21825" lon="6.38025">
        <ele>2340.95</ele>
        <time>2009-08-01T13:38:59Z</time>
      </trkpt>
      <trkpt lat="45.21826" lon="6.38027">
        <ele>2340.95</ele>
        <time>2009-08-01T13:39:00Z</time>
      </trkpt>
      <trkpt lat="45.21833" lon="6.38023">
        <ele>2340.47</ele>
        <time>2009-08-01T13:39:14Z</time>
      </trkpt>
      <trkpt lat="45.2185" lon="6.3802">
        <ele>2341.43</ele>
        <time>2009-08-01T13:39:29Z</time>
      </trkpt>
      <trkpt lat="45.21873" lon="6.38019">
        <ele>2340.95</ele>
        <time>2009-08-01T13:39:41Z</time>
      </trkpt>
      <trkpt lat="45.21894" lon="6.38018">
        <ele>2341.91</ele>
        <time>2009-08-01T13:39:51Z</time>
      </trkpt>
      <trkpt lat="45.21897" lon="6.38017">
        <ele>2342.39</ele>
        <time>2009-08-01T13:39:54Z</time>
      </trkpt>
      <trkpt lat="45.21901" lon="6.38017">
        <ele>2341.91</ele>
        <time>2009-08-01T13:40:01Z</time>
      </trkpt>
      <trkpt lat="45.21908" lon="6.38015">
        <ele>2343.35</ele>
        <time>2009-08-01T13:40:11Z</time>
      </trkpt>
      <trkpt lat="45.21917" lon="6.38014">
        <ele>2345.27</ele>
        <time>2009-08-01T13:40:22Z</time>
      </trkpt>
      <trkpt lat="45.21918" lon="6.38015">
        <ele>2345.75</ele>
        <time>2009-08-01T13:40:23Z</time>
      </trkpt>
      <trkpt lat="45.21918" lon="6.38016">
        <ele>2345.75</ele>
        <time>2009-08-01T13:40:24Z</time>
      </trkpt>
      <trkpt lat="45.2192" lon="6.38016">
        <ele>2345.75</ele>
        <time>2009-08-01T13:40:25Z</time>
      </trkpt>
      <trkpt lat="45.21921" lon="6.38014">
        <ele>2345.75</ele>
        <time>2009-08-01T13:40:26Z</time>
      </trkpt>
      <trkpt lat="45.21936" lon="6.38016">
        <ele>2345.27</ele>
        <time>2009-08-01T13:40:41Z</time>
      </trkpt>
      <trkpt lat="45.21941" lon="6.38013">
        <ele>2346.23</ele>
        <time>2009-08-01T13:40:48Z</time>
      </trkpt>
      <trkpt lat="45.21941" lon="6.38013">
        <ele>2346.23</ele>
        <time>2009-08-01T13:40:49Z</time>
      </trkpt>
      <trkpt lat="45.21944" lon="6.38004">
        <ele>2347.68</ele>
        <time>2009-08-01T13:41:03Z</time>
      </trkpt>
      <trkpt lat="45.21942" lon="6.38003">
        <ele>2349.6</ele>
        <time>2009-08-01T13:41:07Z</time>
      </trkpt>
      <trkpt lat="45.21942" lon="6.37998">
        <ele>2353.44</ele>
        <time>2009-08-01T13:41:21Z</time>
      </trkpt>
      <trkpt lat="45.2194" lon="6.37988">
        <ele>2354.89</ele>
        <time>2009-08-01T13:41:32Z</time>
      </trkpt>
      <trkpt lat="45.21941" lon="6.37985">
        <ele>2353.44</ele>
        <time>2009-08-01T13:41:36Z</time>
      </trkpt>
      <trkpt lat="45.21941" lon="6.37983">
        <ele>2353.93</ele>
        <time>2009-08-01T13:41:37Z</time>
      </trkpt>
      <trkpt lat="45.21942" lon="6.37983">
        <ele>2353.93</ele>
        <time>2009-08-01T13:41:38Z</time>
      </trkpt>
      <trkpt lat="45.21944" lon="6.37981">
        <ele>2354.41</ele>
        <time>2009-08-01T13:41:39Z</time>
      </trkpt>
      <trkpt lat="45.21945" lon="6.37979">
        <ele>2353.93</ele>
        <time>2009-08-01T13:41:40Z</time>
      </trkpt>
      <trkpt lat="45.21944" lon="6.37972">
        <ele>2353.93</ele>
        <time>2009-08-01T13:41:45Z</time>
      </trkpt>
      <trkpt lat="45.21945" lon="6.37972">
        <ele>2354.41</ele>
        <time>2009-08-01T13:41:46Z</time>
      </trkpt>
      <trkpt lat="45.21947" lon="6.3797">
        <ele>2353.93</ele>
        <time>2009-08-01T13:41:47Z</time>
      </trkpt>
      <trkpt lat="45.21949" lon="6.37968">
        <ele>2355.85</ele>
        <time>2009-08-01T13:41:52Z</time>
      </trkpt>
      <trkpt lat="45.21957" lon="6.37962">
        <ele>2357.29</ele>
        <time>2009-08-01T13:42:05Z</time>
      </trkpt>
      <trkpt lat="45.21962" lon="6.37957">
        <ele>2360.17</ele>
        <time>2009-08-01T13:42:17Z</time>
      </trkpt>
      <trkpt lat="45.21975" lon="6.37957">
        <ele>2359.69</ele>
        <time>2009-08-01T13:42:30Z</time>
      </trkpt>
      <trkpt lat="45.21987" lon="6.37953">
        <ele>2361.62</ele>
        <time>2009-08-01T13:42:38Z</time>
      </trkpt>
      <trkpt lat="45.21998" lon="6.37948">
        <ele>2364.5</ele>
        <time>2009-08-01T13:42:45Z</time>
      </trkpt>
      <trkpt lat="45.22002" lon="6.37949">
        <ele>2364.02</ele>
        <time>2009-08-01T13:43:05Z</time>
      </trkpt>
      <trkpt lat="45.22002" lon="6.37948">
        <ele>2363.06</ele>
        <time>2009-08-01T13:45:59Z</time>
      </trkpt>
      <trkpt lat="45.22002" lon="6.37948">
        <ele>2362.58</ele>
        <time>2009-08-01T13:46:36Z</time>
      </trkpt>
      <trkpt lat="45.22002" lon="6.37948">
        <ele>2362.58</ele>
        <time>2009-08-01T13:47:19Z</time>
      </trkpt>
      <trkpt lat="45.22002" lon="6.37948">
        <ele>2363.06</ele>
        <time>2009-08-01T13:48:25Z</time>
      </trkpt>
      <trkpt lat="45.22003" lon="6.37948">
        <ele>2362.58</ele>
        <time>2009-08-01T13:49:23Z</time>
      </trkpt>
      <trkpt lat="45.22005" lon="6.37948">
        <ele>2363.54</ele>
        <time>2009-08-01T13:49:48Z</time>
      </trkpt>
      <trkpt lat="45.22009" lon="6.37948">
        <ele>2362.58</ele>
        <time>2009-08-01T13:50:00Z</time>
      </trkpt>
      <trkpt lat="45.22006" lon="6.3794">
        <ele>2361.14</ele>
        <time>2009-08-01T13:50:10Z</time>
      </trkpt>
      <trkpt lat="45.22009" lon="6.37937">
        <ele>2358.25</ele>
        <time>2009-08-01T13:50:16Z</time>
      </trkpt>
      <trkpt lat="45.22015" lon="6.37933">
        <ele>2354.89</ele>
        <time>2009-08-01T13:50:27Z</time>
      </trkpt>
      <trkpt lat="45.22022" lon="6.3793">
        <ele>2352</ele>
        <time>2009-08-01T13:50:39Z</time>
      </trkpt>
      <trkpt lat="45.22021" lon="6.37929">
        <ele>2351.52</ele>
        <time>2009-08-01T13:50:40Z</time>
      </trkpt>
      <trkpt lat="45.22023" lon="6.37927">
        <ele>2350.08</ele>
        <time>2009-08-01T13:50:53Z</time>
      </trkpt>
      <trkpt lat="45.22024" lon="6.37926">
        <ele>2350.08</ele>
        <time>2009-08-01T13:50:54Z</time>
      </trkpt>
      <trkpt lat="45.22027" lon="6.37924">
        <ele>2348.16</ele>
        <time>2009-08-01T13:51:05Z</time>
      </trkpt>
      <trkpt lat="45.22035" lon="6.37918">
        <ele>2346.72</ele>
        <time>2009-08-01T13:51:08Z</time>
      </trkpt>
      <trkpt lat="45.22039" lon="6.37919">
        <ele>2345.27</ele>
        <time>2009-08-01T13:51:09Z</time>
      </trkpt>
      <trkpt lat="45.22047" lon="6.37919">
        <ele>2344.79</ele>
        <time>2009-08-01T13:51:17Z</time>
      </trkpt>
      <trkpt lat="45.22053" lon="6.37919">
        <ele>2343.83</ele>
        <time>2009-08-01T13:51:24Z</time>
      </trkpt>
      <trkpt lat="45.22054" lon="6.37922">
        <ele>2343.35</ele>
        <time>2009-08-01T13:51:25Z</time>
      </trkpt>
      <trkpt lat="45.22056" lon="6.37923">
        <ele>2343.35</ele>
        <time>2009-08-01T13:51:26Z</time>
      </trkpt>
      <trkpt lat="45.22064" lon="6.37918">
        <ele>2341.91</ele>
        <time>2009-08-01T13:51:36Z</time>
      </trkpt>
      <trkpt lat="45.2206" lon="6.37913">
        <ele>2340.47</ele>
        <time>2009-08-01T13:51:49Z</time>
      </trkpt>
      <trkpt lat="45.22059" lon="6.37911">
        <ele>2339.51</ele>
        <time>2009-08-01T13:51:51Z</time>
      </trkpt>
      <trkpt lat="45.22059" lon="6.3791">
        <ele>2339.51</ele>
        <time>2009-08-01T13:51:52Z</time>
      </trkpt>
      <trkpt lat="45.2206" lon="6.37906">
        <ele>2339.02</ele>
        <time>2009-08-01T13:51:53Z</time>
      </trkpt>
      <trkpt lat="45.22059" lon="6.37903">
        <ele>2338.06</ele>
        <time>2009-08-01T13:52:16Z</time>
      </trkpt>
      <trkpt lat="45.22057" lon="6.37911">
        <ele>2338.06</ele>
        <time>2009-08-01T13:52:41Z</time>
      </trkpt>
      <trkpt lat="45.22056" lon="6.3791">
        <ele>2338.06</ele>
        <time>2009-08-01T13:52:57Z</time>
      </trkpt>
      <trkpt lat="45.22056" lon="6.3791">
        <ele>2338.06</ele>
        <time>2009-08-01T13:53:23Z</time>
      </trkpt>
      <trkpt lat="45.22056" lon="6.37907">
        <ele>2337.58</ele>
        <time>2009-08-01T13:53:33Z</time>
      </trkpt>
      <trkpt lat="45.22056" lon="6.37906">
        <ele>2337.1</ele>
        <time>2009-08-01T13:53:34Z</time>
      </trkpt>
      <trkpt lat="45.22055" lon="6.37903">
        <ele>2336.62</ele>
        <time>2009-08-01T13:53:35Z</time>
      </trkpt>
      <trkpt lat="45.22052" lon="6.379">
        <ele>2335.66</ele>
        <time>2009-08-01T13:53:38Z</time>
      </trkpt>
      <trkpt lat="45.22051" lon="6.37895">
        <ele>2331.81</ele>
        <time>2009-08-01T13:53:46Z</time>
      </trkpt>
      <trkpt lat="45.22053" lon="6.37894">
        <ele>2331.81</ele>
        <time>2009-08-01T13:53:47Z</time>
      </trkpt>
      <trkpt lat="45.22058" lon="6.37887">
        <ele>2329.41</ele>
        <time>2009-08-01T13:53:57Z</time>
      </trkpt>
      <trkpt lat="45.22057" lon="6.37885">
        <ele>2328.45</ele>
        <time>2009-08-01T13:53:58Z</time>
      </trkpt>
      <trkpt lat="45.22058" lon="6.37881">
        <ele>2327.97</ele>
        <time>2009-08-01T13:53:59Z</time>
      </trkpt>
      <trkpt lat="45.22062" lon="6.37878">
        <ele>2326.53</ele>
        <time>2009-08-01T13:54:00Z</time>
      </trkpt>
      <trkpt lat="45.22065" lon="6.37875">
        <ele>2325.09</ele>
        <time>2009-08-01T13:54:01Z</time>
      </trkpt>
      <trkpt lat="45.22076" lon="6.3787">
        <ele>2322.2</ele>
        <time>2009-08-01T13:54:05Z</time>
      </trkpt>
      <trkpt lat="45.22079" lon="6.37868">
        <ele>2320.76</ele>
        <time>2009-08-01T13:54:07Z</time>
      </trkpt>
      <trkpt lat="45.2208" lon="6.37867">
        <ele>2320.28</ele>
        <time>2009-08-01T13:54:08Z</time>
      </trkpt>
      <trkpt lat="45.2208" lon="6.37864">
        <ele>2318.84</ele>
        <time>2009-08-01T13:54:10Z</time>
      </trkpt>
      <trkpt lat="45.22081" lon="6.37863">
        <ele>2319.32</ele>
        <time>2009-08-01T13:54:11Z</time>
      </trkpt>
      <trkpt lat="45.22082" lon="6.37863">
        <ele>2318.36</ele>
        <time>2009-08-01T13:54:12Z</time>
      </trkpt>
      <trkpt lat="45.2208" lon="6.37859">
        <ele>2317.88</ele>
        <time>2009-08-01T13:54:13Z</time>
      </trkpt>
      <trkpt lat="45.22081" lon="6.37856">
        <ele>2316.43</ele>
        <time>2009-08-01T13:54:14Z</time>
      </trkpt>
      <trkpt lat="45.22084" lon="6.37853">
        <ele>2315.95</ele>
        <time>2009-08-01T13:54:15Z</time>
      </trkpt>
      <trkpt lat="45.22087" lon="6.37848">
        <ele>2314.51</ele>
        <time>2009-08-01T13:54:16Z</time>
      </trkpt>
      <trkpt lat="45.22089" lon="6.37845">
        <ele>2314.03</ele>
        <time>2009-08-01T13:54:17Z</time>
      </trkpt>
      <trkpt lat="45.22091" lon="6.37841">
        <ele>2312.59</ele>
        <time>2009-08-01T13:54:18Z</time>
      </trkpt>
      <trkpt lat="45.22094" lon="6.37838">
        <ele>2311.15</ele>
        <time>2009-08-01T13:54:19Z</time>
      </trkpt>
      <trkpt lat="45.22098" lon="6.37835">
        <ele>2311.63</ele>
        <time>2009-08-01T13:54:20Z</time>
      </trkpt>
      <trkpt lat="45.221" lon="6.37834">
        <ele>2311.63</ele>
        <time>2009-08-01T13:54:21Z</time>
      </trkpt>
      <trkpt lat="45.22101" lon="6.37833">
        <ele>2311.63</ele>
        <time>2009-08-01T13:54:22Z</time>
      </trkpt>
      <trkpt lat="45.22103" lon="6.37832">
        <ele>2311.63</ele>
        <time>2009-08-01T13:54:23Z</time>
      </trkpt>
      <trkpt lat="45.22104" lon="6.37831">
        <ele>2311.63</ele>
        <time>2009-08-01T13:54:24Z</time>
      </trkpt>
      <trkpt lat="45.22106" lon="6.3783">
        <ele>2311.15</ele>
        <time>2009-08-01T13:54:25Z</time>
      </trkpt>
      <trkpt lat="45.22114" lon="6.37827">
        <ele>2310.19</ele>
        <time>2009-08-01T13:54:29Z</time>
      </trkpt>
      <trkpt lat="45.22118" lon="6.37826">
        <ele>2309.22</ele>
        <time>2009-08-01T13:54:30Z</time>
      </trkpt>
      <trkpt lat="45.22122" lon="6.37825">
        <ele>2309.22</ele>
        <time>2009-08-01T13:54:31Z</time>
      </trkpt>
      <trkpt lat="45.22138" lon="6.37816">
        <ele>2312.11</ele>
        <time>2009-08-01T13:54:39Z</time>
      </trkpt>
      <trkpt lat="45.22145" lon="6.37814">
        <ele>2314.03</ele>
        <time>2009-08-01T13:54:50Z</time>
      </trkpt>
      <trkpt lat="45.22145" lon="6.37814">
        <ele>2314.03</ele>
        <time>2009-08-01T13:55:55Z</time>
      </trkpt>
      <trkpt lat="45.22145" lon="6.37815">
        <ele>2314.03</ele>
        <time>2009-08-01T13:56:38Z</time>
      </trkpt>
      <trkpt lat="45.22147" lon="6.37817">
        <ele>2314.51</ele>
        <time>2009-08-01T14:00:49Z</time>
      </trkpt>
      <trkpt lat="45.22148" lon="6.37818">
        <ele>2314.51</ele>
        <time>2009-08-01T14:00:50Z</time>
      </trkpt>
      <trkpt lat="45.22148" lon="6.37822">
        <ele>2313.55</ele>
        <time>2009-08-01T14:00:51Z</time>
      </trkpt>
      <trkpt lat="45.22146" lon="6.37825">
        <ele>2313.55</ele>
        <time>2009-08-01T14:00:52Z</time>
      </trkpt>
      <trkpt lat="45.22144" lon="6.3783">
        <ele>2312.59</ele>
        <time>2009-08-01T14:00:53Z</time>
      </trkpt>
      <trkpt lat="45.22144" lon="6.37832">
        <ele>2312.11</ele>
        <time>2009-08-01T14:00:54Z</time>
      </trkpt>
      <trkpt lat="45.22144" lon="6.37834">
        <ele>2311.63</ele>
        <time>2009-08-01T14:00:55Z</time>
      </trkpt>
      <trkpt lat="45.22144" lon="6.37836">
        <ele>2311.63</ele>
        <time>2009-08-01T14:00:56Z</time>
      </trkpt>
      <trkpt lat="45.22142" lon="6.37839">
        <ele>2311.63</ele>
        <time>2009-08-01T14:00:57Z</time>
      </trkpt>
      <trkpt lat="45.22141" lon="6.3784">
        <ele>2310.67</ele>
        <time>2009-08-01T14:00:58Z</time>
      </trkpt>
      <trkpt lat="45.22138" lon="6.37843">
        <ele>2309.7</ele>
        <time>2009-08-01T14:00:59Z</time>
      </trkpt>
      <trkpt lat="45.22136" lon="6.37847">
        <ele>2308.26</ele>
        <time>2009-08-01T14:01:00Z</time>
      </trkpt>
      <trkpt lat="45.22133" lon="6.3785">
        <ele>2306.82</ele>
        <time>2009-08-01T14:01:01Z</time>
      </trkpt>
      <trkpt lat="45.22131" lon="6.37854">
        <ele>2305.86</ele>
        <time>2009-08-01T14:01:02Z</time>
      </trkpt>
      <trkpt lat="45.22132" lon="6.37859">
        <ele>2305.38</ele>
        <time>2009-08-01T14:01:03Z</time>
      </trkpt>
      <trkpt lat="45.22133" lon="6.37861">
        <ele>2305.38</ele>
        <time>2009-08-01T14:01:04Z</time>
      </trkpt>
      <trkpt lat="45.22135" lon="6.37873">
        <ele>2302.01</ele>
        <time>2009-08-01T14:01:08Z</time>
      </trkpt>
      <trkpt lat="45.22135" lon="6.37876">
        <ele>2301.05</ele>
        <time>2009-08-01T14:01:09Z</time>
      </trkpt>
      <trkpt lat="45.22135" lon="6.3788">
        <ele>2300.57</ele>
        <time>2009-08-01T14:01:10Z</time>
      </trkpt>
      <trkpt lat="45.22134" lon="6.37885">
        <ele>2299.13</ele>
        <time>2009-08-01T14:01:11Z</time>
      </trkpt>
      <trkpt lat="45.22135" lon="6.37887">
        <ele>2298.65</ele>
        <time>2009-08-01T14:01:12Z</time>
      </trkpt>
      <trkpt lat="45.22134" lon="6.3789">
        <ele>2298.17</ele>
        <time>2009-08-01T14:01:13Z</time>
      </trkpt>
      <trkpt lat="45.22133" lon="6.3789">
        <ele>2298.17</ele>
        <time>2009-08-01T14:01:14Z</time>
      </trkpt>
      <trkpt lat="45.22133" lon="6.37891">
        <ele>2298.17</ele>
        <time>2009-08-01T14:01:15Z</time>
      </trkpt>
      <trkpt lat="45.22135" lon="6.37893">
        <ele>2297.21</ele>
        <time>2009-08-01T14:01:16Z</time>
      </trkpt>
      <trkpt lat="45.22135" lon="6.37897">
        <ele>2296.73</ele>
        <time>2009-08-01T14:01:17Z</time>
      </trkpt>
      <trkpt lat="45.22137" lon="6.37901">
        <ele>2295.28</ele>
        <time>2009-08-01T14:01:18Z</time>
      </trkpt>
      <trkpt lat="45.22139" lon="6.37905">
        <ele>2294.32</ele>
        <time>2009-08-01T14:01:19Z</time>
      </trkpt>
      <trkpt lat="45.22141" lon="6.37908">
        <ele>2293.84</ele>
        <time>2009-08-01T14:01:20Z</time>
      </trkpt>
      <trkpt lat="45.22145" lon="6.37907">
        <ele>2293.84</ele>
        <time>2009-08-01T14:01:21Z</time>
      </trkpt>
      <trkpt lat="45.22146" lon="6.37904">
        <ele>2292.88</ele>
        <time>2009-08-01T14:01:22Z</time>
      </trkpt>
      <trkpt lat="45.22146" lon="6.37902">
        <ele>2292.4</ele>
        <time>2009-08-01T14:01:23Z</time>
      </trkpt>
      <trkpt lat="45.22148" lon="6.379">
        <ele>2292.4</ele>
        <time>2009-08-01T14:01:24Z</time>
      </trkpt>
      <trkpt lat="45.22148" lon="6.37899">
        <ele>2291.44</ele>
        <time>2009-08-01T14:01:25Z</time>
      </trkpt>
      <trkpt lat="45.22151" lon="6.37895">
        <ele>2290.48</ele>
        <time>2009-08-01T14:01:26Z</time>
      </trkpt>
      <trkpt lat="45.22151" lon="6.37894">
        <ele>2290</ele>
        <time>2009-08-01T14:01:27Z</time>
      </trkpt>
      <trkpt lat="45.22154" lon="6.37895">
        <ele>2289.04</ele>
        <time>2009-08-01T14:01:46Z</time>
      </trkpt>
      <trkpt lat="45.2216" lon="6.37896">
        <ele>2285.67</ele>
        <time>2009-08-01T14:01:53Z</time>
      </trkpt>
      <trkpt lat="45.22162" lon="6.37894">
        <ele>2284.23</ele>
        <time>2009-08-01T14:01:54Z</time>
      </trkpt>
      <trkpt lat="45.22163" lon="6.37893">
        <ele>2283.27</ele>
        <time>2009-08-01T14:01:55Z</time>
      </trkpt>
      <trkpt lat="45.22164" lon="6.37893">
        <ele>2283.27</ele>
        <time>2009-08-01T14:01:56Z</time>
      </trkpt>
      <trkpt lat="45.22167" lon="6.3789">
        <ele>2282.31</ele>
        <time>2009-08-01T14:01:58Z</time>
      </trkpt>
      <trkpt lat="45.22168" lon="6.37889">
        <ele>2281.35</ele>
        <time>2009-08-01T14:01:59Z</time>
      </trkpt>
      <trkpt lat="45.22168" lon="6.37888">
        <ele>2280.38</ele>
        <time>2009-08-01T14:02:00Z</time>
      </trkpt>
      <trkpt lat="45.22172" lon="6.37879">
        <ele>2277.98</ele>
        <time>2009-08-01T14:02:03Z</time>
      </trkpt>
      <trkpt lat="45.22175" lon="6.37877">
        <ele>2277.5</ele>
        <time>2009-08-01T14:02:04Z</time>
      </trkpt>
      <trkpt lat="45.22177" lon="6.37873">
        <ele>2275.58</ele>
        <time>2009-08-01T14:02:05Z</time>
      </trkpt>
      <trkpt lat="45.2218" lon="6.37869">
        <ele>2273.66</ele>
        <time>2009-08-01T14:02:06Z</time>
      </trkpt>
      <trkpt lat="45.22182" lon="6.37865">
        <ele>2273.17</ele>
        <time>2009-08-01T14:02:07Z</time>
      </trkpt>
      <trkpt lat="45.22184" lon="6.37864">
        <ele>2272.69</ele>
        <time>2009-08-01T14:02:08Z</time>
      </trkpt>
      <trkpt lat="45.22186" lon="6.37863">
        <ele>2272.21</ele>
        <time>2009-08-01T14:02:09Z</time>
      </trkpt>
      <trkpt lat="45.22187" lon="6.37862">
        <ele>2271.25</ele>
        <time>2009-08-01T14:02:10Z</time>
      </trkpt>
      <trkpt lat="45.22189" lon="6.37862">
        <ele>2270.77</ele>
        <time>2009-08-01T14:02:11Z</time>
      </trkpt>
      <trkpt lat="45.22191" lon="6.37861">
        <ele>2269.33</ele>
        <time>2009-08-01T14:02:12Z</time>
      </trkpt>
      <trkpt lat="45.22193" lon="6.3786">
        <ele>2268.85</ele>
        <time>2009-08-01T14:02:13Z</time>
      </trkpt>
      <trkpt lat="45.22195" lon="6.3786">
        <ele>2268.37</ele>
        <time>2009-08-01T14:02:14Z</time>
      </trkpt>
      <trkpt lat="45.22197" lon="6.3786">
        <ele>2267.89</ele>
        <time>2009-08-01T14:02:15Z</time>
      </trkpt>
      <trkpt lat="45.22198" lon="6.37859">
        <ele>2266.93</ele>
        <time>2009-08-01T14:02:16Z</time>
      </trkpt>
      <trkpt lat="45.22199" lon="6.37858">
        <ele>2266.45</ele>
        <time>2009-08-01T14:02:17Z</time>
      </trkpt>
      <trkpt lat="45.22202" lon="6.3786">
        <ele>2265</ele>
        <time>2009-08-01T14:02:19Z</time>
      </trkpt>
      <trkpt lat="45.22203" lon="6.37858">
        <ele>2264.52</ele>
        <time>2009-08-01T14:02:20Z</time>
      </trkpt>
      <trkpt lat="45.22205" lon="6.37854">
        <ele>2263.08</ele>
        <time>2009-08-01T14:02:23Z</time>
      </trkpt>
      <trkpt lat="45.22206" lon="6.37852">
        <ele>2262.6</ele>
        <time>2009-08-01T14:02:24Z</time>
      </trkpt>
      <trkpt lat="45.22208" lon="6.37851">
        <ele>2261.64</ele>
        <time>2009-08-01T14:02:25Z</time>
      </trkpt>
      <trkpt lat="45.22209" lon="6.37848">
        <ele>2261.16</ele>
        <time>2009-08-01T14:02:26Z</time>
      </trkpt>
      <trkpt lat="45.22209" lon="6.37846">
        <ele>2260.68</ele>
        <time>2009-08-01T14:02:27Z</time>
      </trkpt>
      <trkpt lat="45.2221" lon="6.37843">
        <ele>2259.24</ele>
        <time>2009-08-01T14:02:29Z</time>
      </trkpt>
      <trkpt lat="45.22218" lon="6.3784">
        <ele>2255.87</ele>
        <time>2009-08-01T14:02:34Z</time>
      </trkpt>
      <trkpt lat="45.22222" lon="6.37835">
        <ele>2253.47</ele>
        <time>2009-08-01T14:02:36Z</time>
      </trkpt>
      <trkpt lat="45.22229" lon="6.37827">
        <ele>2249.14</ele>
        <time>2009-08-01T14:02:41Z</time>
      </trkpt>
      <trkpt lat="45.2223" lon="6.37828">
        <ele>2248.66</ele>
        <time>2009-08-01T14:02:42Z</time>
      </trkpt>
      <trkpt lat="45.22231" lon="6.37827">
        <ele>2248.66</ele>
        <time>2009-08-01T14:02:43Z</time>
      </trkpt>
      <trkpt lat="45.22234" lon="6.37817">
        <ele>2244.82</ele>
        <time>2009-08-01T14:02:48Z</time>
      </trkpt>
      <trkpt lat="45.22236" lon="6.37814">
        <ele>2243.85</ele>
        <time>2009-08-01T14:02:50Z</time>
      </trkpt>
      <trkpt lat="45.22236" lon="6.37812">
        <ele>2242.41</ele>
        <time>2009-08-01T14:02:53Z</time>
      </trkpt>
      <trkpt lat="45.22243" lon="6.37801">
        <ele>2238.57</ele>
        <time>2009-08-01T14:03:02Z</time>
      </trkpt>
      <trkpt lat="45.22241" lon="6.37803">
        <ele>2237.61</ele>
        <time>2009-08-01T14:03:12Z</time>
      </trkpt>
      <trkpt lat="45.22241" lon="6.37803">
        <ele>2237.61</ele>
        <time>2009-08-01T14:03:15Z</time>
      </trkpt>
      <trkpt lat="45.22249" lon="6.37812">
        <ele>2235.68</ele>
        <time>2009-08-01T14:03:20Z</time>
      </trkpt>
      <trkpt lat="45.2226" lon="6.37822">
        <ele>2231.36</ele>
        <time>2009-08-01T14:03:25Z</time>
      </trkpt>
      <trkpt lat="45.22265" lon="6.37821">
        <ele>2227.99</ele>
        <time>2009-08-01T14:03:29Z</time>
      </trkpt>
      <trkpt lat="45.22271" lon="6.37824">
        <ele>2223.67</ele>
        <time>2009-08-01T14:03:32Z</time>
      </trkpt>
      <trkpt lat="45.22277" lon="6.37821">
        <ele>2220.78</ele>
        <time>2009-08-01T14:03:35Z</time>
      </trkpt>
      <trkpt lat="45.22282" lon="6.37808">
        <ele>2217.42</ele>
        <time>2009-08-01T14:03:40Z</time>
      </trkpt>
      <trkpt lat="45.22283" lon="6.37808">
        <ele>2217.42</ele>
        <time>2009-08-01T14:03:54Z</time>
      </trkpt>
      <trkpt lat="45.22283" lon="6.37808">
        <ele>2216.94</ele>
        <time>2009-08-01T14:04:53Z</time>
      </trkpt>
      <trkpt lat="45.22287" lon="6.37807">
        <ele>2216.46</ele>
        <time>2009-08-01T14:06:13Z</time>
      </trkpt>
      <trkpt lat="45.22293" lon="6.37805">
        <ele>2214.05</ele>
        <time>2009-08-01T14:06:17Z</time>
      </trkpt>
      <trkpt lat="45.22301" lon="6.37801">
        <ele>2210.21</ele>
        <time>2009-08-01T14:06:22Z</time>
      </trkpt>
      <trkpt lat="45.22307" lon="6.37795">
        <ele>2207.32</ele>
        <time>2009-08-01T14:06:26Z</time>
      </trkpt>
      <trkpt lat="45.22315" lon="6.37788">
        <ele>2204.44</ele>
        <time>2009-08-01T14:06:29Z</time>
      </trkpt>
      <trkpt lat="45.22319" lon="6.37786">
        <ele>2203.96</ele>
        <time>2009-08-01T14:06:30Z</time>
      </trkpt>
      <trkpt lat="45.22321" lon="6.37784">
        <ele>2203</ele>
        <time>2009-08-01T14:06:31Z</time>
      </trkpt>
      <trkpt lat="45.22323" lon="6.37782">
        <ele>2203</ele>
        <time>2009-08-01T14:06:32Z</time>
      </trkpt>
      <trkpt lat="45.22324" lon="6.37781">
        <ele>2202.52</ele>
        <time>2009-08-01T14:06:33Z</time>
      </trkpt>
      <trkpt lat="45.22334" lon="6.37778">
        <ele>2200.59</ele>
        <time>2009-08-01T14:06:40Z</time>
      </trkpt>
      <trkpt lat="45.22335" lon="6.37778">
        <ele>2200.59</ele>
        <time>2009-08-01T14:06:41Z</time>
      </trkpt>
      <trkpt lat="45.22336" lon="6.37779">
        <ele>2200.59</ele>
        <time>2009-08-01T14:06:42Z</time>
      </trkpt>
      <trkpt lat="45.22337" lon="6.37779">
        <ele>2199.63</ele>
        <time>2009-08-01T14:06:43Z</time>
      </trkpt>
      <trkpt lat="45.22343" lon="6.37778">
        <ele>2196.75</ele>
        <time>2009-08-01T14:06:47Z</time>
      </trkpt>
      <trkpt lat="45.22344" lon="6.37778">
        <ele>2196.27</ele>
        <time>2009-08-01T14:06:48Z</time>
      </trkpt>
      <trkpt lat="45.22346" lon="6.37779">
        <ele>2194.35</ele>
        <time>2009-08-01T14:06:50Z</time>
      </trkpt>
      <trkpt lat="45.22349" lon="6.3778">
        <ele>2193.39</ele>
        <time>2009-08-01T14:06:52Z</time>
      </trkpt>
      <trkpt lat="45.22351" lon="6.37781">
        <ele>2191.94</ele>
        <time>2009-08-01T14:06:53Z</time>
      </trkpt>
      <trkpt lat="45.22353" lon="6.37782">
        <ele>2190.98</ele>
        <time>2009-08-01T14:06:54Z</time>
      </trkpt>
      <trkpt lat="45.22356" lon="6.37783">
        <ele>2190.02</ele>
        <time>2009-08-01T14:06:55Z</time>
      </trkpt>
      <trkpt lat="45.22358" lon="6.37784">
        <ele>2188.58</ele>
        <time>2009-08-01T14:06:56Z</time>
      </trkpt>
      <trkpt lat="45.2236" lon="6.37785">
        <ele>2188.1</ele>
        <time>2009-08-01T14:06:57Z</time>
      </trkpt>
      <trkpt lat="45.22363" lon="6.37786">
        <ele>2186.66</ele>
        <time>2009-08-01T14:06:58Z</time>
      </trkpt>
      <trkpt lat="45.22366" lon="6.37788">
        <ele>2186.66</ele>
        <time>2009-08-01T14:06:59Z</time>
      </trkpt>
      <trkpt lat="45.22369" lon="6.3779">
        <ele>2185.21</ele>
        <time>2009-08-01T14:07:00Z</time>
      </trkpt>
      <trkpt lat="45.22372" lon="6.37792">
        <ele>2185.21</ele>
        <time>2009-08-01T14:07:01Z</time>
      </trkpt>
      <trkpt lat="45.22375" lon="6.37793">
        <ele>2183.77</ele>
        <time>2009-08-01T14:07:02Z</time>
      </trkpt>
      <trkpt lat="45.22376" lon="6.37793">
        <ele>2183.29</ele>
        <time>2009-08-01T14:07:03Z</time>
      </trkpt>
      <trkpt lat="45.22377" lon="6.37794">
        <ele>2183.29</ele>
        <time>2009-08-01T14:07:26Z</time>
      </trkpt>
      <trkpt lat="45.2238" lon="6.37793">
        <ele>2182.81</ele>
        <time>2009-08-01T14:08:51Z</time>
      </trkpt>
      <trkpt lat="45.2238" lon="6.37793">
        <ele>2182.81</ele>
        <time>2009-08-01T14:09:08Z</time>
      </trkpt>
      <trkpt lat="45.22379" lon="6.37797">
        <ele>2182.33</ele>
        <time>2009-08-01T14:09:09Z</time>
      </trkpt>
      <trkpt lat="45.22375" lon="6.37798">
        <ele>2182.81</ele>
        <time>2009-08-01T14:09:10Z</time>
      </trkpt>
      <trkpt lat="45.22373" lon="6.37798">
        <ele>2182.33</ele>
        <time>2009-08-01T14:09:11Z</time>
      </trkpt>
      <trkpt lat="45.22371" lon="6.37799">
        <ele>2181.85</ele>
        <time>2009-08-01T14:09:12Z</time>
      </trkpt>
      <trkpt lat="45.22369" lon="6.37801">
        <ele>2181.37</ele>
        <time>2009-08-01T14:09:13Z</time>
      </trkpt>
      <trkpt lat="45.22368" lon="6.37806">
        <ele>2180.89</ele>
        <time>2009-08-01T14:09:14Z</time>
      </trkpt>
      <trkpt lat="45.22365" lon="6.37812">
        <ele>2180.41</ele>
        <time>2009-08-01T14:09:15Z</time>
      </trkpt>
      <trkpt lat="45.22362" lon="6.37815">
        <ele>2179.45</ele>
        <time>2009-08-01T14:09:16Z</time>
      </trkpt>
      <trkpt lat="45.22361" lon="6.37821">
        <ele>2178.48</ele>
        <time>2009-08-01T14:09:17Z</time>
      </trkpt>
      <trkpt lat="45.2236" lon="6.37827">
        <ele>2177.52</ele>
        <time>2009-08-01T14:09:18Z</time>
      </trkpt>
      <trkpt lat="45.2236" lon="6.37833">
        <ele>2177.52</ele>
        <time>2009-08-01T14:09:19Z</time>
      </trkpt>
      <trkpt lat="45.22356" lon="6.37851">
        <ele>2174.64</ele>
        <time>2009-08-01T14:09:24Z</time>
      </trkpt>
      <trkpt lat="45.22359" lon="6.37852">
        <ele>2174.16</ele>
        <time>2009-08-01T14:09:25Z</time>
      </trkpt>
      <trkpt lat="45.22361" lon="6.37856">
        <ele>2174.16</ele>
        <time>2009-08-01T14:09:26Z</time>
      </trkpt>
      <trkpt lat="45.22364" lon="6.37859">
        <ele>2174.16</ele>
        <time>2009-08-01T14:09:27Z</time>
      </trkpt>
      <trkpt lat="45.22364" lon="6.37863">
        <ele>2174.16</ele>
        <time>2009-08-01T14:09:28Z</time>
      </trkpt>
      <trkpt lat="45.22365" lon="6.37866">
        <ele>2174.16</ele>
        <time>2009-08-01T14:09:29Z</time>
      </trkpt>
      <trkpt lat="45.22365" lon="6.37869">
        <ele>2174.16</ele>
        <time>2009-08-01T14:09:30Z</time>
      </trkpt>
      <trkpt lat="45.22363" lon="6.37871">
        <ele>2174.16</ele>
        <time>2009-08-01T14:09:31Z</time>
      </trkpt>
      <trkpt lat="45.22362" lon="6.37872">
        <ele>2175.12</ele>
        <time>2009-08-01T14:09:32Z</time>
      </trkpt>
      <trkpt lat="45.22361" lon="6.37874">
        <ele>2175.12</ele>
        <time>2009-08-01T14:09:33Z</time>
      </trkpt>
      <trkpt lat="45.22362" lon="6.37875">
        <ele>2175.12</ele>
        <time>2009-08-01T14:09:34Z</time>
      </trkpt>
      <trkpt lat="45.22363" lon="6.37878">
        <ele>2176.08</ele>
        <time>2009-08-01T14:09:35Z</time>
      </trkpt>
      <trkpt lat="45.22361" lon="6.37881">
        <ele>2176.08</ele>
        <time>2009-08-01T14:09:36Z</time>
      </trkpt>
      <trkpt lat="45.22362" lon="6.37884">
        <ele>2176.56</ele>
        <time>2009-08-01T14:09:37Z</time>
      </trkpt>
      <trkpt lat="45.22363" lon="6.37886">
        <ele>2176.56</ele>
        <time>2009-08-01T14:09:38Z</time>
      </trkpt>
      <trkpt lat="45.22363" lon="6.3789">
        <ele>2176.56</ele>
        <time>2009-08-01T14:09:39Z</time>
      </trkpt>
      <trkpt lat="45.22364" lon="6.37893">
        <ele>2176.56</ele>
        <time>2009-08-01T14:09:40Z</time>
      </trkpt>
      <trkpt lat="45.22364" lon="6.37896">
        <ele>2177.04</ele>
        <time>2009-08-01T14:09:41Z</time>
      </trkpt>
      <trkpt lat="45.22364" lon="6.37898">
        <ele>2177.52</ele>
        <time>2009-08-01T14:09:42Z</time>
      </trkpt>
      <trkpt lat="45.22364" lon="6.379">
        <ele>2177.52</ele>
        <time>2009-08-01T14:09:43Z</time>
      </trkpt>
      <trkpt lat="45.22364" lon="6.37903">
        <ele>2177.52</ele>
        <time>2009-08-01T14:09:44Z</time>
      </trkpt>
      <trkpt lat="45.22365" lon="6.37904">
        <ele>2177.04</ele>
        <time>2009-08-01T14:09:45Z</time>
      </trkpt>
      <trkpt lat="45.22366" lon="6.37904">
        <ele>2177.52</ele>
        <time>2009-08-01T14:09:46Z</time>
      </trkpt>
      <trkpt lat="45.22366" lon="6.37906">
        <ele>2178</ele>
        <time>2009-08-01T14:09:47Z</time>
      </trkpt>
      <trkpt lat="45.22365" lon="6.37908">
        <ele>2178</ele>
        <time>2009-08-01T14:09:48Z</time>
      </trkpt>
      <trkpt lat="45.22366" lon="6.3791">
        <ele>2178</ele>
        <time>2009-08-01T14:09:49Z</time>
      </trkpt>
      <trkpt lat="45.22366" lon="6.37912">
        <ele>2178</ele>
        <time>2009-08-01T14:09:50Z</time>
      </trkpt>
      <trkpt lat="45.22366" lon="6.37917">
        <ele>2178.48</ele>
        <time>2009-08-01T14:09:51Z</time>
      </trkpt>
      <trkpt lat="45.22369" lon="6.37923">
        <ele>2178</ele>
        <time>2009-08-01T14:09:54Z</time>
      </trkpt>
      <trkpt lat="45.2237" lon="6.37924">
        <ele>2177.52</ele>
        <time>2009-08-01T14:09:55Z</time>
      </trkpt>
      <trkpt lat="45.2237" lon="6.37924">
        <ele>2177.52</ele>
        <time>2009-08-01T14:10:09Z</time>
      </trkpt>
      <trkpt lat="45.22371" lon="6.37924">
        <ele>2177.52</ele>
        <time>2009-08-01T14:10:44Z</time>
      </trkpt>
      <trkpt lat="45.22369" lon="6.37929">
        <ele>2177.52</ele>
        <time>2009-08-01T14:11:16Z</time>
      </trkpt>
      <trkpt lat="45.2237" lon="6.37939">
        <ele>2177.52</ele>
        <time>2009-08-01T14:11:19Z</time>
      </trkpt>
      <trkpt lat="45.2237" lon="6.3794">
        <ele>2178</ele>
        <time>2009-08-01T14:11:20Z</time>
      </trkpt>
      <trkpt lat="45.22371" lon="6.37942">
        <ele>2178</ele>
        <time>2009-08-01T14:11:21Z</time>
      </trkpt>
      <trkpt lat="45.2237" lon="6.37944">
        <ele>2178</ele>
        <time>2009-08-01T14:11:22Z</time>
      </trkpt>
      <trkpt lat="45.2237" lon="6.37947">
        <ele>2178.48</ele>
        <time>2009-08-01T14:11:23Z</time>
      </trkpt>
      <trkpt lat="45.22369" lon="6.3795">
        <ele>2178.97</ele>
        <time>2009-08-01T14:11:24Z</time>
      </trkpt>
      <trkpt lat="45.22368" lon="6.37952">
        <ele>2178.97</ele>
        <time>2009-08-01T14:11:25Z</time>
      </trkpt>
      <trkpt lat="45.22363" lon="6.37993">
        <ele>2178.48</ele>
        <time>2009-08-01T14:11:36Z</time>
      </trkpt>
      <trkpt lat="45.2236" lon="6.38003">
        <ele>2177.52</ele>
        <time>2009-08-01T14:11:38Z</time>
      </trkpt>
      <trkpt lat="45.2236" lon="6.38008">
        <ele>2177.04</ele>
        <time>2009-08-01T14:11:39Z</time>
      </trkpt>
      <trkpt lat="45.22359" lon="6.38013">
        <ele>2176.56</ele>
        <time>2009-08-01T14:11:40Z</time>
      </trkpt>
      <trkpt lat="45.22358" lon="6.3802">
        <ele>2176.08</ele>
        <time>2009-08-01T14:11:41Z</time>
      </trkpt>
      <trkpt lat="45.22356" lon="6.38025">
        <ele>2176.08</ele>
        <time>2009-08-01T14:11:42Z</time>
      </trkpt>
      <trkpt lat="45.22355" lon="6.3803">
        <ele>2175.6</ele>
        <time>2009-08-01T14:11:43Z</time>
      </trkpt>
      <trkpt lat="45.22353" lon="6.38034">
        <ele>2176.08</ele>
        <time>2009-08-01T14:11:44Z</time>
      </trkpt>
      <trkpt lat="45.22352" lon="6.38037">
        <ele>2176.08</ele>
        <time>2009-08-01T14:11:45Z</time>
      </trkpt>
      <trkpt lat="45.2235" lon="6.38042">
        <ele>2175.12</ele>
        <time>2009-08-01T14:11:46Z</time>
      </trkpt>
      <trkpt lat="45.22349" lon="6.38049">
        <ele>2174.16</ele>
        <time>2009-08-01T14:11:47Z</time>
      </trkpt>
      <trkpt lat="45.22347" lon="6.38056">
        <ele>2172.72</ele>
        <time>2009-08-01T14:11:48Z</time>
      </trkpt>
      <trkpt lat="45.22346" lon="6.38063">
        <ele>2170.79</ele>
        <time>2009-08-01T14:11:49Z</time>
      </trkpt>
      <trkpt lat="45.22342" lon="6.38071">
        <ele>2169.83</ele>
        <time>2009-08-01T14:11:51Z</time>
      </trkpt>
      <trkpt lat="45.22339" lon="6.38072">
        <ele>2169.83</ele>
        <time>2009-08-01T14:11:52Z</time>
      </trkpt>
      <trkpt lat="45.22336" lon="6.38074">
        <ele>2168.87</ele>
        <time>2009-08-01T14:11:53Z</time>
      </trkpt>
      <trkpt lat="45.22334" lon="6.38077">
        <ele>2168.39</ele>
        <time>2009-08-01T14:11:54Z</time>
      </trkpt>
      <trkpt lat="45.22331" lon="6.38081">
        <ele>2166.95</ele>
        <time>2009-08-01T14:11:55Z</time>
      </trkpt>
      <trkpt lat="45.22327" lon="6.38089">
        <ele>2165.03</ele>
        <time>2009-08-01T14:11:57Z</time>
      </trkpt>
      <trkpt lat="45.22327" lon="6.38094">
        <ele>2163.58</ele>
        <time>2009-08-01T14:11:58Z</time>
      </trkpt>
      <trkpt lat="45.22325" lon="6.38101">
        <ele>2162.14</ele>
        <time>2009-08-01T14:11:59Z</time>
      </trkpt>
      <trkpt lat="45.22325" lon="6.38107">
        <ele>2161.18</ele>
        <time>2009-08-01T14:12:00Z</time>
      </trkpt>
      <trkpt lat="45.22325" lon="6.38113">
        <ele>2159.74</ele>
        <time>2009-08-01T14:12:01Z</time>
      </trkpt>
      <trkpt lat="45.22327" lon="6.3812">
        <ele>2158.78</ele>
        <time>2009-08-01T14:12:02Z</time>
      </trkpt>
      <trkpt lat="45.22328" lon="6.38126">
        <ele>2158.78</ele>
        <time>2009-08-01T14:12:03Z</time>
      </trkpt>
      <trkpt lat="45.22329" lon="6.38133">
        <ele>2157.34</ele>
        <time>2009-08-01T14:12:04Z</time>
      </trkpt>
      <trkpt lat="45.2233" lon="6.38139">
        <ele>2156.37</ele>
        <time>2009-08-01T14:12:05Z</time>
      </trkpt>
      <trkpt lat="45.22332" lon="6.38154">
        <ele>2154.45</ele>
        <time>2009-08-01T14:12:08Z</time>
      </trkpt>
      <trkpt lat="45.22331" lon="6.38165">
        <ele>2150.61</ele>
        <time>2009-08-01T14:12:12Z</time>
      </trkpt>
      <trkpt lat="45.22328" lon="6.38178">
        <ele>2147.72</ele>
        <time>2009-08-01T14:12:15Z</time>
      </trkpt>
      <trkpt lat="45.22327" lon="6.38184">
        <ele>2146.28</ele>
        <time>2009-08-01T14:12:17Z</time>
      </trkpt>
      <trkpt lat="45.22328" lon="6.38189">
        <ele>2144.84</ele>
        <time>2009-08-01T14:12:19Z</time>
      </trkpt>
      <trkpt lat="45.22331" lon="6.38188">
        <ele>2143.88</ele>
        <time>2009-08-01T14:12:24Z</time>
      </trkpt>
      <trkpt lat="45.22332" lon="6.38187">
        <ele>2143.4</ele>
        <time>2009-08-01T14:12:25Z</time>
      </trkpt>
      <trkpt lat="45.22334" lon="6.38185">
        <ele>2143.4</ele>
        <time>2009-08-01T14:12:26Z</time>
      </trkpt>
      <trkpt lat="45.22339" lon="6.38182">
        <ele>2141.95</ele>
        <time>2009-08-01T14:12:28Z</time>
      </trkpt>
      <trkpt lat="45.22342" lon="6.38182">
        <ele>2140.51</ele>
        <time>2009-08-01T14:12:29Z</time>
      </trkpt>
      <trkpt lat="45.22345" lon="6.38181">
        <ele>2139.55</ele>
        <time>2009-08-01T14:12:30Z</time>
      </trkpt>
      <trkpt lat="45.22355" lon="6.38179">
        <ele>2135.71</ele>
        <time>2009-08-01T14:12:34Z</time>
      </trkpt>
      <trkpt lat="45.22355" lon="6.38178">
        <ele>2135.71</ele>
        <time>2009-08-01T14:13:19Z</time>
      </trkpt>
      <trkpt lat="45.22357" lon="6.38179">
        <ele>2134.74</ele>
        <time>2009-08-01T14:13:34Z</time>
      </trkpt>
      <trkpt lat="45.22359" lon="6.38179">
        <ele>2134.26</ele>
        <time>2009-08-01T14:13:35Z</time>
      </trkpt>
      <trkpt lat="45.22361" lon="6.38179">
        <ele>2133.78</ele>
        <time>2009-08-01T14:13:36Z</time>
      </trkpt>
      <trkpt lat="45.22365" lon="6.38178">
        <ele>2132.82</ele>
        <time>2009-08-01T14:13:38Z</time>
      </trkpt>
      <trkpt lat="45.22367" lon="6.38178">
        <ele>2131.38</ele>
        <time>2009-08-01T14:13:50Z</time>
      </trkpt>
      <trkpt lat="45.22367" lon="6.3818">
        <ele>2131.86</ele>
        <time>2009-08-01T14:13:55Z</time>
      </trkpt>
      <trkpt lat="45.22365" lon="6.38182">
        <ele>2131.38</ele>
        <time>2009-08-01T14:13:56Z</time>
      </trkpt>
      <trkpt lat="45.22365" lon="6.38185">
        <ele>2130.9</ele>
        <time>2009-08-01T14:13:57Z</time>
      </trkpt>
      <trkpt lat="45.22363" lon="6.38187">
        <ele>2129.94</ele>
        <time>2009-08-01T14:13:58Z</time>
      </trkpt>
      <trkpt lat="45.22361" lon="6.3819">
        <ele>2129.94</ele>
        <time>2009-08-01T14:13:59Z</time>
      </trkpt>
      <trkpt lat="45.22362" lon="6.38196">
        <ele>2127.05</ele>
        <time>2009-08-01T14:14:07Z</time>
      </trkpt>
      <trkpt lat="45.22364" lon="6.38198">
        <ele>2125.61</ele>
        <time>2009-08-01T14:14:20Z</time>
      </trkpt>
      <trkpt lat="45.22364" lon="6.38198">
        <ele>2125.13</ele>
        <time>2009-08-01T14:14:24Z</time>
      </trkpt>
      <trkpt lat="45.22365" lon="6.38198">
        <ele>2124.65</ele>
        <time>2009-08-01T14:14:25Z</time>
      </trkpt>
      <trkpt lat="45.22368" lon="6.38199">
        <ele>2124.65</ele>
        <time>2009-08-01T14:14:26Z</time>
      </trkpt>
      <trkpt lat="45.2237" lon="6.38199">
        <ele>2123.69</ele>
        <time>2009-08-01T14:14:27Z</time>
      </trkpt>
      <trkpt lat="45.22372" lon="6.38199">
        <ele>2123.69</ele>
        <time>2009-08-01T14:14:28Z</time>
      </trkpt>
      <trkpt lat="45.22374" lon="6.38199">
        <ele>2123.21</ele>
        <time>2009-08-01T14:14:29Z</time>
      </trkpt>
      <trkpt lat="45.22376" lon="6.38199">
        <ele>2122.25</ele>
        <time>2009-08-01T14:14:30Z</time>
      </trkpt>
      <trkpt lat="45.22379" lon="6.38198">
        <ele>2121.29</ele>
        <time>2009-08-01T14:14:32Z</time>
      </trkpt>
      <trkpt lat="45.22381" lon="6.38197">
        <ele>2120.81</ele>
        <time>2009-08-01T14:14:33Z</time>
      </trkpt>
      <trkpt lat="45.22383" lon="6.38196">
        <ele>2119.84</ele>
        <time>2009-08-01T14:14:34Z</time>
      </trkpt>
      <trkpt lat="45.22384" lon="6.38196">
        <ele>2119.36</ele>
        <time>2009-08-01T14:14:35Z</time>
      </trkpt>
      <trkpt lat="45.22386" lon="6.38196">
        <ele>2117.92</ele>
        <time>2009-08-01T14:14:37Z</time>
      </trkpt>
      <trkpt lat="45.22388" lon="6.38195">
        <ele>2117.92</ele>
        <time>2009-08-01T14:14:38Z</time>
      </trkpt>
      <trkpt lat="45.22401" lon="6.38186">
        <ele>2114.56</ele>
        <time>2009-08-01T14:14:45Z</time>
      </trkpt>
      <trkpt lat="45.22413" lon="6.38178">
        <ele>2111.19</ele>
        <time>2009-08-01T14:14:49Z</time>
      </trkpt>
      <trkpt lat="45.22423" lon="6.38172">
        <ele>2108.79</ele>
        <time>2009-08-01T14:14:53Z</time>
      </trkpt>
      <trkpt lat="45.22425" lon="6.3817">
        <ele>2108.79</ele>
        <time>2009-08-01T14:14:54Z</time>
      </trkpt>
      <trkpt lat="45.22427" lon="6.38168">
        <ele>2108.31</ele>
        <time>2009-08-01T14:14:55Z</time>
      </trkpt>
      <trkpt lat="45.22429" lon="6.38166">
        <ele>2108.79</ele>
        <time>2009-08-01T14:14:56Z</time>
      </trkpt>
      <trkpt lat="45.22432" lon="6.38164">
        <ele>2107.83</ele>
        <time>2009-08-01T14:14:57Z</time>
      </trkpt>
      <trkpt lat="45.22435" lon="6.3816">
        <ele>2106.87</ele>
        <time>2009-08-01T14:14:58Z</time>
      </trkpt>
      <trkpt lat="45.22438" lon="6.38158">
        <ele>2106.87</ele>
        <time>2009-08-01T14:14:59Z</time>
      </trkpt>
      <trkpt lat="45.22442" lon="6.38155">
        <ele>2106.39</ele>
        <time>2009-08-01T14:15:00Z</time>
      </trkpt>
      <trkpt lat="45.2245" lon="6.3815">
        <ele>2103.5</ele>
        <time>2009-08-01T14:15:03Z</time>
      </trkpt>
      <trkpt lat="45.22452" lon="6.3815">
        <ele>2102.06</ele>
        <time>2009-08-01T14:15:05Z</time>
      </trkpt>
      <trkpt lat="45.22451" lon="6.38152">
        <ele>2101.58</ele>
        <time>2009-08-01T14:15:07Z</time>
      </trkpt>
      <trkpt lat="45.22451" lon="6.38155">
        <ele>2101.58</ele>
        <time>2009-08-01T14:15:08Z</time>
      </trkpt>
      <trkpt lat="45.22451" lon="6.38159">
        <ele>2101.58</ele>
        <time>2009-08-01T14:15:09Z</time>
      </trkpt>
      <trkpt lat="45.2245" lon="6.38165">
        <ele>2100.62</ele>
        <time>2009-08-01T14:15:10Z</time>
      </trkpt>
      <trkpt lat="45.2245" lon="6.38169">
        <ele>2099.66</ele>
        <time>2009-08-01T14:15:11Z</time>
      </trkpt>
      <trkpt lat="45.22447" lon="6.38193">
        <ele>2095.33</ele>
        <time>2009-08-01T14:15:15Z</time>
      </trkpt>
      <trkpt lat="45.22445" lon="6.382">
        <ele>2093.89</ele>
        <time>2009-08-01T14:15:16Z</time>
      </trkpt>
      <trkpt lat="45.22442" lon="6.38216">
        <ele>2091</ele>
        <time>2009-08-01T14:15:19Z</time>
      </trkpt>
      <trkpt lat="45.22435" lon="6.38231">
        <ele>2088.12</ele>
        <time>2009-08-01T14:15:22Z</time>
      </trkpt>
      <trkpt lat="45.22433" lon="6.38237">
        <ele>2086.2</ele>
        <time>2009-08-01T14:15:23Z</time>
      </trkpt>
      <trkpt lat="45.22431" lon="6.38242">
        <ele>2084.76</ele>
        <time>2009-08-01T14:15:24Z</time>
      </trkpt>
      <trkpt lat="45.22431" lon="6.38244">
        <ele>2083.79</ele>
        <time>2009-08-01T14:15:25Z</time>
      </trkpt>
      <trkpt lat="45.2243" lon="6.38246">
        <ele>2083.79</ele>
        <time>2009-08-01T14:15:26Z</time>
      </trkpt>
      <trkpt lat="45.2243" lon="6.38248">
        <ele>2083.79</ele>
        <time>2009-08-01T14:15:27Z</time>
      </trkpt>
      <trkpt lat="45.2243" lon="6.38251">
        <ele>2083.79</ele>
        <time>2009-08-01T14:15:28Z</time>
      </trkpt>
      <trkpt lat="45.2243" lon="6.38254">
        <ele>2083.31</ele>
        <time>2009-08-01T14:15:29Z</time>
      </trkpt>
      <trkpt lat="45.22431" lon="6.38258">
        <ele>2082.83</ele>
        <time>2009-08-01T14:15:30Z</time>
      </trkpt>
      <trkpt lat="45.22432" lon="6.38264">
        <ele>2082.35</ele>
        <time>2009-08-01T14:15:31Z</time>
      </trkpt>
      <trkpt lat="45.22438" lon="6.383">
        <ele>2078.99</ele>
        <time>2009-08-01T14:15:38Z</time>
      </trkpt>
      <trkpt lat="45.22439" lon="6.38312">
        <ele>2076.1</ele>
        <time>2009-08-01T14:15:40Z</time>
      </trkpt>
      <trkpt lat="45.22439" lon="6.38318">
        <ele>2074.66</ele>
        <time>2009-08-01T14:15:41Z</time>
      </trkpt>
      <trkpt lat="45.22437" lon="6.38323">
        <ele>2074.18</ele>
        <time>2009-08-01T14:15:42Z</time>
      </trkpt>
      <trkpt lat="45.22435" lon="6.38328">
        <ele>2073.22</ele>
        <time>2009-08-01T14:15:43Z</time>
      </trkpt>
      <trkpt lat="45.22433" lon="6.38334">
        <ele>2072.74</ele>
        <time>2009-08-01T14:15:44Z</time>
      </trkpt>
      <trkpt lat="45.22431" lon="6.3834">
        <ele>2071.3</ele>
        <time>2009-08-01T14:15:46Z</time>
      </trkpt>
      <trkpt lat="45.22432" lon="6.38341">
        <ele>2070.82</ele>
        <time>2009-08-01T14:15:47Z</time>
      </trkpt>
      <trkpt lat="45.22433" lon="6.38341">
        <ele>2069.86</ele>
        <time>2009-08-01T14:15:49Z</time>
      </trkpt>
      <trkpt lat="45.22434" lon="6.3834">
        <ele>2069.86</ele>
        <time>2009-08-01T14:15:50Z</time>
      </trkpt>
      <trkpt lat="45.22436" lon="6.3834">
        <ele>2069.86</ele>
        <time>2009-08-01T14:15:51Z</time>
      </trkpt>
      <trkpt lat="45.22439" lon="6.38339">
        <ele>2069.38</ele>
        <time>2009-08-01T14:15:52Z</time>
      </trkpt>
      <trkpt lat="45.22444" lon="6.3834">
        <ele>2068.41</ele>
        <time>2009-08-01T14:15:54Z</time>
      </trkpt>
      <trkpt lat="45.22446" lon="6.38342">
        <ele>2068.41</ele>
        <time>2009-08-01T14:15:55Z</time>
      </trkpt>
      <trkpt lat="45.22445" lon="6.38345">
        <ele>2067.93</ele>
        <time>2009-08-01T14:15:56Z</time>
      </trkpt>
      <trkpt lat="45.22444" lon="6.38347">
        <ele>2067.45</ele>
        <time>2009-08-01T14:15:57Z</time>
      </trkpt>
      <trkpt lat="45.22444" lon="6.38351">
        <ele>2066.49</ele>
        <time>2009-08-01T14:15:58Z</time>
      </trkpt>
      <trkpt lat="45.22444" lon="6.38355">
        <ele>2065.53</ele>
        <time>2009-08-01T14:15:59Z</time>
      </trkpt>
      <trkpt lat="45.22444" lon="6.3836">
        <ele>2064.57</ele>
        <time>2009-08-01T14:16:00Z</time>
      </trkpt>
      <trkpt lat="45.22442" lon="6.38364">
        <ele>2063.61</ele>
        <time>2009-08-01T14:16:01Z</time>
      </trkpt>
      <trkpt lat="45.22441" lon="6.38371">
        <ele>2061.2</ele>
        <time>2009-08-01T14:16:03Z</time>
      </trkpt>
      <trkpt lat="45.22446" lon="6.3838">
        <ele>2058.32</ele>
        <time>2009-08-01T14:16:07Z</time>
      </trkpt>
      <trkpt lat="45.22436" lon="6.3839">
        <ele>2055.44</ele>
        <time>2009-08-01T14:16:12Z</time>
      </trkpt>
      <trkpt lat="45.22432" lon="6.38396">
        <ele>2052.55</ele>
        <time>2009-08-01T14:16:16Z</time>
      </trkpt>
      <trkpt lat="45.22443" lon="6.384">
        <ele>2050.63</ele>
        <time>2009-08-01T14:16:21Z</time>
      </trkpt>
      <trkpt lat="45.22447" lon="6.38403">
        <ele>2049.67</ele>
        <time>2009-08-01T14:16:22Z</time>
      </trkpt>
      <trkpt lat="45.2245" lon="6.38408">
        <ele>2048.71</ele>
        <time>2009-08-01T14:16:23Z</time>
      </trkpt>
      <trkpt lat="45.22453" lon="6.38411">
        <ele>2047.75</ele>
        <time>2009-08-01T14:16:24Z</time>
      </trkpt>
      <trkpt lat="45.22457" lon="6.38414">
        <ele>2046.78</ele>
        <time>2009-08-01T14:16:25Z</time>
      </trkpt>
      <trkpt lat="45.22467" lon="6.38419">
        <ele>2043.9</ele>
        <time>2009-08-01T14:16:28Z</time>
      </trkpt>
      <trkpt lat="45.22471" lon="6.38421">
        <ele>2042.94</ele>
        <time>2009-08-01T14:16:30Z</time>
      </trkpt>
      <trkpt lat="45.2247" lon="6.38422">
        <ele>2042.46</ele>
        <time>2009-08-01T14:16:31Z</time>
      </trkpt>
      <trkpt lat="45.22469" lon="6.38424">
        <ele>2041.5</ele>
        <time>2009-08-01T14:16:32Z</time>
      </trkpt>
      <trkpt lat="45.22466" lon="6.38426">
        <ele>2041.5</ele>
        <time>2009-08-01T14:16:33Z</time>
      </trkpt>
      <trkpt lat="45.22462" lon="6.38428">
        <ele>2040.54</ele>
        <time>2009-08-01T14:16:34Z</time>
      </trkpt>
      <trkpt lat="45.22457" lon="6.38429">
        <ele>2040.05</ele>
        <time>2009-08-01T14:16:35Z</time>
      </trkpt>
      <trkpt lat="45.22453" lon="6.38431">
        <ele>2039.09</ele>
        <time>2009-08-01T14:16:36Z</time>
      </trkpt>
      <trkpt lat="45.2245" lon="6.38432">
        <ele>2037.65</ele>
        <time>2009-08-01T14:16:37Z</time>
      </trkpt>
      <trkpt lat="45.22448" lon="6.38435">
        <ele>2037.17</ele>
        <time>2009-08-01T14:16:38Z</time>
      </trkpt>
      <trkpt lat="45.22448" lon="6.38438">
        <ele>2036.69</ele>
        <time>2009-08-01T14:16:39Z</time>
      </trkpt>
      <trkpt lat="45.22447" lon="6.38441">
        <ele>2035.73</ele>
        <time>2009-08-01T14:16:40Z</time>
      </trkpt>
      <trkpt lat="45.22445" lon="6.38444">
        <ele>2035.25</ele>
        <time>2009-08-01T14:16:41Z</time>
      </trkpt>
      <trkpt lat="45.22442" lon="6.38446">
        <ele>2034.77</ele>
        <time>2009-08-01T14:16:42Z</time>
      </trkpt>
      <trkpt lat="45.22432" lon="6.38465">
        <ele>2030.92</ele>
        <time>2009-08-01T14:16:47Z</time>
      </trkpt>
      <trkpt lat="45.22432" lon="6.38471">
        <ele>2029.96</ele>
        <time>2009-08-01T14:16:48Z</time>
      </trkpt>
      <trkpt lat="45.22431" lon="6.38477">
        <ele>2029</ele>
        <time>2009-08-01T14:16:49Z</time>
      </trkpt>
      <trkpt lat="45.2243" lon="6.3849">
        <ele>2026.12</ele>
        <time>2009-08-01T14:16:53Z</time>
      </trkpt>
      <trkpt lat="45.22431" lon="6.38489">
        <ele>2025.15</ele>
        <time>2009-08-01T14:16:54Z</time>
      </trkpt>
      <trkpt lat="45.22433" lon="6.38488">
        <ele>2025.15</ele>
        <time>2009-08-01T14:16:55Z</time>
      </trkpt>
      <trkpt lat="45.22435" lon="6.38488">
        <ele>2024.19</ele>
        <time>2009-08-01T14:16:58Z</time>
      </trkpt>
      <trkpt lat="45.2243" lon="6.38506">
        <ele>2020.35</ele>
        <time>2009-08-01T14:17:04Z</time>
      </trkpt>
      <trkpt lat="45.22429" lon="6.38508">
        <ele>2020.35</ele>
        <time>2009-08-01T14:17:05Z</time>
      </trkpt>
      <trkpt lat="45.22431" lon="6.38511">
        <ele>2018.91</ele>
        <time>2009-08-01T14:17:07Z</time>
      </trkpt>
      <trkpt lat="45.22433" lon="6.38513">
        <ele>2017.94</ele>
        <time>2009-08-01T14:17:08Z</time>
      </trkpt>
      <trkpt lat="45.22439" lon="6.38524">
        <ele>2014.58</ele>
        <time>2009-08-01T14:17:12Z</time>
      </trkpt>
      <trkpt lat="45.22443" lon="6.38529">
        <ele>2012.18</ele>
        <time>2009-08-01T14:17:15Z</time>
      </trkpt>
      <trkpt lat="45.22443" lon="6.38532">
        <ele>2011.22</ele>
        <time>2009-08-01T14:17:16Z</time>
      </trkpt>
      <trkpt lat="45.22443" lon="6.38536">
        <ele>2011.22</ele>
        <time>2009-08-01T14:17:17Z</time>
      </trkpt>
      <trkpt lat="45.22444" lon="6.38549">
        <ele>2008.81</ele>
        <time>2009-08-01T14:17:20Z</time>
      </trkpt>
      <trkpt lat="45.22446" lon="6.3855">
        <ele>2007.85</ele>
        <time>2009-08-01T14:17:21Z</time>
      </trkpt>
      <trkpt lat="45.22449" lon="6.38551">
        <ele>2006.89</ele>
        <time>2009-08-01T14:17:22Z</time>
      </trkpt>
      <trkpt lat="45.22452" lon="6.38554">
        <ele>2006.89</ele>
        <time>2009-08-01T14:17:23Z</time>
      </trkpt>
      <trkpt lat="45.22454" lon="6.38558">
        <ele>2006.89</ele>
        <time>2009-08-01T14:17:24Z</time>
      </trkpt>
      <trkpt lat="45.22455" lon="6.38563">
        <ele>2005.93</ele>
        <time>2009-08-01T14:17:25Z</time>
      </trkpt>
      <trkpt lat="45.22457" lon="6.38567">
        <ele>2004.97</ele>
        <time>2009-08-01T14:17:26Z</time>
      </trkpt>
      <trkpt lat="45.2246" lon="6.38572">
        <ele>2004.01</ele>
        <time>2009-08-01T14:17:27Z</time>
      </trkpt>
      <trkpt lat="45.22463" lon="6.38575">
        <ele>2003.52</ele>
        <time>2009-08-01T14:17:28Z</time>
      </trkpt>
      <trkpt lat="45.22466" lon="6.38578">
        <ele>2003.52</ele>
        <time>2009-08-01T14:17:29Z</time>
      </trkpt>
      <trkpt lat="45.22468" lon="6.38582">
        <ele>2003.04</ele>
        <time>2009-08-01T14:17:30Z</time>
      </trkpt>
      <trkpt lat="45.2247" lon="6.38585">
        <ele>2002.08</ele>
        <time>2009-08-01T14:17:31Z</time>
      </trkpt>
      <trkpt lat="45.22472" lon="6.38589">
        <ele>2000.64</ele>
        <time>2009-08-01T14:17:32Z</time>
      </trkpt>
      <trkpt lat="45.22474" lon="6.38593">
        <ele>2000.16</ele>
        <time>2009-08-01T14:17:33Z</time>
      </trkpt>
      <trkpt lat="45.22476" lon="6.38596">
        <ele>2000.16</ele>
        <time>2009-08-01T14:17:34Z</time>
      </trkpt>
      <trkpt lat="45.22478" lon="6.38599">
        <ele>2000.16</ele>
        <time>2009-08-01T14:17:35Z</time>
      </trkpt>
      <trkpt lat="45.22479" lon="6.38603">
        <ele>1999.2</ele>
        <time>2009-08-01T14:17:36Z</time>
      </trkpt>
      <trkpt lat="45.22481" lon="6.3861">
        <ele>1999.2</ele>
        <time>2009-08-01T14:17:37Z</time>
      </trkpt>
      <trkpt lat="45.2248" lon="6.38614">
        <ele>1998.24</ele>
        <time>2009-08-01T14:17:38Z</time>
      </trkpt>
      <trkpt lat="45.2248" lon="6.38619">
        <ele>1997.76</ele>
        <time>2009-08-01T14:17:39Z</time>
      </trkpt>
      <trkpt lat="45.2248" lon="6.38621">
        <ele>1997.76</ele>
        <time>2009-08-01T14:17:40Z</time>
      </trkpt>
      <trkpt lat="45.22481" lon="6.38624">
        <ele>1997.76</ele>
        <time>2009-08-01T14:17:50Z</time>
      </trkpt>
      <trkpt lat="45.22481" lon="6.38626">
        <ele>1997.28</ele>
        <time>2009-08-01T14:17:51Z</time>
      </trkpt>
      <trkpt lat="45.22482" lon="6.38628">
        <ele>1996.8</ele>
        <time>2009-08-01T14:17:52Z</time>
      </trkpt>
      <trkpt lat="45.22482" lon="6.3863">
        <ele>1996.8</ele>
        <time>2009-08-01T14:17:53Z</time>
      </trkpt>
      <trkpt lat="45.22481" lon="6.38632">
        <ele>1996.32</ele>
        <time>2009-08-01T14:17:54Z</time>
      </trkpt>
      <trkpt lat="45.22481" lon="6.38632">
        <ele>1995.83</ele>
        <time>2009-08-01T14:18:13Z</time>
      </trkpt>
      <trkpt lat="45.22479" lon="6.38643">
        <ele>1995.35</ele>
        <time>2009-08-01T14:19:24Z</time>
      </trkpt>
      <trkpt lat="45.22478" lon="6.38644">
        <ele>1995.35</ele>
        <time>2009-08-01T14:19:25Z</time>
      </trkpt>
      <trkpt lat="45.22477" lon="6.38646">
        <ele>1995.35</ele>
        <time>2009-08-01T14:19:26Z</time>
      </trkpt>
      <trkpt lat="45.22469" lon="6.38656">
        <ele>1995.83</ele>
        <time>2009-08-01T14:19:31Z</time>
      </trkpt>
      <trkpt lat="45.22467" lon="6.38659">
        <ele>1995.83</ele>
        <time>2009-08-01T14:19:32Z</time>
      </trkpt>
      <trkpt lat="45.22466" lon="6.38663">
        <ele>1996.32</ele>
        <time>2009-08-01T14:19:33Z</time>
      </trkpt>
      <trkpt lat="45.22464" lon="6.38665">
        <ele>1995.83</ele>
        <time>2009-08-01T14:19:45Z</time>
      </trkpt>
      <trkpt lat="45.22457" lon="6.38675">
        <ele>1995.35</ele>
        <time>2009-08-01T14:21:54Z</time>
      </trkpt>
      <trkpt lat="45.22455" lon="6.38675">
        <ele>1995.35</ele>
        <time>2009-08-01T14:21:55Z</time>
      </trkpt>
      <trkpt lat="45.22453" lon="6.38675">
        <ele>1994.87</ele>
        <time>2009-08-01T14:21:56Z</time>
      </trkpt>
      <trkpt lat="45.22452" lon="6.38676">
        <ele>1995.35</ele>
        <time>2009-08-01T14:21:57Z</time>
      </trkpt>
      <trkpt lat="45.22452" lon="6.38679">
        <ele>1994.87</ele>
        <time>2009-08-01T14:21:59Z</time>
      </trkpt>
      <trkpt lat="45.22449" lon="6.38688">
        <ele>1995.35</ele>
        <time>2009-08-01T14:22:10Z</time>
      </trkpt>
      <trkpt lat="45.22447" lon="6.38699">
        <ele>1996.32</ele>
        <time>2009-08-01T14:22:20Z</time>
      </trkpt>
      <trkpt lat="45.22447" lon="6.38702">
        <ele>1995.83</ele>
        <time>2009-08-01T14:22:21Z</time>
      </trkpt>
      <trkpt lat="45.22447" lon="6.38707">
        <ele>1995.83</ele>
        <time>2009-08-01T14:22:31Z</time>
      </trkpt>
      <trkpt lat="45.22448" lon="6.38709">
        <ele>1994.87</ele>
        <time>2009-08-01T14:22:33Z</time>
      </trkpt>
      <trkpt lat="45.22449" lon="6.38711">
        <ele>1994.39</ele>
        <time>2009-08-01T14:22:34Z</time>
      </trkpt>
      <trkpt lat="45.2245" lon="6.38712">
        <ele>1994.39</ele>
        <time>2009-08-01T14:22:35Z</time>
      </trkpt>
      <trkpt lat="45.22451" lon="6.38717">
        <ele>1993.91</ele>
        <time>2009-08-01T14:22:39Z</time>
      </trkpt>
      <trkpt lat="45.22451" lon="6.38721">
        <ele>1993.91</ele>
        <time>2009-08-01T14:22:41Z</time>
      </trkpt>
      <trkpt lat="45.22452" lon="6.38723">
        <ele>1993.91</ele>
        <time>2009-08-01T14:22:42Z</time>
      </trkpt>
      <trkpt lat="45.22452" lon="6.38726">
        <ele>1994.39</ele>
        <time>2009-08-01T14:22:43Z</time>
      </trkpt>
      <trkpt lat="45.22452" lon="6.38728">
        <ele>1994.39</ele>
        <time>2009-08-01T14:22:44Z</time>
      </trkpt>
      <trkpt lat="45.22452" lon="6.3873">
        <ele>1994.87</ele>
        <time>2009-08-01T14:22:45Z</time>
      </trkpt>
      <trkpt lat="45.22452" lon="6.38732">
        <ele>1994.87</ele>
        <time>2009-08-01T14:22:46Z</time>
      </trkpt>
      <trkpt lat="45.22449" lon="6.38744">
        <ele>1993.91</ele>
        <time>2009-08-01T14:22:51Z</time>
      </trkpt>
      <trkpt lat="45.2245" lon="6.38761">
        <ele>1991.03</ele>
        <time>2009-08-01T14:22:56Z</time>
      </trkpt>
      <trkpt lat="45.22451" lon="6.38765">
        <ele>1990.55</ele>
        <time>2009-08-01T14:22:57Z</time>
      </trkpt>
      <trkpt lat="45.22451" lon="6.38768">
        <ele>1989.59</ele>
        <time>2009-08-01T14:22:58Z</time>
      </trkpt>
      <trkpt lat="45.22452" lon="6.38771">
        <ele>1989.1</ele>
        <time>2009-08-01T14:22:59Z</time>
      </trkpt>
      <trkpt lat="45.22451" lon="6.38775">
        <ele>1987.66</ele>
        <time>2009-08-01T14:23:00Z</time>
      </trkpt>
      <trkpt lat="45.22451" lon="6.38779">
        <ele>1987.18</ele>
        <time>2009-08-01T14:23:01Z</time>
      </trkpt>
      <trkpt lat="45.22452" lon="6.38781">
        <ele>1986.22</ele>
        <time>2009-08-01T14:23:02Z</time>
      </trkpt>
      <trkpt lat="45.22456" lon="6.38784">
        <ele>1985.26</ele>
        <time>2009-08-01T14:23:05Z</time>
      </trkpt>
      <trkpt lat="45.22458" lon="6.3879">
        <ele>1983.82</ele>
        <time>2009-08-01T14:23:08Z</time>
      </trkpt>
      <trkpt lat="45.22462" lon="6.388">
        <ele>1979.97</ele>
        <time>2009-08-01T14:23:13Z</time>
      </trkpt>
      <trkpt lat="45.22462" lon="6.38812">
        <ele>1976.61</ele>
        <time>2009-08-01T14:23:16Z</time>
      </trkpt>
      <trkpt lat="45.22463" lon="6.38815">
        <ele>1975.17</ele>
        <time>2009-08-01T14:23:20Z</time>
      </trkpt>
      <trkpt lat="45.22468" lon="6.38817">
        <ele>1973.24</ele>
        <time>2009-08-01T14:23:27Z</time>
      </trkpt>
      <trkpt lat="45.22469" lon="6.38823">
        <ele>1971.8</ele>
        <time>2009-08-01T14:23:30Z</time>
      </trkpt>
      <trkpt lat="45.22469" lon="6.38829">
        <ele>1972.28</ele>
        <time>2009-08-01T14:23:41Z</time>
      </trkpt>
      <trkpt lat="45.2247" lon="6.38838">
        <ele>1972.28</ele>
        <time>2009-08-01T14:23:57Z</time>
      </trkpt>
      <trkpt lat="45.22469" lon="6.38842">
        <ele>1973.24</ele>
        <time>2009-08-01T14:24:12Z</time>
      </trkpt>
      <trkpt lat="45.22469" lon="6.38843">
        <ele>1973.72</ele>
        <time>2009-08-01T14:24:21Z</time>
      </trkpt>
      <trkpt lat="45.22466" lon="6.38842">
        <ele>1975.17</ele>
        <time>2009-08-01T14:24:32Z</time>
      </trkpt>
      <trkpt lat="45.22466" lon="6.38843">
        <ele>1979.01</ele>
        <time>2009-08-01T14:24:35Z</time>
      </trkpt>
      <trkpt lat="45.22466" lon="6.38843">
        <ele>1979.01</ele>
        <time>2009-08-01T14:24:36Z</time>
      </trkpt>
      <trkpt lat="45.22466" lon="6.38843">
        <ele>1975.17</ele>
        <time>2009-08-01T14:24:37Z</time>
      </trkpt>
      <trkpt lat="45.22465" lon="6.38844">
        <ele>1974.2</ele>
        <time>2009-08-01T14:24:38Z</time>
      </trkpt>
      <trkpt lat="45.22463" lon="6.38849">
        <ele>1976.61</ele>
        <time>2009-08-01T14:24:43Z</time>
      </trkpt>
      <trkpt lat="45.22462" lon="6.38854">
        <ele>1976.13</ele>
        <time>2009-08-01T14:24:52Z</time>
      </trkpt>
      <trkpt lat="45.22463" lon="6.38858">
        <ele>1978.53</ele>
        <time>2009-08-01T14:25:06Z</time>
      </trkpt>
      <trkpt lat="45.22457" lon="6.38871">
        <ele>1981.41</ele>
        <time>2009-08-01T14:25:18Z</time>
      </trkpt>
      <trkpt lat="45.22452" lon="6.38875">
        <ele>1983.34</ele>
        <time>2009-08-01T14:25:28Z</time>
      </trkpt>
      <trkpt lat="45.22441" lon="6.38885">
        <ele>1985.26</ele>
        <time>2009-08-01T14:25:40Z</time>
      </trkpt>
      <trkpt lat="45.22437" lon="6.38887">
        <ele>1985.74</ele>
        <time>2009-08-01T14:25:50Z</time>
      </trkpt>
      <trkpt lat="45.22434" lon="6.38898">
        <ele>1984.78</ele>
        <time>2009-08-01T14:25:54Z</time>
      </trkpt>
      <trkpt lat="45.2243" lon="6.38915">
        <ele>1986.7</ele>
        <time>2009-08-01T14:26:00Z</time>
      </trkpt>
      <trkpt lat="45.22438" lon="6.38949">
        <ele>1985.26</ele>
        <time>2009-08-01T14:26:10Z</time>
      </trkpt>
      <trkpt lat="45.2244" lon="6.38954">
        <ele>1984.3</ele>
        <time>2009-08-01T14:26:11Z</time>
      </trkpt>
      <trkpt lat="45.22442" lon="6.38959">
        <ele>1984.78</ele>
        <time>2009-08-01T14:26:12Z</time>
      </trkpt>
      <trkpt lat="45.22443" lon="6.38963">
        <ele>1984.3</ele>
        <time>2009-08-01T14:26:13Z</time>
      </trkpt>
      <trkpt lat="45.22444" lon="6.38967">
        <ele>1984.3</ele>
        <time>2009-08-01T14:26:14Z</time>
      </trkpt>
      <trkpt lat="45.22446" lon="6.38971">
        <ele>1984.3</ele>
        <time>2009-08-01T14:26:15Z</time>
      </trkpt>
      <trkpt lat="45.22448" lon="6.38974">
        <ele>1984.78</ele>
        <time>2009-08-01T14:26:16Z</time>
      </trkpt>
      <trkpt lat="45.22453" lon="6.38993">
        <ele>1984.78</ele>
        <time>2009-08-01T14:26:25Z</time>
      </trkpt>
      <trkpt lat="45.22453" lon="6.38999">
        <ele>1984.3</ele>
        <time>2009-08-01T14:26:30Z</time>
      </trkpt>
      <trkpt lat="45.22452" lon="6.39002">
        <ele>1984.3</ele>
        <time>2009-08-01T14:26:43Z</time>
      </trkpt>
      <trkpt lat="45.22452" lon="6.39002">
        <ele>1984.78</ele>
        <time>2009-08-01T14:27:19Z</time>
      </trkpt>
      <trkpt lat="45.22452" lon="6.39002">
        <ele>1983.82</ele>
        <time>2009-08-01T14:27:50Z</time>
      </trkpt>
      <trkpt lat="45.22452" lon="6.39002">
        <ele>1984.78</ele>
        <time>2009-08-01T14:30:10Z</time>
      </trkpt>
      <trkpt lat="45.2245" lon="6.39004">
        <ele>1984.78</ele>
        <time>2009-08-01T14:30:42Z</time>
      </trkpt>
      <trkpt lat="45.2245" lon="6.39006">
        <ele>1984.78</ele>
        <time>2009-08-01T14:30:46Z</time>
      </trkpt>
      <trkpt lat="45.22452" lon="6.39011">
        <ele>1984.3</ele>
        <time>2009-08-01T14:30:50Z</time>
      </trkpt>
      <trkpt lat="45.22459" lon="6.39017">
        <ele>1981.9</ele>
        <time>2009-08-01T14:30:54Z</time>
      </trkpt>
      <trkpt lat="45.22463" lon="6.3902">
        <ele>1980.45</ele>
        <time>2009-08-01T14:30:55Z</time>
      </trkpt>
      <trkpt lat="45.22468" lon="6.39024">
        <ele>1978.53</ele>
        <time>2009-08-01T14:30:56Z</time>
      </trkpt>
      <trkpt lat="45.22473" lon="6.39028">
        <ele>1977.09</ele>
        <time>2009-08-01T14:30:57Z</time>
      </trkpt>
      <trkpt lat="45.22479" lon="6.39032">
        <ele>1974.69</ele>
        <time>2009-08-01T14:30:58Z</time>
      </trkpt>
      <trkpt lat="45.22483" lon="6.39038">
        <ele>1973.72</ele>
        <time>2009-08-01T14:30:59Z</time>
      </trkpt>
      <trkpt lat="45.22487" lon="6.39046">
        <ele>1972.28</ele>
        <time>2009-08-01T14:31:00Z</time>
      </trkpt>
      <trkpt lat="45.2249" lon="6.39053">
        <ele>1970.84</ele>
        <time>2009-08-01T14:31:01Z</time>
      </trkpt>
      <trkpt lat="45.22494" lon="6.3906">
        <ele>1968.92</ele>
        <time>2009-08-01T14:31:02Z</time>
      </trkpt>
      <trkpt lat="45.22498" lon="6.39066">
        <ele>1967.48</ele>
        <time>2009-08-01T14:31:03Z</time>
      </trkpt>
      <trkpt lat="45.22502" lon="6.3907">
        <ele>1966.51</ele>
        <time>2009-08-01T14:31:04Z</time>
      </trkpt>
      <trkpt lat="45.22503" lon="6.39074">
        <ele>1965.07</ele>
        <time>2009-08-01T14:31:05Z</time>
      </trkpt>
      <trkpt lat="45.22502" lon="6.39076">
        <ele>1965.07</ele>
        <time>2009-08-01T14:31:06Z</time>
      </trkpt>
      <trkpt lat="45.22494" lon="6.39079">
        <ele>1962.67</ele>
        <time>2009-08-01T14:31:09Z</time>
      </trkpt>
      <trkpt lat="45.22491" lon="6.39081">
        <ele>1960.75</ele>
        <time>2009-08-01T14:31:11Z</time>
      </trkpt>
      <trkpt lat="45.22494" lon="6.3909">
        <ele>1957.86</ele>
        <time>2009-08-01T14:31:14Z</time>
      </trkpt>
      <trkpt lat="45.22501" lon="6.39103">
        <ele>1955.94</ele>
        <time>2009-08-01T14:31:17Z</time>
      </trkpt>
      <trkpt lat="45.22505" lon="6.39107">
        <ele>1954.5</ele>
        <time>2009-08-01T14:31:18Z</time>
      </trkpt>
      <trkpt lat="45.22509" lon="6.3911">
        <ele>1954.02</ele>
        <time>2009-08-01T14:31:19Z</time>
      </trkpt>
      <trkpt lat="45.22513" lon="6.39112">
        <ele>1953.54</ele>
        <time>2009-08-01T14:31:20Z</time>
      </trkpt>
      <trkpt lat="45.22516" lon="6.39115">
        <ele>1953.06</ele>
        <time>2009-08-01T14:31:21Z</time>
      </trkpt>
      <trkpt lat="45.22518" lon="6.3912">
        <ele>1952.57</ele>
        <time>2009-08-01T14:31:22Z</time>
      </trkpt>
      <trkpt lat="45.22521" lon="6.39124">
        <ele>1951.13</ele>
        <time>2009-08-01T14:31:23Z</time>
      </trkpt>
      <trkpt lat="45.22525" lon="6.39127">
        <ele>1950.17</ele>
        <time>2009-08-01T14:31:24Z</time>
      </trkpt>
      <trkpt lat="45.22529" lon="6.39129">
        <ele>1948.73</ele>
        <time>2009-08-01T14:31:25Z</time>
      </trkpt>
      <trkpt lat="45.22533" lon="6.39131">
        <ele>1947.77</ele>
        <time>2009-08-01T14:31:26Z</time>
      </trkpt>
      <trkpt lat="45.22534" lon="6.39133">
        <ele>1946.81</ele>
        <time>2009-08-01T14:31:27Z</time>
      </trkpt>
      <trkpt lat="45.22527" lon="6.39143">
        <ele>1944.4</ele>
        <time>2009-08-01T14:31:31Z</time>
      </trkpt>
      <trkpt lat="45.22523" lon="6.39148">
        <ele>1942.48</ele>
        <time>2009-08-01T14:31:32Z</time>
      </trkpt>
      <trkpt lat="45.2252" lon="6.39154">
        <ele>1941.04</ele>
        <time>2009-08-01T14:31:33Z</time>
      </trkpt>
      <trkpt lat="45.22517" lon="6.3916">
        <ele>1939.12</ele>
        <time>2009-08-01T14:31:34Z</time>
      </trkpt>
      <trkpt lat="45.22513" lon="6.39168">
        <ele>1938.16</ele>
        <time>2009-08-01T14:31:35Z</time>
      </trkpt>
      <trkpt lat="45.22508" lon="6.39178">
        <ele>1935.75</ele>
        <time>2009-08-01T14:31:36Z</time>
      </trkpt>
      <trkpt lat="45.22502" lon="6.39199">
        <ele>1932.87</ele>
        <time>2009-08-01T14:31:38Z</time>
      </trkpt>
      <trkpt lat="45.22495" lon="6.39216">
        <ele>1931.43</ele>
        <time>2009-08-01T14:31:40Z</time>
      </trkpt>
      <trkpt lat="45.22484" lon="6.39236">
        <ele>1927.58</ele>
        <time>2009-08-01T14:31:43Z</time>
      </trkpt>
      <trkpt lat="45.2247" lon="6.39249">
        <ele>1924.22</ele>
        <time>2009-08-01T14:31:48Z</time>
      </trkpt>
      <trkpt lat="45.22463" lon="6.39257">
        <ele>1920.85</ele>
        <time>2009-08-01T14:31:50Z</time>
      </trkpt>
      <trkpt lat="45.2246" lon="6.3926">
        <ele>1919.41</ele>
        <time>2009-08-01T14:31:51Z</time>
      </trkpt>
      <trkpt lat="45.22461" lon="6.39262">
        <ele>1919.41</ele>
        <time>2009-08-01T14:31:52Z</time>
      </trkpt>
      <trkpt lat="45.22466" lon="6.39265">
        <ele>1918.45</ele>
        <time>2009-08-01T14:31:54Z</time>
      </trkpt>
      <trkpt lat="45.22479" lon="6.3927">
        <ele>1916.04</ele>
        <time>2009-08-01T14:31:57Z</time>
      </trkpt>
      <trkpt lat="45.22484" lon="6.39271">
        <ele>1915.56</ele>
        <time>2009-08-01T14:31:58Z</time>
      </trkpt>
      <trkpt lat="45.22489" lon="6.39273">
        <ele>1914.12</ele>
        <time>2009-08-01T14:31:59Z</time>
      </trkpt>
      <trkpt lat="45.22503" lon="6.39277">
        <ele>1911.24</ele>
        <time>2009-08-01T14:32:01Z</time>
      </trkpt>
      <trkpt lat="45.22509" lon="6.39277">
        <ele>1909.8</ele>
        <time>2009-08-01T14:32:02Z</time>
      </trkpt>
      <trkpt lat="45.22514" lon="6.39276">
        <ele>1908.83</ele>
        <time>2009-08-01T14:32:03Z</time>
      </trkpt>
      <trkpt lat="45.2252" lon="6.39274">
        <ele>1908.35</ele>
        <time>2009-08-01T14:32:04Z</time>
      </trkpt>
      <trkpt lat="45.22531" lon="6.39267">
        <ele>1907.87</ele>
        <time>2009-08-01T14:32:06Z</time>
      </trkpt>
      <trkpt lat="45.22542" lon="6.3926">
        <ele>1906.43</ele>
        <time>2009-08-01T14:32:08Z</time>
      </trkpt>
      <trkpt lat="45.22547" lon="6.39259">
        <ele>1905.47</ele>
        <time>2009-08-01T14:32:09Z</time>
      </trkpt>
      <trkpt lat="45.22552" lon="6.39259">
        <ele>1904.51</ele>
        <time>2009-08-01T14:32:10Z</time>
      </trkpt>
      <trkpt lat="45.22563" lon="6.39259">
        <ele>1902.59</ele>
        <time>2009-08-01T14:32:12Z</time>
      </trkpt>
      <trkpt lat="45.22569" lon="6.39259">
        <ele>1901.63</ele>
        <time>2009-08-01T14:32:13Z</time>
      </trkpt>
      <trkpt lat="45.22575" lon="6.3926">
        <ele>1900.66</ele>
        <time>2009-08-01T14:32:14Z</time>
      </trkpt>
      <trkpt lat="45.22581" lon="6.39261">
        <ele>1899.7</ele>
        <time>2009-08-01T14:32:15Z</time>
      </trkpt>
      <trkpt lat="45.22588" lon="6.39263">
        <ele>1898.74</ele>
        <time>2009-08-01T14:32:16Z</time>
      </trkpt>
      <trkpt lat="45.22595" lon="6.39264">
        <ele>1896.82</ele>
        <time>2009-08-01T14:32:17Z</time>
      </trkpt>
      <trkpt lat="45.22601" lon="6.39265">
        <ele>1895.86</ele>
        <time>2009-08-01T14:32:18Z</time>
      </trkpt>
      <trkpt lat="45.22606" lon="6.39264">
        <ele>1894.42</ele>
        <time>2009-08-01T14:32:19Z</time>
      </trkpt>
      <trkpt lat="45.22613" lon="6.39264">
        <ele>1892.97</ele>
        <time>2009-08-01T14:32:20Z</time>
      </trkpt>
      <trkpt lat="45.2262" lon="6.39264">
        <ele>1892.49</ele>
        <time>2009-08-01T14:32:21Z</time>
      </trkpt>
      <trkpt lat="45.22625" lon="6.39263">
        <ele>1891.53</ele>
        <time>2009-08-01T14:32:22Z</time>
      </trkpt>
      <trkpt lat="45.22628" lon="6.39261">
        <ele>1891.05</ele>
        <time>2009-08-01T14:32:23Z</time>
      </trkpt>
      <trkpt lat="45.22631" lon="6.39259">
        <ele>1890.09</ele>
        <time>2009-08-01T14:32:24Z</time>
      </trkpt>
      <trkpt lat="45.22635" lon="6.39259">
        <ele>1889.61</ele>
        <time>2009-08-01T14:32:25Z</time>
      </trkpt>
      <trkpt lat="45.22638" lon="6.3926">
        <ele>1888.17</ele>
        <time>2009-08-01T14:32:26Z</time>
      </trkpt>
      <trkpt lat="45.22646" lon="6.39262">
        <ele>1886.72</ele>
        <time>2009-08-01T14:32:29Z</time>
      </trkpt>
      <trkpt lat="45.22644" lon="6.3927">
        <ele>1884.8</ele>
        <time>2009-08-01T14:32:32Z</time>
      </trkpt>
      <trkpt lat="45.22639" lon="6.39281">
        <ele>1882.88</ele>
        <time>2009-08-01T14:32:34Z</time>
      </trkpt>
      <trkpt lat="45.22639" lon="6.39287">
        <ele>1882.4</ele>
        <time>2009-08-01T14:32:35Z</time>
      </trkpt>
      <trkpt lat="45.22639" lon="6.39292">
        <ele>1882.4</ele>
        <time>2009-08-01T14:32:36Z</time>
      </trkpt>
      <trkpt lat="45.22638" lon="6.39297">
        <ele>1881.44</ele>
        <time>2009-08-01T14:32:37Z</time>
      </trkpt>
      <trkpt lat="45.22636" lon="6.39304">
        <ele>1880.48</ele>
        <time>2009-08-01T14:32:38Z</time>
      </trkpt>
      <trkpt lat="45.22629" lon="6.39325">
        <ele>1876.63</ele>
        <time>2009-08-01T14:32:41Z</time>
      </trkpt>
      <trkpt lat="45.22626" lon="6.39331">
        <ele>1875.19</ele>
        <time>2009-08-01T14:32:42Z</time>
      </trkpt>
      <trkpt lat="45.22622" lon="6.39339">
        <ele>1874.23</ele>
        <time>2009-08-01T14:32:43Z</time>
      </trkpt>
      <trkpt lat="45.22619" lon="6.39348">
        <ele>1873.27</ele>
        <time>2009-08-01T14:32:44Z</time>
      </trkpt>
      <trkpt lat="45.22618" lon="6.39358">
        <ele>1871.34</ele>
        <time>2009-08-01T14:32:45Z</time>
      </trkpt>
      <trkpt lat="45.22617" lon="6.39369">
        <ele>1869.42</ele>
        <time>2009-08-01T14:32:46Z</time>
      </trkpt>
      <trkpt lat="45.22615" lon="6.39377">
        <ele>1867.98</ele>
        <time>2009-08-01T14:32:47Z</time>
      </trkpt>
      <trkpt lat="45.22616" lon="6.39382">
        <ele>1867.02</ele>
        <time>2009-08-01T14:32:48Z</time>
      </trkpt>
      <trkpt lat="45.22635" lon="6.39392">
        <ele>1863.17</ele>
        <time>2009-08-01T14:32:52Z</time>
      </trkpt>
      <trkpt lat="45.2265" lon="6.39396">
        <ele>1860.77</ele>
        <time>2009-08-01T14:32:54Z</time>
      </trkpt>
      <trkpt lat="45.22667" lon="6.39399">
        <ele>1858.85</ele>
        <time>2009-08-01T14:32:57Z</time>
      </trkpt>
      <trkpt lat="45.22687" lon="6.39412">
        <ele>1852.6</ele>
        <time>2009-08-01T14:33:01Z</time>
      </trkpt>
      <trkpt lat="45.22705" lon="6.39417">
        <ele>1849.23</ele>
        <time>2009-08-01T14:33:05Z</time>
      </trkpt>
      <trkpt lat="45.22718" lon="6.3942">
        <ele>1848.27</ele>
        <time>2009-08-01T14:33:08Z</time>
      </trkpt>
      <trkpt lat="45.22731" lon="6.39429">
        <ele>1844.43</ele>
        <time>2009-08-01T14:33:12Z</time>
      </trkpt>
      <trkpt lat="45.22736" lon="6.39434">
        <ele>1842.5</ele>
        <time>2009-08-01T14:33:15Z</time>
      </trkpt>
      <trkpt lat="45.22739" lon="6.39439">
        <ele>1839.14</ele>
        <time>2009-08-01T14:33:19Z</time>
      </trkpt>
      <trkpt lat="45.22739" lon="6.3944">
        <ele>1839.14</ele>
        <time>2009-08-01T14:33:20Z</time>
      </trkpt>
      <trkpt lat="45.22731" lon="6.39449">
        <ele>1835.29</ele>
        <time>2009-08-01T14:33:25Z</time>
      </trkpt>
      <trkpt lat="45.22724" lon="6.39454">
        <ele>1832.41</ele>
        <time>2009-08-01T14:33:27Z</time>
      </trkpt>
      <trkpt lat="45.2271" lon="6.39478">
        <ele>1827.6</ele>
        <time>2009-08-01T14:33:33Z</time>
      </trkpt>
      <trkpt lat="45.22701" lon="6.3949">
        <ele>1823.76</ele>
        <time>2009-08-01T14:33:38Z</time>
      </trkpt>
      <trkpt lat="45.22698" lon="6.39495">
        <ele>1820.87</ele>
        <time>2009-08-01T14:33:45Z</time>
      </trkpt>
      <trkpt lat="45.22696" lon="6.39495">
        <ele>1821.35</ele>
        <time>2009-08-01T14:33:47Z</time>
      </trkpt>
      <trkpt lat="45.22692" lon="6.39495">
        <ele>1821.84</ele>
        <time>2009-08-01T14:33:51Z</time>
      </trkpt>
      <trkpt lat="45.22683" lon="6.395">
        <ele>1820.39</ele>
        <time>2009-08-01T14:34:01Z</time>
      </trkpt>
      <trkpt lat="45.22683" lon="6.395">
        <ele>1820.39</ele>
        <time>2009-08-01T14:34:44Z</time>
      </trkpt>
      <trkpt lat="45.22669" lon="6.39518">
        <ele>1816.07</ele>
        <time>2009-08-01T14:34:50Z</time>
      </trkpt>
      <trkpt lat="45.2266" lon="6.39529">
        <ele>1813.18</ele>
        <time>2009-08-01T14:34:53Z</time>
      </trkpt>
      <trkpt lat="45.22653" lon="6.39536">
        <ele>1812.22</ele>
        <time>2009-08-01T14:34:55Z</time>
      </trkpt>
      <trkpt lat="45.22637" lon="6.39548">
        <ele>1808.86</ele>
        <time>2009-08-01T14:34:59Z</time>
      </trkpt>
      <trkpt lat="45.2263" lon="6.39554">
        <ele>1805.49</ele>
        <time>2009-08-01T14:35:02Z</time>
      </trkpt>
      <trkpt lat="45.22628" lon="6.39556">
        <ele>1804.05</ele>
        <time>2009-08-01T14:35:03Z</time>
      </trkpt>
      <trkpt lat="45.2262" lon="6.39562">
        <ele>1802.61</ele>
        <time>2009-08-01T14:35:05Z</time>
      </trkpt>
      <trkpt lat="45.22614" lon="6.39569">
        <ele>1799.73</ele>
        <time>2009-08-01T14:35:07Z</time>
      </trkpt>
      <trkpt lat="45.22605" lon="6.39581">
        <ele>1796.84</ele>
        <time>2009-08-01T14:35:10Z</time>
      </trkpt>
      <trkpt lat="45.22599" lon="6.39589">
        <ele>1793.48</ele>
        <time>2009-08-01T14:35:12Z</time>
      </trkpt>
      <trkpt lat="45.22589" lon="6.39604">
        <ele>1789.63</ele>
        <time>2009-08-01T14:35:15Z</time>
      </trkpt>
      <trkpt lat="45.22586" lon="6.39611">
        <ele>1786.27</ele>
        <time>2009-08-01T14:35:19Z</time>
      </trkpt>
      <trkpt lat="45.22586" lon="6.39612">
        <ele>1785.31</ele>
        <time>2009-08-01T14:35:25Z</time>
      </trkpt>
      <trkpt lat="45.22599" lon="6.39622">
        <ele>1780.98</ele>
        <time>2009-08-01T14:35:32Z</time>
      </trkpt>
      <trkpt lat="45.22611" lon="6.39625">
        <ele>1777.61</ele>
        <time>2009-08-01T14:35:35Z</time>
      </trkpt>
      <trkpt lat="45.22623" lon="6.39628">
        <ele>1773.77</ele>
        <time>2009-08-01T14:35:38Z</time>
      </trkpt>
      <trkpt lat="45.22631" lon="6.39628">
        <ele>1772.81</ele>
        <time>2009-08-01T14:35:40Z</time>
      </trkpt>
      <trkpt lat="45.2266" lon="6.39634">
        <ele>1766.56</ele>
        <time>2009-08-01T14:35:45Z</time>
      </trkpt>
      <trkpt lat="45.22678" lon="6.39639">
        <ele>1762.71</ele>
        <time>2009-08-01T14:35:49Z</time>
      </trkpt>
      <trkpt lat="45.22683" lon="6.39641">
        <ele>1760.79</ele>
        <time>2009-08-01T14:35:51Z</time>
      </trkpt>
      <trkpt lat="45.22687" lon="6.39642">
        <ele>1759.83</ele>
        <time>2009-08-01T14:35:53Z</time>
      </trkpt>
      <trkpt lat="45.22701" lon="6.39651">
        <ele>1756.47</ele>
        <time>2009-08-01T14:35:58Z</time>
      </trkpt>
      <trkpt lat="45.22709" lon="6.39659">
        <ele>1755.02</ele>
        <time>2009-08-01T14:36:00Z</time>
      </trkpt>
      <trkpt lat="45.22727" lon="6.39678">
        <ele>1749.74</ele>
        <time>2009-08-01T14:36:04Z</time>
      </trkpt>
      <trkpt lat="45.22734" lon="6.39682">
        <ele>1748.78</ele>
        <time>2009-08-01T14:36:06Z</time>
      </trkpt>
      <trkpt lat="45.22736" lon="6.39684">
        <ele>1747.81</ele>
        <time>2009-08-01T14:36:07Z</time>
      </trkpt>
      <trkpt lat="45.22743" lon="6.39689">
        <ele>1746.37</ele>
        <time>2009-08-01T14:36:09Z</time>
      </trkpt>
      <trkpt lat="45.22754" lon="6.39696">
        <ele>1743.01</ele>
        <time>2009-08-01T14:36:12Z</time>
      </trkpt>
      <trkpt lat="45.22762" lon="6.39702">
        <ele>1741.08</ele>
        <time>2009-08-01T14:36:14Z</time>
      </trkpt>
      <trkpt lat="45.2278" lon="6.39705">
        <ele>1737.24</ele>
        <time>2009-08-01T14:36:18Z</time>
      </trkpt>
      <trkpt lat="45.2279" lon="6.39711">
        <ele>1733.88</ele>
        <time>2009-08-01T14:36:21Z</time>
      </trkpt>
      <trkpt lat="45.22798" lon="6.39715">
        <ele>1731.47</ele>
        <time>2009-08-01T14:36:23Z</time>
      </trkpt>
      <trkpt lat="45.22808" lon="6.39718">
        <ele>1727.63</ele>
        <time>2009-08-01T14:36:25Z</time>
      </trkpt>
      <trkpt lat="45.2283" lon="6.39728">
        <ele>1721.38</ele>
        <time>2009-08-01T14:36:29Z</time>
      </trkpt>
      <trkpt lat="45.22853" lon="6.39733">
        <ele>1717.53</ele>
        <time>2009-08-01T14:36:33Z</time>
      </trkpt>
      <trkpt lat="45.22859" lon="6.39732">
        <ele>1716.09</ele>
        <time>2009-08-01T14:36:34Z</time>
      </trkpt>
      <trkpt lat="45.22873" lon="6.39731">
        <ele>1713.69</ele>
        <time>2009-08-01T14:36:36Z</time>
      </trkpt>
      <trkpt lat="45.22906" lon="6.3973">
        <ele>1707.44</ele>
        <time>2009-08-01T14:36:40Z</time>
      </trkpt>
      <trkpt lat="45.22927" lon="6.39728">
        <ele>1706</ele>
        <time>2009-08-01T14:36:43Z</time>
      </trkpt>
      <trkpt lat="45.22947" lon="6.39727">
        <ele>1704.07</ele>
        <time>2009-08-01T14:36:46Z</time>
      </trkpt>
      <trkpt lat="45.22967" lon="6.39725">
        <ele>1699.75</ele>
        <time>2009-08-01T14:36:49Z</time>
      </trkpt>
      <trkpt lat="45.22979" lon="6.39725">
        <ele>1697.34</ele>
        <time>2009-08-01T14:36:51Z</time>
      </trkpt>
      <trkpt lat="45.22985" lon="6.39726">
        <ele>1695.9</ele>
        <time>2009-08-01T14:36:52Z</time>
      </trkpt>
      <trkpt lat="45.2299" lon="6.39727">
        <ele>1695.42</ele>
        <time>2009-08-01T14:36:53Z</time>
      </trkpt>
      <trkpt lat="45.23008" lon="6.39734">
        <ele>1691.58</ele>
        <time>2009-08-01T14:36:57Z</time>
      </trkpt>
      <trkpt lat="45.23017" lon="6.39739">
        <ele>1688.69</ele>
        <time>2009-08-01T14:37:00Z</time>
      </trkpt>
      <trkpt lat="45.23019" lon="6.39739">
        <ele>1688.69</ele>
        <time>2009-08-01T14:37:01Z</time>
      </trkpt>
      <trkpt lat="45.2302" lon="6.39741">
        <ele>1686.77</ele>
        <time>2009-08-01T14:37:04Z</time>
      </trkpt>
      <trkpt lat="45.23017" lon="6.3975">
        <ele>1684.37</ele>
        <time>2009-08-01T14:37:07Z</time>
      </trkpt>
      <trkpt lat="45.23011" lon="6.39769">
        <ele>1679.56</ele>
        <time>2009-08-01T14:37:10Z</time>
      </trkpt>
      <trkpt lat="45.23009" lon="6.39776">
        <ele>1678.12</ele>
        <time>2009-08-01T14:37:11Z</time>
      </trkpt>
      <trkpt lat="45.23004" lon="6.39791">
        <ele>1674.27</ele>
        <time>2009-08-01T14:37:13Z</time>
      </trkpt>
      <trkpt lat="45.22994" lon="6.39811">
        <ele>1670.43</ele>
        <time>2009-08-01T14:37:16Z</time>
      </trkpt>
      <trkpt lat="45.2299" lon="6.39817">
        <ele>1667.54</ele>
        <time>2009-08-01T14:37:17Z</time>
      </trkpt>
      <trkpt lat="45.22976" lon="6.39835">
        <ele>1663.7</ele>
        <time>2009-08-01T14:37:20Z</time>
      </trkpt>
      <trkpt lat="45.22959" lon="6.39852">
        <ele>1657.93</ele>
        <time>2009-08-01T14:37:23Z</time>
      </trkpt>
      <trkpt lat="45.22955" lon="6.39857">
        <ele>1657.45</ele>
        <time>2009-08-01T14:37:24Z</time>
      </trkpt>
      <trkpt lat="45.22951" lon="6.39863">
        <ele>1656.01</ele>
        <time>2009-08-01T14:37:25Z</time>
      </trkpt>
      <trkpt lat="45.22948" lon="6.39868">
        <ele>1654.57</ele>
        <time>2009-08-01T14:37:26Z</time>
      </trkpt>
      <trkpt lat="45.22945" lon="6.39874">
        <ele>1653.6</ele>
        <time>2009-08-01T14:37:27Z</time>
      </trkpt>
      <trkpt lat="45.22944" lon="6.39881">
        <ele>1651.68</ele>
        <time>2009-08-01T14:37:28Z</time>
      </trkpt>
      <trkpt lat="45.22945" lon="6.39889">
        <ele>1650.72</ele>
        <time>2009-08-01T14:37:29Z</time>
      </trkpt>
      <trkpt lat="45.22945" lon="6.39896">
        <ele>1649.76</ele>
        <time>2009-08-01T14:37:30Z</time>
      </trkpt>
      <trkpt lat="45.22945" lon="6.39901">
        <ele>1649.28</ele>
        <time>2009-08-01T14:37:31Z</time>
      </trkpt>
      <trkpt lat="45.22945" lon="6.39904">
        <ele>1649.28</ele>
        <time>2009-08-01T14:37:50Z</time>
      </trkpt>
      <trkpt lat="45.22945" lon="6.39903">
        <ele>1645.43</ele>
        <time>2009-08-01T14:38:19Z</time>
      </trkpt>
      <trkpt lat="45.22945" lon="6.39903">
        <ele>1649.28</ele>
        <time>2009-08-01T14:38:20Z</time>
      </trkpt>
      <trkpt lat="45.22945" lon="6.39906">
        <ele>1649.76</ele>
        <time>2009-08-01T14:42:35Z</time>
      </trkpt>
      <trkpt lat="45.22946" lon="6.39908">
        <ele>1649.28</ele>
        <time>2009-08-01T14:44:18Z</time>
      </trkpt>
      <trkpt lat="45.22946" lon="6.3991">
        <ele>1648.8</ele>
        <time>2009-08-01T14:44:19Z</time>
      </trkpt>
      <trkpt lat="45.22948" lon="6.39913">
        <ele>1647.84</ele>
        <time>2009-08-01T14:44:29Z</time>
      </trkpt>
      <trkpt lat="45.2295" lon="6.3991">
        <ele>1646.88</ele>
        <time>2009-08-01T14:44:30Z</time>
      </trkpt>
      <trkpt lat="45.22953" lon="6.39906">
        <ele>1646.4</ele>
        <time>2009-08-01T14:44:31Z</time>
      </trkpt>
      <trkpt lat="45.22957" lon="6.39903">
        <ele>1645.43</ele>
        <time>2009-08-01T14:44:32Z</time>
      </trkpt>
      <trkpt lat="45.22962" lon="6.39901">
        <ele>1645.43</ele>
        <time>2009-08-01T14:44:33Z</time>
      </trkpt>
      <trkpt lat="45.22967" lon="6.399">
        <ele>1645.91</ele>
        <time>2009-08-01T14:44:34Z</time>
      </trkpt>
      <trkpt lat="45.22987" lon="6.39895">
        <ele>1644.47</ele>
        <time>2009-08-01T14:44:40Z</time>
      </trkpt>
      <trkpt lat="45.22991" lon="6.39895">
        <ele>1643.99</ele>
        <time>2009-08-01T14:44:41Z</time>
      </trkpt>
      <trkpt lat="45.22996" lon="6.39895">
        <ele>1643.51</ele>
        <time>2009-08-01T14:44:42Z</time>
      </trkpt>
      <trkpt lat="45.23" lon="6.39893">
        <ele>1643.51</ele>
        <time>2009-08-01T14:44:43Z</time>
      </trkpt>
      <trkpt lat="45.23004" lon="6.3989">
        <ele>1643.03</ele>
        <time>2009-08-01T14:44:44Z</time>
      </trkpt>
      <trkpt lat="45.23007" lon="6.39889">
        <ele>1641.59</ele>
        <time>2009-08-01T14:44:45Z</time>
      </trkpt>
      <trkpt lat="45.23016" lon="6.39886">
        <ele>1641.11</ele>
        <time>2009-08-01T14:44:47Z</time>
      </trkpt>
      <trkpt lat="45.23021" lon="6.39884">
        <ele>1640.63</ele>
        <time>2009-08-01T14:44:48Z</time>
      </trkpt>
      <trkpt lat="45.23044" lon="6.39872">
        <ele>1637.26</ele>
        <time>2009-08-01T14:44:52Z</time>
      </trkpt>
      <trkpt lat="45.23049" lon="6.3987">
        <ele>1635.34</ele>
        <time>2009-08-01T14:44:53Z</time>
      </trkpt>
      <trkpt lat="45.23052" lon="6.39866">
        <ele>1634.86</ele>
        <time>2009-08-01T14:44:54Z</time>
      </trkpt>
      <trkpt lat="45.23056" lon="6.39863">
        <ele>1633.9</ele>
        <time>2009-08-01T14:44:55Z</time>
      </trkpt>
      <trkpt lat="45.23059" lon="6.39859">
        <ele>1633.9</ele>
        <time>2009-08-01T14:44:56Z</time>
      </trkpt>
      <trkpt lat="45.23061" lon="6.39856">
        <ele>1632.94</ele>
        <time>2009-08-01T14:44:57Z</time>
      </trkpt>
      <trkpt lat="45.23062" lon="6.39852">
        <ele>1631.98</ele>
        <time>2009-08-01T14:44:58Z</time>
      </trkpt>
      <trkpt lat="45.23063" lon="6.39848">
        <ele>1631.01</ele>
        <time>2009-08-01T14:44:59Z</time>
      </trkpt>
      <trkpt lat="45.23064" lon="6.39844">
        <ele>1631.01</ele>
        <time>2009-08-01T14:45:00Z</time>
      </trkpt>
      <trkpt lat="45.23066" lon="6.39837">
        <ele>1629.57</ele>
        <time>2009-08-01T14:45:02Z</time>
      </trkpt>
      <trkpt lat="45.23066" lon="6.39833">
        <ele>1629.09</ele>
        <time>2009-08-01T14:45:03Z</time>
      </trkpt>
      <trkpt lat="45.23063" lon="6.39817">
        <ele>1626.21</ele>
        <time>2009-08-01T14:45:09Z</time>
      </trkpt>
      <trkpt lat="45.23057" lon="6.39802">
        <ele>1622.84</ele>
        <time>2009-08-01T14:45:14Z</time>
      </trkpt>
      <trkpt lat="45.23069" lon="6.39783">
        <ele>1623.32</ele>
        <time>2009-08-01T14:45:32Z</time>
      </trkpt>
      <trkpt lat="45.23081" lon="6.39772">
        <ele>1623.32</ele>
        <time>2009-08-01T14:45:42Z</time>
      </trkpt>
      <trkpt lat="45.23084" lon="6.39765">
        <ele>1621.88</ele>
        <time>2009-08-01T14:45:52Z</time>
      </trkpt>
      <trkpt lat="45.23092" lon="6.39752">
        <ele>1621.88</ele>
        <time>2009-08-01T14:45:55Z</time>
      </trkpt>
      <trkpt lat="45.23101" lon="6.39746">
        <ele>1621.4</ele>
        <time>2009-08-01T14:45:56Z</time>
      </trkpt>
      <trkpt lat="45.23108" lon="6.39736">
        <ele>1621.88</ele>
        <time>2009-08-01T14:46:00Z</time>
      </trkpt>
      <trkpt lat="45.23108" lon="6.39719">
        <ele>1619.96</ele>
        <time>2009-08-01T14:46:04Z</time>
      </trkpt>
      <trkpt lat="45.23105" lon="6.397">
        <ele>1617.07</ele>
        <time>2009-08-01T14:46:09Z</time>
      </trkpt>
      <trkpt lat="45.23099" lon="6.39693">
        <ele>1614.19</ele>
        <time>2009-08-01T14:46:33Z</time>
      </trkpt>
      <trkpt lat="45.23101" lon="6.39695">
        <ele>1612.27</ele>
        <time>2009-08-01T14:47:10Z</time>
      </trkpt>
      <trkpt lat="45.2311" lon="6.39699">
        <ele>1609.86</ele>
        <time>2009-08-01T14:47:28Z</time>
      </trkpt>
      <trkpt lat="45.2311" lon="6.397">
        <ele>1607.94</ele>
        <time>2009-08-01T14:47:39Z</time>
      </trkpt>
      <trkpt lat="45.23113" lon="6.39692">
        <ele>1606.5</ele>
        <time>2009-08-01T14:47:43Z</time>
      </trkpt>
      <trkpt lat="45.23116" lon="6.39691">
        <ele>1603.14</ele>
        <time>2009-08-01T14:47:55Z</time>
      </trkpt>
      <trkpt lat="45.23117" lon="6.39692">
        <ele>1603.14</ele>
        <time>2009-08-01T14:47:56Z</time>
      </trkpt>
      <trkpt lat="45.23126" lon="6.397">
        <ele>1602.17</ele>
        <time>2009-08-01T14:48:05Z</time>
      </trkpt>
      <trkpt lat="45.23114" lon="6.39692">
        <ele>1598.33</ele>
        <time>2009-08-01T14:48:24Z</time>
      </trkpt>
      <trkpt lat="45.23117" lon="6.39691">
        <ele>1594.96</ele>
        <time>2009-08-01T14:48:37Z</time>
      </trkpt>
      <trkpt lat="45.23121" lon="6.39697">
        <ele>1594.48</ele>
        <time>2009-08-01T14:49:12Z</time>
      </trkpt>
      <trkpt lat="45.2313" lon="6.39699">
        <ele>1592.08</ele>
        <time>2009-08-01T14:49:39Z</time>
      </trkpt>
      <trkpt lat="45.23146" lon="6.39699">
        <ele>1590.16</ele>
        <time>2009-08-01T14:49:49Z</time>
      </trkpt>
      <trkpt lat="45.23135" lon="6.397">
        <ele>1586.79</ele>
        <time>2009-08-01T14:50:08Z</time>
      </trkpt>
      <trkpt lat="45.23135" lon="6.397">
        <ele>1586.31</ele>
        <time>2009-08-01T14:50:10Z</time>
      </trkpt>
      <trkpt lat="45.23136" lon="6.39696">
        <ele>1585.35</ele>
        <time>2009-08-01T14:50:14Z</time>
      </trkpt>
      <trkpt lat="45.23138" lon="6.39693">
        <ele>1583.43</ele>
        <time>2009-08-01T14:50:25Z</time>
      </trkpt>
      <trkpt lat="45.2314" lon="6.39697">
        <ele>1581.99</ele>
        <time>2009-08-01T14:50:28Z</time>
      </trkpt>
      <trkpt lat="45.23138" lon="6.397">
        <ele>1581.03</ele>
        <time>2009-08-01T14:50:30Z</time>
      </trkpt>
      <trkpt lat="45.23148" lon="6.39702">
        <ele>1577.18</ele>
        <time>2009-08-01T14:50:42Z</time>
      </trkpt>
      <trkpt lat="45.23154" lon="6.39708">
        <ele>1575.26</ele>
        <time>2009-08-01T14:50:47Z</time>
      </trkpt>
      <trkpt lat="45.23159" lon="6.397">
        <ele>1572.37</ele>
        <time>2009-08-01T14:50:54Z</time>
      </trkpt>
      <trkpt lat="45.23183" lon="6.39698">
        <ele>1569.97</ele>
        <time>2009-08-01T14:51:08Z</time>
      </trkpt>
      <trkpt lat="45.23192" lon="6.39701">
        <ele>1567.57</ele>
        <time>2009-08-01T14:51:11Z</time>
      </trkpt>
      <trkpt lat="45.23196" lon="6.39696">
        <ele>1566.12</ele>
        <time>2009-08-01T14:51:21Z</time>
      </trkpt>
      <trkpt lat="45.23191" lon="6.39706">
        <ele>1562.28</ele>
        <time>2009-08-01T14:51:26Z</time>
      </trkpt>
      <trkpt lat="45.23192" lon="6.39711">
        <ele>1561.32</ele>
        <time>2009-08-01T14:51:28Z</time>
      </trkpt>
      <trkpt lat="45.23195" lon="6.39717">
        <ele>1558.43</ele>
        <time>2009-08-01T14:51:33Z</time>
      </trkpt>
      <trkpt lat="45.23203" lon="6.39722">
        <ele>1552.67</ele>
        <time>2009-08-01T14:51:37Z</time>
      </trkpt>
      <trkpt lat="45.23209" lon="6.39723">
        <ele>1549.78</ele>
        <time>2009-08-01T14:51:40Z</time>
      </trkpt>
      <trkpt lat="45.23212" lon="6.39724">
        <ele>1548.34</ele>
        <time>2009-08-01T14:51:42Z</time>
      </trkpt>
      <trkpt lat="45.23217" lon="6.39724">
        <ele>1544.98</ele>
        <time>2009-08-01T14:51:45Z</time>
      </trkpt>
      <trkpt lat="45.2322" lon="6.39728">
        <ele>1544.01</ele>
        <time>2009-08-01T14:51:48Z</time>
      </trkpt>
      <trkpt lat="45.23228" lon="6.3974">
        <ele>1538.73</ele>
        <time>2009-08-01T14:51:53Z</time>
      </trkpt>
      <trkpt lat="45.23234" lon="6.39748">
        <ele>1534.4</ele>
        <time>2009-08-01T14:51:56Z</time>
      </trkpt>
      <trkpt lat="45.23238" lon="6.39751">
        <ele>1532.96</ele>
        <time>2009-08-01T14:51:58Z</time>
      </trkpt>
      <trkpt lat="45.23241" lon="6.39753">
        <ele>1531.52</ele>
        <time>2009-08-01T14:52:04Z</time>
      </trkpt>
      <trkpt lat="45.23246" lon="6.39761">
        <ele>1527.67</ele>
        <time>2009-08-01T14:52:09Z</time>
      </trkpt>
      <trkpt lat="45.23248" lon="6.39774">
        <ele>1523.83</ele>
        <time>2009-08-01T14:52:14Z</time>
      </trkpt>
      <trkpt lat="45.23248" lon="6.39775">
        <ele>1523.83</ele>
        <time>2009-08-01T14:52:15Z</time>
      </trkpt>
      <trkpt lat="45.23249" lon="6.39776">
        <ele>1523.35</ele>
        <time>2009-08-01T14:52:16Z</time>
      </trkpt>
      <trkpt lat="45.2326" lon="6.39786">
        <ele>1519.02</ele>
        <time>2009-08-01T14:52:20Z</time>
      </trkpt>
      <trkpt lat="45.23264" lon="6.39788">
        <ele>1518.54</ele>
        <time>2009-08-01T14:52:21Z</time>
      </trkpt>
      <trkpt lat="45.23283" lon="6.39799">
        <ele>1511.81</ele>
        <time>2009-08-01T14:52:25Z</time>
      </trkpt>
      <trkpt lat="45.23294" lon="6.39804">
        <ele>1509.41</ele>
        <time>2009-08-01T14:52:27Z</time>
      </trkpt>
      <trkpt lat="45.2331" lon="6.39815">
        <ele>1504.12</ele>
        <time>2009-08-01T14:52:31Z</time>
      </trkpt>
      <trkpt lat="45.23327" lon="6.3981">
        <ele>1499.79</ele>
        <time>2009-08-01T14:52:34Z</time>
      </trkpt>
      <trkpt lat="45.23354" lon="6.39795">
        <ele>1492.1</ele>
        <time>2009-08-01T14:52:38Z</time>
      </trkpt>
      <trkpt lat="45.23359" lon="6.3979">
        <ele>1490.18</ele>
        <time>2009-08-01T14:52:39Z</time>
      </trkpt>
      <trkpt lat="45.23368" lon="6.39779">
        <ele>1486.82</ele>
        <time>2009-08-01T14:52:41Z</time>
      </trkpt>
      <trkpt lat="45.23372" lon="6.39773">
        <ele>1483.93</ele>
        <time>2009-08-01T14:52:42Z</time>
      </trkpt>
      <trkpt lat="45.23376" lon="6.39768">
        <ele>1482.01</ele>
        <time>2009-08-01T14:52:43Z</time>
      </trkpt>
      <trkpt lat="45.23382" lon="6.39763">
        <ele>1481.05</ele>
        <time>2009-08-01T14:52:44Z</time>
      </trkpt>
      <trkpt lat="45.23387" lon="6.39759">
        <ele>1479.13</ele>
        <time>2009-08-01T14:52:45Z</time>
      </trkpt>
      <trkpt lat="45.23403" lon="6.39756">
        <ele>1472.4</ele>
        <time>2009-08-01T14:52:50Z</time>
      </trkpt>
      <trkpt lat="45.23407" lon="6.39755">
        <ele>1470.47</ele>
        <time>2009-08-01T14:52:52Z</time>
      </trkpt>
      <trkpt lat="45.23409" lon="6.39754">
        <ele>1469.51</ele>
        <time>2009-08-01T14:52:54Z</time>
      </trkpt>
      <trkpt lat="45.23407" lon="6.39758">
        <ele>1468.55</ele>
        <time>2009-08-01T14:53:09Z</time>
      </trkpt>
      <trkpt lat="45.23408" lon="6.39758">
        <ele>1469.99</ele>
        <time>2009-08-01T14:54:05Z</time>
      </trkpt>
      <trkpt lat="45.23408" lon="6.39758">
        <ele>1467.11</ele>
        <time>2009-08-01T14:54:07Z</time>
      </trkpt>
      <trkpt lat="45.23408" lon="6.39758">
        <ele>1468.55</ele>
        <time>2009-08-01T14:54:08Z</time>
      </trkpt>
      <trkpt lat="45.23408" lon="6.39758">
        <ele>1469.99</ele>
        <time>2009-08-01T14:54:12Z</time>
      </trkpt>
      <trkpt lat="45.23409" lon="6.39761">
        <ele>1469.03</ele>
        <time>2009-08-01T14:55:21Z</time>
      </trkpt>
      <trkpt lat="45.23405" lon="6.39782">
        <ele>1467.11</ele>
        <time>2009-08-01T14:55:26Z</time>
      </trkpt>
      <trkpt lat="45.23404" lon="6.39789">
        <ele>1466.15</ele>
        <time>2009-08-01T14:55:27Z</time>
      </trkpt>
      <trkpt lat="45.23403" lon="6.39801">
        <ele>1465.67</ele>
        <time>2009-08-01T14:55:29Z</time>
      </trkpt>
      <trkpt lat="45.23402" lon="6.39808">
        <ele>1464.71</ele>
        <time>2009-08-01T14:55:30Z</time>
      </trkpt>
      <trkpt lat="45.23401" lon="6.39816">
        <ele>1463.74</ele>
        <time>2009-08-01T14:55:31Z</time>
      </trkpt>
      <trkpt lat="45.23399" lon="6.39845">
        <ele>1461.34</ele>
        <time>2009-08-01T14:55:34Z</time>
      </trkpt>
      <trkpt lat="45.23398" lon="6.39872">
        <ele>1458.46</ele>
        <time>2009-08-01T14:55:37Z</time>
      </trkpt>
      <trkpt lat="45.234" lon="6.39886">
        <ele>1456.53</ele>
        <time>2009-08-01T14:55:39Z</time>
      </trkpt>
      <trkpt lat="45.23401" lon="6.39893">
        <ele>1456.53</ele>
        <time>2009-08-01T14:55:40Z</time>
      </trkpt>
      <trkpt lat="45.23403" lon="6.39907">
        <ele>1454.61</ele>
        <time>2009-08-01T14:55:42Z</time>
      </trkpt>
      <trkpt lat="45.23405" lon="6.39914">
        <ele>1453.65</ele>
        <time>2009-08-01T14:55:43Z</time>
      </trkpt>
      <trkpt lat="45.23407" lon="6.39922">
        <ele>1452.69</ele>
        <time>2009-08-01T14:55:44Z</time>
      </trkpt>
      <trkpt lat="45.23412" lon="6.39929">
        <ele>1451.73</ele>
        <time>2009-08-01T14:55:45Z</time>
      </trkpt>
      <trkpt lat="45.23417" lon="6.39937">
        <ele>1451.25</ele>
        <time>2009-08-01T14:55:46Z</time>
      </trkpt>
      <trkpt lat="45.23423" lon="6.39945">
        <ele>1450.29</ele>
        <time>2009-08-01T14:55:47Z</time>
      </trkpt>
      <trkpt lat="45.23432" lon="6.3996">
        <ele>1448.36</ele>
        <time>2009-08-01T14:55:49Z</time>
      </trkpt>
      <trkpt lat="45.23441" lon="6.39971">
        <ele>1446.92</ele>
        <time>2009-08-01T14:55:51Z</time>
      </trkpt>
      <trkpt lat="45.23445" lon="6.39978">
        <ele>1445.48</ele>
        <time>2009-08-01T14:55:52Z</time>
      </trkpt>
      <trkpt lat="45.23448" lon="6.39984">
        <ele>1445</ele>
        <time>2009-08-01T14:55:53Z</time>
      </trkpt>
      <trkpt lat="45.2345" lon="6.39989">
        <ele>1444.52</ele>
        <time>2009-08-01T14:55:54Z</time>
      </trkpt>
      <trkpt lat="45.23452" lon="6.39994">
        <ele>1443.08</ele>
        <time>2009-08-01T14:55:55Z</time>
      </trkpt>
      <trkpt lat="45.23453" lon="6.39997">
        <ele>1443.08</ele>
        <time>2009-08-01T14:55:56Z</time>
      </trkpt>
      <trkpt lat="45.23458" lon="6.40006">
        <ele>1439.71</ele>
        <time>2009-08-01T14:56:06Z</time>
      </trkpt>
      <trkpt lat="45.23459" lon="6.40007">
        <ele>1439.23</ele>
        <time>2009-08-01T14:56:11Z</time>
      </trkpt>
      <trkpt lat="45.23458" lon="6.4">
        <ele>1437.31</ele>
        <time>2009-08-01T14:56:14Z</time>
      </trkpt>
      <trkpt lat="45.23453" lon="6.39992">
        <ele>1435.87</ele>
        <time>2009-08-01T14:56:27Z</time>
      </trkpt>
      <trkpt lat="45.23451" lon="6.39985">
        <ele>1432.5</ele>
        <time>2009-08-01T14:56:34Z</time>
      </trkpt>
      <trkpt lat="45.23448" lon="6.39972">
        <ele>1429.62</ele>
        <time>2009-08-01T14:56:45Z</time>
      </trkpt>
      <trkpt lat="45.23449" lon="6.3997">
        <ele>1428.66</ele>
        <time>2009-08-01T14:56:46Z</time>
      </trkpt>
      <trkpt lat="45.23449" lon="6.39968">
        <ele>1428.66</ele>
        <time>2009-08-01T14:56:47Z</time>
      </trkpt>
      <trkpt lat="45.23448" lon="6.39963">
        <ele>1427.21</ele>
        <time>2009-08-01T14:57:03Z</time>
      </trkpt>
      <trkpt lat="45.23458" lon="6.39939">
        <ele>1425.29</ele>
        <time>2009-08-01T14:57:12Z</time>
      </trkpt>
      <trkpt lat="45.2346" lon="6.39937">
        <ele>1425.29</ele>
        <time>2009-08-01T14:57:13Z</time>
      </trkpt>
      <trkpt lat="45.23462" lon="6.39934">
        <ele>1423.37</ele>
        <time>2009-08-01T14:57:14Z</time>
      </trkpt>
      <trkpt lat="45.23464" lon="6.39929">
        <ele>1423.37</ele>
        <time>2009-08-01T14:57:15Z</time>
      </trkpt>
      <trkpt lat="45.23466" lon="6.39924">
        <ele>1421.45</ele>
        <time>2009-08-01T14:57:16Z</time>
      </trkpt>
      <trkpt lat="45.23468" lon="6.39918">
        <ele>1420.97</ele>
        <time>2009-08-01T14:57:17Z</time>
      </trkpt>
      <trkpt lat="45.23467" lon="6.3991">
        <ele>1419.52</ele>
        <time>2009-08-01T14:57:18Z</time>
      </trkpt>
      <trkpt lat="45.23472" lon="6.39903">
        <ele>1419.52</ele>
        <time>2009-08-01T14:57:19Z</time>
      </trkpt>
      <trkpt lat="45.23476" lon="6.39901">
        <ele>1418.08</ele>
        <time>2009-08-01T14:57:20Z</time>
      </trkpt>
      <trkpt lat="45.23484" lon="6.39898">
        <ele>1417.12</ele>
        <time>2009-08-01T14:57:21Z</time>
      </trkpt>
      <trkpt lat="45.23486" lon="6.39899">
        <ele>1417.6</ele>
        <time>2009-08-01T14:57:22Z</time>
      </trkpt>
      <trkpt lat="45.23492" lon="6.39901">
        <ele>1417.12</ele>
        <time>2009-08-01T14:57:23Z</time>
      </trkpt>
      <trkpt lat="45.23494" lon="6.39904">
        <ele>1416.16</ele>
        <time>2009-08-01T14:57:24Z</time>
      </trkpt>
      <trkpt lat="45.23497" lon="6.39906">
        <ele>1416.16</ele>
        <time>2009-08-01T14:57:25Z</time>
      </trkpt>
      <trkpt lat="45.23493" lon="6.39909">
        <ele>1415.2</ele>
        <time>2009-08-01T14:57:26Z</time>
      </trkpt>
      <trkpt lat="45.23488" lon="6.39916">
        <ele>1414.24</ele>
        <time>2009-08-01T14:57:28Z</time>
      </trkpt>
      <trkpt lat="45.23483" lon="6.39936">
        <ele>1412.31</ele>
        <time>2009-08-01T14:57:32Z</time>
      </trkpt>
      <trkpt lat="45.23485" lon="6.39937">
        <ele>1411.35</ele>
        <time>2009-08-01T14:57:33Z</time>
      </trkpt>
      <trkpt lat="45.23488" lon="6.39933">
        <ele>1410.87</ele>
        <time>2009-08-01T14:57:34Z</time>
      </trkpt>
      <trkpt lat="45.2349" lon="6.39931">
        <ele>1410.39</ele>
        <time>2009-08-01T14:57:35Z</time>
      </trkpt>
      <trkpt lat="45.23495" lon="6.39932">
        <ele>1408.95</ele>
        <time>2009-08-01T14:57:36Z</time>
      </trkpt>
      <trkpt lat="45.23493" lon="6.39935">
        <ele>1408.95</ele>
        <time>2009-08-01T14:57:37Z</time>
      </trkpt>
      <trkpt lat="45.23493" lon="6.39934">
        <ele>1407.99</ele>
        <time>2009-08-01T14:57:38Z</time>
      </trkpt>
      <trkpt lat="45.23496" lon="6.39932">
        <ele>1407.99</ele>
        <time>2009-08-01T14:57:39Z</time>
      </trkpt>
      <trkpt lat="45.235" lon="6.39928">
        <ele>1407.03</ele>
        <time>2009-08-01T14:57:40Z</time>
      </trkpt>
      <trkpt lat="45.235" lon="6.39924">
        <ele>1406.07</ele>
        <time>2009-08-01T14:57:41Z</time>
      </trkpt>
      <trkpt lat="45.235" lon="6.39921">
        <ele>1405.58</ele>
        <time>2009-08-01T14:57:42Z</time>
      </trkpt>
      <trkpt lat="45.235" lon="6.39918">
        <ele>1404.62</ele>
        <time>2009-08-01T14:57:43Z</time>
      </trkpt>
      <trkpt lat="45.235" lon="6.39912">
        <ele>1404.14</ele>
        <time>2009-08-01T14:57:44Z</time>
      </trkpt>
      <trkpt lat="45.23499" lon="6.39912">
        <ele>1403.18</ele>
        <time>2009-08-01T14:57:48Z</time>
      </trkpt>
      <trkpt lat="45.23502" lon="6.39913">
        <ele>1402.7</ele>
        <time>2009-08-01T14:57:49Z</time>
      </trkpt>
      <trkpt lat="45.23503" lon="6.39917">
        <ele>1402.7</ele>
        <time>2009-08-01T14:57:50Z</time>
      </trkpt>
      <trkpt lat="45.23504" lon="6.39918">
        <ele>1401.74</ele>
        <time>2009-08-01T14:57:51Z</time>
      </trkpt>
      <trkpt lat="45.23506" lon="6.39916">
        <ele>1401.74</ele>
        <time>2009-08-01T14:57:52Z</time>
      </trkpt>
      <trkpt lat="45.23507" lon="6.39914">
        <ele>1401.74</ele>
        <time>2009-08-01T14:57:53Z</time>
      </trkpt>
      <trkpt lat="45.23509" lon="6.39913">
        <ele>1400.78</ele>
        <time>2009-08-01T14:58:11Z</time>
      </trkpt>
      <trkpt lat="45.23509" lon="6.39913">
        <ele>1400.3</ele>
        <time>2009-08-01T14:59:29Z</time>
      </trkpt>
      <trkpt lat="45.23509" lon="6.39913">
        <ele>1401.26</ele>
        <time>2009-08-01T14:59:31Z</time>
      </trkpt>
      <trkpt lat="45.23514" lon="6.3991">
        <ele>1400.3</ele>
        <time>2009-08-01T14:59:39Z</time>
      </trkpt>
      <trkpt lat="45.23517" lon="6.3991">
        <ele>1401.26</ele>
        <time>2009-08-01T14:59:40Z</time>
      </trkpt>
      <trkpt lat="45.23518" lon="6.39909">
        <ele>1400.78</ele>
        <time>2009-08-01T14:59:41Z</time>
      </trkpt>
      <trkpt lat="45.2352" lon="6.39905">
        <ele>1400.78</ele>
        <time>2009-08-01T14:59:42Z</time>
      </trkpt>
      <trkpt lat="45.23523" lon="6.39901">
        <ele>1401.26</ele>
        <time>2009-08-01T14:59:43Z</time>
      </trkpt>
      <trkpt lat="45.23545" lon="6.39878">
        <ele>1398.37</ele>
        <time>2009-08-01T14:59:49Z</time>
      </trkpt>
      <trkpt lat="45.23569" lon="6.39847">
        <ele>1395.01</ele>
        <time>2009-08-01T14:59:54Z</time>
      </trkpt>
      <trkpt lat="45.23588" lon="6.39819">
        <ele>1393.09</ele>
        <time>2009-08-01T14:59:58Z</time>
      </trkpt>
      <trkpt lat="45.2359" lon="6.3981">
        <ele>1393.09</ele>
        <time>2009-08-01T14:59:59Z</time>
      </trkpt>
      <trkpt lat="45.23591" lon="6.39801">
        <ele>1392.61</ele>
        <time>2009-08-01T15:00:00Z</time>
      </trkpt>
      <trkpt lat="45.2359" lon="6.3979">
        <ele>1391.65</ele>
        <time>2009-08-01T15:00:01Z</time>
      </trkpt>
      <trkpt lat="45.23588" lon="6.3978">
        <ele>1391.17</ele>
        <time>2009-08-01T15:00:02Z</time>
      </trkpt>
      <trkpt lat="45.23584" lon="6.3977">
        <ele>1390.68</ele>
        <time>2009-08-01T15:00:03Z</time>
      </trkpt>
      <trkpt lat="45.23581" lon="6.3976">
        <ele>1389.72</ele>
        <time>2009-08-01T15:00:04Z</time>
      </trkpt>
      <trkpt lat="45.23562" lon="6.39718">
        <ele>1385.88</ele>
        <time>2009-08-01T15:00:08Z</time>
      </trkpt>
      <trkpt lat="45.23546" lon="6.39674">
        <ele>1382.51</ele>
        <time>2009-08-01T15:00:12Z</time>
      </trkpt>
      <trkpt lat="45.23543" lon="6.39663">
        <ele>1382.51</ele>
        <time>2009-08-01T15:00:13Z</time>
      </trkpt>
      <trkpt lat="45.2354" lon="6.39653">
        <ele>1381.55</ele>
        <time>2009-08-01T15:00:14Z</time>
      </trkpt>
      <trkpt lat="45.23538" lon="6.39643">
        <ele>1381.07</ele>
        <time>2009-08-01T15:00:15Z</time>
      </trkpt>
      <trkpt lat="45.23538" lon="6.39634">
        <ele>1380.59</ele>
        <time>2009-08-01T15:00:16Z</time>
      </trkpt>
      <trkpt lat="45.23539" lon="6.39626">
        <ele>1379.63</ele>
        <time>2009-08-01T15:00:17Z</time>
      </trkpt>
      <trkpt lat="45.23541" lon="6.39618">
        <ele>1379.63</ele>
        <time>2009-08-01T15:00:18Z</time>
      </trkpt>
      <trkpt lat="45.23544" lon="6.39611">
        <ele>1379.63</ele>
        <time>2009-08-01T15:00:19Z</time>
      </trkpt>
      <trkpt lat="45.23545" lon="6.39604">
        <ele>1379.15</ele>
        <time>2009-08-01T15:00:20Z</time>
      </trkpt>
      <trkpt lat="45.23545" lon="6.39598">
        <ele>1379.15</ele>
        <time>2009-08-01T15:00:21Z</time>
      </trkpt>
      <trkpt lat="45.23543" lon="6.39595">
        <ele>1379.15</ele>
        <time>2009-08-01T15:00:22Z</time>
      </trkpt>
      <trkpt lat="45.23535" lon="6.3959">
        <ele>1380.11</ele>
        <time>2009-08-01T15:00:27Z</time>
      </trkpt>
      <trkpt lat="45.2353" lon="6.39581">
        <ele>1378.67</ele>
        <time>2009-08-01T15:00:33Z</time>
      </trkpt>
      <trkpt lat="45.23529" lon="6.39578">
        <ele>1377.71</ele>
        <time>2009-08-01T15:00:34Z</time>
      </trkpt>
      <trkpt lat="45.23528" lon="6.39574">
        <ele>1376.75</ele>
        <time>2009-08-01T15:00:35Z</time>
      </trkpt>
      <trkpt lat="45.23527" lon="6.3957">
        <ele>1375.3</ele>
        <time>2009-08-01T15:00:36Z</time>
      </trkpt>
      <trkpt lat="45.23525" lon="6.39566">
        <ele>1373.38</ele>
        <time>2009-08-01T15:00:37Z</time>
      </trkpt>
      <trkpt lat="45.23523" lon="6.39561">
        <ele>1372.9</ele>
        <time>2009-08-01T15:00:38Z</time>
      </trkpt>
      <trkpt lat="45.2352" lon="6.39556">
        <ele>1371.46</ele>
        <time>2009-08-01T15:00:39Z</time>
      </trkpt>
      <trkpt lat="45.23518" lon="6.39552">
        <ele>1370.5</ele>
        <time>2009-08-01T15:00:40Z</time>
      </trkpt>
      <trkpt lat="45.23516" lon="6.39548">
        <ele>1370.5</ele>
        <time>2009-08-01T15:00:41Z</time>
      </trkpt>
      <trkpt lat="45.23515" lon="6.39543">
        <ele>1370.02</ele>
        <time>2009-08-01T15:00:42Z</time>
      </trkpt>
      <trkpt lat="45.23514" lon="6.39541">
        <ele>1369.54</ele>
        <time>2009-08-01T15:00:43Z</time>
      </trkpt>
      <trkpt lat="45.23516" lon="6.39539">
        <ele>1369.05</ele>
        <time>2009-08-01T15:00:45Z</time>
      </trkpt>
      <trkpt lat="45.23522" lon="6.39543">
        <ele>1366.17</ele>
        <time>2009-08-01T15:00:52Z</time>
      </trkpt>
      <trkpt lat="45.23535" lon="6.3955">
        <ele>1362.81</ele>
        <time>2009-08-01T15:00:56Z</time>
      </trkpt>
      <trkpt lat="45.23536" lon="6.39549">
        <ele>1361.36</ele>
        <time>2009-08-01T15:00:57Z</time>
      </trkpt>
      <trkpt lat="45.23536" lon="6.39547">
        <ele>1361.84</ele>
        <time>2009-08-01T15:00:58Z</time>
      </trkpt>
      <trkpt lat="45.23535" lon="6.39543">
        <ele>1360.88</ele>
        <time>2009-08-01T15:00:59Z</time>
      </trkpt>
      <trkpt lat="45.23534" lon="6.39539">
        <ele>1359.44</ele>
        <time>2009-08-01T15:01:00Z</time>
      </trkpt>
      <trkpt lat="45.23544" lon="6.39537">
        <ele>1354.63</ele>
        <time>2009-08-01T15:01:05Z</time>
      </trkpt>
      <trkpt lat="45.23548" lon="6.39538">
        <ele>1353.19</ele>
        <time>2009-08-01T15:01:06Z</time>
      </trkpt>
      <trkpt lat="45.23553" lon="6.3954">
        <ele>1351.27</ele>
        <time>2009-08-01T15:01:07Z</time>
      </trkpt>
      <trkpt lat="45.23558" lon="6.39543">
        <ele>1350.31</ele>
        <time>2009-08-01T15:01:08Z</time>
      </trkpt>
      <trkpt lat="45.23562" lon="6.39546">
        <ele>1349.35</ele>
        <time>2009-08-01T15:01:09Z</time>
      </trkpt>
      <trkpt lat="45.23565" lon="6.39548">
        <ele>1349.35</ele>
        <time>2009-08-01T15:01:10Z</time>
      </trkpt>
      <trkpt lat="45.23567" lon="6.39551">
        <ele>1347.91</ele>
        <time>2009-08-01T15:01:11Z</time>
      </trkpt>
      <trkpt lat="45.23569" lon="6.39555">
        <ele>1347.91</ele>
        <time>2009-08-01T15:01:12Z</time>
      </trkpt>
      <trkpt lat="45.23574" lon="6.39568">
        <ele>1349.35</ele>
        <time>2009-08-01T15:01:16Z</time>
      </trkpt>
      <trkpt lat="45.23576" lon="6.39571">
        <ele>1349.35</ele>
        <time>2009-08-01T15:01:17Z</time>
      </trkpt>
      <trkpt lat="45.2358" lon="6.39575">
        <ele>1349.35</ele>
        <time>2009-08-01T15:01:19Z</time>
      </trkpt>
      <trkpt lat="45.23582" lon="6.39575">
        <ele>1348.87</ele>
        <time>2009-08-01T15:01:20Z</time>
      </trkpt>
      <trkpt lat="45.23585" lon="6.39576">
        <ele>1349.35</ele>
        <time>2009-08-01T15:01:21Z</time>
      </trkpt>
      <trkpt lat="45.23589" lon="6.39576">
        <ele>1348.39</ele>
        <time>2009-08-01T15:01:22Z</time>
      </trkpt>
      <trkpt lat="45.23594" lon="6.39575">
        <ele>1347.91</ele>
        <time>2009-08-01T15:01:23Z</time>
      </trkpt>
      <trkpt lat="45.23599" lon="6.39575">
        <ele>1347.43</ele>
        <time>2009-08-01T15:01:24Z</time>
      </trkpt>
      <trkpt lat="45.23609" lon="6.39575">
        <ele>1345.98</ele>
        <time>2009-08-01T15:01:26Z</time>
      </trkpt>
      <trkpt lat="45.23619" lon="6.39574">
        <ele>1342.62</ele>
        <time>2009-08-01T15:01:28Z</time>
      </trkpt>
      <trkpt lat="45.23623" lon="6.39576">
        <ele>1341.18</ele>
        <time>2009-08-01T15:01:29Z</time>
      </trkpt>
      <trkpt lat="45.23626" lon="6.3958">
        <ele>1339.25</ele>
        <time>2009-08-01T15:01:30Z</time>
      </trkpt>
      <trkpt lat="45.23633" lon="6.3959">
        <ele>1336.37</ele>
        <time>2009-08-01T15:01:32Z</time>
      </trkpt>
      <trkpt lat="45.23636" lon="6.39597">
        <ele>1333.97</ele>
        <time>2009-08-01T15:01:33Z</time>
      </trkpt>
      <trkpt lat="45.23643" lon="6.39612">
        <ele>1329.64</ele>
        <time>2009-08-01T15:01:35Z</time>
      </trkpt>
      <trkpt lat="45.2365" lon="6.39627">
        <ele>1326.28</ele>
        <time>2009-08-01T15:01:37Z</time>
      </trkpt>
      <trkpt lat="45.23651" lon="6.39633">
        <ele>1324.83</ele>
        <time>2009-08-01T15:01:38Z</time>
      </trkpt>
      <trkpt lat="45.23653" lon="6.3964">
        <ele>1323.39</ele>
        <time>2009-08-01T15:01:39Z</time>
      </trkpt>
      <trkpt lat="45.23656" lon="6.39647">
        <ele>1321.47</ele>
        <time>2009-08-01T15:01:40Z</time>
      </trkpt>
      <trkpt lat="45.23658" lon="6.39653">
        <ele>1320.51</ele>
        <time>2009-08-01T15:01:41Z</time>
      </trkpt>
      <trkpt lat="45.2366" lon="6.39655">
        <ele>1320.03</ele>
        <time>2009-08-01T15:01:42Z</time>
      </trkpt>
      <trkpt lat="45.23661" lon="6.39657">
        <ele>1320.03</ele>
        <time>2009-08-01T15:01:54Z</time>
      </trkpt>
      <trkpt lat="45.23663" lon="6.39656">
        <ele>1318.59</ele>
        <time>2009-08-01T15:02:42Z</time>
      </trkpt>
      <trkpt lat="45.23663" lon="6.39658">
        <ele>1320.03</ele>
        <time>2009-08-01T15:02:52Z</time>
      </trkpt>
      <trkpt lat="45.23664" lon="6.39664">
        <ele>1319.55</ele>
        <time>2009-08-01T15:02:55Z</time>
      </trkpt>
      <trkpt lat="45.23666" lon="6.39668">
        <ele>1318.59</ele>
        <time>2009-08-01T15:02:56Z</time>
      </trkpt>
      <trkpt lat="45.23668" lon="6.39672">
        <ele>1318.1</ele>
        <time>2009-08-01T15:02:57Z</time>
      </trkpt>
      <trkpt lat="45.2367" lon="6.39676">
        <ele>1318.1</ele>
        <time>2009-08-01T15:02:58Z</time>
      </trkpt>
      <trkpt lat="45.23673" lon="6.3968">
        <ele>1317.62</ele>
        <time>2009-08-01T15:02:59Z</time>
      </trkpt>
      <trkpt lat="45.23676" lon="6.39686">
        <ele>1317.14</ele>
        <time>2009-08-01T15:03:00Z</time>
      </trkpt>
      <trkpt lat="45.23679" lon="6.39695">
        <ele>1316.66</ele>
        <time>2009-08-01T15:03:01Z</time>
      </trkpt>
      <trkpt lat="45.23685" lon="6.39719">
        <ele>1314.74</ele>
        <time>2009-08-01T15:03:04Z</time>
      </trkpt>
      <trkpt lat="45.23689" lon="6.39726">
        <ele>1314.26</ele>
        <time>2009-08-01T15:03:05Z</time>
      </trkpt>
      <trkpt lat="45.23693" lon="6.39732">
        <ele>1314.26</ele>
        <time>2009-08-01T15:03:06Z</time>
      </trkpt>
      <trkpt lat="45.23703" lon="6.39743">
        <ele>1313.78</ele>
        <time>2009-08-01T15:03:08Z</time>
      </trkpt>
      <trkpt lat="45.23707" lon="6.39749">
        <ele>1313.78</ele>
        <time>2009-08-01T15:03:09Z</time>
      </trkpt>
      <trkpt lat="45.23712" lon="6.39756">
        <ele>1313.78</ele>
        <time>2009-08-01T15:03:10Z</time>
      </trkpt>
      <trkpt lat="45.23727" lon="6.39778">
        <ele>1311.86</ele>
        <time>2009-08-01T15:03:13Z</time>
      </trkpt>
      <trkpt lat="45.23739" lon="6.39792">
        <ele>1310.9</ele>
        <time>2009-08-01T15:03:15Z</time>
      </trkpt>
      <trkpt lat="45.23752" lon="6.39812">
        <ele>1310.9</ele>
        <time>2009-08-01T15:03:18Z</time>
      </trkpt>
      <trkpt lat="45.23754" lon="6.39819">
        <ele>1310.41</ele>
        <time>2009-08-01T15:03:19Z</time>
      </trkpt>
      <trkpt lat="45.23756" lon="6.39833">
        <ele>1309.93</ele>
        <time>2009-08-01T15:03:21Z</time>
      </trkpt>
      <trkpt lat="45.23757" lon="6.39838">
        <ele>1309.45</ele>
        <time>2009-08-01T15:03:22Z</time>
      </trkpt>
      <trkpt lat="45.23767" lon="6.39883">
        <ele>1308.49</ele>
        <time>2009-08-01T15:03:31Z</time>
      </trkpt>
      <trkpt lat="45.23768" lon="6.39906">
        <ele>1307.05</ele>
        <time>2009-08-01T15:03:34Z</time>
      </trkpt>
      <trkpt lat="45.23768" lon="6.39915">
        <ele>1306.57</ele>
        <time>2009-08-01T15:03:35Z</time>
      </trkpt>
      <trkpt lat="45.23765" lon="6.39939">
        <ele>1303.69</ele>
        <time>2009-08-01T15:03:39Z</time>
      </trkpt>
      <trkpt lat="45.23759" lon="6.39977">
        <ele>1300.8</ele>
        <time>2009-08-01T15:03:50Z</time>
      </trkpt>
      <trkpt lat="45.23738" lon="6.40003">
        <ele>1298.4</ele>
        <time>2009-08-01T15:04:01Z</time>
      </trkpt>
      <trkpt lat="45.2371" lon="6.40055">
        <ele>1297.44</ele>
        <time>2009-08-01T15:04:14Z</time>
      </trkpt>
      <trkpt lat="45.23707" lon="6.40062">
        <ele>1297.44</ele>
        <time>2009-08-01T15:04:16Z</time>
      </trkpt>
      <trkpt lat="45.23708" lon="6.40064">
        <ele>1297.44</ele>
        <time>2009-08-01T15:04:17Z</time>
      </trkpt>
      <trkpt lat="45.23711" lon="6.40064">
        <ele>1295.99</ele>
        <time>2009-08-01T15:04:18Z</time>
      </trkpt>
      <trkpt lat="45.23715" lon="6.40063">
        <ele>1295.51</ele>
        <time>2009-08-01T15:04:19Z</time>
      </trkpt>
      <trkpt lat="45.23718" lon="6.40061">
        <ele>1295.51</ele>
        <time>2009-08-01T15:04:20Z</time>
      </trkpt>
      <trkpt lat="45.23738" lon="6.40051">
        <ele>1293.59</ele>
        <time>2009-08-01T15:04:28Z</time>
      </trkpt>
      <trkpt lat="45.23755" lon="6.40044">
        <ele>1288.78</ele>
        <time>2009-08-01T15:04:34Z</time>
      </trkpt>
      <trkpt lat="45.23763" lon="6.40041">
        <ele>1285.42</ele>
        <time>2009-08-01T15:04:36Z</time>
      </trkpt>
      <trkpt lat="45.23768" lon="6.40039">
        <ele>1283.5</ele>
        <time>2009-08-01T15:04:37Z</time>
      </trkpt>
      <trkpt lat="45.23782" lon="6.4003">
        <ele>1279.65</ele>
        <time>2009-08-01T15:04:40Z</time>
      </trkpt>
      <trkpt lat="45.23797" lon="6.40021">
        <ele>1275.81</ele>
        <time>2009-08-01T15:04:43Z</time>
      </trkpt>
      <trkpt lat="45.23801" lon="6.40017">
        <ele>1274.36</ele>
        <time>2009-08-01T15:04:44Z</time>
      </trkpt>
      <trkpt lat="45.23805" lon="6.40013">
        <ele>1271.96</ele>
        <time>2009-08-01T15:04:45Z</time>
      </trkpt>
      <trkpt lat="45.23808" lon="6.40007">
        <ele>1270.52</ele>
        <time>2009-08-01T15:04:46Z</time>
      </trkpt>
      <trkpt lat="45.23816" lon="6.39991">
        <ele>1267.64</ele>
        <time>2009-08-01T15:04:49Z</time>
      </trkpt>
      <trkpt lat="45.23821" lon="6.39971">
        <ele>1266.19</ele>
        <time>2009-08-01T15:04:55Z</time>
      </trkpt>
      <trkpt lat="45.23827" lon="6.39948">
        <ele>1265.23</ele>
        <time>2009-08-01T15:05:01Z</time>
      </trkpt>
      <trkpt lat="45.23833" lon="6.39924">
        <ele>1262.83</ele>
        <time>2009-08-01T15:05:06Z</time>
      </trkpt>
      <trkpt lat="45.23836" lon="6.399">
        <ele>1257.54</ele>
        <time>2009-08-01T15:05:10Z</time>
      </trkpt>
      <trkpt lat="45.23841" lon="6.39894">
        <ele>1256.1</ele>
        <time>2009-08-01T15:05:12Z</time>
      </trkpt>
      <trkpt lat="45.23864" lon="6.39875">
        <ele>1251.77</ele>
        <time>2009-08-01T15:05:17Z</time>
      </trkpt>
      <trkpt lat="45.23876" lon="6.39852">
        <ele>1250.33</ele>
        <time>2009-08-01T15:05:22Z</time>
      </trkpt>
      <trkpt lat="45.23879" lon="6.39834">
        <ele>1246.49</ele>
        <time>2009-08-01T15:05:27Z</time>
      </trkpt>
      <trkpt lat="45.23882" lon="6.39826">
        <ele>1243.12</ele>
        <time>2009-08-01T15:05:35Z</time>
      </trkpt>
      <trkpt lat="45.23885" lon="6.39814">
        <ele>1240.72</ele>
        <time>2009-08-01T15:05:40Z</time>
      </trkpt>
      <trkpt lat="45.23887" lon="6.39792">
        <ele>1237.35</ele>
        <time>2009-08-01T15:05:46Z</time>
      </trkpt>
      <trkpt lat="45.23896" lon="6.39792">
        <ele>1233.99</ele>
        <time>2009-08-01T15:05:51Z</time>
      </trkpt>
      <trkpt lat="45.23904" lon="6.39796">
        <ele>1232.07</ele>
        <time>2009-08-01T15:05:53Z</time>
      </trkpt>
      <trkpt lat="45.23914" lon="6.39814">
        <ele>1227.26</ele>
        <time>2009-08-01T15:05:58Z</time>
      </trkpt>
      <trkpt lat="45.23922" lon="6.39825">
        <ele>1223.42</ele>
        <time>2009-08-01T15:06:01Z</time>
      </trkpt>
      <trkpt lat="45.23924" lon="6.39834">
        <ele>1220.53</ele>
        <time>2009-08-01T15:06:03Z</time>
      </trkpt>
      <trkpt lat="45.23927" lon="6.39847">
        <ele>1214.76</ele>
        <time>2009-08-01T15:06:07Z</time>
      </trkpt>
      <trkpt lat="45.2393" lon="6.39857">
        <ele>1212.84</ele>
        <time>2009-08-01T15:06:09Z</time>
      </trkpt>
      <trkpt lat="45.23931" lon="6.39861">
        <ele>1211.88</ele>
        <time>2009-08-01T15:06:11Z</time>
      </trkpt>
      <trkpt lat="45.23931" lon="6.39861">
        <ele>1210.92</ele>
        <time>2009-08-01T15:06:13Z</time>
      </trkpt>
      <trkpt lat="45.23939" lon="6.39854">
        <ele>1207.07</ele>
        <time>2009-08-01T15:06:17Z</time>
      </trkpt>
      <trkpt lat="45.23948" lon="6.39854">
        <ele>1203.23</ele>
        <time>2009-08-01T15:06:20Z</time>
      </trkpt>
      <trkpt lat="45.23952" lon="6.39867">
        <ele>1197.94</ele>
        <time>2009-08-01T15:06:24Z</time>
      </trkpt>
      <trkpt lat="45.23963" lon="6.39891">
        <ele>1190.25</ele>
        <time>2009-08-01T15:06:29Z</time>
      </trkpt>
      <trkpt lat="45.23971" lon="6.39902">
        <ele>1186.88</ele>
        <time>2009-08-01T15:06:31Z</time>
      </trkpt>
      <trkpt lat="45.2397" lon="6.39907">
        <ele>1185.92</ele>
        <time>2009-08-01T15:06:32Z</time>
      </trkpt>
      <trkpt lat="45.23968" lon="6.39906">
        <ele>1183.52</ele>
        <time>2009-08-01T15:06:42Z</time>
      </trkpt>
      <trkpt lat="45.23961" lon="6.39911">
        <ele>1184</ele>
        <time>2009-08-01T15:06:55Z</time>
      </trkpt>
      <trkpt lat="45.23963" lon="6.39911">
        <ele>1180.16</ele>
        <time>2009-08-01T15:07:15Z</time>
      </trkpt>
      <trkpt lat="45.23963" lon="6.39911">
        <ele>1181.12</ele>
        <time>2009-08-01T15:07:16Z</time>
      </trkpt>
      <trkpt lat="45.23963" lon="6.39911">
        <ele>1184.96</ele>
        <time>2009-08-01T15:07:17Z</time>
      </trkpt>
      <trkpt lat="45.23963" lon="6.39911">
        <ele>1183.52</ele>
        <time>2009-08-01T15:07:18Z</time>
      </trkpt>
      <trkpt lat="45.23971" lon="6.39925">
        <ele>1181.12</ele>
        <time>2009-08-01T15:07:53Z</time>
      </trkpt>
      <trkpt lat="45.23973" lon="6.39932">
        <ele>1180.16</ele>
        <time>2009-08-01T15:07:56Z</time>
      </trkpt>
      <trkpt lat="45.23974" lon="6.39935">
        <ele>1177.75</ele>
        <time>2009-08-01T15:08:00Z</time>
      </trkpt>
      <trkpt lat="45.23978" lon="6.39928">
        <ele>1173.43</ele>
        <time>2009-08-01T15:08:05Z</time>
      </trkpt>
      <trkpt lat="45.23983" lon="6.39929">
        <ele>1171.5</ele>
        <time>2009-08-01T15:08:07Z</time>
      </trkpt>
      <trkpt lat="45.23985" lon="6.39936">
        <ele>1167.66</ele>
        <time>2009-08-01T15:08:11Z</time>
      </trkpt>
      <trkpt lat="45.23988" lon="6.39949">
        <ele>1164.29</ele>
        <time>2009-08-01T15:08:14Z</time>
      </trkpt>
      <trkpt lat="45.23987" lon="6.39952">
        <ele>1162.37</ele>
        <time>2009-08-01T15:08:16Z</time>
      </trkpt>
      <trkpt lat="45.23998" lon="6.39946">
        <ele>1158.53</ele>
        <time>2009-08-01T15:08:21Z</time>
      </trkpt>
      <trkpt lat="45.23999" lon="6.39943">
        <ele>1157.08</ele>
        <time>2009-08-01T15:08:22Z</time>
      </trkpt>
      <trkpt lat="45.23999" lon="6.39941">
        <ele>1153.72</ele>
        <time>2009-08-01T15:08:30Z</time>
      </trkpt>
      <trkpt lat="45.24003" lon="6.39936">
        <ele>1153.24</ele>
        <time>2009-08-01T15:08:40Z</time>
      </trkpt>
      <trkpt lat="45.24001" lon="6.39952">
        <ele>1151.8</ele>
        <time>2009-08-01T15:08:44Z</time>
      </trkpt>
      <trkpt lat="45.24" lon="6.39967">
        <ele>1149.39</ele>
        <time>2009-08-01T15:08:47Z</time>
      </trkpt>
      <trkpt lat="45.23994" lon="6.39982">
        <ele>1146.51</ele>
        <time>2009-08-01T15:08:57Z</time>
      </trkpt>
      <trkpt lat="45.23995" lon="6.3998">
        <ele>1146.99</ele>
        <time>2009-08-01T15:09:05Z</time>
      </trkpt>
      <trkpt lat="45.24007" lon="6.39966">
        <ele>1145.07</ele>
        <time>2009-08-01T15:09:16Z</time>
      </trkpt>
      <trkpt lat="45.24013" lon="6.39959">
        <ele>1143.63</ele>
        <time>2009-08-01T15:09:18Z</time>
      </trkpt>
      <trkpt lat="45.24033" lon="6.39947">
        <ele>1140.74</ele>
        <time>2009-08-01T15:09:23Z</time>
      </trkpt>
      <trkpt lat="45.24039" lon="6.39922">
        <ele>1136.9</ele>
        <time>2009-08-01T15:09:28Z</time>
      </trkpt>
      <trkpt lat="45.24044" lon="6.39908">
        <ele>1133.53</ele>
        <time>2009-08-01T15:09:33Z</time>
      </trkpt>
      <trkpt lat="45.24045" lon="6.39908">
        <ele>1133.05</ele>
        <time>2009-08-01T15:09:45Z</time>
      </trkpt>
      <trkpt lat="45.24047" lon="6.39917">
        <ele>1132.09</ele>
        <time>2009-08-01T15:09:49Z</time>
      </trkpt>
      <trkpt lat="45.24057" lon="6.39933">
        <ele>1127.28</ele>
        <time>2009-08-01T15:09:54Z</time>
      </trkpt>
      <trkpt lat="45.24057" lon="6.39936">
        <ele>1126.32</ele>
        <time>2009-08-01T15:09:55Z</time>
      </trkpt>
      <trkpt lat="45.24061" lon="6.39944">
        <ele>1122.96</ele>
        <time>2009-08-01T15:09:59Z</time>
      </trkpt>
      <trkpt lat="45.24062" lon="6.39944">
        <ele>1122</ele>
        <time>2009-08-01T15:10:02Z</time>
      </trkpt>
      <trkpt lat="45.24063" lon="6.39924">
        <ele>1118.63</ele>
        <time>2009-08-01T15:10:09Z</time>
      </trkpt>
      <trkpt lat="45.24066" lon="6.39919">
        <ele>1116.23</ele>
        <time>2009-08-01T15:10:14Z</time>
      </trkpt>
      <trkpt lat="45.24066" lon="6.39919">
        <ele>1116.71</ele>
        <time>2009-08-01T15:10:16Z</time>
      </trkpt>
      <trkpt lat="45.24073" lon="6.39934">
        <ele>1112.38</ele>
        <time>2009-08-01T15:10:21Z</time>
      </trkpt>
      <trkpt lat="45.24079" lon="6.39945">
        <ele>1110.46</ele>
        <time>2009-08-01T15:10:24Z</time>
      </trkpt>
      <trkpt lat="45.24079" lon="6.39958">
        <ele>1109.02</ele>
        <time>2009-08-01T15:10:28Z</time>
      </trkpt>
      <trkpt lat="45.2408" lon="6.39969">
        <ele>1106.13</ele>
        <time>2009-08-01T15:10:41Z</time>
      </trkpt>
      <trkpt lat="45.2408" lon="6.39967">
        <ele>1105.17</ele>
        <time>2009-08-01T15:10:56Z</time>
      </trkpt>
      <trkpt lat="45.24083" lon="6.39958">
        <ele>1103.25</ele>
        <time>2009-08-01T15:10:59Z</time>
      </trkpt>
      <trkpt lat="45.2409" lon="6.39946">
        <ele>1101.81</ele>
        <time>2009-08-01T15:11:08Z</time>
      </trkpt>
      <trkpt lat="45.24091" lon="6.39949">
        <ele>1098.44</ele>
        <time>2009-08-01T15:12:21Z</time>
      </trkpt>
      <trkpt lat="45.24091" lon="6.39949">
        <ele>1098.44</ele>
        <time>2009-08-01T15:12:22Z</time>
      </trkpt>
      <trkpt lat="45.24092" lon="6.39944">
        <ele>1097.48</ele>
        <time>2009-08-01T15:12:43Z</time>
      </trkpt>
      <trkpt lat="45.24092" lon="6.39944">
        <ele>1092.68</ele>
        <time>2009-08-01T15:13:08Z</time>
      </trkpt>
      <trkpt lat="45.24092" lon="6.39944">
        <ele>1097.48</ele>
        <time>2009-08-01T15:13:09Z</time>
      </trkpt>
      <trkpt lat="45.24092" lon="6.39945">
        <ele>1096.52</ele>
        <time>2009-08-01T15:13:41Z</time>
      </trkpt>
      <trkpt lat="45.24092" lon="6.39945">
        <ele>1097</ele>
        <time>2009-08-01T15:13:48Z</time>
      </trkpt>
      <trkpt lat="45.24097" lon="6.39952">
        <ele>1096.04</ele>
        <time>2009-08-01T15:14:00Z</time>
      </trkpt>
      <trkpt lat="45.24098" lon="6.39959">
        <ele>1095.56</ele>
        <time>2009-08-01T15:14:15Z</time>
      </trkpt>
      <trkpt lat="45.24104" lon="6.39948">
        <ele>1096.52</ele>
        <time>2009-08-01T15:14:29Z</time>
      </trkpt>
      <trkpt lat="45.24104" lon="6.39946">
        <ele>1096.04</ele>
        <time>2009-08-01T15:14:44Z</time>
      </trkpt>
      <trkpt lat="45.24104" lon="6.39936">
        <ele>1094.6</ele>
        <time>2009-08-01T15:14:57Z</time>
      </trkpt>
      <trkpt lat="45.24107" lon="6.39936">
        <ele>1092.2</ele>
        <time>2009-08-01T15:15:00Z</time>
      </trkpt>
      <trkpt lat="45.24101" lon="6.39921">
        <ele>1089.31</ele>
        <time>2009-08-01T15:15:05Z</time>
      </trkpt>
      <trkpt lat="45.24102" lon="6.3991">
        <ele>1086.43</ele>
        <time>2009-08-01T15:15:10Z</time>
      </trkpt>
      <trkpt lat="45.24101" lon="6.3991">
        <ele>1085.47</ele>
        <time>2009-08-01T15:15:12Z</time>
      </trkpt>
      <trkpt lat="45.24115" lon="6.39923">
        <ele>1084.5</ele>
        <time>2009-08-01T15:15:19Z</time>
      </trkpt>
      <trkpt lat="45.2412" lon="6.39925">
        <ele>1081.14</ele>
        <time>2009-08-01T15:15:24Z</time>
      </trkpt>
      <trkpt lat="45.24119" lon="6.39923">
        <ele>1081.14</ele>
        <time>2009-08-01T15:15:27Z</time>
      </trkpt>
      <trkpt lat="45.24116" lon="6.39887">
        <ele>1076.33</ele>
        <time>2009-08-01T15:15:35Z</time>
      </trkpt>
      <trkpt lat="45.24118" lon="6.39874">
        <ele>1075.85</ele>
        <time>2009-08-01T15:15:37Z</time>
      </trkpt>
      <trkpt lat="45.24128" lon="6.39869">
        <ele>1072.97</ele>
        <time>2009-08-01T15:15:42Z</time>
      </trkpt>
      <trkpt lat="45.24129" lon="6.3986">
        <ele>1071.53</ele>
        <time>2009-08-01T15:15:47Z</time>
      </trkpt>
      <trkpt lat="45.24128" lon="6.39842">
        <ele>1067.68</ele>
        <time>2009-08-01T15:15:51Z</time>
      </trkpt>
      <trkpt lat="45.24125" lon="6.39836">
        <ele>1066.72</ele>
        <time>2009-08-01T15:15:54Z</time>
      </trkpt>
      <trkpt lat="45.24124" lon="6.39833">
        <ele>1066.24</ele>
        <time>2009-08-01T15:15:55Z</time>
      </trkpt>
      <trkpt lat="45.24128" lon="6.39824">
        <ele>1064.32</ele>
        <time>2009-08-01T15:15:58Z</time>
      </trkpt>
      <trkpt lat="45.24127" lon="6.39816">
        <ele>1062.39</ele>
        <time>2009-08-01T15:16:02Z</time>
      </trkpt>
      <trkpt lat="45.24122" lon="6.39816">
        <ele>1061.43</ele>
        <time>2009-08-01T15:16:20Z</time>
      </trkpt>
      <trkpt lat="45.24125" lon="6.39818">
        <ele>1060.95</ele>
        <time>2009-08-01T15:16:31Z</time>
      </trkpt>
      <trkpt lat="45.24131" lon="6.39824">
        <ele>1058.07</ele>
        <time>2009-08-01T15:16:38Z</time>
      </trkpt>
      <trkpt lat="45.24134" lon="6.3984">
        <ele>1055.67</ele>
        <time>2009-08-01T15:16:44Z</time>
      </trkpt>
      <trkpt lat="45.24134" lon="6.39837">
        <ele>1054.22</ele>
        <time>2009-08-01T15:16:54Z</time>
      </trkpt>
      <trkpt lat="45.24133" lon="6.39827">
        <ele>1053.26</ele>
        <time>2009-08-01T15:16:59Z</time>
      </trkpt>
      <trkpt lat="45.24136" lon="6.39822">
        <ele>1051.82</ele>
        <time>2009-08-01T15:17:01Z</time>
      </trkpt>
      <trkpt lat="45.24133" lon="6.39819">
        <ele>1051.34</ele>
        <time>2009-08-01T15:17:13Z</time>
      </trkpt>
      <trkpt lat="45.24132" lon="6.39824">
        <ele>1047.97</ele>
        <time>2009-08-01T15:17:26Z</time>
      </trkpt>
      <trkpt lat="45.24132" lon="6.39824">
        <ele>1051.34</ele>
        <time>2009-08-01T15:17:27Z</time>
      </trkpt>
      <trkpt lat="45.24128" lon="6.39821">
        <ele>1047.49</ele>
        <time>2009-08-01T15:17:36Z</time>
      </trkpt>
      <trkpt lat="45.24128" lon="6.39821">
        <ele>1050.86</ele>
        <time>2009-08-01T15:17:37Z</time>
      </trkpt>
      <trkpt lat="45.24128" lon="6.39821">
        <ele>1051.82</ele>
        <time>2009-08-01T15:17:39Z</time>
      </trkpt>
      <trkpt lat="45.24128" lon="6.39821">
        <ele>1051.34</ele>
        <time>2009-08-01T15:17:45Z</time>
      </trkpt>
      <trkpt lat="45.24127" lon="6.39823">
        <ele>1053.26</ele>
        <time>2009-08-01T15:17:51Z</time>
      </trkpt>
      <trkpt lat="45.24125" lon="6.39813">
        <ele>1054.7</ele>
        <time>2009-08-01T15:17:55Z</time>
      </trkpt>
      <trkpt lat="45.24117" lon="6.39797">
        <ele>1056.63</ele>
        <time>2009-08-01T15:18:06Z</time>
      </trkpt>
      <trkpt lat="45.24117" lon="6.39796">
        <ele>1056.15</ele>
        <time>2009-08-01T15:18:15Z</time>
      </trkpt>
      <trkpt lat="45.24119" lon="6.3979">
        <ele>1055.18</ele>
        <time>2009-08-01T15:18:22Z</time>
      </trkpt>
      <trkpt lat="45.24123" lon="6.39789">
        <ele>1054.22</ele>
        <time>2009-08-01T15:18:25Z</time>
      </trkpt>
      <trkpt lat="45.24128" lon="6.3978">
        <ele>1049.42</ele>
        <time>2009-08-01T15:18:32Z</time>
      </trkpt>
      <trkpt lat="45.24128" lon="6.39777">
        <ele>1049.42</ele>
        <time>2009-08-01T15:18:33Z</time>
      </trkpt>
      <trkpt lat="45.24129" lon="6.39769">
        <ele>1047.01</ele>
        <time>2009-08-01T15:18:45Z</time>
      </trkpt>
      <trkpt lat="45.24128" lon="6.39764">
        <ele>1046.05</ele>
        <time>2009-08-01T15:18:47Z</time>
      </trkpt>
      <trkpt lat="45.24126" lon="6.39763">
        <ele>1045.57</ele>
        <time>2009-08-01T15:18:51Z</time>
      </trkpt>
      <trkpt lat="45.24132" lon="6.39766">
        <ele>1044.61</ele>
        <time>2009-08-01T15:18:53Z</time>
      </trkpt>
      <trkpt lat="45.24139" lon="6.39774">
        <ele>1041.25</ele>
        <time>2009-08-01T15:18:59Z</time>
      </trkpt>
      <trkpt lat="45.24139" lon="6.39777">
        <ele>1040.76</ele>
        <time>2009-08-01T15:19:00Z</time>
      </trkpt>
      <trkpt lat="45.24141" lon="6.39779">
        <ele>1037.88</ele>
        <time>2009-08-01T15:19:03Z</time>
      </trkpt>
      <trkpt lat="45.24147" lon="6.39774">
        <ele>1035</ele>
        <time>2009-08-01T15:19:08Z</time>
      </trkpt>
      <trkpt lat="45.2415" lon="6.39787">
        <ele>1031.15</ele>
        <time>2009-08-01T15:19:15Z</time>
      </trkpt>
      <trkpt lat="45.24153" lon="6.39799">
        <ele>1029.23</ele>
        <time>2009-08-01T15:19:18Z</time>
      </trkpt>
      <trkpt lat="45.24154" lon="6.39804">
        <ele>1027.79</ele>
        <time>2009-08-01T15:19:20Z</time>
      </trkpt>
      <trkpt lat="45.24155" lon="6.39805">
        <ele>1026.34</ele>
        <time>2009-08-01T15:19:23Z</time>
      </trkpt>
      <trkpt lat="45.24153" lon="6.39804">
        <ele>1025.38</ele>
        <time>2009-08-01T15:19:31Z</time>
      </trkpt>
      <trkpt lat="45.2416" lon="6.398">
        <ele>1022.02</ele>
        <time>2009-08-01T15:19:44Z</time>
      </trkpt>
      <trkpt lat="45.24162" lon="6.39809">
        <ele>1019.62</ele>
        <time>2009-08-01T15:19:50Z</time>
      </trkpt>
      <trkpt lat="45.24162" lon="6.39811">
        <ele>1019.13</ele>
        <time>2009-08-01T15:19:51Z</time>
      </trkpt>
      <trkpt lat="45.24168" lon="6.39801">
        <ele>1015.77</ele>
        <time>2009-08-01T15:19:57Z</time>
      </trkpt>
      <trkpt lat="45.24171" lon="6.39798">
        <ele>1014.33</ele>
        <time>2009-08-01T15:20:02Z</time>
      </trkpt>
      <trkpt lat="45.24174" lon="6.39808">
        <ele>1012.41</ele>
        <time>2009-08-01T15:20:07Z</time>
      </trkpt>
      <trkpt lat="45.24173" lon="6.39821">
        <ele>1011.44</ele>
        <time>2009-08-01T15:20:12Z</time>
      </trkpt>
      <trkpt lat="45.24172" lon="6.3982">
        <ele>1010</ele>
        <time>2009-08-01T15:20:16Z</time>
      </trkpt>
      <trkpt lat="45.24177" lon="6.39819">
        <ele>1008.56</ele>
        <time>2009-08-01T15:20:23Z</time>
      </trkpt>
      <trkpt lat="45.2418" lon="6.39819">
        <ele>1006.16</ele>
        <time>2009-08-01T15:20:29Z</time>
      </trkpt>
      <trkpt lat="45.24187" lon="6.39812">
        <ele>1003.27</ele>
        <time>2009-08-01T15:20:34Z</time>
      </trkpt>
      <trkpt lat="45.24187" lon="6.39811">
        <ele>1001.35</ele>
        <time>2009-08-01T15:20:38Z</time>
      </trkpt>
      <trkpt lat="45.24181" lon="6.39825">
        <ele>999.91</ele>
        <time>2009-08-01T15:20:42Z</time>
      </trkpt>
      <trkpt lat="45.24182" lon="6.39827">
        <ele>998.47</ele>
        <time>2009-08-01T15:20:43Z</time>
      </trkpt>
      <trkpt lat="45.24189" lon="6.3984">
        <ele>994.62</ele>
        <time>2009-08-01T15:20:49Z</time>
      </trkpt>
      <trkpt lat="45.24189" lon="6.3984">
        <ele>993.66</ele>
        <time>2009-08-01T15:20:51Z</time>
      </trkpt>
      <trkpt lat="45.24201" lon="6.39828">
        <ele>989.33</ele>
        <time>2009-08-01T15:20:55Z</time>
      </trkpt>
      <trkpt lat="45.24208" lon="6.39829">
        <ele>985.49</ele>
        <time>2009-08-01T15:20:58Z</time>
      </trkpt>
      <trkpt lat="45.24218" lon="6.39829">
        <ele>982.6</ele>
        <time>2009-08-01T15:21:00Z</time>
      </trkpt>
      <trkpt lat="45.24221" lon="6.39826">
        <ele>981.16</ele>
        <time>2009-08-01T15:21:03Z</time>
      </trkpt>
      <trkpt lat="45.24221" lon="6.39827">
        <ele>980.68</ele>
        <time>2009-08-01T15:21:06Z</time>
      </trkpt>
      <trkpt lat="45.24223" lon="6.39838">
        <ele>977.32</ele>
        <time>2009-08-01T15:21:14Z</time>
      </trkpt>
      <trkpt lat="45.24226" lon="6.3984">
        <ele>974.91</ele>
        <time>2009-08-01T15:21:18Z</time>
      </trkpt>
      <trkpt lat="45.24228" lon="6.39847">
        <ele>973.47</ele>
        <time>2009-08-01T15:21:21Z</time>
      </trkpt>
      <trkpt lat="45.24229" lon="6.39849">
        <ele>972.51</ele>
        <time>2009-08-01T15:21:23Z</time>
      </trkpt>
      <trkpt lat="45.2423" lon="6.3985">
        <ele>972.03</ele>
        <time>2009-08-01T15:21:24Z</time>
      </trkpt>
      <trkpt lat="45.24238" lon="6.39844">
        <ele>970.11</ele>
        <time>2009-08-01T15:21:28Z</time>
      </trkpt>
      <trkpt lat="45.24237" lon="6.39853">
        <ele>968.18</ele>
        <time>2009-08-01T15:21:32Z</time>
      </trkpt>
      <trkpt lat="45.24243" lon="6.39847">
        <ele>966.26</ele>
        <time>2009-08-01T15:21:37Z</time>
      </trkpt>
      <trkpt lat="45.24247" lon="6.39854">
        <ele>962.9</ele>
        <time>2009-08-01T15:21:43Z</time>
      </trkpt>
      <trkpt lat="45.24255" lon="6.39851">
        <ele>960.49</ele>
        <time>2009-08-01T15:21:46Z</time>
      </trkpt>
      <trkpt lat="45.24257" lon="6.39861">
        <ele>958.09</ele>
        <time>2009-08-01T15:21:51Z</time>
      </trkpt>
      <trkpt lat="45.24262" lon="6.39858">
        <ele>955.21</ele>
        <time>2009-08-01T15:21:55Z</time>
      </trkpt>
      <trkpt lat="45.24261" lon="6.39875">
        <ele>951.36</ele>
        <time>2009-08-01T15:22:00Z</time>
      </trkpt>
      <trkpt lat="45.24261" lon="6.39874">
        <ele>951.36</ele>
        <time>2009-08-01T15:22:01Z</time>
      </trkpt>
      <trkpt lat="45.24264" lon="6.39883">
        <ele>946.56</ele>
        <time>2009-08-01T15:22:06Z</time>
      </trkpt>
      <trkpt lat="45.24271" lon="6.39886">
        <ele>943.19</ele>
        <time>2009-08-01T15:22:11Z</time>
      </trkpt>
      <trkpt lat="45.24271" lon="6.39888">
        <ele>942.71</ele>
        <time>2009-08-01T15:22:12Z</time>
      </trkpt>
      <trkpt lat="45.2427" lon="6.39896">
        <ele>940.31</ele>
        <time>2009-08-01T15:22:17Z</time>
      </trkpt>
      <trkpt lat="45.24275" lon="6.39893">
        <ele>939.83</ele>
        <time>2009-08-01T15:22:18Z</time>
      </trkpt>
      <trkpt lat="45.24272" lon="6.39896">
        <ele>938.86</ele>
        <time>2009-08-01T15:22:22Z</time>
      </trkpt>
      <trkpt lat="45.24275" lon="6.39909">
        <ele>935.98</ele>
        <time>2009-08-01T15:22:26Z</time>
      </trkpt>
      <trkpt lat="45.24277" lon="6.39915">
        <ele>933.58</ele>
        <time>2009-08-01T15:22:29Z</time>
      </trkpt>
      <trkpt lat="45.24286" lon="6.39908">
        <ele>930.21</ele>
        <time>2009-08-01T15:22:35Z</time>
      </trkpt>
      <trkpt lat="45.24288" lon="6.39905">
        <ele>928.29</ele>
        <time>2009-08-01T15:22:38Z</time>
      </trkpt>
      <trkpt lat="45.2429" lon="6.3991">
        <ele>927.81</ele>
        <time>2009-08-01T15:22:40Z</time>
      </trkpt>
      <trkpt lat="45.24289" lon="6.39914">
        <ele>926.85</ele>
        <time>2009-08-01T15:22:42Z</time>
      </trkpt>
      <trkpt lat="45.24295" lon="6.39911">
        <ele>924.45</ele>
        <time>2009-08-01T15:22:47Z</time>
      </trkpt>
      <trkpt lat="45.24291" lon="6.39921">
        <ele>921.56</ele>
        <time>2009-08-01T15:22:53Z</time>
      </trkpt>
      <trkpt lat="45.24291" lon="6.39921">
        <ele>921.08</ele>
        <time>2009-08-01T15:22:55Z</time>
      </trkpt>
      <trkpt lat="45.24301" lon="6.3991">
        <ele>919.16</ele>
        <time>2009-08-01T15:22:59Z</time>
      </trkpt>
      <trkpt lat="45.24299" lon="6.39894">
        <ele>913.87</ele>
        <time>2009-08-01T15:23:03Z</time>
      </trkpt>
      <trkpt lat="45.24302" lon="6.39892">
        <ele>913.87</ele>
        <time>2009-08-01T15:23:04Z</time>
      </trkpt>
      <trkpt lat="45.24302" lon="6.39891">
        <ele>912.91</ele>
        <time>2009-08-01T15:23:05Z</time>
      </trkpt>
      <trkpt lat="45.2431" lon="6.39901">
        <ele>908.1</ele>
        <time>2009-08-01T15:23:09Z</time>
      </trkpt>
      <trkpt lat="45.24316" lon="6.39917">
        <ele>904.74</ele>
        <time>2009-08-01T15:23:12Z</time>
      </trkpt>
      <trkpt lat="45.24318" lon="6.39923">
        <ele>901.85</ele>
        <time>2009-08-01T15:23:14Z</time>
      </trkpt>
      <trkpt lat="45.24321" lon="6.3992">
        <ele>900.41</ele>
        <time>2009-08-01T15:23:16Z</time>
      </trkpt>
      <trkpt lat="45.24323" lon="6.39923">
        <ele>898.01</ele>
        <time>2009-08-01T15:23:20Z</time>
      </trkpt>
      <trkpt lat="45.24327" lon="6.3993">
        <ele>897.05</ele>
        <time>2009-08-01T15:23:22Z</time>
      </trkpt>
      <trkpt lat="45.24332" lon="6.39918">
        <ele>893.2</ele>
        <time>2009-08-01T15:23:27Z</time>
      </trkpt>
      <trkpt lat="45.24335" lon="6.39928">
        <ele>890.32</ele>
        <time>2009-08-01T15:23:30Z</time>
      </trkpt>
      <trkpt lat="45.24336" lon="6.39932">
        <ele>886.95</ele>
        <time>2009-08-01T15:23:31Z</time>
      </trkpt>
      <trkpt lat="45.24342" lon="6.39942">
        <ele>885.03</ele>
        <time>2009-08-01T15:23:34Z</time>
      </trkpt>
      <trkpt lat="45.24345" lon="6.39928">
        <ele>881.19</ele>
        <time>2009-08-01T15:23:40Z</time>
      </trkpt>
      <trkpt lat="45.24345" lon="6.39931">
        <ele>880.22</ele>
        <time>2009-08-01T15:23:41Z</time>
      </trkpt>
      <trkpt lat="45.24348" lon="6.3994">
        <ele>879.26</ele>
        <time>2009-08-01T15:23:43Z</time>
      </trkpt>
      <trkpt lat="45.2435" lon="6.39943">
        <ele>878.78</ele>
        <time>2009-08-01T15:23:44Z</time>
      </trkpt>
      <trkpt lat="45.24354" lon="6.39945">
        <ele>876.38</ele>
        <time>2009-08-01T15:23:48Z</time>
      </trkpt>
      <trkpt lat="45.24356" lon="6.39938">
        <ele>874.46</ele>
        <time>2009-08-01T15:23:51Z</time>
      </trkpt>
      <trkpt lat="45.24356" lon="6.39938">
        <ele>873.98</ele>
        <time>2009-08-01T15:23:52Z</time>
      </trkpt>
      <trkpt lat="45.24357" lon="6.39944">
        <ele>873.01</ele>
        <time>2009-08-01T15:23:54Z</time>
      </trkpt>
      <trkpt lat="45.24359" lon="6.39958">
        <ele>869.17</ele>
        <time>2009-08-01T15:23:58Z</time>
      </trkpt>
      <trkpt lat="45.24361" lon="6.39956">
        <ele>869.17</ele>
        <time>2009-08-01T15:23:59Z</time>
      </trkpt>
      <trkpt lat="45.2436" lon="6.39958">
        <ele>866.77</ele>
        <time>2009-08-01T15:24:50Z</time>
      </trkpt>
      <trkpt lat="45.2436" lon="6.39958">
        <ele>869.17</ele>
        <time>2009-08-01T15:24:52Z</time>
      </trkpt>
      <trkpt lat="45.2436" lon="6.39958">
        <ele>866.77</ele>
        <time>2009-08-01T15:25:06Z</time>
      </trkpt>
      <trkpt lat="45.24361" lon="6.39956">
        <ele>867.73</ele>
        <time>2009-08-01T15:26:07Z</time>
      </trkpt>
      <trkpt lat="45.24361" lon="6.39954">
        <ele>866.29</ele>
        <time>2009-08-01T15:26:12Z</time>
      </trkpt>
      <trkpt lat="45.24362" lon="6.39957">
        <ele>865.32</ele>
        <time>2009-08-01T15:26:15Z</time>
      </trkpt>
      <trkpt lat="45.2437" lon="6.39946">
        <ele>861</ele>
        <time>2009-08-01T15:26:20Z</time>
      </trkpt>
      <trkpt lat="45.24373" lon="6.39943">
        <ele>860.52</ele>
        <time>2009-08-01T15:26:22Z</time>
      </trkpt>
      <trkpt lat="45.24375" lon="6.39967">
        <ele>856.67</ele>
        <time>2009-08-01T15:26:28Z</time>
      </trkpt>
      <trkpt lat="45.2438" lon="6.39964">
        <ele>855.23</ele>
        <time>2009-08-01T15:26:31Z</time>
      </trkpt>
      <trkpt lat="45.24385" lon="6.39951">
        <ele>851.38</ele>
        <time>2009-08-01T15:26:37Z</time>
      </trkpt>
      <trkpt lat="45.24384" lon="6.39951">
        <ele>850.9</ele>
        <time>2009-08-01T15:26:39Z</time>
      </trkpt>
      <trkpt lat="45.24383" lon="6.39964">
        <ele>847.54</ele>
        <time>2009-08-01T15:26:44Z</time>
      </trkpt>
      <trkpt lat="45.24383" lon="6.39966">
        <ele>847.54</ele>
        <time>2009-08-01T15:26:45Z</time>
      </trkpt>
      <trkpt lat="45.24383" lon="6.39968">
        <ele>847.06</ele>
        <time>2009-08-01T15:26:47Z</time>
      </trkpt>
      <trkpt lat="45.24384" lon="6.39966">
        <ele>845.62</ele>
        <time>2009-08-01T15:26:52Z</time>
      </trkpt>
      <trkpt lat="45.24388" lon="6.39987">
        <ele>841.77</ele>
        <time>2009-08-01T15:26:58Z</time>
      </trkpt>
      <trkpt lat="45.24387" lon="6.3999">
        <ele>840.81</ele>
        <time>2009-08-01T15:26:59Z</time>
      </trkpt>
      <trkpt lat="45.24395" lon="6.4001">
        <ele>836.48</ele>
        <time>2009-08-01T15:27:04Z</time>
      </trkpt>
      <trkpt lat="45.24401" lon="6.4002">
        <ele>833.12</ele>
        <time>2009-08-01T15:27:09Z</time>
      </trkpt>
      <trkpt lat="45.24401" lon="6.40019">
        <ele>833.12</ele>
        <time>2009-08-01T15:27:10Z</time>
      </trkpt>
      <trkpt lat="45.24402" lon="6.40008">
        <ele>831.2</ele>
        <time>2009-08-01T15:27:16Z</time>
      </trkpt>
      <trkpt lat="45.24413" lon="6.4002">
        <ele>826.87</ele>
        <time>2009-08-01T15:27:21Z</time>
      </trkpt>
      <trkpt lat="45.24415" lon="6.40025">
        <ele>824.95</ele>
        <time>2009-08-01T15:27:24Z</time>
      </trkpt>
      <trkpt lat="45.24414" lon="6.40016">
        <ele>823.51</ele>
        <time>2009-08-01T15:27:28Z</time>
      </trkpt>
      <trkpt lat="45.24416" lon="6.40028">
        <ele>821.1</ele>
        <time>2009-08-01T15:27:31Z</time>
      </trkpt>
      <trkpt lat="45.24417" lon="6.40035">
        <ele>820.62</ele>
        <time>2009-08-01T15:27:32Z</time>
      </trkpt>
      <trkpt lat="45.2442" lon="6.40039">
        <ele>819.66</ele>
        <time>2009-08-01T15:27:33Z</time>
      </trkpt>
      <trkpt lat="45.24422" lon="6.40041">
        <ele>818.22</ele>
        <time>2009-08-01T15:27:35Z</time>
      </trkpt>
      <trkpt lat="45.24424" lon="6.40038">
        <ele>817.26</ele>
        <time>2009-08-01T15:27:36Z</time>
      </trkpt>
      <trkpt lat="45.24427" lon="6.40035">
        <ele>816.3</ele>
        <time>2009-08-01T15:27:38Z</time>
      </trkpt>
      <trkpt lat="45.24428" lon="6.40029">
        <ele>815.34</ele>
        <time>2009-08-01T15:27:58Z</time>
      </trkpt>
      <trkpt lat="45.24429" lon="6.40024">
        <ele>814.37</ele>
        <time>2009-08-01T15:27:59Z</time>
      </trkpt>
      <trkpt lat="45.24429" lon="6.40021">
        <ele>814.37</ele>
        <time>2009-08-01T15:28:00Z</time>
      </trkpt>
      <trkpt lat="45.2443" lon="6.4002">
        <ele>812.93</ele>
        <time>2009-08-01T15:28:04Z</time>
      </trkpt>
      <trkpt lat="45.24437" lon="6.40034">
        <ele>811.01</ele>
        <time>2009-08-01T15:28:08Z</time>
      </trkpt>
      <trkpt lat="45.24441" lon="6.40043">
        <ele>808.61</ele>
        <time>2009-08-01T15:28:12Z</time>
      </trkpt>
      <trkpt lat="45.24443" lon="6.40041">
        <ele>807.64</ele>
        <time>2009-08-01T15:28:13Z</time>
      </trkpt>
      <trkpt lat="45.24444" lon="6.40039">
        <ele>807.64</ele>
        <time>2009-08-01T15:28:14Z</time>
      </trkpt>
      <trkpt lat="45.24445" lon="6.40036">
        <ele>807.16</ele>
        <time>2009-08-01T15:28:15Z</time>
      </trkpt>
      <trkpt lat="45.24445" lon="6.40032">
        <ele>806.2</ele>
        <time>2009-08-01T15:28:16Z</time>
      </trkpt>
      <trkpt lat="45.24446" lon="6.40026">
        <ele>805.72</ele>
        <time>2009-08-01T15:28:17Z</time>
      </trkpt>
      <trkpt lat="45.24447" lon="6.40021">
        <ele>805.24</ele>
        <time>2009-08-01T15:28:18Z</time>
      </trkpt>
      <trkpt lat="45.24449" lon="6.40016">
        <ele>803.8</ele>
        <time>2009-08-01T15:28:19Z</time>
      </trkpt>
      <trkpt lat="45.2445" lon="6.40011">
        <ele>801.4</ele>
        <time>2009-08-01T15:28:24Z</time>
      </trkpt>
      <trkpt lat="45.24455" lon="6.40028">
        <ele>798.03</ele>
        <time>2009-08-01T15:28:28Z</time>
      </trkpt>
      <trkpt lat="45.24462" lon="6.40039">
        <ele>794.67</ele>
        <time>2009-08-01T15:28:31Z</time>
      </trkpt>
      <trkpt lat="45.24464" lon="6.40042">
        <ele>793.71</ele>
        <time>2009-08-01T15:28:32Z</time>
      </trkpt>
      <trkpt lat="45.24464" lon="6.40042">
        <ele>791.78</ele>
        <time>2009-08-01T15:28:35Z</time>
      </trkpt>
      <trkpt lat="45.24466" lon="6.40045">
        <ele>792.74</ele>
        <time>2009-08-01T15:28:43Z</time>
      </trkpt>
      <trkpt lat="45.24466" lon="6.40036">
        <ele>793.22</ele>
        <time>2009-08-01T15:28:49Z</time>
      </trkpt>
      <trkpt lat="45.2447" lon="6.40018">
        <ele>791.78</ele>
        <time>2009-08-01T15:28:54Z</time>
      </trkpt>
      <trkpt lat="45.2447" lon="6.40011">
        <ele>790.82</ele>
        <time>2009-08-01T15:29:03Z</time>
      </trkpt>
      <trkpt lat="45.2447" lon="6.40046">
        <ele>786.5</ele>
        <time>2009-08-01T15:29:10Z</time>
      </trkpt>
      <trkpt lat="45.24473" lon="6.40052">
        <ele>786.02</ele>
        <time>2009-08-01T15:29:12Z</time>
      </trkpt>
      <trkpt lat="45.24478" lon="6.40047">
        <ele>782.65</ele>
        <time>2009-08-01T15:29:16Z</time>
      </trkpt>
      <trkpt lat="45.24478" lon="6.40047">
        <ele>783.13</ele>
        <time>2009-08-01T15:29:20Z</time>
      </trkpt>
      <trkpt lat="45.24478" lon="6.40047">
        <ele>786.5</ele>
        <time>2009-08-01T15:29:21Z</time>
      </trkpt>
      <trkpt lat="45.24478" lon="6.40047">
        <ele>784.09</ele>
        <time>2009-08-01T15:29:27Z</time>
      </trkpt>
      <trkpt lat="45.24478" lon="6.40047">
        <ele>787.46</ele>
        <time>2009-08-01T15:29:28Z</time>
      </trkpt>
      <trkpt lat="45.24478" lon="6.40047">
        <ele>786.02</ele>
        <time>2009-08-01T15:29:29Z</time>
      </trkpt>
      <trkpt lat="45.24479" lon="6.40046">
        <ele>786.5</ele>
        <time>2009-08-01T15:29:51Z</time>
      </trkpt>
      <trkpt lat="45.24474" lon="6.40045">
        <ele>786.98</ele>
        <time>2009-08-01T15:30:06Z</time>
      </trkpt>
      <trkpt lat="45.24471" lon="6.40028">
        <ele>789.38</ele>
        <time>2009-08-01T15:30:18Z</time>
      </trkpt>
      <trkpt lat="45.24467" lon="6.40019">
        <ele>792.26</ele>
        <time>2009-08-01T15:30:31Z</time>
      </trkpt>
      <trkpt lat="45.24467" lon="6.40019">
        <ele>788.42</ele>
        <time>2009-08-01T15:30:57Z</time>
      </trkpt>
      <trkpt lat="45.24467" lon="6.40019">
        <ele>791.78</ele>
        <time>2009-08-01T15:31:08Z</time>
      </trkpt>
      <trkpt lat="45.24467" lon="6.40019">
        <ele>788.42</ele>
        <time>2009-08-01T15:31:18Z</time>
      </trkpt>
      <trkpt lat="45.24467" lon="6.40019">
        <ele>791.3</ele>
        <time>2009-08-01T15:31:22Z</time>
      </trkpt>
      <trkpt lat="45.24467" lon="6.40019">
        <ele>787.94</ele>
        <time>2009-08-01T15:31:23Z</time>
      </trkpt>
      <trkpt lat="45.24467" lon="6.40019">
        <ele>791.3</ele>
        <time>2009-08-01T15:31:24Z</time>
      </trkpt>
      <trkpt lat="45.24467" lon="6.40019">
        <ele>792.26</ele>
        <time>2009-08-01T15:31:26Z</time>
      </trkpt>
      <trkpt lat="45.24467" lon="6.40019">
        <ele>788.9</ele>
        <time>2009-08-01T15:31:27Z</time>
      </trkpt>
      <trkpt lat="45.24467" lon="6.40019">
        <ele>793.22</ele>
        <time>2009-08-01T15:31:31Z</time>
      </trkpt>
      <trkpt lat="45.24467" lon="6.40019">
        <ele>790.34</ele>
        <time>2009-08-01T15:31:33Z</time>
      </trkpt>
      <trkpt lat="45.24467" lon="6.40019">
        <ele>793.22</ele>
        <time>2009-08-01T15:31:49Z</time>
      </trkpt>
      <trkpt lat="45.24472" lon="6.40008">
        <ele>791.78</ele>
        <time>2009-08-01T15:33:36Z</time>
      </trkpt>
      <trkpt lat="45.24482" lon="6.39995">
        <ele>788.9</ele>
        <time>2009-08-01T15:33:42Z</time>
      </trkpt>
      <trkpt lat="45.24479" lon="6.39992">
        <ele>788.9</ele>
        <time>2009-08-01T15:33:44Z</time>
      </trkpt>
      <trkpt lat="45.24475" lon="6.39979">
        <ele>786.02</ele>
        <time>2009-08-01T15:33:49Z</time>
      </trkpt>
      <trkpt lat="45.24476" lon="6.39975">
        <ele>785.53</ele>
        <time>2009-08-01T15:33:50Z</time>
      </trkpt>
      <trkpt lat="45.24475" lon="6.39967">
        <ele>783.13</ele>
        <time>2009-08-01T15:33:54Z</time>
      </trkpt>
      <trkpt lat="45.24477" lon="6.39965">
        <ele>781.69</ele>
        <time>2009-08-01T15:33:57Z</time>
      </trkpt>
      <trkpt lat="45.24478" lon="6.39965">
        <ele>781.21</ele>
        <time>2009-08-01T15:33:58Z</time>
      </trkpt>
      <trkpt lat="45.24492" lon="6.3996">
        <ele>776.88</ele>
        <time>2009-08-01T15:34:04Z</time>
      </trkpt>
      <trkpt lat="45.24499" lon="6.39959">
        <ele>774.48</ele>
        <time>2009-08-01T15:34:06Z</time>
      </trkpt>
      <trkpt lat="45.24515" lon="6.39958">
        <ele>772.08</ele>
        <time>2009-08-01T15:34:12Z</time>
      </trkpt>
      <trkpt lat="45.24537" lon="6.39958">
        <ele>767.75</ele>
        <time>2009-08-01T15:34:17Z</time>
      </trkpt>
      <trkpt lat="45.24542" lon="6.39958">
        <ele>767.27</ele>
        <time>2009-08-01T15:34:18Z</time>
      </trkpt>
      <trkpt lat="45.24556" lon="6.39954">
        <ele>764.39</ele>
        <time>2009-08-01T15:34:22Z</time>
      </trkpt>
      <trkpt lat="45.24555" lon="6.39947">
        <ele>761.5</ele>
        <time>2009-08-01T15:34:26Z</time>
      </trkpt>
      <trkpt lat="45.2455" lon="6.39945">
        <ele>759.58</ele>
        <time>2009-08-01T15:34:30Z</time>
      </trkpt>
      <trkpt lat="45.24546" lon="6.39942">
        <ele>758.14</ele>
        <time>2009-08-01T15:34:32Z</time>
      </trkpt>
      <trkpt lat="45.24542" lon="6.39938">
        <ele>757.18</ele>
        <time>2009-08-01T15:34:33Z</time>
      </trkpt>
      <trkpt lat="45.2454" lon="6.39934">
        <ele>757.18</ele>
        <time>2009-08-01T15:34:40Z</time>
      </trkpt>
      <trkpt lat="45.24542" lon="6.39933">
        <ele>755.73</ele>
        <time>2009-08-01T15:34:51Z</time>
      </trkpt>
      <trkpt lat="45.24544" lon="6.39931">
        <ele>754.29</ele>
        <time>2009-08-01T15:34:52Z</time>
      </trkpt>
      <trkpt lat="45.24547" lon="6.39929">
        <ele>753.81</ele>
        <time>2009-08-01T15:34:53Z</time>
      </trkpt>
      <trkpt lat="45.2455" lon="6.39927">
        <ele>752.85</ele>
        <time>2009-08-01T15:34:54Z</time>
      </trkpt>
      <trkpt lat="45.24555" lon="6.39925">
        <ele>751.89</ele>
        <time>2009-08-01T15:34:55Z</time>
      </trkpt>
      <trkpt lat="45.24565" lon="6.39921">
        <ele>749</ele>
        <time>2009-08-01T15:34:57Z</time>
      </trkpt>
      <trkpt lat="45.2458" lon="6.39913">
        <ele>745.16</ele>
        <time>2009-08-01T15:35:00Z</time>
      </trkpt>
      <trkpt lat="45.24589" lon="6.39906">
        <ele>741.79</ele>
        <time>2009-08-01T15:35:02Z</time>
      </trkpt>
      <trkpt lat="45.24595" lon="6.39902">
        <ele>739.87</ele>
        <time>2009-08-01T15:35:03Z</time>
      </trkpt>
      <trkpt lat="45.24612" lon="6.39892">
        <ele>735.55</ele>
        <time>2009-08-01T15:35:06Z</time>
      </trkpt>
      <trkpt lat="45.2462" lon="6.39886">
        <ele>732.66</ele>
        <time>2009-08-01T15:35:08Z</time>
      </trkpt>
      <trkpt lat="45.24639" lon="6.39875">
        <ele>727.86</ele>
        <time>2009-08-01T15:35:12Z</time>
      </trkpt>
      <trkpt lat="45.24655" lon="6.3985">
        <ele>723.53</ele>
        <time>2009-08-01T15:35:15Z</time>
      </trkpt>
      <trkpt lat="45.24676" lon="6.39829">
        <ele>719.2</ele>
        <time>2009-08-01T15:35:19Z</time>
      </trkpt>
      <trkpt lat="45.2468" lon="6.39825">
        <ele>718.24</ele>
        <time>2009-08-01T15:35:20Z</time>
      </trkpt>
      <trkpt lat="45.24692" lon="6.3981">
        <ele>716.8</ele>
        <time>2009-08-01T15:35:23Z</time>
      </trkpt>
      <trkpt lat="45.24704" lon="6.39788">
        <ele>713.92</ele>
        <time>2009-08-01T15:35:30Z</time>
      </trkpt>
      <trkpt lat="45.24704" lon="6.39792">
        <ele>713.92</ele>
        <time>2009-08-01T15:35:31Z</time>
      </trkpt>
      <trkpt lat="45.24703" lon="6.39799">
        <ele>713.92</ele>
        <time>2009-08-01T15:35:43Z</time>
      </trkpt>
      <trkpt lat="45.24702" lon="6.398">
        <ele>712.95</ele>
        <time>2009-08-01T15:36:06Z</time>
      </trkpt>
    </trkseg>
  </trk>
</gpx>